<?xml version="1.0" encoding="UTF-8"?><gpx version="1.1" creator="Relive" xmlns="http://www.topografix.com/GPX/1/1" xmlns:xsi="http://www.w3.org/2001/XMLSchema-instance" xsi:schemaLocation="http://www.topografix.com/GPX/1/1 http://www.topografix.com/GPX/1/1/gpx.xsd http://www.garmin.com/xmlschemas/TrackPointExtension/v1 http://www.garmin.com/xmlschemas/TrackPointExtensionv1.xsd http://www.garmin.com/xmlschemas/GpxExtensions/v3 http://www.garmin.com/xmlschemas/GpxExtensionsv3.xsd" xmlns:gpxtpx="http://www.garmin.com/xmlschemas/TrackPointExtension/v1" xmlns:gpxx="http://www.garmin.com/xmlschemas/GpxExtensions/v3"><metadata><time>2021-07-26T08:58:39.000Z</time><name>Laugavegur - da Alftavatn e Emstrur</name></metadata><trk><trkseg><trkpt lat="63.857522" lon="-19.226861"><time>2021-07-26T08:58:39.000Z</time><ele>557.4</ele></trkpt><trkpt lat="63.857524" lon="-19.226841"><time>2021-07-26T08:58:40.000Z</time><ele>557.4</ele></trkpt><trkpt lat="63.857537" lon="-19.226655"><time>2021-07-26T08:58:48.000Z</time><ele>556.8</ele></trkpt><trkpt lat="63.857516" lon="-19.226538"><time>2021-07-26T08:58:56.000Z</time><ele>557.2</ele></trkpt><trkpt lat="63.857511" lon="-19.226423"><time>2021-07-26T08:59:06.000Z</time><ele>557</ele></trkpt><trkpt lat="63.857493" lon="-19.226303"><time>2021-07-26T08:59:11.000Z</time><ele>557.2</ele></trkpt><trkpt lat="63.857484" lon="-19.226228"><time>2021-07-26T08:59:14.000Z</time><ele>557</ele></trkpt><trkpt lat="63.857445" lon="-19.225961"><time>2021-07-26T08:59:26.000Z</time><ele>557</ele></trkpt><trkpt lat="63.857404" lon="-19.225602"><time>2021-07-26T08:59:41.000Z</time><ele>557</ele></trkpt><trkpt lat="63.857392" lon="-19.225473"><time>2021-07-26T08:59:46.000Z</time><ele>556.8</ele></trkpt><trkpt lat="63.857367" lon="-19.225304"><time>2021-07-26T08:59:53.000Z</time><ele>556.8</ele></trkpt><trkpt lat="63.857347" lon="-19.225176"><time>2021-07-26T08:59:58.000Z</time><ele>556.6</ele></trkpt><trkpt lat="63.857324" lon="-19.224975"><time>2021-07-26T09:00:06.000Z</time><ele>556.8</ele></trkpt><trkpt lat="63.857284" lon="-19.224715"><time>2021-07-26T09:00:17.000Z</time><ele>556.6</ele></trkpt><trkpt lat="63.857259" lon="-19.224634"><time>2021-07-26T09:00:21.000Z</time><ele>556.4</ele></trkpt><trkpt lat="63.857243" lon="-19.224532"><time>2021-07-26T09:00:26.000Z</time><ele>556.2</ele></trkpt><trkpt lat="63.857237" lon="-19.224464"><time>2021-07-26T09:00:30.000Z</time><ele>556.2</ele></trkpt><trkpt lat="63.857213" lon="-19.224379"><time>2021-07-26T09:00:34.000Z</time><ele>556</ele></trkpt><trkpt lat="63.857184" lon="-19.22428"><time>2021-07-26T09:00:39.000Z</time><ele>555.2</ele></trkpt><trkpt lat="63.857157" lon="-19.224188"><time>2021-07-26T09:00:44.000Z</time><ele>555</ele></trkpt><trkpt lat="63.857118" lon="-19.224043"><time>2021-07-26T09:00:51.000Z</time><ele>554.2</ele></trkpt><trkpt lat="63.857107" lon="-19.223999"><time>2021-07-26T09:00:53.000Z</time><ele>554</ele></trkpt><trkpt lat="63.857093" lon="-19.223915"><time>2021-07-26T09:00:57.000Z</time><ele>553.6</ele></trkpt><trkpt lat="63.857089" lon="-19.223889"><time>2021-07-26T09:00:58.000Z</time><ele>553.6</ele></trkpt><trkpt lat="63.857083" lon="-19.223841"><time>2021-07-26T09:01:00.000Z</time><ele>553.4</ele></trkpt><trkpt lat="63.857063" lon="-19.223776"><time>2021-07-26T09:01:03.000Z</time><ele>553.2</ele></trkpt><trkpt lat="63.857037" lon="-19.223667"><time>2021-07-26T09:01:08.000Z</time><ele>553.2</ele></trkpt><trkpt lat="63.857017" lon="-19.223612"><time>2021-07-26T09:01:11.000Z</time><ele>553</ele></trkpt><trkpt lat="63.856983" lon="-19.223388"><time>2021-07-26T09:01:20.000Z</time><ele>552.6</ele></trkpt><trkpt lat="63.85699" lon="-19.223156"><time>2021-07-26T09:01:29.000Z</time><ele>552.6</ele></trkpt><trkpt lat="63.856994" lon="-19.223137"><time>2021-07-26T09:01:30.000Z</time><ele>552.6</ele></trkpt><trkpt lat="63.857006" lon="-19.222901"><time>2021-07-26T09:01:39.000Z</time><ele>552.4</ele></trkpt><trkpt lat="63.856995" lon="-19.22263"><time>2021-07-26T09:01:51.000Z</time><ele>552.4</ele></trkpt><trkpt lat="63.856991" lon="-19.222605"><time>2021-07-26T09:01:52.000Z</time><ele>552.4</ele></trkpt><trkpt lat="63.856986" lon="-19.222583"><time>2021-07-26T09:01:53.000Z</time><ele>552</ele></trkpt><trkpt lat="63.856981" lon="-19.222497"><time>2021-07-26T09:01:57.000Z</time><ele>551.6</ele></trkpt><trkpt lat="63.856981" lon="-19.222472"><time>2021-07-26T09:01:58.000Z</time><ele>551.6</ele></trkpt><trkpt lat="63.856977" lon="-19.222432"><time>2021-07-26T09:02:01.000Z</time><ele>551.6</ele></trkpt><trkpt lat="63.85697" lon="-19.222386"><time>2021-07-26T09:02:08.000Z</time><ele>551.4</ele></trkpt><trkpt lat="63.856969" lon="-19.222382"><time>2021-07-26T09:02:09.000Z</time><ele>551.4</ele></trkpt><trkpt lat="63.856955" lon="-19.222379"><time>2021-07-26T09:02:19.000Z</time><ele>552</ele></trkpt><trkpt lat="63.856955" lon="-19.222379"><time>2021-07-26T09:02:20.000Z</time><ele>552</ele></trkpt><trkpt lat="63.856955" lon="-19.222379"><time>2021-07-26T09:02:22.000Z</time><ele>552</ele></trkpt><trkpt lat="63.856967" lon="-19.222387"><time>2021-07-26T09:02:30.000Z</time><ele>552</ele></trkpt><trkpt lat="63.85697" lon="-19.222398"><time>2021-07-26T09:02:35.000Z</time><ele>552</ele></trkpt><trkpt lat="63.856983" lon="-19.222415"><time>2021-07-26T09:02:42.000Z</time><ele>552</ele></trkpt><trkpt lat="63.856986" lon="-19.222423"><time>2021-07-26T09:02:54.000Z</time><ele>552</ele></trkpt><trkpt lat="63.856986" lon="-19.222424"><time>2021-07-26T09:03:03.000Z</time><ele>551</ele></trkpt><trkpt lat="63.856974" lon="-19.222308"><time>2021-07-26T09:03:11.000Z</time><ele>551.4</ele></trkpt><trkpt lat="63.856959" lon="-19.222163"><time>2021-07-26T09:03:15.000Z</time><ele>549.8</ele></trkpt><trkpt lat="63.856919" lon="-19.222081"><time>2021-07-26T09:03:20.000Z</time><ele>549.8</ele></trkpt><trkpt lat="63.856901" lon="-19.222065"><time>2021-07-26T09:03:26.000Z</time><ele>550</ele></trkpt><trkpt lat="63.856858" lon="-19.221971"><time>2021-07-26T09:03:33.000Z</time><ele>549.8</ele></trkpt><trkpt lat="63.856838" lon="-19.22185"><time>2021-07-26T09:03:43.000Z</time><ele>550.4</ele></trkpt><trkpt lat="63.856841" lon="-19.221845"><time>2021-07-26T09:03:51.000Z</time><ele>550.8</ele></trkpt><trkpt lat="63.85684" lon="-19.221847"><time>2021-07-26T09:03:58.000Z</time><ele>550.8</ele></trkpt><trkpt lat="63.856878" lon="-19.221783"><time>2021-07-26T09:04:03.000Z</time><ele>550.6</ele></trkpt><trkpt lat="63.856939" lon="-19.221696"><time>2021-07-26T09:04:08.000Z</time><ele>551</ele></trkpt><trkpt lat="63.856962" lon="-19.221687"><time>2021-07-26T09:04:10.000Z</time><ele>551</ele></trkpt><trkpt lat="63.857004" lon="-19.221542"><time>2021-07-26T09:04:18.000Z</time><ele>550.8</ele></trkpt><trkpt lat="63.857033" lon="-19.221452"><time>2021-07-26T09:04:23.000Z</time><ele>551</ele></trkpt><trkpt lat="63.85705" lon="-19.221449"><time>2021-07-26T09:04:26.000Z</time><ele>551.2</ele></trkpt><trkpt lat="63.857052" lon="-19.221452"><time>2021-07-26T09:04:27.000Z</time><ele>551.2</ele></trkpt><trkpt lat="63.857059" lon="-19.221468"><time>2021-07-26T09:04:34.000Z</time><ele>551.2</ele></trkpt><trkpt lat="63.857057" lon="-19.221466"><time>2021-07-26T09:04:46.000Z</time><ele>551.2</ele></trkpt><trkpt lat="63.857053" lon="-19.221469"><time>2021-07-26T09:05:01.000Z</time><ele>551.2</ele></trkpt><trkpt lat="63.857055" lon="-19.221426"><time>2021-07-26T09:05:16.000Z</time><ele>551</ele></trkpt><trkpt lat="63.857065" lon="-19.221371"><time>2021-07-26T09:05:17.000Z</time><ele>551</ele></trkpt><trkpt lat="63.85707" lon="-19.221351"><time>2021-07-26T09:05:18.000Z</time><ele>551.8</ele></trkpt><trkpt lat="63.857076" lon="-19.221325"><time>2021-07-26T09:05:19.000Z</time><ele>552.2</ele></trkpt><trkpt lat="63.857074" lon="-19.221273"><time>2021-07-26T09:05:21.000Z</time><ele>552.8</ele></trkpt><trkpt lat="63.85708" lon="-19.221216"><time>2021-07-26T09:05:23.000Z</time><ele>553.2</ele></trkpt><trkpt lat="63.857081" lon="-19.221196"><time>2021-07-26T09:05:24.000Z</time><ele>553.2</ele></trkpt><trkpt lat="63.857086" lon="-19.221155"><time>2021-07-26T09:05:26.000Z</time><ele>553.6</ele></trkpt><trkpt lat="63.857091" lon="-19.221112"><time>2021-07-26T09:05:29.000Z</time><ele>554</ele></trkpt><trkpt lat="63.857098" lon="-19.221044"><time>2021-07-26T09:05:31.000Z</time><ele>554.2</ele></trkpt><trkpt lat="63.857104" lon="-19.221007"><time>2021-07-26T09:05:33.000Z</time><ele>554.2</ele></trkpt><trkpt lat="63.857126" lon="-19.220921"><time>2021-07-26T09:05:38.000Z</time><ele>554.8</ele></trkpt><trkpt lat="63.857146" lon="-19.22084"><time>2021-07-26T09:05:42.000Z</time><ele>555.4</ele></trkpt><trkpt lat="63.857172" lon="-19.220691"><time>2021-07-26T09:05:49.000Z</time><ele>556</ele></trkpt><trkpt lat="63.857182" lon="-19.220627"><time>2021-07-26T09:05:52.000Z</time><ele>556.4</ele></trkpt><trkpt lat="63.857199" lon="-19.220543"><time>2021-07-26T09:05:56.000Z</time><ele>556.8</ele></trkpt><trkpt lat="63.85721" lon="-19.220503"><time>2021-07-26T09:05:58.000Z</time><ele>557.2</ele></trkpt><trkpt lat="63.857213" lon="-19.220489"><time>2021-07-26T09:05:59.000Z</time><ele>557.4</ele></trkpt><trkpt lat="63.85722" lon="-19.220411"><time>2021-07-26T09:06:03.000Z</time><ele>557.8</ele></trkpt><trkpt lat="63.857233" lon="-19.220305"><time>2021-07-26T09:06:08.000Z</time><ele>558.4</ele></trkpt><trkpt lat="63.857236" lon="-19.220289"><time>2021-07-26T09:06:09.000Z</time><ele>558.6</ele></trkpt><trkpt lat="63.857238" lon="-19.220146"><time>2021-07-26T09:06:16.000Z</time><ele>559.4</ele></trkpt><trkpt lat="63.85724" lon="-19.22008"><time>2021-07-26T09:06:19.000Z</time><ele>559.8</ele></trkpt><trkpt lat="63.857246" lon="-19.219949"><time>2021-07-26T09:06:25.000Z</time><ele>560.4</ele></trkpt><trkpt lat="63.857244" lon="-19.21987"><time>2021-07-26T09:06:29.000Z</time><ele>561.2</ele></trkpt><trkpt lat="63.857236" lon="-19.219833"><time>2021-07-26T09:06:31.000Z</time><ele>561.6</ele></trkpt><trkpt lat="63.857233" lon="-19.219814"><time>2021-07-26T09:06:32.000Z</time><ele>561.8</ele></trkpt><trkpt lat="63.857211" lon="-19.219737"><time>2021-07-26T09:06:37.000Z</time><ele>562.6</ele></trkpt><trkpt lat="63.857202" lon="-19.219711"><time>2021-07-26T09:06:39.000Z</time><ele>563</ele></trkpt><trkpt lat="63.857179" lon="-19.219655"><time>2021-07-26T09:06:43.000Z</time><ele>564</ele></trkpt><trkpt lat="63.857153" lon="-19.219601"><time>2021-07-26T09:06:49.000Z</time><ele>565</ele></trkpt><trkpt lat="63.857155" lon="-19.219598"><time>2021-07-26T09:06:50.000Z</time><ele>565</ele></trkpt><trkpt lat="63.857157" lon="-19.219598"><time>2021-07-26T09:06:52.000Z</time><ele>565.2</ele></trkpt><trkpt lat="63.857163" lon="-19.219598"><time>2021-07-26T09:06:55.000Z</time><ele>565.2</ele></trkpt><trkpt lat="63.857162" lon="-19.219596"><time>2021-07-26T09:06:56.000Z</time><ele>565.2</ele></trkpt><trkpt lat="63.857176" lon="-19.219613"><time>2021-07-26T09:07:02.000Z</time><ele>565.4</ele></trkpt><trkpt lat="63.857181" lon="-19.219609"><time>2021-07-26T09:07:11.000Z</time><ele>566</ele></trkpt><trkpt lat="63.857174" lon="-19.219606"><time>2021-07-26T09:07:22.000Z</time><ele>566</ele></trkpt><trkpt lat="63.857173" lon="-19.219605"><time>2021-07-26T09:07:24.000Z</time><ele>566</ele></trkpt><trkpt lat="63.857172" lon="-19.219605"><time>2021-07-26T09:07:26.000Z</time><ele>566</ele></trkpt><trkpt lat="63.857171" lon="-19.219606"><time>2021-07-26T09:07:29.000Z</time><ele>566</ele></trkpt><trkpt lat="63.857169" lon="-19.219605"><time>2021-07-26T09:07:35.000Z</time><ele>565.4</ele></trkpt><trkpt lat="63.857166" lon="-19.219604"><time>2021-07-26T09:07:45.000Z</time><ele>566</ele></trkpt><trkpt lat="63.857066" lon="-19.219475"><time>2021-07-26T09:08:02.000Z</time><ele>567</ele></trkpt><trkpt lat="63.857033" lon="-19.21944"><time>2021-07-26T09:08:04.000Z</time><ele>567.2</ele></trkpt><trkpt lat="63.856996" lon="-19.219418"><time>2021-07-26T09:08:06.000Z</time><ele>567.2</ele></trkpt><trkpt lat="63.856987" lon="-19.219412"><time>2021-07-26T09:08:07.000Z</time><ele>567.2</ele></trkpt><trkpt lat="63.856976" lon="-19.219404"><time>2021-07-26T09:08:08.000Z</time><ele>567.2</ele></trkpt><trkpt lat="63.856948" lon="-19.219381"><time>2021-07-26T09:08:11.000Z</time><ele>567.6</ele></trkpt><trkpt lat="63.856922" lon="-19.21937"><time>2021-07-26T09:08:14.000Z</time><ele>568</ele></trkpt><trkpt lat="63.856904" lon="-19.219357"><time>2021-07-26T09:08:16.000Z</time><ele>568.2</ele></trkpt><trkpt lat="63.856862" lon="-19.219345"><time>2021-07-26T09:08:20.000Z</time><ele>568.4</ele></trkpt><trkpt lat="63.856794" lon="-19.219302"><time>2021-07-26T09:08:28.000Z</time><ele>569</ele></trkpt><trkpt lat="63.856777" lon="-19.219279"><time>2021-07-26T09:08:30.000Z</time><ele>569.2</ele></trkpt><trkpt lat="63.85674" lon="-19.219263"><time>2021-07-26T09:08:34.000Z</time><ele>569.8</ele></trkpt><trkpt lat="63.856689" lon="-19.219231"><time>2021-07-26T09:08:40.000Z</time><ele>570.4</ele></trkpt><trkpt lat="63.856591" lon="-19.219196"><time>2021-07-26T09:08:50.000Z</time><ele>571.2</ele></trkpt><trkpt lat="63.856562" lon="-19.219182"><time>2021-07-26T09:08:53.000Z</time><ele>571.4</ele></trkpt><trkpt lat="63.856512" lon="-19.219141"><time>2021-07-26T09:09:00.000Z</time><ele>572</ele></trkpt><trkpt lat="63.856479" lon="-19.219117"><time>2021-07-26T09:09:04.000Z</time><ele>572.4</ele></trkpt><trkpt lat="63.856423" lon="-19.219081"><time>2021-07-26T09:09:10.000Z</time><ele>573.4</ele></trkpt><trkpt lat="63.856401" lon="-19.219061"><time>2021-07-26T09:09:13.000Z</time><ele>573.6</ele></trkpt><trkpt lat="63.85634" lon="-19.219055"><time>2021-07-26T09:09:20.000Z</time><ele>574.2</ele></trkpt><trkpt lat="63.856324" lon="-19.219042"><time>2021-07-26T09:09:23.000Z</time><ele>574.6</ele></trkpt><trkpt lat="63.856279" lon="-19.219036"><time>2021-07-26T09:09:28.000Z</time><ele>575.2</ele></trkpt><trkpt lat="63.856271" lon="-19.219037"><time>2021-07-26T09:09:29.000Z</time><ele>575.4</ele></trkpt><trkpt lat="63.856248" lon="-19.219042"><time>2021-07-26T09:09:31.000Z</time><ele>575.6</ele></trkpt><trkpt lat="63.856189" lon="-19.219012"><time>2021-07-26T09:09:39.000Z</time><ele>576.6</ele></trkpt><trkpt lat="63.856182" lon="-19.21901"><time>2021-07-26T09:09:40.000Z</time><ele>576.6</ele></trkpt><trkpt lat="63.856164" lon="-19.219007"><time>2021-07-26T09:09:42.000Z</time><ele>577</ele></trkpt><trkpt lat="63.856127" lon="-19.218971"><time>2021-07-26T09:09:47.000Z</time><ele>577.8</ele></trkpt><trkpt lat="63.856104" lon="-19.218952"><time>2021-07-26T09:09:50.000Z</time><ele>578.2</ele></trkpt><trkpt lat="63.85606" lon="-19.218928"><time>2021-07-26T09:09:55.000Z</time><ele>578.8</ele></trkpt><trkpt lat="63.856018" lon="-19.218879"><time>2021-07-26T09:10:00.000Z</time><ele>579.6</ele></trkpt><trkpt lat="63.856002" lon="-19.218855"><time>2021-07-26T09:10:02.000Z</time><ele>580</ele></trkpt><trkpt lat="63.855983" lon="-19.218822"><time>2021-07-26T09:10:05.000Z</time><ele>580.2</ele></trkpt><trkpt lat="63.855984" lon="-19.218803"><time>2021-07-26T09:10:08.000Z</time><ele>580.2</ele></trkpt><trkpt lat="63.855982" lon="-19.218805"><time>2021-07-26T09:10:12.000Z</time><ele>580.2</ele></trkpt><trkpt lat="63.85599" lon="-19.218788"><time>2021-07-26T09:10:17.000Z</time><ele>580.2</ele></trkpt><trkpt lat="63.85599" lon="-19.218788"><time>2021-07-26T09:10:21.000Z</time><ele>580</ele></trkpt><trkpt lat="63.855985" lon="-19.218798"><time>2021-07-26T09:10:29.000Z</time><ele>580</ele></trkpt><trkpt lat="63.855985" lon="-19.218805"><time>2021-07-26T09:10:32.000Z</time><ele>580.2</ele></trkpt><trkpt lat="63.855986" lon="-19.218831"><time>2021-07-26T09:10:40.000Z</time><ele>580</ele></trkpt><trkpt lat="63.855986" lon="-19.218832"><time>2021-07-26T09:10:43.000Z</time><ele>580</ele></trkpt><trkpt lat="63.855986" lon="-19.218832"><time>2021-07-26T09:10:45.000Z</time><ele>580</ele></trkpt><trkpt lat="63.855984" lon="-19.218833"><time>2021-07-26T09:10:47.000Z</time><ele>580</ele></trkpt><trkpt lat="63.855985" lon="-19.218833"><time>2021-07-26T09:10:51.000Z</time><ele>580</ele></trkpt><trkpt lat="63.855985" lon="-19.218833"><time>2021-07-26T09:10:55.000Z</time><ele>580.2</ele></trkpt><trkpt lat="63.855984" lon="-19.218834"><time>2021-07-26T09:11:04.000Z</time><ele>580</ele></trkpt><trkpt lat="63.855984" lon="-19.218834"><time>2021-07-26T09:11:06.000Z</time><ele>580</ele></trkpt><trkpt lat="63.855995" lon="-19.21883"><time>2021-07-26T09:11:19.000Z</time><ele>579.8</ele></trkpt><trkpt lat="63.855995" lon="-19.218825"><time>2021-07-26T09:11:21.000Z</time><ele>579.8</ele></trkpt><trkpt lat="63.855933" lon="-19.218775"><time>2021-07-26T09:12:03.000Z</time><ele>579.8</ele></trkpt><trkpt lat="63.855892" lon="-19.218739"><time>2021-07-26T09:12:06.000Z</time><ele>579.8</ele></trkpt><trkpt lat="63.855791" lon="-19.218635"><time>2021-07-26T09:12:15.000Z</time><ele>580.2</ele></trkpt><trkpt lat="63.855713" lon="-19.218568"><time>2021-07-26T09:12:23.000Z</time><ele>580.8</ele></trkpt><trkpt lat="63.855653" lon="-19.21847"><time>2021-07-26T09:12:30.000Z</time><ele>580.8</ele></trkpt><trkpt lat="63.85562" lon="-19.21844"><time>2021-07-26T09:12:33.000Z</time><ele>581</ele></trkpt><trkpt lat="63.855603" lon="-19.218427"><time>2021-07-26T09:12:35.000Z</time><ele>581</ele></trkpt><trkpt lat="63.855592" lon="-19.218412"><time>2021-07-26T09:12:36.000Z</time><ele>581</ele></trkpt><trkpt lat="63.855578" lon="-19.218378"><time>2021-07-26T09:12:38.000Z</time><ele>581.2</ele></trkpt><trkpt lat="63.855565" lon="-19.218345"><time>2021-07-26T09:12:40.000Z</time><ele>581.6</ele></trkpt><trkpt lat="63.855547" lon="-19.218296"><time>2021-07-26T09:12:43.000Z</time><ele>582</ele></trkpt><trkpt lat="63.855487" lon="-19.218179"><time>2021-07-26T09:12:51.000Z</time><ele>583</ele></trkpt><trkpt lat="63.855459" lon="-19.218133"><time>2021-07-26T09:12:54.000Z</time><ele>583.4</ele></trkpt><trkpt lat="63.855428" lon="-19.218079"><time>2021-07-26T09:12:58.000Z</time><ele>584</ele></trkpt><trkpt lat="63.855419" lon="-19.218063"><time>2021-07-26T09:12:59.000Z</time><ele>584.2</ele></trkpt><trkpt lat="63.855372" lon="-19.217983"><time>2021-07-26T09:13:05.000Z</time><ele>585.2</ele></trkpt><trkpt lat="63.855311" lon="-19.217859"><time>2021-07-26T09:13:13.000Z</time><ele>586.4</ele></trkpt><trkpt lat="63.855297" lon="-19.217825"><time>2021-07-26T09:13:15.000Z</time><ele>586.6</ele></trkpt><trkpt lat="63.85529" lon="-19.217811"><time>2021-07-26T09:13:16.000Z</time><ele>586.8</ele></trkpt><trkpt lat="63.855276" lon="-19.217774"><time>2021-07-26T09:13:18.000Z</time><ele>587</ele></trkpt><trkpt lat="63.855261" lon="-19.217719"><time>2021-07-26T09:13:21.000Z</time><ele>587</ele></trkpt><trkpt lat="63.855216" lon="-19.217568"><time>2021-07-26T09:13:30.000Z</time><ele>587</ele></trkpt><trkpt lat="63.855195" lon="-19.217526"><time>2021-07-26T09:13:33.000Z</time><ele>587</ele></trkpt><trkpt lat="63.855184" lon="-19.217494"><time>2021-07-26T09:13:35.000Z</time><ele>587.2</ele></trkpt><trkpt lat="63.855158" lon="-19.217439"><time>2021-07-26T09:13:38.000Z</time><ele>587.4</ele></trkpt><trkpt lat="63.855148" lon="-19.217422"><time>2021-07-26T09:13:39.000Z</time><ele>587.4</ele></trkpt><trkpt lat="63.855137" lon="-19.217401"><time>2021-07-26T09:13:40.000Z</time><ele>587.4</ele></trkpt><trkpt lat="63.855116" lon="-19.217354"><time>2021-07-26T09:13:43.000Z</time><ele>587.2</ele></trkpt><trkpt lat="63.855084" lon="-19.217261"><time>2021-07-26T09:13:49.000Z</time><ele>586.8</ele></trkpt><trkpt lat="63.855078" lon="-19.21724"><time>2021-07-26T09:13:50.000Z</time><ele>586.8</ele></trkpt><trkpt lat="63.85505" lon="-19.217179"><time>2021-07-26T09:13:55.000Z</time><ele>586.2</ele></trkpt><trkpt lat="63.855036" lon="-19.217169"><time>2021-07-26T09:13:57.000Z</time><ele>586</ele></trkpt><trkpt lat="63.855032" lon="-19.217164"><time>2021-07-26T09:13:58.000Z</time><ele>586</ele></trkpt><trkpt lat="63.855023" lon="-19.21717"><time>2021-07-26T09:14:02.000Z</time><ele>586</ele></trkpt><trkpt lat="63.85502" lon="-19.217177"><time>2021-07-26T09:14:03.000Z</time><ele>586</ele></trkpt><trkpt lat="63.855016" lon="-19.217191"><time>2021-07-26T09:14:05.000Z</time><ele>586</ele></trkpt><trkpt lat="63.855008" lon="-19.217187"><time>2021-07-26T09:14:11.000Z</time><ele>586.4</ele></trkpt><trkpt lat="63.855008" lon="-19.217187"><time>2021-07-26T09:14:17.000Z</time><ele>586.4</ele></trkpt><trkpt lat="63.855008" lon="-19.217187"><time>2021-07-26T09:14:19.000Z</time><ele>586.2</ele></trkpt><trkpt lat="63.855008" lon="-19.217187"><time>2021-07-26T09:14:21.000Z</time><ele>586</ele></trkpt><trkpt lat="63.854987" lon="-19.217163"><time>2021-07-26T09:14:36.000Z</time><ele>585.6</ele></trkpt><trkpt lat="63.854987" lon="-19.217155"><time>2021-07-26T09:14:41.000Z</time><ele>585.6</ele></trkpt><trkpt lat="63.854988" lon="-19.217152"><time>2021-07-26T09:14:43.000Z</time><ele>585.6</ele></trkpt><trkpt lat="63.854993" lon="-19.217127"><time>2021-07-26T09:14:51.000Z</time><ele>585.6</ele></trkpt><trkpt lat="63.854997" lon="-19.217123"><time>2021-07-26T09:14:55.000Z</time><ele>585.6</ele></trkpt><trkpt lat="63.854999" lon="-19.217112"><time>2021-07-26T09:14:59.000Z</time><ele>585.6</ele></trkpt><trkpt lat="63.855007" lon="-19.217119"><time>2021-07-26T09:15:19.000Z</time><ele>585.8</ele></trkpt><trkpt lat="63.854968" lon="-19.217155"><time>2021-07-26T09:15:37.000Z</time><ele>585</ele></trkpt><trkpt lat="63.854933" lon="-19.217167"><time>2021-07-26T09:15:40.000Z</time><ele>584</ele></trkpt><trkpt lat="63.854921" lon="-19.21717"><time>2021-07-26T09:15:41.000Z</time><ele>583.8</ele></trkpt><trkpt lat="63.854909" lon="-19.217176"><time>2021-07-26T09:15:42.000Z</time><ele>583.4</ele></trkpt><trkpt lat="63.854872" lon="-19.217183"><time>2021-07-26T09:15:47.000Z</time><ele>582.6</ele></trkpt><trkpt lat="63.854854" lon="-19.21719"><time>2021-07-26T09:15:49.000Z</time><ele>582.2</ele></trkpt><trkpt lat="63.85484" lon="-19.217187"><time>2021-07-26T09:15:51.000Z</time><ele>582</ele></trkpt><trkpt lat="63.854819" lon="-19.21719"><time>2021-07-26T09:15:53.000Z</time><ele>581.8</ele></trkpt><trkpt lat="63.854808" lon="-19.217182"><time>2021-07-26T09:15:55.000Z</time><ele>581.4</ele></trkpt><trkpt lat="63.854793" lon="-19.21718"><time>2021-07-26T09:15:58.000Z</time><ele>581</ele></trkpt><trkpt lat="63.854783" lon="-19.217184"><time>2021-07-26T09:15:59.000Z</time><ele>580.8</ele></trkpt><trkpt lat="63.854768" lon="-19.217181"><time>2021-07-26T09:16:01.000Z</time><ele>580.6</ele></trkpt><trkpt lat="63.854747" lon="-19.217177"><time>2021-07-26T09:16:04.000Z</time><ele>580.4</ele></trkpt><trkpt lat="63.85474" lon="-19.217187"><time>2021-07-26T09:16:05.000Z</time><ele>580.4</ele></trkpt><trkpt lat="63.854732" lon="-19.21719"><time>2021-07-26T09:16:07.000Z</time><ele>580.2</ele></trkpt><trkpt lat="63.854677" lon="-19.217191"><time>2021-07-26T09:16:13.000Z</time><ele>579.4</ele></trkpt><trkpt lat="63.854653" lon="-19.217196"><time>2021-07-26T09:16:16.000Z</time><ele>579</ele></trkpt><trkpt lat="63.854643" lon="-19.217199"><time>2021-07-26T09:16:17.000Z</time><ele>579</ele></trkpt><trkpt lat="63.854566" lon="-19.217208"><time>2021-07-26T09:16:24.000Z</time><ele>578.2</ele></trkpt><trkpt lat="63.85452" lon="-19.21722"><time>2021-07-26T09:16:28.000Z</time><ele>577.4</ele></trkpt><trkpt lat="63.854496" lon="-19.21722"><time>2021-07-26T09:16:30.000Z</time><ele>577.2</ele></trkpt><trkpt lat="63.854458" lon="-19.217223"><time>2021-07-26T09:16:34.000Z</time><ele>576.2</ele></trkpt><trkpt lat="63.85442" lon="-19.217214"><time>2021-07-26T09:16:38.000Z</time><ele>575.8</ele></trkpt><trkpt lat="63.85438" lon="-19.21723"><time>2021-07-26T09:16:43.000Z</time><ele>575.2</ele></trkpt><trkpt lat="63.854362" lon="-19.217251"><time>2021-07-26T09:16:45.000Z</time><ele>574.8</ele></trkpt><trkpt lat="63.854345" lon="-19.217272"><time>2021-07-26T09:16:48.000Z</time><ele>574.4</ele></trkpt><trkpt lat="63.85432" lon="-19.217295"><time>2021-07-26T09:16:51.000Z</time><ele>573.6</ele></trkpt><trkpt lat="63.854255" lon="-19.217318"><time>2021-07-26T09:16:57.000Z</time><ele>573</ele></trkpt><trkpt lat="63.854235" lon="-19.21732"><time>2021-07-26T09:16:59.000Z</time><ele>572.6</ele></trkpt><trkpt lat="63.854207" lon="-19.217328"><time>2021-07-26T09:17:02.000Z</time><ele>572.2</ele></trkpt><trkpt lat="63.854162" lon="-19.217341"><time>2021-07-26T09:17:06.000Z</time><ele>571.4</ele></trkpt><trkpt lat="63.854114" lon="-19.217361"><time>2021-07-26T09:17:11.000Z</time><ele>570.4</ele></trkpt><trkpt lat="63.854092" lon="-19.217368"><time>2021-07-26T09:17:13.000Z</time><ele>570.4</ele></trkpt><trkpt lat="63.854042" lon="-19.217393"><time>2021-07-26T09:17:17.000Z</time><ele>570.2</ele></trkpt><trkpt lat="63.854015" lon="-19.217398"><time>2021-07-26T09:17:19.000Z</time><ele>570.2</ele></trkpt><trkpt lat="63.854003" lon="-19.217397"><time>2021-07-26T09:17:20.000Z</time><ele>569.8</ele></trkpt><trkpt lat="63.85399" lon="-19.217403"><time>2021-07-26T09:17:21.000Z</time><ele>569.6</ele></trkpt><trkpt lat="63.85397" lon="-19.217408"><time>2021-07-26T09:17:23.000Z</time><ele>569.2</ele></trkpt><trkpt lat="63.853951" lon="-19.217415"><time>2021-07-26T09:17:25.000Z</time><ele>568.8</ele></trkpt><trkpt lat="63.85391" lon="-19.217409"><time>2021-07-26T09:17:29.000Z</time><ele>568.2</ele></trkpt><trkpt lat="63.853899" lon="-19.217411"><time>2021-07-26T09:17:30.000Z</time><ele>568.2</ele></trkpt><trkpt lat="63.853889" lon="-19.217411"><time>2021-07-26T09:17:31.000Z</time><ele>568.2</ele></trkpt><trkpt lat="63.853841" lon="-19.217418"><time>2021-07-26T09:17:36.000Z</time><ele>567.8</ele></trkpt><trkpt lat="63.853801" lon="-19.217421"><time>2021-07-26T09:17:40.000Z</time><ele>567.4</ele></trkpt><trkpt lat="63.853789" lon="-19.217424"><time>2021-07-26T09:17:41.000Z</time><ele>567.2</ele></trkpt><trkpt lat="63.853776" lon="-19.217428"><time>2021-07-26T09:17:42.000Z</time><ele>567.2</ele></trkpt><trkpt lat="63.853704" lon="-19.217517"><time>2021-07-26T09:17:50.000Z</time><ele>566.6</ele></trkpt><trkpt lat="63.853655" lon="-19.217565"><time>2021-07-26T09:17:56.000Z</time><ele>566</ele></trkpt><trkpt lat="63.853626" lon="-19.217601"><time>2021-07-26T09:17:59.000Z</time><ele>565.8</ele></trkpt><trkpt lat="63.85361" lon="-19.217618"><time>2021-07-26T09:18:00.000Z</time><ele>565.8</ele></trkpt><trkpt lat="63.85355" lon="-19.217656"><time>2021-07-26T09:18:07.000Z</time><ele>565</ele></trkpt><trkpt lat="63.853515" lon="-19.217675"><time>2021-07-26T09:18:10.000Z</time><ele>564.6</ele></trkpt><trkpt lat="63.85348" lon="-19.217693"><time>2021-07-26T09:18:13.000Z</time><ele>564.4</ele></trkpt><trkpt lat="63.853444" lon="-19.217723"><time>2021-07-26T09:18:16.000Z</time><ele>564</ele></trkpt><trkpt lat="63.85343" lon="-19.217729"><time>2021-07-26T09:18:17.000Z</time><ele>564</ele></trkpt><trkpt lat="63.853417" lon="-19.217734"><time>2021-07-26T09:18:18.000Z</time><ele>564</ele></trkpt><trkpt lat="63.853372" lon="-19.217746"><time>2021-07-26T09:18:22.000Z</time><ele>563.8</ele></trkpt><trkpt lat="63.853302" lon="-19.217794"><time>2021-07-26T09:18:28.000Z</time><ele>563.4</ele></trkpt><trkpt lat="63.853256" lon="-19.21783"><time>2021-07-26T09:18:32.000Z</time><ele>563</ele></trkpt><trkpt lat="63.853242" lon="-19.21784"><time>2021-07-26T09:18:33.000Z</time><ele>563</ele></trkpt><trkpt lat="63.853129" lon="-19.217883"><time>2021-07-26T09:18:44.000Z</time><ele>562.2</ele></trkpt><trkpt lat="63.853106" lon="-19.2179"><time>2021-07-26T09:18:46.000Z</time><ele>562</ele></trkpt><trkpt lat="63.853067" lon="-19.217926"><time>2021-07-26T09:18:51.000Z</time><ele>562</ele></trkpt><trkpt lat="63.853057" lon="-19.217916"><time>2021-07-26T09:18:52.000Z</time><ele>561.8</ele></trkpt><trkpt lat="63.853034" lon="-19.217897"><time>2021-07-26T09:18:55.000Z</time><ele>561.2</ele></trkpt><trkpt lat="63.853024" lon="-19.217906"><time>2021-07-26T09:18:56.000Z</time><ele>561</ele></trkpt><trkpt lat="63.853012" lon="-19.217908"><time>2021-07-26T09:18:57.000Z</time><ele>560.8</ele></trkpt><trkpt lat="63.85295" lon="-19.217914"><time>2021-07-26T09:19:03.000Z</time><ele>560.2</ele></trkpt><trkpt lat="63.85287" lon="-19.21796"><time>2021-07-26T09:19:10.000Z</time><ele>560</ele></trkpt><trkpt lat="63.852812" lon="-19.218026"><time>2021-07-26T09:19:15.000Z</time><ele>560</ele></trkpt><trkpt lat="63.852802" lon="-19.218039"><time>2021-07-26T09:19:16.000Z</time><ele>559.8</ele></trkpt><trkpt lat="63.852692" lon="-19.218149"><time>2021-07-26T09:19:26.000Z</time><ele>559.8</ele></trkpt><trkpt lat="63.852619" lon="-19.218213"><time>2021-07-26T09:19:33.000Z</time><ele>559.4</ele></trkpt><trkpt lat="63.852574" lon="-19.218227"><time>2021-07-26T09:19:37.000Z</time><ele>559.4</ele></trkpt><trkpt lat="63.852463" lon="-19.218306"><time>2021-07-26T09:19:46.000Z</time><ele>559.4</ele></trkpt><trkpt lat="63.852455" lon="-19.21831"><time>2021-07-26T09:19:47.000Z</time><ele>559.4</ele></trkpt><trkpt lat="63.852434" lon="-19.218327"><time>2021-07-26T09:19:49.000Z</time><ele>559.4</ele></trkpt><trkpt lat="63.852336" lon="-19.218425"><time>2021-07-26T09:19:57.000Z</time><ele>559.6</ele></trkpt><trkpt lat="63.852329" lon="-19.218431"><time>2021-07-26T09:19:58.000Z</time><ele>559.6</ele></trkpt><trkpt lat="63.852258" lon="-19.218503"><time>2021-07-26T09:20:05.000Z</time><ele>559.8</ele></trkpt><trkpt lat="63.852203" lon="-19.218565"><time>2021-07-26T09:20:10.000Z</time><ele>559.8</ele></trkpt><trkpt lat="63.8521" lon="-19.218686"><time>2021-07-26T09:20:19.000Z</time><ele>559.8</ele></trkpt><trkpt lat="63.852083" lon="-19.218714"><time>2021-07-26T09:20:21.000Z</time><ele>559.8</ele></trkpt><trkpt lat="63.852049" lon="-19.218776"><time>2021-07-26T09:20:24.000Z</time><ele>559.8</ele></trkpt><trkpt lat="63.851964" lon="-19.218912"><time>2021-07-26T09:20:34.000Z</time><ele>560.2</ele></trkpt><trkpt lat="63.851859" lon="-19.219071"><time>2021-07-26T09:20:45.000Z</time><ele>560.6</ele></trkpt><trkpt lat="63.851795" lon="-19.219162"><time>2021-07-26T09:20:51.000Z</time><ele>560.8</ele></trkpt><trkpt lat="63.85178" lon="-19.219194"><time>2021-07-26T09:20:53.000Z</time><ele>560.8</ele></trkpt><trkpt lat="63.851766" lon="-19.219214"><time>2021-07-26T09:20:55.000Z</time><ele>561</ele></trkpt><trkpt lat="63.851654" lon="-19.219352"><time>2021-07-26T09:21:06.000Z</time><ele>561.8</ele></trkpt><trkpt lat="63.851612" lon="-19.219401"><time>2021-07-26T09:21:10.000Z</time><ele>561.8</ele></trkpt><trkpt lat="63.85155" lon="-19.219478"><time>2021-07-26T09:21:16.000Z</time><ele>562.2</ele></trkpt><trkpt lat="63.851508" lon="-19.219531"><time>2021-07-26T09:21:20.000Z</time><ele>562.2</ele></trkpt><trkpt lat="63.851469" lon="-19.219568"><time>2021-07-26T09:21:23.000Z</time><ele>562.4</ele></trkpt><trkpt lat="63.851459" lon="-19.219575"><time>2021-07-26T09:21:24.000Z</time><ele>562.4</ele></trkpt><trkpt lat="63.851428" lon="-19.219602"><time>2021-07-26T09:21:27.000Z</time><ele>562.4</ele></trkpt><trkpt lat="63.851371" lon="-19.219618"><time>2021-07-26T09:21:32.000Z</time><ele>562.2</ele></trkpt><trkpt lat="63.851324" lon="-19.219648"><time>2021-07-26T09:21:37.000Z</time><ele>562</ele></trkpt><trkpt lat="63.851222" lon="-19.219713"><time>2021-07-26T09:21:46.000Z</time><ele>561.4</ele></trkpt><trkpt lat="63.851186" lon="-19.219719"><time>2021-07-26T09:21:49.000Z</time><ele>561.6</ele></trkpt><trkpt lat="63.851152" lon="-19.219731"><time>2021-07-26T09:21:52.000Z</time><ele>561.8</ele></trkpt><trkpt lat="63.851122" lon="-19.219724"><time>2021-07-26T09:21:55.000Z</time><ele>561.8</ele></trkpt><trkpt lat="63.851009" lon="-19.21969"><time>2021-07-26T09:22:04.000Z</time><ele>561.6</ele></trkpt><trkpt lat="63.85092" lon="-19.219628"><time>2021-07-26T09:22:14.000Z</time><ele>562.6</ele></trkpt><trkpt lat="63.850885" lon="-19.219575"><time>2021-07-26T09:22:20.000Z</time><ele>562.8</ele></trkpt><trkpt lat="63.850875" lon="-19.219555"><time>2021-07-26T09:22:22.000Z</time><ele>562.8</ele></trkpt><trkpt lat="63.850865" lon="-19.219544"><time>2021-07-26T09:22:23.000Z</time><ele>562.8</ele></trkpt><trkpt lat="63.85085" lon="-19.219519"><time>2021-07-26T09:22:25.000Z</time><ele>562.8</ele></trkpt><trkpt lat="63.850829" lon="-19.219492"><time>2021-07-26T09:22:27.000Z</time><ele>562.8</ele></trkpt><trkpt lat="63.850818" lon="-19.219488"><time>2021-07-26T09:22:28.000Z</time><ele>562.8</ele></trkpt><trkpt lat="63.850801" lon="-19.219475"><time>2021-07-26T09:22:30.000Z</time><ele>562.6</ele></trkpt><trkpt lat="63.850723" lon="-19.219343"><time>2021-07-26T09:22:40.000Z</time><ele>562.4</ele></trkpt><trkpt lat="63.850661" lon="-19.219259"><time>2021-07-26T09:22:47.000Z</time><ele>562</ele></trkpt><trkpt lat="63.850613" lon="-19.21917"><time>2021-07-26T09:22:52.000Z</time><ele>562</ele></trkpt><trkpt lat="63.850594" lon="-19.219141"><time>2021-07-26T09:22:54.000Z</time><ele>562</ele></trkpt><trkpt lat="63.850496" lon="-19.219047"><time>2021-07-26T09:23:05.000Z</time><ele>561.8</ele></trkpt><trkpt lat="63.850449" lon="-19.218974"><time>2021-07-26T09:23:10.000Z</time><ele>561.4</ele></trkpt><trkpt lat="63.850415" lon="-19.218877"><time>2021-07-26T09:23:15.000Z</time><ele>561.4</ele></trkpt><trkpt lat="63.850362" lon="-19.218694"><time>2021-07-26T09:23:24.000Z</time><ele>561.4</ele></trkpt><trkpt lat="63.850349" lon="-19.218656"><time>2021-07-26T09:23:26.000Z</time><ele>561.2</ele></trkpt><trkpt lat="63.850318" lon="-19.218553"><time>2021-07-26T09:23:31.000Z</time><ele>560.8</ele></trkpt><trkpt lat="63.850306" lon="-19.218523"><time>2021-07-26T09:23:33.000Z</time><ele>560.6</ele></trkpt><trkpt lat="63.850217" lon="-19.218276"><time>2021-07-26T09:23:45.000Z</time><ele>560.2</ele></trkpt><trkpt lat="63.850155" lon="-19.218089"><time>2021-07-26T09:23:54.000Z</time><ele>560.4</ele></trkpt><trkpt lat="63.850151" lon="-19.218072"><time>2021-07-26T09:23:55.000Z</time><ele>560.4</ele></trkpt><trkpt lat="63.850099" lon="-19.217857"><time>2021-07-26T09:24:05.000Z</time><ele>559.8</ele></trkpt><trkpt lat="63.850049" lon="-19.217678"><time>2021-07-26T09:24:13.000Z</time><ele>559.4</ele></trkpt><trkpt lat="63.850007" lon="-19.217556"><time>2021-07-26T09:24:19.000Z</time><ele>559.4</ele></trkpt><trkpt lat="63.849965" lon="-19.21745"><time>2021-07-26T09:24:25.000Z</time><ele>559.4</ele></trkpt><trkpt lat="63.84991" lon="-19.217325"><time>2021-07-26T09:24:32.000Z</time><ele>559.6</ele></trkpt><trkpt lat="63.849867" lon="-19.217155"><time>2021-07-26T09:24:40.000Z</time><ele>560</ele></trkpt><trkpt lat="63.849806" lon="-19.217"><time>2021-07-26T09:24:49.000Z</time><ele>559.8</ele></trkpt><trkpt lat="63.849731" lon="-19.216819"><time>2021-07-26T09:24:58.000Z</time><ele>559.4</ele></trkpt><trkpt lat="63.849675" lon="-19.216692"><time>2021-07-26T09:25:06.000Z</time><ele>558.8</ele></trkpt><trkpt lat="63.849662" lon="-19.216651"><time>2021-07-26T09:25:09.000Z</time><ele>558.4</ele></trkpt><trkpt lat="63.849624" lon="-19.216513"><time>2021-07-26T09:25:15.000Z</time><ele>558</ele></trkpt><trkpt lat="63.849587" lon="-19.21646"><time>2021-07-26T09:25:19.000Z</time><ele>557.8</ele></trkpt><trkpt lat="63.849578" lon="-19.216446"><time>2021-07-26T09:25:20.000Z</time><ele>557.8</ele></trkpt><trkpt lat="63.849519" lon="-19.216371"><time>2021-07-26T09:25:27.000Z</time><ele>556.6</ele></trkpt><trkpt lat="63.849505" lon="-19.216349"><time>2021-07-26T09:25:29.000Z</time><ele>556.6</ele></trkpt><trkpt lat="63.849459" lon="-19.216268"><time>2021-07-26T09:25:35.000Z</time><ele>556</ele></trkpt><trkpt lat="63.849428" lon="-19.216219"><time>2021-07-26T09:25:39.000Z</time><ele>555.6</ele></trkpt><trkpt lat="63.849393" lon="-19.216155"><time>2021-07-26T09:25:44.000Z</time><ele>554.6</ele></trkpt><trkpt lat="63.849355" lon="-19.216067"><time>2021-07-26T09:25:50.000Z</time><ele>553.4</ele></trkpt><trkpt lat="63.84935" lon="-19.216057"><time>2021-07-26T09:25:51.000Z</time><ele>553.4</ele></trkpt><trkpt lat="63.849339" lon="-19.21604"><time>2021-07-26T09:25:54.000Z</time><ele>553.2</ele></trkpt><trkpt lat="63.849326" lon="-19.215989"><time>2021-07-26T09:25:58.000Z</time><ele>552.8</ele></trkpt><trkpt lat="63.84932" lon="-19.215977"><time>2021-07-26T09:25:59.000Z</time><ele>552.8</ele></trkpt><trkpt lat="63.849315" lon="-19.215943"><time>2021-07-26T09:26:02.000Z</time><ele>552.2</ele></trkpt><trkpt lat="63.849303" lon="-19.215917"><time>2021-07-26T09:26:04.000Z</time><ele>551.8</ele></trkpt><trkpt lat="63.849298" lon="-19.215908"><time>2021-07-26T09:26:05.000Z</time><ele>551.4</ele></trkpt><trkpt lat="63.849293" lon="-19.215905"><time>2021-07-26T09:26:06.000Z</time><ele>551.4</ele></trkpt><trkpt lat="63.849292" lon="-19.215905"><time>2021-07-26T09:26:07.000Z</time><ele>551.2</ele></trkpt><trkpt lat="63.849293" lon="-19.215901"><time>2021-07-26T09:26:12.000Z</time><ele>551</ele></trkpt><trkpt lat="63.849286" lon="-19.215891"><time>2021-07-26T09:26:24.000Z</time><ele>551.6</ele></trkpt><trkpt lat="63.849286" lon="-19.215893"><time>2021-07-26T09:26:31.000Z</time><ele>551.2</ele></trkpt><trkpt lat="63.849286" lon="-19.215897"><time>2021-07-26T09:26:37.000Z</time><ele>551</ele></trkpt><trkpt lat="63.849286" lon="-19.215897"><time>2021-07-26T09:26:43.000Z</time><ele>551</ele></trkpt><trkpt lat="63.849285" lon="-19.2159"><time>2021-07-26T09:26:49.000Z</time><ele>551</ele></trkpt><trkpt lat="63.849282" lon="-19.2159"><time>2021-07-26T09:26:54.000Z</time><ele>550.8</ele></trkpt><trkpt lat="63.849282" lon="-19.2159"><time>2021-07-26T09:26:57.000Z</time><ele>550.8</ele></trkpt><trkpt lat="63.849283" lon="-19.2159"><time>2021-07-26T09:26:59.000Z</time><ele>550.8</ele></trkpt><trkpt lat="63.849285" lon="-19.215886"><time>2021-07-26T09:27:14.000Z</time><ele>550.8</ele></trkpt><trkpt lat="63.849285" lon="-19.215886"><time>2021-07-26T09:27:18.000Z</time><ele>550.2</ele></trkpt><trkpt lat="63.849285" lon="-19.215878"><time>2021-07-26T09:27:25.000Z</time><ele>549</ele></trkpt><trkpt lat="63.84928" lon="-19.215877"><time>2021-07-26T09:27:31.000Z</time><ele>547.8</ele></trkpt><trkpt lat="63.849251" lon="-19.215862"><time>2021-07-26T09:27:36.000Z</time><ele>546.6</ele></trkpt><trkpt lat="63.84919" lon="-19.215804"><time>2021-07-26T09:27:40.000Z</time><ele>546</ele></trkpt><trkpt lat="63.849166" lon="-19.215782"><time>2021-07-26T09:27:42.000Z</time><ele>545.2</ele></trkpt><trkpt lat="63.849092" lon="-19.215759"><time>2021-07-26T09:27:48.000Z</time><ele>544.4</ele></trkpt><trkpt lat="63.849087" lon="-19.215759"><time>2021-07-26T09:27:49.000Z</time><ele>544.2</ele></trkpt><trkpt lat="63.849082" lon="-19.21576"><time>2021-07-26T09:27:52.000Z</time><ele>543.8</ele></trkpt><trkpt lat="63.849052" lon="-19.215771"><time>2021-07-26T09:27:56.000Z</time><ele>543.2</ele></trkpt><trkpt lat="63.849043" lon="-19.21576"><time>2021-07-26T09:27:59.000Z</time><ele>542.4</ele></trkpt><trkpt lat="63.849043" lon="-19.215756"><time>2021-07-26T09:28:00.000Z</time><ele>541.8</ele></trkpt><trkpt lat="63.849007" lon="-19.215732"><time>2021-07-26T09:28:07.000Z</time><ele>540.6</ele></trkpt><trkpt lat="63.849004" lon="-19.215713"><time>2021-07-26T09:28:09.000Z</time><ele>540.2</ele></trkpt><trkpt lat="63.849004" lon="-19.215675"><time>2021-07-26T09:28:12.000Z</time><ele>539.6</ele></trkpt><trkpt lat="63.848997" lon="-19.215638"><time>2021-07-26T09:28:15.000Z</time><ele>539</ele></trkpt><trkpt lat="63.848979" lon="-19.215642"><time>2021-07-26T09:28:18.000Z</time><ele>538.6</ele></trkpt><trkpt lat="63.848974" lon="-19.215648"><time>2021-07-26T09:28:19.000Z</time><ele>538.4</ele></trkpt><trkpt lat="63.848949" lon="-19.21566"><time>2021-07-26T09:28:22.000Z</time><ele>537.4</ele></trkpt><trkpt lat="63.848938" lon="-19.215662"><time>2021-07-26T09:28:23.000Z</time><ele>537.2</ele></trkpt><trkpt lat="63.848922" lon="-19.215659"><time>2021-07-26T09:28:25.000Z</time><ele>537.2</ele></trkpt><trkpt lat="63.848892" lon="-19.215638"><time>2021-07-26T09:28:28.000Z</time><ele>536.4</ele></trkpt><trkpt lat="63.848876" lon="-19.215626"><time>2021-07-26T09:28:30.000Z</time><ele>536.2</ele></trkpt><trkpt lat="63.848841" lon="-19.215613"><time>2021-07-26T09:28:34.000Z</time><ele>535.8</ele></trkpt><trkpt lat="63.848815" lon="-19.215603"><time>2021-07-26T09:28:38.000Z</time><ele>535.6</ele></trkpt><trkpt lat="63.848793" lon="-19.215602"><time>2021-07-26T09:28:41.000Z</time><ele>535.2</ele></trkpt><trkpt lat="63.848785" lon="-19.215602"><time>2021-07-26T09:28:42.000Z</time><ele>535</ele></trkpt><trkpt lat="63.848776" lon="-19.215578"><time>2021-07-26T09:28:44.000Z</time><ele>534.4</ele></trkpt><trkpt lat="63.848773" lon="-19.215553"><time>2021-07-26T09:28:46.000Z</time><ele>534</ele></trkpt><trkpt lat="63.848767" lon="-19.215548"><time>2021-07-26T09:28:47.000Z</time><ele>534</ele></trkpt><trkpt lat="63.848739" lon="-19.215573"><time>2021-07-26T09:28:51.000Z</time><ele>533.2</ele></trkpt><trkpt lat="63.848734" lon="-19.215575"><time>2021-07-26T09:28:52.000Z</time><ele>533</ele></trkpt><trkpt lat="63.848728" lon="-19.215576"><time>2021-07-26T09:28:53.000Z</time><ele>532.8</ele></trkpt><trkpt lat="63.848725" lon="-19.215568"><time>2021-07-26T09:28:54.000Z</time><ele>532.8</ele></trkpt><trkpt lat="63.848718" lon="-19.215559"><time>2021-07-26T09:28:55.000Z</time><ele>532.8</ele></trkpt><trkpt lat="63.848713" lon="-19.215546"><time>2021-07-26T09:28:56.000Z</time><ele>532.8</ele></trkpt><trkpt lat="63.848709" lon="-19.215512"><time>2021-07-26T09:28:58.000Z</time><ele>532.8</ele></trkpt><trkpt lat="63.84869" lon="-19.215433"><time>2021-07-26T09:29:03.000Z</time><ele>533</ele></trkpt><trkpt lat="63.848685" lon="-19.215411"><time>2021-07-26T09:29:05.000Z</time><ele>533.2</ele></trkpt><trkpt lat="63.848687" lon="-19.215411"><time>2021-07-26T09:29:06.000Z</time><ele>533.2</ele></trkpt><trkpt lat="63.848696" lon="-19.215393"><time>2021-07-26T09:29:08.000Z</time><ele>533.2</ele></trkpt><trkpt lat="63.848701" lon="-19.215383"><time>2021-07-26T09:29:09.000Z</time><ele>533.2</ele></trkpt><trkpt lat="63.848713" lon="-19.215376"><time>2021-07-26T09:29:12.000Z</time><ele>533.2</ele></trkpt><trkpt lat="63.848715" lon="-19.21538"><time>2021-07-26T09:29:16.000Z</time><ele>533.2</ele></trkpt><trkpt lat="63.848716" lon="-19.215376"><time>2021-07-26T09:29:17.000Z</time><ele>533.2</ele></trkpt><trkpt lat="63.848716" lon="-19.215376"><time>2021-07-26T09:29:21.000Z</time><ele>533.2</ele></trkpt><trkpt lat="63.84871" lon="-19.215382"><time>2021-07-26T09:29:31.000Z</time><ele>533</ele></trkpt><trkpt lat="63.848681" lon="-19.215395"><time>2021-07-26T09:29:48.000Z</time><ele>533</ele></trkpt><trkpt lat="63.84868" lon="-19.215395"><time>2021-07-26T09:29:57.000Z</time><ele>533</ele></trkpt><trkpt lat="63.848676" lon="-19.215402"><time>2021-07-26T09:30:32.000Z</time><ele>532.4</ele></trkpt><trkpt lat="63.848677" lon="-19.215394"><time>2021-07-26T09:31:01.000Z</time><ele>532.6</ele></trkpt><trkpt lat="63.848676" lon="-19.215394"><time>2021-07-26T09:31:03.000Z</time><ele>532.4</ele></trkpt><trkpt lat="63.848647" lon="-19.215328"><time>2021-07-26T09:31:38.000Z</time><ele>533</ele></trkpt><trkpt lat="63.848617" lon="-19.215248"><time>2021-07-26T09:31:52.000Z</time><ele>533</ele></trkpt><trkpt lat="63.848596" lon="-19.215218"><time>2021-07-26T09:32:01.000Z</time><ele>533</ele></trkpt><trkpt lat="63.848591" lon="-19.21521"><time>2021-07-26T09:32:07.000Z</time><ele>532.8</ele></trkpt><trkpt lat="63.84859" lon="-19.215207"><time>2021-07-26T09:32:09.000Z</time><ele>532.8</ele></trkpt><trkpt lat="63.848586" lon="-19.215194"><time>2021-07-26T09:32:23.000Z</time><ele>533</ele></trkpt><trkpt lat="63.848589" lon="-19.215179"><time>2021-07-26T09:32:31.000Z</time><ele>532.6</ele></trkpt><trkpt lat="63.84859" lon="-19.215175"><time>2021-07-26T09:32:38.000Z</time><ele>532.6</ele></trkpt><trkpt lat="63.84859" lon="-19.215173"><time>2021-07-26T09:32:59.000Z</time><ele>532.6</ele></trkpt><trkpt lat="63.848591" lon="-19.215171"><time>2021-07-26T09:33:24.000Z</time><ele>532.6</ele></trkpt><trkpt lat="63.848591" lon="-19.215171"><time>2021-07-26T09:33:27.000Z</time><ele>532.6</ele></trkpt><trkpt lat="63.848592" lon="-19.21517"><time>2021-07-26T09:33:58.000Z</time><ele>532.6</ele></trkpt><trkpt lat="63.848593" lon="-19.215169"><time>2021-07-26T09:34:48.000Z</time><ele>532.6</ele></trkpt><trkpt lat="63.848593" lon="-19.215169"><time>2021-07-26T09:35:07.000Z</time><ele>532.6</ele></trkpt><trkpt lat="63.848593" lon="-19.215169"><time>2021-07-26T09:35:12.000Z</time><ele>532.6</ele></trkpt><trkpt lat="63.848594" lon="-19.215169"><time>2021-07-26T09:35:18.000Z</time><ele>532.6</ele></trkpt><trkpt lat="63.848594" lon="-19.215169"><time>2021-07-26T09:35:28.000Z</time><ele>532.6</ele></trkpt><trkpt lat="63.848596" lon="-19.215167"><time>2021-07-26T09:36:32.000Z</time><ele>532.6</ele></trkpt><trkpt lat="63.848596" lon="-19.215166"><time>2021-07-26T09:36:37.000Z</time><ele>532.6</ele></trkpt><trkpt lat="63.848596" lon="-19.215166"><time>2021-07-26T09:36:50.000Z</time><ele>532.6</ele></trkpt><trkpt lat="63.848596" lon="-19.215166"><time>2021-07-26T09:36:55.000Z</time><ele>532.6</ele></trkpt><trkpt lat="63.848596" lon="-19.215166"><time>2021-07-26T09:37:06.000Z</time><ele>532.6</ele></trkpt><trkpt lat="63.848596" lon="-19.215165"><time>2021-07-26T09:37:14.000Z</time><ele>532.6</ele></trkpt><trkpt lat="63.848597" lon="-19.215165"><time>2021-07-26T09:37:25.000Z</time><ele>532.6</ele></trkpt><trkpt lat="63.848597" lon="-19.215165"><time>2021-07-26T09:37:26.000Z</time><ele>532.6</ele></trkpt><trkpt lat="63.848597" lon="-19.215165"><time>2021-07-26T09:37:29.000Z</time><ele>532.6</ele></trkpt><trkpt lat="63.848597" lon="-19.215165"><time>2021-07-26T09:37:31.000Z</time><ele>532.6</ele></trkpt><trkpt lat="63.848597" lon="-19.215165"><time>2021-07-26T09:37:33.000Z</time><ele>532.6</ele></trkpt><trkpt lat="63.848598" lon="-19.215163"><time>2021-07-26T09:38:03.000Z</time><ele>532.6</ele></trkpt><trkpt lat="63.848598" lon="-19.215162"><time>2021-07-26T09:38:12.000Z</time><ele>532.6</ele></trkpt><trkpt lat="63.848599" lon="-19.215161"><time>2021-07-26T09:38:26.000Z</time><ele>532.6</ele></trkpt><trkpt lat="63.848599" lon="-19.215161"><time>2021-07-26T09:38:35.000Z</time><ele>532.6</ele></trkpt><trkpt lat="63.848599" lon="-19.21516"><time>2021-07-26T09:38:40.000Z</time><ele>532.6</ele></trkpt><trkpt lat="63.848599" lon="-19.21516"><time>2021-07-26T09:38:50.000Z</time><ele>532.6</ele></trkpt><trkpt lat="63.848599" lon="-19.21516"><time>2021-07-26T09:38:53.000Z</time><ele>532.6</ele></trkpt><trkpt lat="63.8486" lon="-19.215159"><time>2021-07-26T09:39:16.000Z</time><ele>532.6</ele></trkpt><trkpt lat="63.848563" lon="-19.215071"><time>2021-07-26T09:39:53.000Z</time><ele>532.6</ele></trkpt><trkpt lat="63.848504" lon="-19.215049"><time>2021-07-26T09:39:58.000Z</time><ele>532.6</ele></trkpt><trkpt lat="63.848454" lon="-19.215151"><time>2021-07-26T09:40:06.000Z</time><ele>532.6</ele></trkpt><trkpt lat="63.848408" lon="-19.215302"><time>2021-07-26T09:40:14.000Z</time><ele>532.6</ele></trkpt><trkpt lat="63.848385" lon="-19.215364"><time>2021-07-26T09:40:18.000Z</time><ele>532.6</ele></trkpt><trkpt lat="63.848366" lon="-19.215395"><time>2021-07-26T09:40:21.000Z</time><ele>532.6</ele></trkpt><trkpt lat="63.848357" lon="-19.215386"><time>2021-07-26T09:40:24.000Z</time><ele>532.6</ele></trkpt><trkpt lat="63.848366" lon="-19.215375"><time>2021-07-26T09:40:34.000Z</time><ele>532.6</ele></trkpt><trkpt lat="63.848366" lon="-19.215375"><time>2021-07-26T09:40:40.000Z</time><ele>532.6</ele></trkpt><trkpt lat="63.848366" lon="-19.215375"><time>2021-07-26T09:40:44.000Z</time><ele>532.6</ele></trkpt><trkpt lat="63.848369" lon="-19.215375"><time>2021-07-26T09:40:48.000Z</time><ele>532.6</ele></trkpt><trkpt lat="63.848373" lon="-19.215367"><time>2021-07-26T09:40:50.000Z</time><ele>532.6</ele></trkpt><trkpt lat="63.84838" lon="-19.215366"><time>2021-07-26T09:40:56.000Z</time><ele>532.6</ele></trkpt><trkpt lat="63.848381" lon="-19.215365"><time>2021-07-26T09:41:02.000Z</time><ele>532.6</ele></trkpt><trkpt lat="63.848382" lon="-19.215365"><time>2021-07-26T09:41:05.000Z</time><ele>532.6</ele></trkpt><trkpt lat="63.848385" lon="-19.215364"><time>2021-07-26T09:41:15.000Z</time><ele>532.6</ele></trkpt><trkpt lat="63.848387" lon="-19.215364"><time>2021-07-26T09:41:16.000Z</time><ele>532.6</ele></trkpt><trkpt lat="63.848409" lon="-19.215197"><time>2021-07-26T09:41:24.000Z</time><ele>532.6</ele></trkpt><trkpt lat="63.848393" lon="-19.215087"><time>2021-07-26T09:41:28.000Z</time><ele>532.6</ele></trkpt><trkpt lat="63.848388" lon="-19.215077"><time>2021-07-26T09:41:30.000Z</time><ele>532.6</ele></trkpt><trkpt lat="63.848367" lon="-19.215081"><time>2021-07-26T09:41:32.000Z</time><ele>533.8</ele></trkpt><trkpt lat="63.848359" lon="-19.215078"><time>2021-07-26T09:41:33.000Z</time><ele>534</ele></trkpt><trkpt lat="63.848338" lon="-19.215072"><time>2021-07-26T09:41:36.000Z</time><ele>534.4</ele></trkpt><trkpt lat="63.848323" lon="-19.21505"><time>2021-07-26T09:41:37.000Z</time><ele>534.6</ele></trkpt><trkpt lat="63.848305" lon="-19.21504"><time>2021-07-26T09:41:39.000Z</time><ele>534.8</ele></trkpt><trkpt lat="63.848293" lon="-19.215024"><time>2021-07-26T09:41:41.000Z</time><ele>535</ele></trkpt><trkpt lat="63.848289" lon="-19.215017"><time>2021-07-26T09:41:42.000Z</time><ele>535</ele></trkpt><trkpt lat="63.848276" lon="-19.215008"><time>2021-07-26T09:41:44.000Z</time><ele>535.4</ele></trkpt><trkpt lat="63.84825" lon="-19.214989"><time>2021-07-26T09:41:47.000Z</time><ele>535.6</ele></trkpt><trkpt lat="63.848239" lon="-19.214981"><time>2021-07-26T09:41:48.000Z</time><ele>535.6</ele></trkpt><trkpt lat="63.84823" lon="-19.214978"><time>2021-07-26T09:41:49.000Z</time><ele>535.6</ele></trkpt><trkpt lat="63.848179" lon="-19.214933"><time>2021-07-26T09:41:58.000Z</time><ele>536</ele></trkpt><trkpt lat="63.84818" lon="-19.21493"><time>2021-07-26T09:41:59.000Z</time><ele>536</ele></trkpt><trkpt lat="63.848153" lon="-19.214914"><time>2021-07-26T09:42:04.000Z</time><ele>536.2</ele></trkpt><trkpt lat="63.848156" lon="-19.214914"><time>2021-07-26T09:42:06.000Z</time><ele>536.2</ele></trkpt><trkpt lat="63.848167" lon="-19.21492"><time>2021-07-26T09:42:12.000Z</time><ele>536</ele></trkpt><trkpt lat="63.848167" lon="-19.21492"><time>2021-07-26T09:42:13.000Z</time><ele>536</ele></trkpt><trkpt lat="63.848169" lon="-19.214921"><time>2021-07-26T09:42:26.000Z</time><ele>536.2</ele></trkpt><trkpt lat="63.848188" lon="-19.214989"><time>2021-07-26T09:43:01.000Z</time><ele>536</ele></trkpt><trkpt lat="63.848189" lon="-19.214989"><time>2021-07-26T09:43:03.000Z</time><ele>536</ele></trkpt><trkpt lat="63.848189" lon="-19.214989"><time>2021-07-26T09:43:04.000Z</time><ele>536</ele></trkpt><trkpt lat="63.848191" lon="-19.214989"><time>2021-07-26T09:43:12.000Z</time><ele>536</ele></trkpt><trkpt lat="63.848194" lon="-19.214987"><time>2021-07-26T09:43:14.000Z</time><ele>536</ele></trkpt><trkpt lat="63.848194" lon="-19.214986"><time>2021-07-26T09:43:16.000Z</time><ele>536</ele></trkpt><trkpt lat="63.848197" lon="-19.214985"><time>2021-07-26T09:43:18.000Z</time><ele>535.8</ele></trkpt><trkpt lat="63.848202" lon="-19.21496"><time>2021-07-26T09:43:24.000Z</time><ele>535.8</ele></trkpt><trkpt lat="63.848152" lon="-19.214919"><time>2021-07-26T09:43:41.000Z</time><ele>535.8</ele></trkpt><trkpt lat="63.848136" lon="-19.214909"><time>2021-07-26T09:43:42.000Z</time><ele>535.8</ele></trkpt><trkpt lat="63.848096" lon="-19.214861"><time>2021-07-26T09:43:45.000Z</time><ele>535.8</ele></trkpt><trkpt lat="63.84806" lon="-19.214802"><time>2021-07-26T09:43:49.000Z</time><ele>535.8</ele></trkpt><trkpt lat="63.848035" lon="-19.214762"><time>2021-07-26T09:43:52.000Z</time><ele>536.2</ele></trkpt><trkpt lat="63.847986" lon="-19.21473"><time>2021-07-26T09:43:57.000Z</time><ele>536.2</ele></trkpt><trkpt lat="63.84797" lon="-19.214733"><time>2021-07-26T09:43:59.000Z</time><ele>536.4</ele></trkpt><trkpt lat="63.84795" lon="-19.214723"><time>2021-07-26T09:44:02.000Z</time><ele>537.2</ele></trkpt><trkpt lat="63.847922" lon="-19.21471"><time>2021-07-26T09:44:06.000Z</time><ele>538.2</ele></trkpt><trkpt lat="63.847915" lon="-19.214696"><time>2021-07-26T09:44:08.000Z</time><ele>538.8</ele></trkpt><trkpt lat="63.847905" lon="-19.214672"><time>2021-07-26T09:44:11.000Z</time><ele>539.2</ele></trkpt><trkpt lat="63.847906" lon="-19.214663"><time>2021-07-26T09:44:12.000Z</time><ele>539.4</ele></trkpt><trkpt lat="63.847902" lon="-19.214657"><time>2021-07-26T09:44:13.000Z</time><ele>539.4</ele></trkpt><trkpt lat="63.847894" lon="-19.21465"><time>2021-07-26T09:44:15.000Z</time><ele>540</ele></trkpt><trkpt lat="63.847881" lon="-19.214658"><time>2021-07-26T09:44:17.000Z</time><ele>540.4</ele></trkpt><trkpt lat="63.847869" lon="-19.214663"><time>2021-07-26T09:44:19.000Z</time><ele>540.8</ele></trkpt><trkpt lat="63.847862" lon="-19.214669"><time>2021-07-26T09:44:20.000Z</time><ele>540.8</ele></trkpt><trkpt lat="63.847852" lon="-19.214673"><time>2021-07-26T09:44:22.000Z</time><ele>541.2</ele></trkpt><trkpt lat="63.847844" lon="-19.214675"><time>2021-07-26T09:44:23.000Z</time><ele>541.4</ele></trkpt><trkpt lat="63.847837" lon="-19.214674"><time>2021-07-26T09:44:24.000Z</time><ele>541.4</ele></trkpt><trkpt lat="63.847837" lon="-19.214674"><time>2021-07-26T09:44:25.000Z</time><ele>541.8</ele></trkpt><trkpt lat="63.847823" lon="-19.214668"><time>2021-07-26T09:44:26.000Z</time><ele>541.8</ele></trkpt><trkpt lat="63.847814" lon="-19.214649"><time>2021-07-26T09:44:28.000Z</time><ele>542.2</ele></trkpt><trkpt lat="63.847812" lon="-19.214625"><time>2021-07-26T09:44:30.000Z</time><ele>542.6</ele></trkpt><trkpt lat="63.847808" lon="-19.214612"><time>2021-07-26T09:44:31.000Z</time><ele>542.8</ele></trkpt><trkpt lat="63.847807" lon="-19.214549"><time>2021-07-26T09:44:35.000Z</time><ele>543.4</ele></trkpt><trkpt lat="63.847811" lon="-19.214519"><time>2021-07-26T09:44:37.000Z</time><ele>543.8</ele></trkpt><trkpt lat="63.847834" lon="-19.214472"><time>2021-07-26T09:44:43.000Z</time><ele>544.4</ele></trkpt><trkpt lat="63.847835" lon="-19.214405"><time>2021-07-26T09:44:51.000Z</time><ele>545</ele></trkpt><trkpt lat="63.84783" lon="-19.214393"><time>2021-07-26T09:44:52.000Z</time><ele>545</ele></trkpt><trkpt lat="63.847812" lon="-19.214346"><time>2021-07-26T09:44:55.000Z</time><ele>545.4</ele></trkpt><trkpt lat="63.847791" lon="-19.214343"><time>2021-07-26T09:44:58.000Z</time><ele>546</ele></trkpt><trkpt lat="63.847786" lon="-19.214323"><time>2021-07-26T09:45:00.000Z</time><ele>546.4</ele></trkpt><trkpt lat="63.847778" lon="-19.214309"><time>2021-07-26T09:45:02.000Z</time><ele>546.6</ele></trkpt><trkpt lat="63.847759" lon="-19.214286"><time>2021-07-26T09:45:05.000Z</time><ele>547</ele></trkpt><trkpt lat="63.847739" lon="-19.214273"><time>2021-07-26T09:45:10.000Z</time><ele>548</ele></trkpt><trkpt lat="63.847736" lon="-19.214269"><time>2021-07-26T09:45:11.000Z</time><ele>548.2</ele></trkpt><trkpt lat="63.847718" lon="-19.2143"><time>2021-07-26T09:45:17.000Z</time><ele>549.2</ele></trkpt><trkpt lat="63.847699" lon="-19.214335"><time>2021-07-26T09:45:21.000Z</time><ele>549.6</ele></trkpt><trkpt lat="63.847646" lon="-19.21437"><time>2021-07-26T09:45:27.000Z</time><ele>550.2</ele></trkpt><trkpt lat="63.847637" lon="-19.214373"><time>2021-07-26T09:45:28.000Z</time><ele>550.4</ele></trkpt><trkpt lat="63.847576" lon="-19.214417"><time>2021-07-26T09:45:35.000Z</time><ele>551.2</ele></trkpt><trkpt lat="63.847542" lon="-19.214436"><time>2021-07-26T09:45:39.000Z</time><ele>551.4</ele></trkpt><trkpt lat="63.847533" lon="-19.214436"><time>2021-07-26T09:45:40.000Z</time><ele>551.6</ele></trkpt><trkpt lat="63.847477" lon="-19.214453"><time>2021-07-26T09:45:46.000Z</time><ele>552.2</ele></trkpt><trkpt lat="63.847437" lon="-19.214497"><time>2021-07-26T09:45:50.000Z</time><ele>552.6</ele></trkpt><trkpt lat="63.847401" lon="-19.214514"><time>2021-07-26T09:45:54.000Z</time><ele>552.8</ele></trkpt><trkpt lat="63.847387" lon="-19.214508"><time>2021-07-26T09:45:56.000Z</time><ele>553</ele></trkpt><trkpt lat="63.847339" lon="-19.214532"><time>2021-07-26T09:46:01.000Z</time><ele>553.2</ele></trkpt><trkpt lat="63.847319" lon="-19.214542"><time>2021-07-26T09:46:03.000Z</time><ele>553.4</ele></trkpt><trkpt lat="63.847301" lon="-19.214554"><time>2021-07-26T09:46:05.000Z</time><ele>553.8</ele></trkpt><trkpt lat="63.847291" lon="-19.214561"><time>2021-07-26T09:46:06.000Z</time><ele>553.8</ele></trkpt><trkpt lat="63.847213" lon="-19.214597"><time>2021-07-26T09:46:14.000Z</time><ele>554.4</ele></trkpt><trkpt lat="63.847193" lon="-19.214608"><time>2021-07-26T09:46:16.000Z</time><ele>554.8</ele></trkpt><trkpt lat="63.847157" lon="-19.214644"><time>2021-07-26T09:46:20.000Z</time><ele>555.2</ele></trkpt><trkpt lat="63.847095" lon="-19.214717"><time>2021-07-26T09:46:28.000Z</time><ele>555.6</ele></trkpt><trkpt lat="63.847088" lon="-19.214727"><time>2021-07-26T09:46:29.000Z</time><ele>555.6</ele></trkpt><trkpt lat="63.847037" lon="-19.214804"><time>2021-07-26T09:46:35.000Z</time><ele>554.6</ele></trkpt><trkpt lat="63.847013" lon="-19.214861"><time>2021-07-26T09:46:39.000Z</time><ele>555.4</ele></trkpt><trkpt lat="63.84698" lon="-19.214994"><time>2021-07-26T09:46:47.000Z</time><ele>555.8</ele></trkpt><trkpt lat="63.846975" lon="-19.215021"><time>2021-07-26T09:46:48.000Z</time><ele>555.8</ele></trkpt><trkpt lat="63.846941" lon="-19.215177"><time>2021-07-26T09:46:57.000Z</time><ele>556.4</ele></trkpt><trkpt lat="63.84694" lon="-19.215178"><time>2021-07-26T09:46:58.000Z</time><ele>556.4</ele></trkpt><trkpt lat="63.846931" lon="-19.21519"><time>2021-07-26T09:47:04.000Z</time><ele>556.8</ele></trkpt><trkpt lat="63.84693" lon="-19.215189"><time>2021-07-26T09:47:06.000Z</time><ele>557</ele></trkpt><trkpt lat="63.846909" lon="-19.21527"><time>2021-07-26T09:47:40.000Z</time><ele>557</ele></trkpt><trkpt lat="63.846874" lon="-19.215333"><time>2021-07-26T09:47:44.000Z</time><ele>557.4</ele></trkpt><trkpt lat="63.846861" lon="-19.215347"><time>2021-07-26T09:47:46.000Z</time><ele>557.8</ele></trkpt><trkpt lat="63.846842" lon="-19.215361"><time>2021-07-26T09:47:49.000Z</time><ele>558.4</ele></trkpt><trkpt lat="63.846824" lon="-19.215381"><time>2021-07-26T09:47:51.000Z</time><ele>558.6</ele></trkpt><trkpt lat="63.846788" lon="-19.215453"><time>2021-07-26T09:48:00.000Z</time><ele>558.2</ele></trkpt><trkpt lat="63.846776" lon="-19.215517"><time>2021-07-26T09:48:08.000Z</time><ele>558.6</ele></trkpt><trkpt lat="63.846739" lon="-19.215701"><time>2021-07-26T09:48:16.000Z</time><ele>558.8</ele></trkpt><trkpt lat="63.846723" lon="-19.215736"><time>2021-07-26T09:48:18.000Z</time><ele>558.8</ele></trkpt><trkpt lat="63.846682" lon="-19.215877"><time>2021-07-26T09:48:26.000Z</time><ele>558.4</ele></trkpt><trkpt lat="63.846669" lon="-19.215925"><time>2021-07-26T09:48:29.000Z</time><ele>558.4</ele></trkpt><trkpt lat="63.846668" lon="-19.215953"><time>2021-07-26T09:48:36.000Z</time><ele>559.6</ele></trkpt><trkpt lat="63.84667" lon="-19.215956"><time>2021-07-26T09:48:40.000Z</time><ele>559.2</ele></trkpt><trkpt lat="63.84667" lon="-19.215955"><time>2021-07-26T09:48:42.000Z</time><ele>559</ele></trkpt><trkpt lat="63.84667" lon="-19.215955"><time>2021-07-26T09:48:45.000Z</time><ele>558.8</ele></trkpt><trkpt lat="63.846651" lon="-19.215995"><time>2021-07-26T09:49:02.000Z</time><ele>559</ele></trkpt><trkpt lat="63.846619" lon="-19.216059"><time>2021-07-26T09:49:05.000Z</time><ele>559.4</ele></trkpt><trkpt lat="63.846548" lon="-19.216143"><time>2021-07-26T09:49:14.000Z</time><ele>559.4</ele></trkpt><trkpt lat="63.846547" lon="-19.216136"><time>2021-07-26T09:49:22.000Z</time><ele>558.8</ele></trkpt><trkpt lat="63.846547" lon="-19.216137"><time>2021-07-26T09:49:31.000Z</time><ele>558.8</ele></trkpt><trkpt lat="63.846518" lon="-19.216219"><time>2021-07-26T09:49:42.000Z</time><ele>558.8</ele></trkpt><trkpt lat="63.846437" lon="-19.216367"><time>2021-07-26T09:49:51.000Z</time><ele>560.2</ele></trkpt><trkpt lat="63.846437" lon="-19.216367"><time>2021-07-26T09:49:52.000Z</time><ele>560.4</ele></trkpt><trkpt lat="63.846384" lon="-19.216441"><time>2021-07-26T09:49:58.000Z</time><ele>560.6</ele></trkpt><trkpt lat="63.846374" lon="-19.21645"><time>2021-07-26T09:49:59.000Z</time><ele>560.6</ele></trkpt><trkpt lat="63.84634" lon="-19.216484"><time>2021-07-26T09:50:03.000Z</time><ele>560.6</ele></trkpt><trkpt lat="63.846301" lon="-19.216596"><time>2021-07-26T09:50:10.000Z</time><ele>560.8</ele></trkpt><trkpt lat="63.846268" lon="-19.2167"><time>2021-07-26T09:50:15.000Z</time><ele>561.2</ele></trkpt><trkpt lat="63.84625" lon="-19.216758"><time>2021-07-26T09:50:18.000Z</time><ele>561.6</ele></trkpt><trkpt lat="63.846223" lon="-19.216792"><time>2021-07-26T09:50:22.000Z</time><ele>561.6</ele></trkpt><trkpt lat="63.846228" lon="-19.21679"><time>2021-07-26T09:50:24.000Z</time><ele>561.6</ele></trkpt><trkpt lat="63.846222" lon="-19.216782"><time>2021-07-26T09:50:28.000Z</time><ele>561.6</ele></trkpt><trkpt lat="63.84622" lon="-19.216783"><time>2021-07-26T09:50:30.000Z</time><ele>561.6</ele></trkpt><trkpt lat="63.846182" lon="-19.216859"><time>2021-07-26T09:50:39.000Z</time><ele>561.6</ele></trkpt><trkpt lat="63.846124" lon="-19.216969"><time>2021-07-26T09:50:47.000Z</time><ele>562</ele></trkpt><trkpt lat="63.846076" lon="-19.217072"><time>2021-07-26T09:50:53.000Z</time><ele>562.2</ele></trkpt><trkpt lat="63.84604" lon="-19.217176"><time>2021-07-26T09:50:58.000Z</time><ele>562.2</ele></trkpt><trkpt lat="63.846008" lon="-19.217239"><time>2021-07-26T09:51:02.000Z</time><ele>562.2</ele></trkpt><trkpt lat="63.845944" lon="-19.21733"><time>2021-07-26T09:51:09.000Z</time><ele>562.6</ele></trkpt><trkpt lat="63.845846" lon="-19.217544"><time>2021-07-26T09:51:21.000Z</time><ele>562.8</ele></trkpt><trkpt lat="63.845776" lon="-19.217715"><time>2021-07-26T09:51:31.000Z</time><ele>562.8</ele></trkpt><trkpt lat="63.845686" lon="-19.217927"><time>2021-07-26T09:51:42.000Z</time><ele>562.4</ele></trkpt><trkpt lat="63.845679" lon="-19.217941"><time>2021-07-26T09:51:43.000Z</time><ele>562.4</ele></trkpt><trkpt lat="63.845641" lon="-19.218023"><time>2021-07-26T09:51:48.000Z</time><ele>562.8</ele></trkpt><trkpt lat="63.845633" lon="-19.218039"><time>2021-07-26T09:51:49.000Z</time><ele>563</ele></trkpt><trkpt lat="63.845603" lon="-19.218088"><time>2021-07-26T09:51:53.000Z</time><ele>563.4</ele></trkpt><trkpt lat="63.845594" lon="-19.218099"><time>2021-07-26T09:51:54.000Z</time><ele>563.4</ele></trkpt><trkpt lat="63.845548" lon="-19.218133"><time>2021-07-26T09:51:59.000Z</time><ele>563.8</ele></trkpt><trkpt lat="63.845524" lon="-19.218156"><time>2021-07-26T09:52:02.000Z</time><ele>564.2</ele></trkpt><trkpt lat="63.845508" lon="-19.218179"><time>2021-07-26T09:52:04.000Z</time><ele>564.4</ele></trkpt><trkpt lat="63.845433" lon="-19.218306"><time>2021-07-26T09:52:13.000Z</time><ele>565</ele></trkpt><trkpt lat="63.845415" lon="-19.218329"><time>2021-07-26T09:52:15.000Z</time><ele>565.4</ele></trkpt><trkpt lat="63.845328" lon="-19.218347"><time>2021-07-26T09:52:23.000Z</time><ele>566</ele></trkpt><trkpt lat="63.845262" lon="-19.218357"><time>2021-07-26T09:52:29.000Z</time><ele>566.4</ele></trkpt><trkpt lat="63.845215" lon="-19.218368"><time>2021-07-26T09:52:33.000Z</time><ele>566.6</ele></trkpt><trkpt lat="63.845093" lon="-19.218385"><time>2021-07-26T09:52:45.000Z</time><ele>567.4</ele></trkpt><trkpt lat="63.845082" lon="-19.218393"><time>2021-07-26T09:52:46.000Z</time><ele>567.4</ele></trkpt><trkpt lat="63.844973" lon="-19.218492"><time>2021-07-26T09:52:57.000Z</time><ele>568.4</ele></trkpt><trkpt lat="63.844902" lon="-19.218604"><time>2021-07-26T09:53:06.000Z</time><ele>569.4</ele></trkpt><trkpt lat="63.844854" lon="-19.218669"><time>2021-07-26T09:53:12.000Z</time><ele>570</ele></trkpt><trkpt lat="63.844829" lon="-19.218698"><time>2021-07-26T09:53:15.000Z</time><ele>570.2</ele></trkpt><trkpt lat="63.844812" lon="-19.218717"><time>2021-07-26T09:53:17.000Z</time><ele>570.6</ele></trkpt><trkpt lat="63.844789" lon="-19.218746"><time>2021-07-26T09:53:20.000Z</time><ele>571.2</ele></trkpt><trkpt lat="63.844754" lon="-19.21882"><time>2021-07-26T09:53:25.000Z</time><ele>571.6</ele></trkpt><trkpt lat="63.844721" lon="-19.218863"><time>2021-07-26T09:53:29.000Z</time><ele>571.8</ele></trkpt><trkpt lat="63.844695" lon="-19.218903"><time>2021-07-26T09:53:32.000Z</time><ele>572</ele></trkpt><trkpt lat="63.844662" lon="-19.218956"><time>2021-07-26T09:53:36.000Z</time><ele>572.6</ele></trkpt><trkpt lat="63.844657" lon="-19.21896"><time>2021-07-26T09:53:37.000Z</time><ele>572.8</ele></trkpt><trkpt lat="63.84465" lon="-19.218956"><time>2021-07-26T09:53:38.000Z</time><ele>572.8</ele></trkpt><trkpt lat="63.844639" lon="-19.218955"><time>2021-07-26T09:53:41.000Z</time><ele>573</ele></trkpt><trkpt lat="63.844636" lon="-19.218958"><time>2021-07-26T09:53:42.000Z</time><ele>573.2</ele></trkpt><trkpt lat="63.844583" lon="-19.218968"><time>2021-07-26T09:53:49.000Z</time><ele>573.2</ele></trkpt><trkpt lat="63.844493" lon="-19.218845"><time>2021-07-26T09:53:59.000Z</time><ele>573.4</ele></trkpt><trkpt lat="63.844474" lon="-19.218767"><time>2021-07-26T09:54:03.000Z</time><ele>573.6</ele></trkpt><trkpt lat="63.84447" lon="-19.21875"><time>2021-07-26T09:54:04.000Z</time><ele>573.6</ele></trkpt><trkpt lat="63.844459" lon="-19.218715"><time>2021-07-26T09:54:06.000Z</time><ele>573.8</ele></trkpt><trkpt lat="63.844451" lon="-19.218708"><time>2021-07-26T09:54:07.000Z</time><ele>574</ele></trkpt><trkpt lat="63.844433" lon="-19.218701"><time>2021-07-26T09:54:09.000Z</time><ele>574.2</ele></trkpt><trkpt lat="63.844425" lon="-19.218696"><time>2021-07-26T09:54:10.000Z</time><ele>574.2</ele></trkpt><trkpt lat="63.84439" lon="-19.21869"><time>2021-07-26T09:54:14.000Z</time><ele>574.6</ele></trkpt><trkpt lat="63.84437" lon="-19.218689"><time>2021-07-26T09:54:16.000Z</time><ele>575</ele></trkpt><trkpt lat="63.84433" lon="-19.218679"><time>2021-07-26T09:54:20.000Z</time><ele>575.6</ele></trkpt><trkpt lat="63.844292" lon="-19.218674"><time>2021-07-26T09:54:24.000Z</time><ele>576</ele></trkpt><trkpt lat="63.844223" lon="-19.218671"><time>2021-07-26T09:54:32.000Z</time><ele>577.2</ele></trkpt><trkpt lat="63.844213" lon="-19.218668"><time>2021-07-26T09:54:33.000Z</time><ele>577.4</ele></trkpt><trkpt lat="63.844176" lon="-19.218662"><time>2021-07-26T09:54:38.000Z</time><ele>578.4</ele></trkpt><trkpt lat="63.84414" lon="-19.218664"><time>2021-07-26T09:54:42.000Z</time><ele>578.8</ele></trkpt><trkpt lat="63.844113" lon="-19.218659"><time>2021-07-26T09:54:45.000Z</time><ele>579.2</ele></trkpt><trkpt lat="63.844104" lon="-19.218652"><time>2021-07-26T09:54:46.000Z</time><ele>579.4</ele></trkpt><trkpt lat="63.844037" lon="-19.218614"><time>2021-07-26T09:54:54.000Z</time><ele>580</ele></trkpt><trkpt lat="63.84402" lon="-19.218596"><time>2021-07-26T09:54:56.000Z</time><ele>580.4</ele></trkpt><trkpt lat="63.844012" lon="-19.218593"><time>2021-07-26T09:54:57.000Z</time><ele>580.6</ele></trkpt><trkpt lat="63.843974" lon="-19.218553"><time>2021-07-26T09:55:02.000Z</time><ele>581</ele></trkpt><trkpt lat="63.843933" lon="-19.218499"><time>2021-07-26T09:55:07.000Z</time><ele>581.6</ele></trkpt><trkpt lat="63.843909" lon="-19.218476"><time>2021-07-26T09:55:10.000Z</time><ele>581.8</ele></trkpt><trkpt lat="63.84389" lon="-19.218457"><time>2021-07-26T09:55:12.000Z</time><ele>581.8</ele></trkpt><trkpt lat="63.843864" lon="-19.218434"><time>2021-07-26T09:55:15.000Z</time><ele>582.2</ele></trkpt><trkpt lat="63.84378" lon="-19.218374"><time>2021-07-26T09:55:24.000Z</time><ele>582.2</ele></trkpt><trkpt lat="63.843778" lon="-19.218369"><time>2021-07-26T09:55:27.000Z</time><ele>582.4</ele></trkpt><trkpt lat="63.843746" lon="-19.218363"><time>2021-07-26T09:55:34.000Z</time><ele>582</ele></trkpt><trkpt lat="63.843697" lon="-19.218332"><time>2021-07-26T09:55:38.000Z</time><ele>581.8</ele></trkpt><trkpt lat="63.843643" lon="-19.21831"><time>2021-07-26T09:55:43.000Z</time><ele>581.8</ele></trkpt><trkpt lat="63.843584" lon="-19.218229"><time>2021-07-26T09:55:51.000Z</time><ele>582.2</ele></trkpt><trkpt lat="63.843521" lon="-19.218067"><time>2021-07-26T09:56:00.000Z</time><ele>582.6</ele></trkpt><trkpt lat="63.843506" lon="-19.218006"><time>2021-07-26T09:56:03.000Z</time><ele>582.8</ele></trkpt><trkpt lat="63.843446" lon="-19.217759"><time>2021-07-26T09:56:16.000Z</time><ele>583</ele></trkpt><trkpt lat="63.843425" lon="-19.217689"><time>2021-07-26T09:56:20.000Z</time><ele>582.8</ele></trkpt><trkpt lat="63.843413" lon="-19.217647"><time>2021-07-26T09:56:22.000Z</time><ele>582.8</ele></trkpt><trkpt lat="63.84341" lon="-19.217622"><time>2021-07-26T09:56:23.000Z</time><ele>582.6</ele></trkpt><trkpt lat="63.84341" lon="-19.217539"><time>2021-07-26T09:56:27.000Z</time><ele>582</ele></trkpt><trkpt lat="63.843407" lon="-19.217483"><time>2021-07-26T09:56:30.000Z</time><ele>581.8</ele></trkpt><trkpt lat="63.843407" lon="-19.217462"><time>2021-07-26T09:56:31.000Z</time><ele>581.6</ele></trkpt><trkpt lat="63.843407" lon="-19.217439"><time>2021-07-26T09:56:32.000Z</time><ele>581.6</ele></trkpt><trkpt lat="63.843402" lon="-19.217355"><time>2021-07-26T09:56:37.000Z</time><ele>581</ele></trkpt><trkpt lat="63.843395" lon="-19.217289"><time>2021-07-26T09:56:40.000Z</time><ele>580.6</ele></trkpt><trkpt lat="63.8434" lon="-19.217198"><time>2021-07-26T09:56:45.000Z</time><ele>579.4</ele></trkpt><trkpt lat="63.843397" lon="-19.217147"><time>2021-07-26T09:56:47.000Z</time><ele>579</ele></trkpt><trkpt lat="63.843395" lon="-19.217079"><time>2021-07-26T09:56:50.000Z</time><ele>578.4</ele></trkpt><trkpt lat="63.843383" lon="-19.216926"><time>2021-07-26T09:56:57.000Z</time><ele>577.4</ele></trkpt><trkpt lat="63.843381" lon="-19.216906"><time>2021-07-26T09:56:58.000Z</time><ele>577.4</ele></trkpt><trkpt lat="63.843378" lon="-19.216891"><time>2021-07-26T09:56:59.000Z</time><ele>577.2</ele></trkpt><trkpt lat="63.843357" lon="-19.216857"><time>2021-07-26T09:57:03.000Z</time><ele>576.2</ele></trkpt><trkpt lat="63.84335" lon="-19.216846"><time>2021-07-26T09:57:04.000Z</time><ele>576</ele></trkpt><trkpt lat="63.843325" lon="-19.216814"><time>2021-07-26T09:57:08.000Z</time><ele>575</ele></trkpt><trkpt lat="63.843309" lon="-19.216816"><time>2021-07-26T09:57:11.000Z</time><ele>573.8</ele></trkpt><trkpt lat="63.843275" lon="-19.216824"><time>2021-07-26T09:57:14.000Z</time><ele>573.6</ele></trkpt><trkpt lat="63.843251" lon="-19.216839"><time>2021-07-26T09:57:18.000Z</time><ele>573.8</ele></trkpt><trkpt lat="63.84322" lon="-19.216891"><time>2021-07-26T09:57:23.000Z</time><ele>573.8</ele></trkpt><trkpt lat="63.843201" lon="-19.216939"><time>2021-07-26T09:57:28.000Z</time><ele>574.6</ele></trkpt><trkpt lat="63.843203" lon="-19.216939"><time>2021-07-26T09:57:32.000Z</time><ele>574.8</ele></trkpt><trkpt lat="63.843211" lon="-19.216937"><time>2021-07-26T09:57:37.000Z</time><ele>574.8</ele></trkpt><trkpt lat="63.84321" lon="-19.216943"><time>2021-07-26T09:57:42.000Z</time><ele>574.8</ele></trkpt><trkpt lat="63.843191" lon="-19.217018"><time>2021-07-26T09:57:49.000Z</time><ele>575</ele></trkpt><trkpt lat="63.843188" lon="-19.217042"><time>2021-07-26T09:57:50.000Z</time><ele>575.4</ele></trkpt><trkpt lat="63.84317" lon="-19.217099"><time>2021-07-26T09:57:52.000Z</time><ele>576</ele></trkpt><trkpt lat="63.843145" lon="-19.217158"><time>2021-07-26T09:57:57.000Z</time><ele>577</ele></trkpt><trkpt lat="63.843122" lon="-19.21722"><time>2021-07-26T09:58:01.000Z</time><ele>578</ele></trkpt><trkpt lat="63.843118" lon="-19.217229"><time>2021-07-26T09:58:02.000Z</time><ele>578.2</ele></trkpt><trkpt lat="63.84309" lon="-19.217286"><time>2021-07-26T09:58:09.000Z</time><ele>579</ele></trkpt><trkpt lat="63.843084" lon="-19.217298"><time>2021-07-26T09:58:10.000Z</time><ele>579.4</ele></trkpt><trkpt lat="63.843049" lon="-19.217336"><time>2021-07-26T09:58:15.000Z</time><ele>580.4</ele></trkpt><trkpt lat="63.843043" lon="-19.217343"><time>2021-07-26T09:58:16.000Z</time><ele>580.6</ele></trkpt><trkpt lat="63.843026" lon="-19.217359"><time>2021-07-26T09:58:19.000Z</time><ele>581.2</ele></trkpt><trkpt lat="63.84302" lon="-19.217376"><time>2021-07-26T09:58:25.000Z</time><ele>581.2</ele></trkpt><trkpt lat="63.84302" lon="-19.217375"><time>2021-07-26T09:58:26.000Z</time><ele>581.2</ele></trkpt><trkpt lat="63.843017" lon="-19.217358"><time>2021-07-26T09:58:29.000Z</time><ele>581.2</ele></trkpt><trkpt lat="63.843017" lon="-19.217358"><time>2021-07-26T09:58:37.000Z</time><ele>581.2</ele></trkpt><trkpt lat="63.843017" lon="-19.217364"><time>2021-07-26T09:58:43.000Z</time><ele>581.2</ele></trkpt><trkpt lat="63.843019" lon="-19.217368"><time>2021-07-26T09:58:51.000Z</time><ele>581</ele></trkpt><trkpt lat="63.843019" lon="-19.217368"><time>2021-07-26T09:58:53.000Z</time><ele>581</ele></trkpt><trkpt lat="63.84302" lon="-19.217365"><time>2021-07-26T09:58:56.000Z</time><ele>581.2</ele></trkpt><trkpt lat="63.843033" lon="-19.217369"><time>2021-07-26T09:59:03.000Z</time><ele>581.2</ele></trkpt><trkpt lat="63.84304" lon="-19.217369"><time>2021-07-26T09:59:14.000Z</time><ele>581.2</ele></trkpt><trkpt lat="63.84304" lon="-19.217368"><time>2021-07-26T09:59:16.000Z</time><ele>581.2</ele></trkpt><trkpt lat="63.843042" lon="-19.217367"><time>2021-07-26T09:59:18.000Z</time><ele>581.2</ele></trkpt><trkpt lat="63.843043" lon="-19.217367"><time>2021-07-26T09:59:20.000Z</time><ele>581.2</ele></trkpt><trkpt lat="63.843044" lon="-19.217355"><time>2021-07-26T09:59:28.000Z</time><ele>581.2</ele></trkpt><trkpt lat="63.843044" lon="-19.217333"><time>2021-07-26T09:59:42.000Z</time><ele>581.6</ele></trkpt><trkpt lat="63.843025" lon="-19.217331"><time>2021-07-26T09:59:44.000Z</time><ele>581.6</ele></trkpt><trkpt lat="63.842973" lon="-19.217324"><time>2021-07-26T09:59:47.000Z</time><ele>581.8</ele></trkpt><trkpt lat="63.842906" lon="-19.217306"><time>2021-07-26T09:59:51.000Z</time><ele>581.8</ele></trkpt><trkpt lat="63.842833" lon="-19.217262"><time>2021-07-26T09:59:57.000Z</time><ele>581.8</ele></trkpt><trkpt lat="63.842733" lon="-19.217221"><time>2021-07-26T10:00:07.000Z</time><ele>580.6</ele></trkpt><trkpt lat="63.842714" lon="-19.217198"><time>2021-07-26T10:00:08.000Z</time><ele>580.6</ele></trkpt><trkpt lat="63.842666" lon="-19.217175"><time>2021-07-26T10:00:16.000Z</time><ele>579.8</ele></trkpt><trkpt lat="63.842638" lon="-19.217207"><time>2021-07-26T10:00:20.000Z</time><ele>580.2</ele></trkpt><trkpt lat="63.842619" lon="-19.217242"><time>2021-07-26T10:00:24.000Z</time><ele>580.8</ele></trkpt><trkpt lat="63.842584" lon="-19.217305"><time>2021-07-26T10:00:29.000Z</time><ele>581.6</ele></trkpt><trkpt lat="63.842557" lon="-19.217333"><time>2021-07-26T10:00:32.000Z</time><ele>582.2</ele></trkpt><trkpt lat="63.842519" lon="-19.217368"><time>2021-07-26T10:00:35.000Z</time><ele>582.8</ele></trkpt><trkpt lat="63.84249" lon="-19.217383"><time>2021-07-26T10:00:40.000Z</time><ele>583.6</ele></trkpt><trkpt lat="63.842481" lon="-19.217386"><time>2021-07-26T10:00:41.000Z</time><ele>583.8</ele></trkpt><trkpt lat="63.842453" lon="-19.217389"><time>2021-07-26T10:00:43.000Z</time><ele>584.2</ele></trkpt><trkpt lat="63.842408" lon="-19.217385"><time>2021-07-26T10:00:48.000Z</time><ele>584.6</ele></trkpt><trkpt lat="63.842398" lon="-19.217382"><time>2021-07-26T10:00:50.000Z</time><ele>584.6</ele></trkpt><trkpt lat="63.842359" lon="-19.217373"><time>2021-07-26T10:00:54.000Z</time><ele>584.6</ele></trkpt><trkpt lat="63.842339" lon="-19.217357"><time>2021-07-26T10:00:56.000Z</time><ele>584.8</ele></trkpt><trkpt lat="63.84233" lon="-19.217354"><time>2021-07-26T10:00:57.000Z</time><ele>585</ele></trkpt><trkpt lat="63.842323" lon="-19.217348"><time>2021-07-26T10:00:58.000Z</time><ele>585</ele></trkpt><trkpt lat="63.842297" lon="-19.217343"><time>2021-07-26T10:01:02.000Z</time><ele>585.2</ele></trkpt><trkpt lat="63.842293" lon="-19.217345"><time>2021-07-26T10:01:03.000Z</time><ele>585.2</ele></trkpt><trkpt lat="63.842282" lon="-19.21736"><time>2021-07-26T10:01:07.000Z</time><ele>585.2</ele></trkpt><trkpt lat="63.842257" lon="-19.217371"><time>2021-07-26T10:01:10.000Z</time><ele>585.2</ele></trkpt><trkpt lat="63.842186" lon="-19.217327"><time>2021-07-26T10:01:18.000Z</time><ele>586</ele></trkpt><trkpt lat="63.842128" lon="-19.217311"><time>2021-07-26T10:01:26.000Z</time><ele>586.8</ele></trkpt><trkpt lat="63.842111" lon="-19.217302"><time>2021-07-26T10:01:29.000Z</time><ele>587</ele></trkpt><trkpt lat="63.842087" lon="-19.217288"><time>2021-07-26T10:01:32.000Z</time><ele>587.4</ele></trkpt><trkpt lat="63.842074" lon="-19.21728"><time>2021-07-26T10:01:34.000Z</time><ele>587.6</ele></trkpt><trkpt lat="63.842057" lon="-19.21727"><time>2021-07-26T10:01:37.000Z</time><ele>588.2</ele></trkpt><trkpt lat="63.84205" lon="-19.217268"><time>2021-07-26T10:01:38.000Z</time><ele>588.2</ele></trkpt><trkpt lat="63.842023" lon="-19.217261"><time>2021-07-26T10:01:41.000Z</time><ele>588.4</ele></trkpt><trkpt lat="63.842004" lon="-19.217256"><time>2021-07-26T10:01:44.000Z</time><ele>589</ele></trkpt><trkpt lat="63.841993" lon="-19.217245"><time>2021-07-26T10:01:46.000Z</time><ele>589.4</ele></trkpt><trkpt lat="63.84198" lon="-19.217234"><time>2021-07-26T10:01:48.000Z</time><ele>589.6</ele></trkpt><trkpt lat="63.841967" lon="-19.217219"><time>2021-07-26T10:01:50.000Z</time><ele>589.6</ele></trkpt><trkpt lat="63.841961" lon="-19.21721"><time>2021-07-26T10:01:51.000Z</time><ele>589.8</ele></trkpt><trkpt lat="63.841956" lon="-19.217206"><time>2021-07-26T10:01:52.000Z</time><ele>589.8</ele></trkpt><trkpt lat="63.841941" lon="-19.217198"><time>2021-07-26T10:01:54.000Z</time><ele>590.2</ele></trkpt><trkpt lat="63.841934" lon="-19.217187"><time>2021-07-26T10:01:55.000Z</time><ele>590.4</ele></trkpt><trkpt lat="63.841919" lon="-19.217165"><time>2021-07-26T10:01:57.000Z</time><ele>590.4</ele></trkpt><trkpt lat="63.8419" lon="-19.217135"><time>2021-07-26T10:02:00.000Z</time><ele>590.4</ele></trkpt><trkpt lat="63.841836" lon="-19.217068"><time>2021-07-26T10:02:09.000Z</time><ele>591.4</ele></trkpt><trkpt lat="63.841829" lon="-19.21706"><time>2021-07-26T10:02:10.000Z</time><ele>591.4</ele></trkpt><trkpt lat="63.841763" lon="-19.216998"><time>2021-07-26T10:02:19.000Z</time><ele>592.2</ele></trkpt><trkpt lat="63.841757" lon="-19.21699"><time>2021-07-26T10:02:20.000Z</time><ele>592.4</ele></trkpt><trkpt lat="63.84175" lon="-19.216981"><time>2021-07-26T10:02:21.000Z</time><ele>592.4</ele></trkpt><trkpt lat="63.841718" lon="-19.216929"><time>2021-07-26T10:02:26.000Z</time><ele>593</ele></trkpt><trkpt lat="63.841692" lon="-19.216893"><time>2021-07-26T10:02:31.000Z</time><ele>593.4</ele></trkpt><trkpt lat="63.841665" lon="-19.216879"><time>2021-07-26T10:02:33.000Z</time><ele>593.8</ele></trkpt><trkpt lat="63.841628" lon="-19.216869"><time>2021-07-26T10:02:37.000Z</time><ele>594.2</ele></trkpt><trkpt lat="63.841605" lon="-19.216857"><time>2021-07-26T10:02:40.000Z</time><ele>594.6</ele></trkpt><trkpt lat="63.841564" lon="-19.216824"><time>2021-07-26T10:02:45.000Z</time><ele>595.2</ele></trkpt><trkpt lat="63.84152" lon="-19.21678"><time>2021-07-26T10:02:50.000Z</time><ele>595.8</ele></trkpt><trkpt lat="63.841488" lon="-19.216736"><time>2021-07-26T10:02:55.000Z</time><ele>596.4</ele></trkpt><trkpt lat="63.841457" lon="-19.216698"><time>2021-07-26T10:02:59.000Z</time><ele>596.8</ele></trkpt><trkpt lat="63.841412" lon="-19.216655"><time>2021-07-26T10:03:05.000Z</time><ele>597.6</ele></trkpt><trkpt lat="63.841404" lon="-19.21665"><time>2021-07-26T10:03:06.000Z</time><ele>597.8</ele></trkpt><trkpt lat="63.841396" lon="-19.216642"><time>2021-07-26T10:03:07.000Z</time><ele>597.8</ele></trkpt><trkpt lat="63.84136" lon="-19.2166"><time>2021-07-26T10:03:13.000Z</time><ele>598.8</ele></trkpt><trkpt lat="63.841348" lon="-19.216585"><time>2021-07-26T10:03:15.000Z</time><ele>599.2</ele></trkpt><trkpt lat="63.841326" lon="-19.216551"><time>2021-07-26T10:03:19.000Z</time><ele>599.8</ele></trkpt><trkpt lat="63.841291" lon="-19.216511"><time>2021-07-26T10:03:25.000Z</time><ele>601</ele></trkpt><trkpt lat="63.841252" lon="-19.216478"><time>2021-07-26T10:03:31.000Z</time><ele>602</ele></trkpt><trkpt lat="63.841247" lon="-19.216474"><time>2021-07-26T10:03:32.000Z</time><ele>602.2</ele></trkpt><trkpt lat="63.841212" lon="-19.216448"><time>2021-07-26T10:03:37.000Z</time><ele>602.8</ele></trkpt><trkpt lat="63.841197" lon="-19.216443"><time>2021-07-26T10:03:39.000Z</time><ele>603</ele></trkpt><trkpt lat="63.841143" lon="-19.216426"><time>2021-07-26T10:03:47.000Z</time><ele>603.6</ele></trkpt><trkpt lat="63.841121" lon="-19.216409"><time>2021-07-26T10:03:50.000Z</time><ele>604.2</ele></trkpt><trkpt lat="63.841085" lon="-19.216407"><time>2021-07-26T10:03:55.000Z</time><ele>605</ele></trkpt><trkpt lat="63.841076" lon="-19.216407"><time>2021-07-26T10:03:56.000Z</time><ele>605.2</ele></trkpt><trkpt lat="63.841031" lon="-19.216425"><time>2021-07-26T10:04:02.000Z</time><ele>606.2</ele></trkpt><trkpt lat="63.840981" lon="-19.21644"><time>2021-07-26T10:04:08.000Z</time><ele>607</ele></trkpt><trkpt lat="63.840959" lon="-19.216451"><time>2021-07-26T10:04:10.000Z</time><ele>607.2</ele></trkpt><trkpt lat="63.840916" lon="-19.216478"><time>2021-07-26T10:04:15.000Z</time><ele>607.8</ele></trkpt><trkpt lat="63.840888" lon="-19.216494"><time>2021-07-26T10:04:18.000Z</time><ele>608</ele></trkpt><trkpt lat="63.840866" lon="-19.216503"><time>2021-07-26T10:04:20.000Z</time><ele>608.2</ele></trkpt><trkpt lat="63.840798" lon="-19.216534"><time>2021-07-26T10:04:29.000Z</time><ele>608.8</ele></trkpt><trkpt lat="63.840788" lon="-19.216527"><time>2021-07-26T10:04:31.000Z</time><ele>609</ele></trkpt><trkpt lat="63.840789" lon="-19.216519"><time>2021-07-26T10:04:35.000Z</time><ele>609</ele></trkpt><trkpt lat="63.840792" lon="-19.216519"><time>2021-07-26T10:04:42.000Z</time><ele>609.2</ele></trkpt><trkpt lat="63.840792" lon="-19.216519"><time>2021-07-26T10:04:45.000Z</time><ele>609.4</ele></trkpt><trkpt lat="63.840792" lon="-19.216519"><time>2021-07-26T10:04:54.000Z</time><ele>609</ele></trkpt><trkpt lat="63.840792" lon="-19.216522"><time>2021-07-26T10:04:59.000Z</time><ele>608.6</ele></trkpt><trkpt lat="63.840791" lon="-19.216523"><time>2021-07-26T10:05:04.000Z</time><ele>609.8</ele></trkpt><trkpt lat="63.840714" lon="-19.216462"><time>2021-07-26T10:05:15.000Z</time><ele>610.4</ele></trkpt><trkpt lat="63.840683" lon="-19.216445"><time>2021-07-26T10:05:17.000Z</time><ele>610.4</ele></trkpt><trkpt lat="63.840628" lon="-19.216391"><time>2021-07-26T10:05:21.000Z</time><ele>610.8</ele></trkpt><trkpt lat="63.840598" lon="-19.216382"><time>2021-07-26T10:05:25.000Z</time><ele>611.4</ele></trkpt><trkpt lat="63.840571" lon="-19.216397"><time>2021-07-26T10:05:28.000Z</time><ele>611.6</ele></trkpt><trkpt lat="63.840507" lon="-19.21637"><time>2021-07-26T10:05:35.000Z</time><ele>612.4</ele></trkpt><trkpt lat="63.840489" lon="-19.216363"><time>2021-07-26T10:05:38.000Z</time><ele>612.8</ele></trkpt><trkpt lat="63.840485" lon="-19.216364"><time>2021-07-26T10:05:41.000Z</time><ele>613</ele></trkpt><trkpt lat="63.840481" lon="-19.216371"><time>2021-07-26T10:05:45.000Z</time><ele>613</ele></trkpt><trkpt lat="63.840478" lon="-19.216366"><time>2021-07-26T10:05:48.000Z</time><ele>613</ele></trkpt><trkpt lat="63.840478" lon="-19.216366"><time>2021-07-26T10:05:49.000Z</time><ele>613.2</ele></trkpt><trkpt lat="63.840482" lon="-19.216363"><time>2021-07-26T10:06:03.000Z</time><ele>612.4</ele></trkpt><trkpt lat="63.840488" lon="-19.216342"><time>2021-07-26T10:06:21.000Z</time><ele>612.4</ele></trkpt><trkpt lat="63.840488" lon="-19.216344"><time>2021-07-26T10:06:22.000Z</time><ele>612.4</ele></trkpt><trkpt lat="63.84048" lon="-19.216348"><time>2021-07-26T10:06:28.000Z</time><ele>612.6</ele></trkpt><trkpt lat="63.84048" lon="-19.216352"><time>2021-07-26T10:06:33.000Z</time><ele>612.6</ele></trkpt><trkpt lat="63.840475" lon="-19.216363"><time>2021-07-26T10:06:47.000Z</time><ele>612.8</ele></trkpt><trkpt lat="63.840469" lon="-19.216364"><time>2021-07-26T10:06:51.000Z</time><ele>612.8</ele></trkpt><trkpt lat="63.840403" lon="-19.216345"><time>2021-07-26T10:06:54.000Z</time><ele>612.8</ele></trkpt><trkpt lat="63.84024" lon="-19.216301"><time>2021-07-26T10:07:06.000Z</time><ele>612.6</ele></trkpt><trkpt lat="63.840173" lon="-19.21626"><time>2021-07-26T10:07:13.000Z</time><ele>612.2</ele></trkpt><trkpt lat="63.840135" lon="-19.216246"><time>2021-07-26T10:07:16.000Z</time><ele>612.2</ele></trkpt><trkpt lat="63.84005" lon="-19.21622"><time>2021-07-26T10:07:24.000Z</time><ele>612</ele></trkpt><trkpt lat="63.840022" lon="-19.216211"><time>2021-07-26T10:07:27.000Z</time><ele>611.6</ele></trkpt><trkpt lat="63.839993" lon="-19.216204"><time>2021-07-26T10:07:30.000Z</time><ele>611.4</ele></trkpt><trkpt lat="63.839885" lon="-19.216178"><time>2021-07-26T10:07:40.000Z</time><ele>611.2</ele></trkpt><trkpt lat="63.839799" lon="-19.216139"><time>2021-07-26T10:07:49.000Z</time><ele>610.8</ele></trkpt><trkpt lat="63.839769" lon="-19.216112"><time>2021-07-26T10:07:52.000Z</time><ele>610.4</ele></trkpt><trkpt lat="63.839698" lon="-19.216038"><time>2021-07-26T10:08:00.000Z</time><ele>610.4</ele></trkpt><trkpt lat="63.839634" lon="-19.215973"><time>2021-07-26T10:08:07.000Z</time><ele>610.4</ele></trkpt><trkpt lat="63.839601" lon="-19.215946"><time>2021-07-26T10:08:10.000Z</time><ele>610.4</ele></trkpt><trkpt lat="63.839477" lon="-19.215877"><time>2021-07-26T10:08:22.000Z</time><ele>609.4</ele></trkpt><trkpt lat="63.839465" lon="-19.21587"><time>2021-07-26T10:08:23.000Z</time><ele>609.2</ele></trkpt><trkpt lat="63.839367" lon="-19.215829"><time>2021-07-26T10:08:31.000Z</time><ele>609.2</ele></trkpt><trkpt lat="63.839331" lon="-19.215815"><time>2021-07-26T10:08:34.000Z</time><ele>609.2</ele></trkpt><trkpt lat="63.83928" lon="-19.215777"><time>2021-07-26T10:08:39.000Z</time><ele>610</ele></trkpt><trkpt lat="63.839216" lon="-19.215738"><time>2021-07-26T10:08:45.000Z</time><ele>609.8</ele></trkpt><trkpt lat="63.839205" lon="-19.215731"><time>2021-07-26T10:08:46.000Z</time><ele>609.8</ele></trkpt><trkpt lat="63.839196" lon="-19.215724"><time>2021-07-26T10:08:47.000Z</time><ele>609.8</ele></trkpt><trkpt lat="63.839156" lon="-19.215687"><time>2021-07-26T10:08:51.000Z</time><ele>609.8</ele></trkpt><trkpt lat="63.839116" lon="-19.215623"><time>2021-07-26T10:08:56.000Z</time><ele>609.8</ele></trkpt><trkpt lat="63.838995" lon="-19.215423"><time>2021-07-26T10:09:12.000Z</time><ele>609.8</ele></trkpt><trkpt lat="63.838988" lon="-19.21543"><time>2021-07-26T10:09:15.000Z</time><ele>609.8</ele></trkpt><trkpt lat="63.838986" lon="-19.215424"><time>2021-07-26T10:09:22.000Z</time><ele>609.4</ele></trkpt><trkpt lat="63.838986" lon="-19.215425"><time>2021-07-26T10:09:24.000Z</time><ele>609.4</ele></trkpt><trkpt lat="63.838986" lon="-19.215425"><time>2021-07-26T10:09:28.000Z</time><ele>609.4</ele></trkpt><trkpt lat="63.838986" lon="-19.215425"><time>2021-07-26T10:09:34.000Z</time><ele>608.8</ele></trkpt><trkpt lat="63.838938" lon="-19.215346"><time>2021-07-26T10:09:49.000Z</time><ele>609.2</ele></trkpt><trkpt lat="63.838914" lon="-19.215314"><time>2021-07-26T10:09:51.000Z</time><ele>609.2</ele></trkpt><trkpt lat="63.838902" lon="-19.215295"><time>2021-07-26T10:09:52.000Z</time><ele>609.2</ele></trkpt><trkpt lat="63.838853" lon="-19.21523"><time>2021-07-26T10:09:57.000Z</time><ele>609.4</ele></trkpt><trkpt lat="63.838748" lon="-19.215071"><time>2021-07-26T10:10:08.000Z</time><ele>609.4</ele></trkpt><trkpt lat="63.838628" lon="-19.214865"><time>2021-07-26T10:10:21.000Z</time><ele>609.6</ele></trkpt><trkpt lat="63.838541" lon="-19.214704"><time>2021-07-26T10:10:32.000Z</time><ele>609.2</ele></trkpt><trkpt lat="63.838532" lon="-19.214691"><time>2021-07-26T10:10:33.000Z</time><ele>609.2</ele></trkpt><trkpt lat="63.838441" lon="-19.214526"><time>2021-07-26T10:10:42.000Z</time><ele>609.4</ele></trkpt><trkpt lat="63.838341" lon="-19.21431"><time>2021-07-26T10:10:54.000Z</time><ele>609</ele></trkpt><trkpt lat="63.838243" lon="-19.214103"><time>2021-07-26T10:11:06.000Z</time><ele>608.2</ele></trkpt><trkpt lat="63.838231" lon="-19.214066"><time>2021-07-26T10:11:08.000Z</time><ele>608.2</ele></trkpt><trkpt lat="63.838178" lon="-19.213941"><time>2021-07-26T10:11:16.000Z</time><ele>607.4</ele></trkpt><trkpt lat="63.838174" lon="-19.213927"><time>2021-07-26T10:11:17.000Z</time><ele>607.2</ele></trkpt><trkpt lat="63.838146" lon="-19.2138"><time>2021-07-26T10:11:25.000Z</time><ele>606.2</ele></trkpt><trkpt lat="63.838143" lon="-19.213784"><time>2021-07-26T10:11:26.000Z</time><ele>605.8</ele></trkpt><trkpt lat="63.838129" lon="-19.213757"><time>2021-07-26T10:11:28.000Z</time><ele>605.6</ele></trkpt><trkpt lat="63.838111" lon="-19.213742"><time>2021-07-26T10:11:30.000Z</time><ele>605.2</ele></trkpt><trkpt lat="63.838103" lon="-19.213735"><time>2021-07-26T10:11:31.000Z</time><ele>605</ele></trkpt><trkpt lat="63.838097" lon="-19.213726"><time>2021-07-26T10:11:32.000Z</time><ele>604.8</ele></trkpt><trkpt lat="63.838094" lon="-19.213719"><time>2021-07-26T10:11:33.000Z</time><ele>604.8</ele></trkpt><trkpt lat="63.838084" lon="-19.213707"><time>2021-07-26T10:11:35.000Z</time><ele>604.8</ele></trkpt><trkpt lat="63.838075" lon="-19.213698"><time>2021-07-26T10:11:37.000Z</time><ele>604.8</ele></trkpt><trkpt lat="63.83807" lon="-19.213694"><time>2021-07-26T10:11:39.000Z</time><ele>605.2</ele></trkpt><trkpt lat="63.838055" lon="-19.213692"><time>2021-07-26T10:11:41.000Z</time><ele>605.4</ele></trkpt><trkpt lat="63.838018" lon="-19.213701"><time>2021-07-26T10:11:46.000Z</time><ele>606</ele></trkpt><trkpt lat="63.837966" lon="-19.213738"><time>2021-07-26T10:11:52.000Z</time><ele>606.6</ele></trkpt><trkpt lat="63.837941" lon="-19.213755"><time>2021-07-26T10:11:55.000Z</time><ele>607</ele></trkpt><trkpt lat="63.837894" lon="-19.213766"><time>2021-07-26T10:12:00.000Z</time><ele>607.6</ele></trkpt><trkpt lat="63.837884" lon="-19.213771"><time>2021-07-26T10:12:01.000Z</time><ele>607.6</ele></trkpt><trkpt lat="63.837863" lon="-19.21376"><time>2021-07-26T10:12:03.000Z</time><ele>607.6</ele></trkpt><trkpt lat="63.837831" lon="-19.213761"><time>2021-07-26T10:12:08.000Z</time><ele>607.6</ele></trkpt><trkpt lat="63.83783" lon="-19.21377"><time>2021-07-26T10:12:09.000Z</time><ele>607.6</ele></trkpt><trkpt lat="63.837827" lon="-19.213778"><time>2021-07-26T10:12:16.000Z</time><ele>607.4</ele></trkpt><trkpt lat="63.837825" lon="-19.213776"><time>2021-07-26T10:12:24.000Z</time><ele>608</ele></trkpt><trkpt lat="63.837827" lon="-19.213775"><time>2021-07-26T10:12:29.000Z</time><ele>608.2</ele></trkpt><trkpt lat="63.83783" lon="-19.21377"><time>2021-07-26T10:12:36.000Z</time><ele>608</ele></trkpt><trkpt lat="63.837829" lon="-19.213764"><time>2021-07-26T10:12:40.000Z</time><ele>607.8</ele></trkpt><trkpt lat="63.837828" lon="-19.213758"><time>2021-07-26T10:12:53.000Z</time><ele>608</ele></trkpt><trkpt lat="63.837829" lon="-19.213753"><time>2021-07-26T10:12:57.000Z</time><ele>608</ele></trkpt><trkpt lat="63.837776" lon="-19.213693"><time>2021-07-26T10:13:06.000Z</time><ele>607</ele></trkpt><trkpt lat="63.837632" lon="-19.213608"><time>2021-07-26T10:13:18.000Z</time><ele>606.2</ele></trkpt><trkpt lat="63.837504" lon="-19.213472"><time>2021-07-26T10:13:29.000Z</time><ele>606.8</ele></trkpt><trkpt lat="63.837467" lon="-19.213423"><time>2021-07-26T10:13:33.000Z</time><ele>606.4</ele></trkpt><trkpt lat="63.837442" lon="-19.213376"><time>2021-07-26T10:13:36.000Z</time><ele>606.6</ele></trkpt><trkpt lat="63.837423" lon="-19.213352"><time>2021-07-26T10:13:38.000Z</time><ele>606.8</ele></trkpt><trkpt lat="63.837404" lon="-19.213321"><time>2021-07-26T10:13:40.000Z</time><ele>606.8</ele></trkpt><trkpt lat="63.837384" lon="-19.213299"><time>2021-07-26T10:13:42.000Z</time><ele>606.6</ele></trkpt><trkpt lat="63.83726" lon="-19.213146"><time>2021-07-26T10:13:54.000Z</time><ele>606.8</ele></trkpt><trkpt lat="63.837184" lon="-19.213038"><time>2021-07-26T10:14:02.000Z</time><ele>606.2</ele></trkpt><trkpt lat="63.837173" lon="-19.213024"><time>2021-07-26T10:14:03.000Z</time><ele>606</ele></trkpt><trkpt lat="63.837164" lon="-19.213009"><time>2021-07-26T10:14:04.000Z</time><ele>605.8</ele></trkpt><trkpt lat="63.837112" lon="-19.21295"><time>2021-07-26T10:14:09.000Z</time><ele>605.8</ele></trkpt><trkpt lat="63.837041" lon="-19.212896"><time>2021-07-26T10:14:15.000Z</time><ele>605.8</ele></trkpt><trkpt lat="63.837017" lon="-19.212881"><time>2021-07-26T10:14:17.000Z</time><ele>605.8</ele></trkpt><trkpt lat="63.83697" lon="-19.212849"><time>2021-07-26T10:14:21.000Z</time><ele>605.6</ele></trkpt><trkpt lat="63.836815" lon="-19.212796"><time>2021-07-26T10:14:34.000Z</time><ele>605.6</ele></trkpt><trkpt lat="63.836758" lon="-19.21277"><time>2021-07-26T10:14:39.000Z</time><ele>606.2</ele></trkpt><trkpt lat="63.83669" lon="-19.212726"><time>2021-07-26T10:14:46.000Z</time><ele>606.4</ele></trkpt><trkpt lat="63.836666" lon="-19.212711"><time>2021-07-26T10:14:48.000Z</time><ele>607</ele></trkpt><trkpt lat="63.836584" lon="-19.212648"><time>2021-07-26T10:14:57.000Z</time><ele>607.6</ele></trkpt><trkpt lat="63.836449" lon="-19.212499"><time>2021-07-26T10:15:10.000Z</time><ele>608</ele></trkpt><trkpt lat="63.836442" lon="-19.212491"><time>2021-07-26T10:15:11.000Z</time><ele>608</ele></trkpt><trkpt lat="63.83642" lon="-19.212473"><time>2021-07-26T10:15:13.000Z</time><ele>608.2</ele></trkpt><trkpt lat="63.836344" lon="-19.21245"><time>2021-07-26T10:15:19.000Z</time><ele>608.4</ele></trkpt><trkpt lat="63.836284" lon="-19.212428"><time>2021-07-26T10:15:24.000Z</time><ele>609.2</ele></trkpt><trkpt lat="63.836216" lon="-19.212425"><time>2021-07-26T10:15:30.000Z</time><ele>608.8</ele></trkpt><trkpt lat="63.836206" lon="-19.21242"><time>2021-07-26T10:15:31.000Z</time><ele>608.8</ele></trkpt><trkpt lat="63.836097" lon="-19.21239"><time>2021-07-26T10:15:41.000Z</time><ele>608.8</ele></trkpt><trkpt lat="63.836072" lon="-19.212392"><time>2021-07-26T10:15:43.000Z</time><ele>608</ele></trkpt><trkpt lat="63.836" lon="-19.212407"><time>2021-07-26T10:15:49.000Z</time><ele>608.4</ele></trkpt><trkpt lat="63.835839" lon="-19.212401"><time>2021-07-26T10:16:02.000Z</time><ele>607.8</ele></trkpt><trkpt lat="63.835829" lon="-19.212407"><time>2021-07-26T10:16:03.000Z</time><ele>608</ele></trkpt><trkpt lat="63.835774" lon="-19.212489"><time>2021-07-26T10:16:10.000Z</time><ele>608.8</ele></trkpt><trkpt lat="63.835748" lon="-19.212526"><time>2021-07-26T10:16:13.000Z</time><ele>609.2</ele></trkpt><trkpt lat="63.835681" lon="-19.21258"><time>2021-07-26T10:16:20.000Z</time><ele>608.8</ele></trkpt><trkpt lat="63.835554" lon="-19.212549"><time>2021-07-26T10:16:32.000Z</time><ele>609.6</ele></trkpt><trkpt lat="63.835432" lon="-19.21241"><time>2021-07-26T10:16:45.000Z</time><ele>609.2</ele></trkpt><trkpt lat="63.835369" lon="-19.212296"><time>2021-07-26T10:16:54.000Z</time><ele>609.2</ele></trkpt><trkpt lat="63.835336" lon="-19.212237"><time>2021-07-26T10:16:58.000Z</time><ele>609</ele></trkpt><trkpt lat="63.835315" lon="-19.212223"><time>2021-07-26T10:17:04.000Z</time><ele>609.2</ele></trkpt><trkpt lat="63.835295" lon="-19.212225"><time>2021-07-26T10:17:13.000Z</time><ele>609.4</ele></trkpt><trkpt lat="63.835317" lon="-19.212225"><time>2021-07-26T10:17:17.000Z</time><ele>609.4</ele></trkpt><trkpt lat="63.835317" lon="-19.212225"><time>2021-07-26T10:17:20.000Z</time><ele>609.4</ele></trkpt><trkpt lat="63.835317" lon="-19.212225"><time>2021-07-26T10:17:22.000Z</time><ele>609.4</ele></trkpt><trkpt lat="63.835317" lon="-19.212225"><time>2021-07-26T10:17:30.000Z</time><ele>609.4</ele></trkpt><trkpt lat="63.835321" lon="-19.212226"><time>2021-07-26T10:17:38.000Z</time><ele>609.4</ele></trkpt><trkpt lat="63.835302" lon="-19.212107"><time>2021-07-26T10:17:49.000Z</time><ele>609.4</ele></trkpt><trkpt lat="63.835283" lon="-19.212012"><time>2021-07-26T10:17:54.000Z</time><ele>609.4</ele></trkpt><trkpt lat="63.835272" lon="-19.211994"><time>2021-07-26T10:17:56.000Z</time><ele>609.4</ele></trkpt><trkpt lat="63.835266" lon="-19.211979"><time>2021-07-26T10:17:57.000Z</time><ele>608</ele></trkpt><trkpt lat="63.835265" lon="-19.211933"><time>2021-07-26T10:17:59.000Z</time><ele>606.8</ele></trkpt><trkpt lat="63.835259" lon="-19.211884"><time>2021-07-26T10:18:02.000Z</time><ele>605.8</ele></trkpt><trkpt lat="63.835241" lon="-19.211815"><time>2021-07-26T10:18:06.000Z</time><ele>604.6</ele></trkpt><trkpt lat="63.835218" lon="-19.211655"><time>2021-07-26T10:18:12.000Z</time><ele>603.4</ele></trkpt><trkpt lat="63.835216" lon="-19.211636"><time>2021-07-26T10:18:13.000Z</time><ele>603.2</ele></trkpt><trkpt lat="63.8352" lon="-19.211531"><time>2021-07-26T10:18:20.000Z</time><ele>602.2</ele></trkpt><trkpt lat="63.83519" lon="-19.211492"><time>2021-07-26T10:18:23.000Z</time><ele>601.6</ele></trkpt><trkpt lat="63.83517" lon="-19.211395"><time>2021-07-26T10:18:27.000Z</time><ele>601.2</ele></trkpt><trkpt lat="63.835163" lon="-19.211335"><time>2021-07-26T10:18:31.000Z</time><ele>600.2</ele></trkpt><trkpt lat="63.835148" lon="-19.211251"><time>2021-07-26T10:18:35.000Z</time><ele>599.6</ele></trkpt><trkpt lat="63.835141" lon="-19.211234"><time>2021-07-26T10:18:37.000Z</time><ele>599</ele></trkpt><trkpt lat="63.835102" lon="-19.211182"><time>2021-07-26T10:18:42.000Z</time><ele>597.4</ele></trkpt><trkpt lat="63.835081" lon="-19.211146"><time>2021-07-26T10:18:44.000Z</time><ele>596.4</ele></trkpt><trkpt lat="63.835081" lon="-19.211146"><time>2021-07-26T10:18:45.000Z</time><ele>596.2</ele></trkpt><trkpt lat="63.835032" lon="-19.211083"><time>2021-07-26T10:18:50.000Z</time><ele>595.8</ele></trkpt><trkpt lat="63.835028" lon="-19.21107"><time>2021-07-26T10:18:52.000Z</time><ele>595.2</ele></trkpt><trkpt lat="63.835024" lon="-19.211056"><time>2021-07-26T10:18:53.000Z</time><ele>594.8</ele></trkpt><trkpt lat="63.834996" lon="-19.211003"><time>2021-07-26T10:18:56.000Z</time><ele>594.4</ele></trkpt><trkpt lat="63.834988" lon="-19.210992"><time>2021-07-26T10:18:58.000Z</time><ele>594</ele></trkpt><trkpt lat="63.834966" lon="-19.210942"><time>2021-07-26T10:19:02.000Z</time><ele>592.8</ele></trkpt><trkpt lat="63.834955" lon="-19.210909"><time>2021-07-26T10:19:04.000Z</time><ele>592.6</ele></trkpt><trkpt lat="63.83492" lon="-19.210849"><time>2021-07-26T10:19:08.000Z</time><ele>591.4</ele></trkpt><trkpt lat="63.834901" lon="-19.210814"><time>2021-07-26T10:19:11.000Z</time><ele>590.6</ele></trkpt><trkpt lat="63.834885" lon="-19.210799"><time>2021-07-26T10:19:13.000Z</time><ele>590</ele></trkpt><trkpt lat="63.834851" lon="-19.210737"><time>2021-07-26T10:19:19.000Z</time><ele>588.8</ele></trkpt><trkpt lat="63.834843" lon="-19.210714"><time>2021-07-26T10:19:20.000Z</time><ele>588.6</ele></trkpt><trkpt lat="63.83483" lon="-19.210688"><time>2021-07-26T10:19:23.000Z</time><ele>587.8</ele></trkpt><trkpt lat="63.834788" lon="-19.210612"><time>2021-07-26T10:19:29.000Z</time><ele>586.6</ele></trkpt><trkpt lat="63.83478" lon="-19.210602"><time>2021-07-26T10:19:30.000Z</time><ele>586.2</ele></trkpt><trkpt lat="63.834749" lon="-19.210507"><time>2021-07-26T10:19:35.000Z</time><ele>585.4</ele></trkpt><trkpt lat="63.834742" lon="-19.210483"><time>2021-07-26T10:19:37.000Z</time><ele>585</ele></trkpt><trkpt lat="63.83473" lon="-19.210454"><time>2021-07-26T10:19:39.000Z</time><ele>584.4</ele></trkpt><trkpt lat="63.834695" lon="-19.210397"><time>2021-07-26T10:19:45.000Z</time><ele>583</ele></trkpt><trkpt lat="63.834688" lon="-19.210386"><time>2021-07-26T10:19:46.000Z</time><ele>582.6</ele></trkpt><trkpt lat="63.834664" lon="-19.210355"><time>2021-07-26T10:19:51.000Z</time><ele>581.8</ele></trkpt><trkpt lat="63.834625" lon="-19.210322"><time>2021-07-26T10:19:55.000Z</time><ele>580.6</ele></trkpt><trkpt lat="63.834618" lon="-19.210314"><time>2021-07-26T10:19:56.000Z</time><ele>580.6</ele></trkpt><trkpt lat="63.834598" lon="-19.210286"><time>2021-07-26T10:20:00.000Z</time><ele>579.4</ele></trkpt><trkpt lat="63.834549" lon="-19.210212"><time>2021-07-26T10:20:06.000Z</time><ele>578.2</ele></trkpt><trkpt lat="63.834533" lon="-19.210185"><time>2021-07-26T10:20:08.000Z</time><ele>578</ele></trkpt><trkpt lat="63.834496" lon="-19.21013"><time>2021-07-26T10:20:14.000Z</time><ele>577.2</ele></trkpt><trkpt lat="63.834467" lon="-19.210079"><time>2021-07-26T10:20:17.000Z</time><ele>576.6</ele></trkpt><trkpt lat="63.834458" lon="-19.210066"><time>2021-07-26T10:20:18.000Z</time><ele>576.4</ele></trkpt><trkpt lat="63.834445" lon="-19.210048"><time>2021-07-26T10:20:20.000Z</time><ele>576.2</ele></trkpt><trkpt lat="63.834429" lon="-19.210022"><time>2021-07-26T10:20:22.000Z</time><ele>575.6</ele></trkpt><trkpt lat="63.834419" lon="-19.209988"><time>2021-07-26T10:20:24.000Z</time><ele>575</ele></trkpt><trkpt lat="63.834392" lon="-19.209948"><time>2021-07-26T10:20:27.000Z</time><ele>574.2</ele></trkpt><trkpt lat="63.834373" lon="-19.209926"><time>2021-07-26T10:20:30.000Z</time><ele>573.8</ele></trkpt><trkpt lat="63.834357" lon="-19.209903"><time>2021-07-26T10:20:31.000Z</time><ele>573.6</ele></trkpt><trkpt lat="63.834357" lon="-19.209903"><time>2021-07-26T10:20:32.000Z</time><ele>573.6</ele></trkpt><trkpt lat="63.834312" lon="-19.209845"><time>2021-07-26T10:20:37.000Z</time><ele>572.8</ele></trkpt><trkpt lat="63.834283" lon="-19.209814"><time>2021-07-26T10:20:39.000Z</time><ele>572.6</ele></trkpt><trkpt lat="63.834227" lon="-19.209713"><time>2021-07-26T10:20:45.000Z</time><ele>572.2</ele></trkpt><trkpt lat="63.834192" lon="-19.209613"><time>2021-07-26T10:20:51.000Z</time><ele>571.8</ele></trkpt><trkpt lat="63.834169" lon="-19.209556"><time>2021-07-26T10:20:53.000Z</time><ele>571.4</ele></trkpt><trkpt lat="63.83415" lon="-19.209453"><time>2021-07-26T10:20:58.000Z</time><ele>570.8</ele></trkpt><trkpt lat="63.834146" lon="-19.209438"><time>2021-07-26T10:20:59.000Z</time><ele>570.6</ele></trkpt><trkpt lat="63.834137" lon="-19.209407"><time>2021-07-26T10:21:01.000Z</time><ele>570.4</ele></trkpt><trkpt lat="63.834134" lon="-19.209323"><time>2021-07-26T10:21:05.000Z</time><ele>569.8</ele></trkpt><trkpt lat="63.834133" lon="-19.209279"><time>2021-07-26T10:21:07.000Z</time><ele>569.4</ele></trkpt><trkpt lat="63.834146" lon="-19.209214"><time>2021-07-26T10:21:10.000Z</time><ele>568.8</ele></trkpt><trkpt lat="63.834161" lon="-19.209085"><time>2021-07-26T10:21:16.000Z</time><ele>568.4</ele></trkpt><trkpt lat="63.834174" lon="-19.208973"><time>2021-07-26T10:21:21.000Z</time><ele>568</ele></trkpt><trkpt lat="63.834179" lon="-19.208862"><time>2021-07-26T10:21:26.000Z</time><ele>567.6</ele></trkpt><trkpt lat="63.834179" lon="-19.208843"><time>2021-07-26T10:21:27.000Z</time><ele>567.4</ele></trkpt><trkpt lat="63.834179" lon="-19.20882"><time>2021-07-26T10:21:28.000Z</time><ele>567.2</ele></trkpt><trkpt lat="63.834176" lon="-19.208792"><time>2021-07-26T10:21:29.000Z</time><ele>567.2</ele></trkpt><trkpt lat="63.834114" lon="-19.208542"><time>2021-07-26T10:21:40.000Z</time><ele>566.8</ele></trkpt><trkpt lat="63.834092" lon="-19.208352"><time>2021-07-26T10:21:48.000Z</time><ele>566.6</ele></trkpt><trkpt lat="63.834069" lon="-19.208272"><time>2021-07-26T10:21:52.000Z</time><ele>566</ele></trkpt><trkpt lat="63.834002" lon="-19.208271"><time>2021-07-26T10:21:59.000Z</time><ele>566</ele></trkpt><trkpt lat="63.83396" lon="-19.208199"><time>2021-07-26T10:22:04.000Z</time><ele>567.2</ele></trkpt><trkpt lat="63.833952" lon="-19.20818"><time>2021-07-26T10:22:05.000Z</time><ele>567.4</ele></trkpt><trkpt lat="63.833937" lon="-19.208089"><time>2021-07-26T10:22:09.000Z</time><ele>567.4</ele></trkpt><trkpt lat="63.833912" lon="-19.208004"><time>2021-07-26T10:22:14.000Z</time><ele>567</ele></trkpt><trkpt lat="63.833886" lon="-19.207957"><time>2021-07-26T10:22:17.000Z</time><ele>567</ele></trkpt><trkpt lat="63.83384" lon="-19.207912"><time>2021-07-26T10:22:21.000Z</time><ele>567.2</ele></trkpt><trkpt lat="63.833732" lon="-19.207901"><time>2021-07-26T10:22:31.000Z</time><ele>567</ele></trkpt><trkpt lat="63.833634" lon="-19.207956"><time>2021-07-26T10:22:40.000Z</time><ele>567</ele></trkpt><trkpt lat="63.833607" lon="-19.207964"><time>2021-07-26T10:22:42.000Z</time><ele>566.8</ele></trkpt><trkpt lat="63.833594" lon="-19.207968"><time>2021-07-26T10:22:43.000Z</time><ele>566.6</ele></trkpt><trkpt lat="63.833495" lon="-19.208008"><time>2021-07-26T10:22:52.000Z</time><ele>566.8</ele></trkpt><trkpt lat="63.833466" lon="-19.208033"><time>2021-07-26T10:22:55.000Z</time><ele>566.8</ele></trkpt><trkpt lat="63.833318" lon="-19.20804"><time>2021-07-26T10:23:08.000Z</time><ele>567.2</ele></trkpt><trkpt lat="63.83316" lon="-19.207902"><time>2021-07-26T10:23:21.000Z</time><ele>567</ele></trkpt><trkpt lat="63.833143" lon="-19.20775"><time>2021-07-26T10:23:27.000Z</time><ele>567</ele></trkpt><trkpt lat="63.833147" lon="-19.207743"><time>2021-07-26T10:23:29.000Z</time><ele>567</ele></trkpt><trkpt lat="63.833148" lon="-19.207729"><time>2021-07-26T10:23:32.000Z</time><ele>567</ele></trkpt><trkpt lat="63.83314" lon="-19.207687"><time>2021-07-26T10:23:56.000Z</time><ele>566.8</ele></trkpt><trkpt lat="63.833125" lon="-19.20745"><time>2021-07-26T10:24:03.000Z</time><ele>567</ele></trkpt><trkpt lat="63.833062" lon="-19.207345"><time>2021-07-26T10:24:11.000Z</time><ele>566.4</ele></trkpt><trkpt lat="63.833024" lon="-19.207257"><time>2021-07-26T10:24:17.000Z</time><ele>566.6</ele></trkpt><trkpt lat="63.832946" lon="-19.20709"><time>2021-07-26T10:24:26.000Z</time><ele>566.8</ele></trkpt><trkpt lat="63.832893" lon="-19.207041"><time>2021-07-26T10:24:31.000Z</time><ele>566.8</ele></trkpt><trkpt lat="63.832883" lon="-19.207034"><time>2021-07-26T10:24:32.000Z</time><ele>566.8</ele></trkpt><trkpt lat="63.832841" lon="-19.207012"><time>2021-07-26T10:24:36.000Z</time><ele>567</ele></trkpt><trkpt lat="63.832755" lon="-19.206985"><time>2021-07-26T10:24:44.000Z</time><ele>566.6</ele></trkpt><trkpt lat="63.832629" lon="-19.206922"><time>2021-07-26T10:24:54.000Z</time><ele>567</ele></trkpt><trkpt lat="63.832532" lon="-19.206883"><time>2021-07-26T10:25:03.000Z</time><ele>567.2</ele></trkpt><trkpt lat="63.832443" lon="-19.206796"><time>2021-07-26T10:25:12.000Z</time><ele>566.8</ele></trkpt><trkpt lat="63.832337" lon="-19.206598"><time>2021-07-26T10:25:25.000Z</time><ele>566.6</ele></trkpt><trkpt lat="63.832236" lon="-19.206506"><time>2021-07-26T10:25:35.000Z</time><ele>567.8</ele></trkpt><trkpt lat="63.832195" lon="-19.206481"><time>2021-07-26T10:25:42.000Z</time><ele>566.8</ele></trkpt><trkpt lat="63.832191" lon="-19.206481"><time>2021-07-26T10:25:43.000Z</time><ele>566.8</ele></trkpt><trkpt lat="63.832186" lon="-19.206512"><time>2021-07-26T10:25:54.000Z</time><ele>567.2</ele></trkpt><trkpt lat="63.832189" lon="-19.206504"><time>2021-07-26T10:26:04.000Z</time><ele>567.2</ele></trkpt><trkpt lat="63.832178" lon="-19.206472"><time>2021-07-26T10:26:13.000Z</time><ele>567.2</ele></trkpt><trkpt lat="63.832071" lon="-19.206302"><time>2021-07-26T10:26:22.000Z</time><ele>567.2</ele></trkpt><trkpt lat="63.83199" lon="-19.20616"><time>2021-07-26T10:26:33.000Z</time><ele>568</ele></trkpt><trkpt lat="63.831948" lon="-19.206082"><time>2021-07-26T10:26:38.000Z</time><ele>568.2</ele></trkpt><trkpt lat="63.83192" lon="-19.20602"><time>2021-07-26T10:26:42.000Z</time><ele>568.8</ele></trkpt><trkpt lat="63.831915" lon="-19.206004"><time>2021-07-26T10:26:43.000Z</time><ele>568.8</ele></trkpt><trkpt lat="63.831912" lon="-19.205988"><time>2021-07-26T10:26:44.000Z</time><ele>568.8</ele></trkpt><trkpt lat="63.831908" lon="-19.205972"><time>2021-07-26T10:26:45.000Z</time><ele>569</ele></trkpt><trkpt lat="63.831904" lon="-19.205954"><time>2021-07-26T10:26:46.000Z</time><ele>569</ele></trkpt><trkpt lat="63.831895" lon="-19.205931"><time>2021-07-26T10:26:49.000Z</time><ele>569.4</ele></trkpt><trkpt lat="63.831867" lon="-19.205908"><time>2021-07-26T10:26:52.000Z</time><ele>569.6</ele></trkpt><trkpt lat="63.831845" lon="-19.205886"><time>2021-07-26T10:26:56.000Z</time><ele>569.8</ele></trkpt><trkpt lat="63.831822" lon="-19.205866"><time>2021-07-26T10:27:02.000Z</time><ele>569.8</ele></trkpt><trkpt lat="63.831823" lon="-19.205861"><time>2021-07-26T10:27:05.000Z</time><ele>569.8</ele></trkpt><trkpt lat="63.831826" lon="-19.205862"><time>2021-07-26T10:27:06.000Z</time><ele>569.8</ele></trkpt><trkpt lat="63.831828" lon="-19.205859"><time>2021-07-26T10:27:07.000Z</time><ele>570</ele></trkpt><trkpt lat="63.831831" lon="-19.205865"><time>2021-07-26T10:27:15.000Z</time><ele>570</ele></trkpt><trkpt lat="63.831824" lon="-19.205861"><time>2021-07-26T10:27:25.000Z</time><ele>569.8</ele></trkpt><trkpt lat="63.831823" lon="-19.205858"><time>2021-07-26T10:27:29.000Z</time><ele>570</ele></trkpt><trkpt lat="63.831822" lon="-19.205858"><time>2021-07-26T10:27:31.000Z</time><ele>570</ele></trkpt><trkpt lat="63.831822" lon="-19.205856"><time>2021-07-26T10:27:35.000Z</time><ele>570</ele></trkpt><trkpt lat="63.831821" lon="-19.205856"><time>2021-07-26T10:27:38.000Z</time><ele>570</ele></trkpt><trkpt lat="63.83182" lon="-19.205856"><time>2021-07-26T10:27:41.000Z</time><ele>570</ele></trkpt><trkpt lat="63.831819" lon="-19.205857"><time>2021-07-26T10:27:46.000Z</time><ele>570.2</ele></trkpt><trkpt lat="63.831823" lon="-19.205867"><time>2021-07-26T10:27:56.000Z</time><ele>570</ele></trkpt><trkpt lat="63.831852" lon="-19.205876"><time>2021-07-26T10:28:16.000Z</time><ele>569.6</ele></trkpt><trkpt lat="63.831854" lon="-19.205877"><time>2021-07-26T10:28:23.000Z</time><ele>569.6</ele></trkpt><trkpt lat="63.831854" lon="-19.205878"><time>2021-07-26T10:28:26.000Z</time><ele>569.6</ele></trkpt><trkpt lat="63.831854" lon="-19.205878"><time>2021-07-26T10:28:29.000Z</time><ele>569.6</ele></trkpt><trkpt lat="63.831858" lon="-19.205881"><time>2021-07-26T10:28:38.000Z</time><ele>570.4</ele></trkpt><trkpt lat="63.831858" lon="-19.205883"><time>2021-07-26T10:28:43.000Z</time><ele>570.4</ele></trkpt><trkpt lat="63.831858" lon="-19.205883"><time>2021-07-26T10:28:47.000Z</time><ele>570</ele></trkpt><trkpt lat="63.831858" lon="-19.205881"><time>2021-07-26T10:28:51.000Z</time><ele>570</ele></trkpt><trkpt lat="63.83185" lon="-19.205871"><time>2021-07-26T10:29:14.000Z</time><ele>569.6</ele></trkpt><trkpt lat="63.831841" lon="-19.205862"><time>2021-07-26T10:29:28.000Z</time><ele>569.6</ele></trkpt><trkpt lat="63.831834" lon="-19.205852"><time>2021-07-26T10:29:34.000Z</time><ele>569.6</ele></trkpt><trkpt lat="63.831829" lon="-19.205848"><time>2021-07-26T10:29:41.000Z</time><ele>569.6</ele></trkpt><trkpt lat="63.831828" lon="-19.205842"><time>2021-07-26T10:30:00.000Z</time><ele>569.6</ele></trkpt><trkpt lat="63.83183" lon="-19.205855"><time>2021-07-26T10:30:20.000Z</time><ele>569.6</ele></trkpt><trkpt lat="63.831831" lon="-19.205857"><time>2021-07-26T10:30:28.000Z</time><ele>569.6</ele></trkpt><trkpt lat="63.831831" lon="-19.205857"><time>2021-07-26T10:30:30.000Z</time><ele>569.6</ele></trkpt><trkpt lat="63.831831" lon="-19.205857"><time>2021-07-26T10:30:40.000Z</time><ele>569.6</ele></trkpt><trkpt lat="63.831831" lon="-19.205859"><time>2021-07-26T10:31:36.000Z</time><ele>569.6</ele></trkpt><trkpt lat="63.831831" lon="-19.20586"><time>2021-07-26T10:31:40.000Z</time><ele>569.6</ele></trkpt><trkpt lat="63.831831" lon="-19.20586"><time>2021-07-26T10:31:54.000Z</time><ele>569.6</ele></trkpt><trkpt lat="63.831832" lon="-19.205861"><time>2021-07-26T10:32:11.000Z</time><ele>569.6</ele></trkpt><trkpt lat="63.831832" lon="-19.205861"><time>2021-07-26T10:32:13.000Z</time><ele>569.6</ele></trkpt><trkpt lat="63.831832" lon="-19.205862"><time>2021-07-26T10:32:39.000Z</time><ele>569.6</ele></trkpt><trkpt lat="63.831832" lon="-19.205862"><time>2021-07-26T10:32:42.000Z</time><ele>569.6</ele></trkpt><trkpt lat="63.831832" lon="-19.205862"><time>2021-07-26T10:32:49.000Z</time><ele>569.6</ele></trkpt><trkpt lat="63.831832" lon="-19.205862"><time>2021-07-26T10:32:51.000Z</time><ele>569.6</ele></trkpt><trkpt lat="63.831832" lon="-19.205863"><time>2021-07-26T10:32:53.000Z</time><ele>569.6</ele></trkpt><trkpt lat="63.831832" lon="-19.205863"><time>2021-07-26T10:33:03.000Z</time><ele>569.6</ele></trkpt><trkpt lat="63.831832" lon="-19.205864"><time>2021-07-26T10:33:21.000Z</time><ele>569.6</ele></trkpt><trkpt lat="63.831832" lon="-19.205864"><time>2021-07-26T10:33:23.000Z</time><ele>569.6</ele></trkpt><trkpt lat="63.831831" lon="-19.205864"><time>2021-07-26T10:33:43.000Z</time><ele>569.6</ele></trkpt><trkpt lat="63.831831" lon="-19.205864"><time>2021-07-26T10:33:45.000Z</time><ele>569.6</ele></trkpt><trkpt lat="63.831831" lon="-19.205865"><time>2021-07-26T10:33:53.000Z</time><ele>569.6</ele></trkpt><trkpt lat="63.83183" lon="-19.205866"><time>2021-07-26T10:34:57.000Z</time><ele>569.6</ele></trkpt><trkpt lat="63.83183" lon="-19.205866"><time>2021-07-26T10:35:10.000Z</time><ele>569.6</ele></trkpt><trkpt lat="63.83183" lon="-19.205866"><time>2021-07-26T10:35:12.000Z</time><ele>569.6</ele></trkpt><trkpt lat="63.83183" lon="-19.205865"><time>2021-07-26T10:35:14.000Z</time><ele>569.6</ele></trkpt><trkpt lat="63.831829" lon="-19.205865"><time>2021-07-26T10:35:16.000Z</time><ele>569.6</ele></trkpt><trkpt lat="63.831829" lon="-19.205865"><time>2021-07-26T10:35:19.000Z</time><ele>569.6</ele></trkpt><trkpt lat="63.831829" lon="-19.205865"><time>2021-07-26T10:35:21.000Z</time><ele>569.6</ele></trkpt><trkpt lat="63.831829" lon="-19.205865"><time>2021-07-26T10:35:27.000Z</time><ele>569.6</ele></trkpt><trkpt lat="63.831829" lon="-19.205865"><time>2021-07-26T10:35:48.000Z</time><ele>569.6</ele></trkpt><trkpt lat="63.831829" lon="-19.205865"><time>2021-07-26T10:35:59.000Z</time><ele>569.6</ele></trkpt><trkpt lat="63.831829" lon="-19.205865"><time>2021-07-26T10:36:06.000Z</time><ele>569.6</ele></trkpt><trkpt lat="63.831829" lon="-19.205866"><time>2021-07-26T10:36:10.000Z</time><ele>569.6</ele></trkpt><trkpt lat="63.831829" lon="-19.205865"><time>2021-07-26T10:36:45.000Z</time><ele>569.6</ele></trkpt><trkpt lat="63.831829" lon="-19.205865"><time>2021-07-26T10:36:52.000Z</time><ele>569.6</ele></trkpt><trkpt lat="63.831829" lon="-19.205866"><time>2021-07-26T10:37:04.000Z</time><ele>569.6</ele></trkpt><trkpt lat="63.831829" lon="-19.205866"><time>2021-07-26T10:37:10.000Z</time><ele>569.6</ele></trkpt><trkpt lat="63.831829" lon="-19.205866"><time>2021-07-26T10:37:11.000Z</time><ele>569.6</ele></trkpt><trkpt lat="63.831829" lon="-19.205866"><time>2021-07-26T10:37:45.000Z</time><ele>569.6</ele></trkpt><trkpt lat="63.831829" lon="-19.205866"><time>2021-07-26T10:37:46.000Z</time><ele>569.6</ele></trkpt><trkpt lat="63.831829" lon="-19.205866"><time>2021-07-26T10:37:50.000Z</time><ele>569.6</ele></trkpt><trkpt lat="63.831829" lon="-19.205866"><time>2021-07-26T10:38:12.000Z</time><ele>569.6</ele></trkpt><trkpt lat="63.831829" lon="-19.205866"><time>2021-07-26T10:38:19.000Z</time><ele>569.6</ele></trkpt><trkpt lat="63.831829" lon="-19.205866"><time>2021-07-26T10:38:22.000Z</time><ele>569.6</ele></trkpt><trkpt lat="63.83183" lon="-19.205867"><time>2021-07-26T10:38:51.000Z</time><ele>569.6</ele></trkpt><trkpt lat="63.83183" lon="-19.205867"><time>2021-07-26T10:39:11.000Z</time><ele>569.6</ele></trkpt><trkpt lat="63.831831" lon="-19.205869"><time>2021-07-26T10:39:47.000Z</time><ele>569.6</ele></trkpt><trkpt lat="63.831831" lon="-19.205869"><time>2021-07-26T10:39:52.000Z</time><ele>569.6</ele></trkpt><trkpt lat="63.831831" lon="-19.20587"><time>2021-07-26T10:40:21.000Z</time><ele>569.6</ele></trkpt><trkpt lat="63.831832" lon="-19.20587"><time>2021-07-26T10:40:29.000Z</time><ele>569.6</ele></trkpt><trkpt lat="63.831832" lon="-19.20587"><time>2021-07-26T10:40:36.000Z</time><ele>569.6</ele></trkpt><trkpt lat="63.831819" lon="-19.205823"><time>2021-07-26T10:40:50.000Z</time><ele>569.6</ele></trkpt><trkpt lat="63.831786" lon="-19.205757"><time>2021-07-26T10:40:54.000Z</time><ele>569.6</ele></trkpt><trkpt lat="63.831769" lon="-19.2057"><time>2021-07-26T10:40:56.000Z</time><ele>569.6</ele></trkpt><trkpt lat="63.831747" lon="-19.205678"><time>2021-07-26T10:40:59.000Z</time><ele>569.6</ele></trkpt><trkpt lat="63.831668" lon="-19.205586"><time>2021-07-26T10:41:09.000Z</time><ele>569.6</ele></trkpt><trkpt lat="63.831631" lon="-19.205595"><time>2021-07-26T10:41:13.000Z</time><ele>569.6</ele></trkpt><trkpt lat="63.831605" lon="-19.20561"><time>2021-07-26T10:41:15.000Z</time><ele>569.2</ele></trkpt><trkpt lat="63.831589" lon="-19.205629"><time>2021-07-26T10:41:17.000Z</time><ele>569.2</ele></trkpt><trkpt lat="63.831486" lon="-19.205648"><time>2021-07-26T10:41:26.000Z</time><ele>569</ele></trkpt><trkpt lat="63.83143" lon="-19.205778"><time>2021-07-26T10:41:34.000Z</time><ele>569</ele></trkpt><trkpt lat="63.831359" lon="-19.205818"><time>2021-07-26T10:41:41.000Z</time><ele>569</ele></trkpt><trkpt lat="63.831314" lon="-19.20593"><time>2021-07-26T10:41:47.000Z</time><ele>569.4</ele></trkpt><trkpt lat="63.831276" lon="-19.206029"><time>2021-07-26T10:41:53.000Z</time><ele>569.6</ele></trkpt><trkpt lat="63.831254" lon="-19.206073"><time>2021-07-26T10:41:56.000Z</time><ele>569.8</ele></trkpt><trkpt lat="63.831203" lon="-19.20615"><time>2021-07-26T10:42:03.000Z</time><ele>570.2</ele></trkpt><trkpt lat="63.83119" lon="-19.206156"><time>2021-07-26T10:42:05.000Z</time><ele>570.2</ele></trkpt><trkpt lat="63.831183" lon="-19.206162"><time>2021-07-26T10:42:06.000Z</time><ele>570.4</ele></trkpt><trkpt lat="63.831137" lon="-19.206147"><time>2021-07-26T10:42:12.000Z</time><ele>570.4</ele></trkpt><trkpt lat="63.831096" lon="-19.206139"><time>2021-07-26T10:42:16.000Z</time><ele>570</ele></trkpt><trkpt lat="63.831062" lon="-19.206145"><time>2021-07-26T10:42:19.000Z</time><ele>570.2</ele></trkpt><trkpt lat="63.830986" lon="-19.206118"><time>2021-07-26T10:42:27.000Z</time><ele>570.2</ele></trkpt><trkpt lat="63.830937" lon="-19.206168"><time>2021-07-26T10:42:33.000Z</time><ele>570.6</ele></trkpt><trkpt lat="63.830924" lon="-19.206189"><time>2021-07-26T10:42:35.000Z</time><ele>570.6</ele></trkpt><trkpt lat="63.830889" lon="-19.206215"><time>2021-07-26T10:42:38.000Z</time><ele>570.8</ele></trkpt><trkpt lat="63.830838" lon="-19.20624"><time>2021-07-26T10:42:43.000Z</time><ele>570.8</ele></trkpt><trkpt lat="63.830785" lon="-19.206285"><time>2021-07-26T10:42:48.000Z</time><ele>570.8</ele></trkpt><trkpt lat="63.83075" lon="-19.206309"><time>2021-07-26T10:42:51.000Z</time><ele>571</ele></trkpt><trkpt lat="63.830702" lon="-19.206351"><time>2021-07-26T10:42:56.000Z</time><ele>571.2</ele></trkpt><trkpt lat="63.830669" lon="-19.206372"><time>2021-07-26T10:42:59.000Z</time><ele>571.4</ele></trkpt><trkpt lat="63.830632" lon="-19.206415"><time>2021-07-26T10:43:03.000Z</time><ele>571.6</ele></trkpt><trkpt lat="63.830554" lon="-19.206508"><time>2021-07-26T10:43:12.000Z</time><ele>571.8</ele></trkpt><trkpt lat="63.830546" lon="-19.206519"><time>2021-07-26T10:43:13.000Z</time><ele>571.8</ele></trkpt><trkpt lat="63.830407" lon="-19.206672"><time>2021-07-26T10:43:27.000Z</time><ele>572</ele></trkpt><trkpt lat="63.830306" lon="-19.206697"><time>2021-07-26T10:43:36.000Z</time><ele>571.8</ele></trkpt><trkpt lat="63.830262" lon="-19.206722"><time>2021-07-26T10:43:40.000Z</time><ele>572.2</ele></trkpt><trkpt lat="63.830144" lon="-19.206785"><time>2021-07-26T10:43:50.000Z</time><ele>571.8</ele></trkpt><trkpt lat="63.83011" lon="-19.206791"><time>2021-07-26T10:43:53.000Z</time><ele>571.6</ele></trkpt><trkpt lat="63.830011" lon="-19.206752"><time>2021-07-26T10:44:01.000Z</time><ele>571.2</ele></trkpt><trkpt lat="63.829911" lon="-19.206731"><time>2021-07-26T10:44:10.000Z</time><ele>571.2</ele></trkpt><trkpt lat="63.82978" lon="-19.206774"><time>2021-07-26T10:44:21.000Z</time><ele>570.4</ele></trkpt><trkpt lat="63.829768" lon="-19.206779"><time>2021-07-26T10:44:22.000Z</time><ele>570.4</ele></trkpt><trkpt lat="63.829674" lon="-19.206829"><time>2021-07-26T10:44:31.000Z</time><ele>570.4</ele></trkpt><trkpt lat="63.829658" lon="-19.206827"><time>2021-07-26T10:44:33.000Z</time><ele>570.4</ele></trkpt><trkpt lat="63.829652" lon="-19.206816"><time>2021-07-26T10:44:36.000Z</time><ele>570.4</ele></trkpt><trkpt lat="63.829647" lon="-19.206806"><time>2021-07-26T10:44:38.000Z</time><ele>570.4</ele></trkpt><trkpt lat="63.829662" lon="-19.2068"><time>2021-07-26T10:44:50.000Z</time><ele>570.6</ele></trkpt><trkpt lat="63.829661" lon="-19.206794"><time>2021-07-26T10:44:58.000Z</time><ele>571.4</ele></trkpt><trkpt lat="63.82965" lon="-19.206788"><time>2021-07-26T10:45:06.000Z</time><ele>570.2</ele></trkpt><trkpt lat="63.829588" lon="-19.206806"><time>2021-07-26T10:45:10.000Z</time><ele>570.2</ele></trkpt><trkpt lat="63.829485" lon="-19.206897"><time>2021-07-26T10:45:19.000Z</time><ele>570.8</ele></trkpt><trkpt lat="63.829458" lon="-19.206907"><time>2021-07-26T10:45:23.000Z</time><ele>571</ele></trkpt><trkpt lat="63.82945" lon="-19.206923"><time>2021-07-26T10:45:25.000Z</time><ele>571.2</ele></trkpt><trkpt lat="63.829423" lon="-19.20695"><time>2021-07-26T10:45:28.000Z</time><ele>571.2</ele></trkpt><trkpt lat="63.829404" lon="-19.206974"><time>2021-07-26T10:45:30.000Z</time><ele>571.8</ele></trkpt><trkpt lat="63.829382" lon="-19.207015"><time>2021-07-26T10:45:33.000Z</time><ele>572.2</ele></trkpt><trkpt lat="63.829366" lon="-19.207031"><time>2021-07-26T10:45:35.000Z</time><ele>572</ele></trkpt><trkpt lat="63.829343" lon="-19.207035"><time>2021-07-26T10:45:37.000Z</time><ele>571.8</ele></trkpt><trkpt lat="63.829304" lon="-19.207014"><time>2021-07-26T10:45:40.000Z</time><ele>571.8</ele></trkpt><trkpt lat="63.829267" lon="-19.207023"><time>2021-07-26T10:45:44.000Z</time><ele>571.8</ele></trkpt><trkpt lat="63.829212" lon="-19.20708"><time>2021-07-26T10:45:51.000Z</time><ele>571.8</ele></trkpt><trkpt lat="63.82912" lon="-19.207121"><time>2021-07-26T10:45:59.000Z</time><ele>572.2</ele></trkpt><trkpt lat="63.829112" lon="-19.207129"><time>2021-07-26T10:46:00.000Z</time><ele>572</ele></trkpt><trkpt lat="63.829052" lon="-19.207193"><time>2021-07-26T10:46:06.000Z</time><ele>572.2</ele></trkpt><trkpt lat="63.828985" lon="-19.207264"><time>2021-07-26T10:46:13.000Z</time><ele>571.8</ele></trkpt><trkpt lat="63.82897" lon="-19.207277"><time>2021-07-26T10:46:14.000Z</time><ele>571.8</ele></trkpt><trkpt lat="63.828882" lon="-19.207332"><time>2021-07-26T10:46:22.000Z</time><ele>571.8</ele></trkpt><trkpt lat="63.828799" lon="-19.207362"><time>2021-07-26T10:46:30.000Z</time><ele>572</ele></trkpt><trkpt lat="63.828792" lon="-19.207369"><time>2021-07-26T10:46:31.000Z</time><ele>572.2</ele></trkpt><trkpt lat="63.828726" lon="-19.20742"><time>2021-07-26T10:46:37.000Z</time><ele>572.4</ele></trkpt><trkpt lat="63.828678" lon="-19.207446"><time>2021-07-26T10:46:42.000Z</time><ele>572.4</ele></trkpt><trkpt lat="63.828602" lon="-19.20757"><time>2021-07-26T10:46:51.000Z</time><ele>572.4</ele></trkpt><trkpt lat="63.828574" lon="-19.207626"><time>2021-07-26T10:46:54.000Z</time><ele>572.4</ele></trkpt><trkpt lat="63.828513" lon="-19.207779"><time>2021-07-26T10:47:02.000Z</time><ele>572.4</ele></trkpt><trkpt lat="63.828466" lon="-19.207873"><time>2021-07-26T10:47:07.000Z</time><ele>572.4</ele></trkpt><trkpt lat="63.82844" lon="-19.207985"><time>2021-07-26T10:47:12.000Z</time><ele>572.2</ele></trkpt><trkpt lat="63.828413" lon="-19.20804"><time>2021-07-26T10:47:15.000Z</time><ele>572.4</ele></trkpt><trkpt lat="63.828387" lon="-19.208197"><time>2021-07-26T10:47:21.000Z</time><ele>572.8</ele></trkpt><trkpt lat="63.828358" lon="-19.208306"><time>2021-07-26T10:47:26.000Z</time><ele>573.2</ele></trkpt><trkpt lat="63.828342" lon="-19.208421"><time>2021-07-26T10:47:31.000Z</time><ele>573</ele></trkpt><trkpt lat="63.828327" lon="-19.208517"><time>2021-07-26T10:47:35.000Z</time><ele>573.4</ele></trkpt><trkpt lat="63.828321" lon="-19.208571"><time>2021-07-26T10:47:37.000Z</time><ele>573.4</ele></trkpt><trkpt lat="63.828312" lon="-19.208616"><time>2021-07-26T10:47:39.000Z</time><ele>573.6</ele></trkpt><trkpt lat="63.828312" lon="-19.208632"><time>2021-07-26T10:47:40.000Z</time><ele>573.6</ele></trkpt><trkpt lat="63.828308" lon="-19.208658"><time>2021-07-26T10:47:41.000Z</time><ele>573.6</ele></trkpt><trkpt lat="63.828295" lon="-19.208739"><time>2021-07-26T10:47:44.000Z</time><ele>573.8</ele></trkpt><trkpt lat="63.828261" lon="-19.208871"><time>2021-07-26T10:47:50.000Z</time><ele>574</ele></trkpt><trkpt lat="63.828256" lon="-19.208893"><time>2021-07-26T10:47:51.000Z</time><ele>574</ele></trkpt><trkpt lat="63.82825" lon="-19.208919"><time>2021-07-26T10:47:52.000Z</time><ele>574</ele></trkpt><trkpt lat="63.828232" lon="-19.208983"><time>2021-07-26T10:47:55.000Z</time><ele>574</ele></trkpt><trkpt lat="63.828191" lon="-19.209065"><time>2021-07-26T10:48:00.000Z</time><ele>574.2</ele></trkpt><trkpt lat="63.828184" lon="-19.209083"><time>2021-07-26T10:48:01.000Z</time><ele>574.4</ele></trkpt><trkpt lat="63.828177" lon="-19.209096"><time>2021-07-26T10:48:02.000Z</time><ele>574.6</ele></trkpt><trkpt lat="63.828127" lon="-19.209196"><time>2021-07-26T10:48:08.000Z</time><ele>574.4</ele></trkpt><trkpt lat="63.828107" lon="-19.209221"><time>2021-07-26T10:48:11.000Z</time><ele>574.4</ele></trkpt><trkpt lat="63.828002" lon="-19.209312"><time>2021-07-26T10:48:20.000Z</time><ele>574.6</ele></trkpt><trkpt lat="63.827986" lon="-19.209322"><time>2021-07-26T10:48:22.000Z</time><ele>574.6</ele></trkpt><trkpt lat="63.827893" lon="-19.209383"><time>2021-07-26T10:48:31.000Z</time><ele>574.2</ele></trkpt><trkpt lat="63.827808" lon="-19.209557"><time>2021-07-26T10:48:41.000Z</time><ele>573.8</ele></trkpt><trkpt lat="63.827794" lon="-19.209659"><time>2021-07-26T10:48:45.000Z</time><ele>573.4</ele></trkpt><trkpt lat="63.82778" lon="-19.209788"><time>2021-07-26T10:48:50.000Z</time><ele>573</ele></trkpt><trkpt lat="63.827778" lon="-19.209811"><time>2021-07-26T10:48:51.000Z</time><ele>573</ele></trkpt><trkpt lat="63.827743" lon="-19.209995"><time>2021-07-26T10:48:58.000Z</time><ele>572.4</ele></trkpt><trkpt lat="63.827707" lon="-19.210114"><time>2021-07-26T10:49:03.000Z</time><ele>572.2</ele></trkpt><trkpt lat="63.827663" lon="-19.21025"><time>2021-07-26T10:49:09.000Z</time><ele>572.2</ele></trkpt><trkpt lat="63.827575" lon="-19.210414"><time>2021-07-26T10:49:18.000Z</time><ele>572.4</ele></trkpt><trkpt lat="63.827563" lon="-19.210433"><time>2021-07-26T10:49:19.000Z</time><ele>572.4</ele></trkpt><trkpt lat="63.827556" lon="-19.210446"><time>2021-07-26T10:49:20.000Z</time><ele>572.2</ele></trkpt><trkpt lat="63.827515" lon="-19.210535"><time>2021-07-26T10:49:25.000Z</time><ele>571.8</ele></trkpt><trkpt lat="63.827458" lon="-19.210644"><time>2021-07-26T10:49:31.000Z</time><ele>571.6</ele></trkpt><trkpt lat="63.827397" lon="-19.210766"><time>2021-07-26T10:49:38.000Z</time><ele>571.2</ele></trkpt><trkpt lat="63.827382" lon="-19.210785"><time>2021-07-26T10:49:40.000Z</time><ele>571</ele></trkpt><trkpt lat="63.827363" lon="-19.210785"><time>2021-07-26T10:49:41.000Z</time><ele>571</ele></trkpt><trkpt lat="63.827258" lon="-19.210986"><time>2021-07-26T10:49:52.000Z</time><ele>570.8</ele></trkpt><trkpt lat="63.827203" lon="-19.211118"><time>2021-07-26T10:49:59.000Z</time><ele>570.4</ele></trkpt><trkpt lat="63.827122" lon="-19.211352"><time>2021-07-26T10:50:09.000Z</time><ele>570.6</ele></trkpt><trkpt lat="63.82705" lon="-19.211556"><time>2021-07-26T10:50:19.000Z</time><ele>570.6</ele></trkpt><trkpt lat="63.827043" lon="-19.211572"><time>2021-07-26T10:50:20.000Z</time><ele>570.6</ele></trkpt><trkpt lat="63.827023" lon="-19.211625"><time>2021-07-26T10:50:22.000Z</time><ele>570.6</ele></trkpt><trkpt lat="63.827007" lon="-19.211656"><time>2021-07-26T10:50:24.000Z</time><ele>570.6</ele></trkpt><trkpt lat="63.826953" lon="-19.211782"><time>2021-07-26T10:50:31.000Z</time><ele>571</ele></trkpt><trkpt lat="63.826935" lon="-19.211822"><time>2021-07-26T10:50:33.000Z</time><ele>571</ele></trkpt><trkpt lat="63.826876" lon="-19.211944"><time>2021-07-26T10:50:40.000Z</time><ele>571</ele></trkpt><trkpt lat="63.826867" lon="-19.211966"><time>2021-07-26T10:50:41.000Z</time><ele>571</ele></trkpt><trkpt lat="63.826862" lon="-19.211984"><time>2021-07-26T10:50:42.000Z</time><ele>571</ele></trkpt><trkpt lat="63.826772" lon="-19.212157"><time>2021-07-26T10:50:52.000Z</time><ele>570.6</ele></trkpt><trkpt lat="63.82673" lon="-19.212243"><time>2021-07-26T10:50:58.000Z</time><ele>570.8</ele></trkpt><trkpt lat="63.826683" lon="-19.212309"><time>2021-07-26T10:51:02.000Z</time><ele>571.4</ele></trkpt><trkpt lat="63.826633" lon="-19.212362"><time>2021-07-26T10:51:07.000Z</time><ele>571.4</ele></trkpt><trkpt lat="63.826611" lon="-19.212382"><time>2021-07-26T10:51:10.000Z</time><ele>571.4</ele></trkpt><trkpt lat="63.826577" lon="-19.212403"><time>2021-07-26T10:51:12.000Z</time><ele>571.4</ele></trkpt><trkpt lat="63.826539" lon="-19.21245"><time>2021-07-26T10:51:16.000Z</time><ele>571.8</ele></trkpt><trkpt lat="63.826479" lon="-19.21252"><time>2021-07-26T10:51:22.000Z</time><ele>571.8</ele></trkpt><trkpt lat="63.826479" lon="-19.21252"><time>2021-07-26T10:51:23.000Z</time><ele>571.8</ele></trkpt><trkpt lat="63.826353" lon="-19.212614"><time>2021-07-26T10:51:34.000Z</time><ele>571.4</ele></trkpt><trkpt lat="63.826315" lon="-19.212653"><time>2021-07-26T10:51:38.000Z</time><ele>571.2</ele></trkpt><trkpt lat="63.826303" lon="-19.21268"><time>2021-07-26T10:51:40.000Z</time><ele>571.4</ele></trkpt><trkpt lat="63.826279" lon="-19.212704"><time>2021-07-26T10:51:42.000Z</time><ele>571.4</ele></trkpt><trkpt lat="63.826263" lon="-19.212734"><time>2021-07-26T10:51:44.000Z</time><ele>571.4</ele></trkpt><trkpt lat="63.826257" lon="-19.212742"><time>2021-07-26T10:51:45.000Z</time><ele>571.4</ele></trkpt><trkpt lat="63.826132" lon="-19.212874"><time>2021-07-26T10:51:58.000Z</time><ele>571.2</ele></trkpt><trkpt lat="63.826077" lon="-19.212947"><time>2021-07-26T10:52:04.000Z</time><ele>571</ele></trkpt><trkpt lat="63.826044" lon="-19.213013"><time>2021-07-26T10:52:08.000Z</time><ele>571</ele></trkpt><trkpt lat="63.826018" lon="-19.213057"><time>2021-07-26T10:52:11.000Z</time><ele>570.8</ele></trkpt><trkpt lat="63.825975" lon="-19.213124"><time>2021-07-26T10:52:16.000Z</time><ele>570.6</ele></trkpt><trkpt lat="63.825942" lon="-19.213166"><time>2021-07-26T10:52:20.000Z</time><ele>570.6</ele></trkpt><trkpt lat="63.82591" lon="-19.213167"><time>2021-07-26T10:52:25.000Z</time><ele>570.6</ele></trkpt><trkpt lat="63.825876" lon="-19.213213"><time>2021-07-26T10:52:29.000Z</time><ele>570.8</ele></trkpt><trkpt lat="63.82587" lon="-19.213222"><time>2021-07-26T10:52:30.000Z</time><ele>571</ele></trkpt><trkpt lat="63.825838" lon="-19.213277"><time>2021-07-26T10:52:36.000Z</time><ele>570.2</ele></trkpt><trkpt lat="63.825831" lon="-19.213282"><time>2021-07-26T10:52:37.000Z</time><ele>570.2</ele></trkpt><trkpt lat="63.825817" lon="-19.213297"><time>2021-07-26T10:52:39.000Z</time><ele>569.8</ele></trkpt><trkpt lat="63.825798" lon="-19.213303"><time>2021-07-26T10:52:41.000Z</time><ele>569.8</ele></trkpt><trkpt lat="63.825776" lon="-19.213311"><time>2021-07-26T10:52:48.000Z</time><ele>569.4</ele></trkpt><trkpt lat="63.825776" lon="-19.213311"><time>2021-07-26T10:52:49.000Z</time><ele>569.4</ele></trkpt><trkpt lat="63.825765" lon="-19.213302"><time>2021-07-26T10:53:09.000Z</time><ele>569.8</ele></trkpt><trkpt lat="63.825748" lon="-19.213361"><time>2021-07-26T10:53:11.000Z</time><ele>569.8</ele></trkpt><trkpt lat="63.825748" lon="-19.213361"><time>2021-07-26T10:53:12.000Z</time><ele>569.8</ele></trkpt><trkpt lat="63.8257" lon="-19.213472"><time>2021-07-26T10:53:16.000Z</time><ele>569.8</ele></trkpt><trkpt lat="63.82569" lon="-19.21349"><time>2021-07-26T10:53:17.000Z</time><ele>569.8</ele></trkpt><trkpt lat="63.82566" lon="-19.213524"><time>2021-07-26T10:53:22.000Z</time><ele>570.2</ele></trkpt><trkpt lat="63.82564" lon="-19.213554"><time>2021-07-26T10:53:26.000Z</time><ele>570.6</ele></trkpt><trkpt lat="63.82564" lon="-19.213554"><time>2021-07-26T10:53:27.000Z</time><ele>570.6</ele></trkpt><trkpt lat="63.825627" lon="-19.213568"><time>2021-07-26T10:53:31.000Z</time><ele>571.4</ele></trkpt><trkpt lat="63.825618" lon="-19.213574"><time>2021-07-26T10:53:33.000Z</time><ele>571.8</ele></trkpt><trkpt lat="63.825604" lon="-19.213606"><time>2021-07-26T10:53:36.000Z</time><ele>572</ele></trkpt><trkpt lat="63.82559" lon="-19.213599"><time>2021-07-26T10:53:40.000Z</time><ele>572.4</ele></trkpt><trkpt lat="63.82559" lon="-19.213599"><time>2021-07-26T10:53:41.000Z</time><ele>572.6</ele></trkpt><trkpt lat="63.825583" lon="-19.213538"><time>2021-07-26T10:53:46.000Z</time><ele>573.2</ele></trkpt><trkpt lat="63.82558" lon="-19.213538"><time>2021-07-26T10:53:49.000Z</time><ele>573</ele></trkpt><trkpt lat="63.82558" lon="-19.213538"><time>2021-07-26T10:53:53.000Z</time><ele>573</ele></trkpt><trkpt lat="63.825567" lon="-19.213571"><time>2021-07-26T10:54:14.000Z</time><ele>572.8</ele></trkpt><trkpt lat="63.825491" lon="-19.213672"><time>2021-07-26T10:54:23.000Z</time><ele>572.8</ele></trkpt><trkpt lat="63.825455" lon="-19.21372"><time>2021-07-26T10:54:29.000Z</time><ele>572.8</ele></trkpt><trkpt lat="63.825426" lon="-19.213725"><time>2021-07-26T10:54:36.000Z</time><ele>571.4</ele></trkpt><trkpt lat="63.825424" lon="-19.213706"><time>2021-07-26T10:54:39.000Z</time><ele>571.2</ele></trkpt><trkpt lat="63.825424" lon="-19.213706"><time>2021-07-26T10:54:45.000Z</time><ele>571</ele></trkpt><trkpt lat="63.825432" lon="-19.213709"><time>2021-07-26T10:54:52.000Z</time><ele>571</ele></trkpt><trkpt lat="63.825396" lon="-19.213845"><time>2021-07-26T10:55:03.000Z</time><ele>571.4</ele></trkpt><trkpt lat="63.825366" lon="-19.213967"><time>2021-07-26T10:55:08.000Z</time><ele>571</ele></trkpt><trkpt lat="63.825358" lon="-19.213988"><time>2021-07-26T10:55:11.000Z</time><ele>570.6</ele></trkpt><trkpt lat="63.825357" lon="-19.214007"><time>2021-07-26T10:55:12.000Z</time><ele>570.4</ele></trkpt><trkpt lat="63.825357" lon="-19.214012"><time>2021-07-26T10:55:13.000Z</time><ele>570.4</ele></trkpt><trkpt lat="63.825353" lon="-19.21402"><time>2021-07-26T10:55:14.000Z</time><ele>570.4</ele></trkpt><trkpt lat="63.825352" lon="-19.214024"><time>2021-07-26T10:55:16.000Z</time><ele>570.4</ele></trkpt><trkpt lat="63.825359" lon="-19.214042"><time>2021-07-26T10:55:23.000Z</time><ele>570.4</ele></trkpt><trkpt lat="63.825359" lon="-19.214042"><time>2021-07-26T10:55:32.000Z</time><ele>570.6</ele></trkpt><trkpt lat="63.825287" lon="-19.214151"><time>2021-07-26T10:55:47.000Z</time><ele>570.4</ele></trkpt><trkpt lat="63.825275" lon="-19.214169"><time>2021-07-26T10:55:48.000Z</time><ele>570.2</ele></trkpt><trkpt lat="63.825211" lon="-19.214355"><time>2021-07-26T10:55:58.000Z</time><ele>570.6</ele></trkpt><trkpt lat="63.825155" lon="-19.214514"><time>2021-07-26T10:56:08.000Z</time><ele>570.2</ele></trkpt><trkpt lat="63.825132" lon="-19.214621"><time>2021-07-26T10:56:13.000Z</time><ele>570.2</ele></trkpt><trkpt lat="63.825114" lon="-19.214704"><time>2021-07-26T10:56:18.000Z</time><ele>570.2</ele></trkpt><trkpt lat="63.825114" lon="-19.214731"><time>2021-07-26T10:56:19.000Z</time><ele>570.2</ele></trkpt><trkpt lat="63.825108" lon="-19.214769"><time>2021-07-26T10:56:25.000Z</time><ele>569.6</ele></trkpt><trkpt lat="63.825111" lon="-19.214776"><time>2021-07-26T10:56:28.000Z</time><ele>569.8</ele></trkpt><trkpt lat="63.825107" lon="-19.214781"><time>2021-07-26T10:56:36.000Z</time><ele>569.4</ele></trkpt><trkpt lat="63.825107" lon="-19.214781"><time>2021-07-26T10:56:38.000Z</time><ele>569.4</ele></trkpt><trkpt lat="63.825107" lon="-19.214781"><time>2021-07-26T10:56:39.000Z</time><ele>569.6</ele></trkpt><trkpt lat="63.8251" lon="-19.214775"><time>2021-07-26T10:56:50.000Z</time><ele>569.8</ele></trkpt><trkpt lat="63.825094" lon="-19.214774"><time>2021-07-26T10:56:52.000Z</time><ele>569.8</ele></trkpt><trkpt lat="63.825075" lon="-19.214776"><time>2021-07-26T10:57:00.000Z</time><ele>569.8</ele></trkpt><trkpt lat="63.825049" lon="-19.214868"><time>2021-07-26T10:57:06.000Z</time><ele>569.8</ele></trkpt><trkpt lat="63.824991" lon="-19.215088"><time>2021-07-26T10:57:15.000Z</time><ele>569.8</ele></trkpt><trkpt lat="63.824961" lon="-19.215214"><time>2021-07-26T10:57:22.000Z</time><ele>569.4</ele></trkpt><trkpt lat="63.824963" lon="-19.215247"><time>2021-07-26T10:57:26.000Z</time><ele>569.4</ele></trkpt><trkpt lat="63.824962" lon="-19.215245"><time>2021-07-26T10:57:28.000Z</time><ele>569.6</ele></trkpt><trkpt lat="63.824965" lon="-19.215242"><time>2021-07-26T10:57:31.000Z</time><ele>569.8</ele></trkpt><trkpt lat="63.82496" lon="-19.215255"><time>2021-07-26T10:57:36.000Z</time><ele>570</ele></trkpt><trkpt lat="63.824946" lon="-19.215254"><time>2021-07-26T10:57:38.000Z</time><ele>569.2</ele></trkpt><trkpt lat="63.824926" lon="-19.215285"><time>2021-07-26T10:57:43.000Z</time><ele>569</ele></trkpt><trkpt lat="63.824926" lon="-19.215283"><time>2021-07-26T10:57:48.000Z</time><ele>569.2</ele></trkpt><trkpt lat="63.824926" lon="-19.215283"><time>2021-07-26T10:57:51.000Z</time><ele>569</ele></trkpt><trkpt lat="63.824898" lon="-19.215406"><time>2021-07-26T10:57:59.000Z</time><ele>568.6</ele></trkpt><trkpt lat="63.82486" lon="-19.215652"><time>2021-07-26T10:58:09.000Z</time><ele>568.8</ele></trkpt><trkpt lat="63.824861" lon="-19.215655"><time>2021-07-26T10:58:10.000Z</time><ele>568.8</ele></trkpt><trkpt lat="63.82486" lon="-19.215657"><time>2021-07-26T10:58:12.000Z</time><ele>568.8</ele></trkpt><trkpt lat="63.824835" lon="-19.215757"><time>2021-07-26T10:58:18.000Z</time><ele>568.6</ele></trkpt><trkpt lat="63.824798" lon="-19.216022"><time>2021-07-26T10:58:28.000Z</time><ele>568.4</ele></trkpt><trkpt lat="63.824751" lon="-19.216216"><time>2021-07-26T10:58:37.000Z</time><ele>568.4</ele></trkpt><trkpt lat="63.824739" lon="-19.216436"><time>2021-07-26T10:58:45.000Z</time><ele>568.2</ele></trkpt><trkpt lat="63.824736" lon="-19.216462"><time>2021-07-26T10:58:46.000Z</time><ele>568</ele></trkpt><trkpt lat="63.824682" lon="-19.216763"><time>2021-07-26T10:58:58.000Z</time><ele>568</ele></trkpt><trkpt lat="63.824627" lon="-19.217038"><time>2021-07-26T10:59:10.000Z</time><ele>567.8</ele></trkpt><trkpt lat="63.824609" lon="-19.217108"><time>2021-07-26T10:59:13.000Z</time><ele>568</ele></trkpt><trkpt lat="63.824575" lon="-19.217266"><time>2021-07-26T10:59:19.000Z</time><ele>567.8</ele></trkpt><trkpt lat="63.824558" lon="-19.21733"><time>2021-07-26T10:59:22.000Z</time><ele>567.8</ele></trkpt><trkpt lat="63.82446" lon="-19.217608"><time>2021-07-26T10:59:36.000Z</time><ele>568.2</ele></trkpt><trkpt lat="63.824385" lon="-19.217791"><time>2021-07-26T10:59:46.000Z</time><ele>569</ele></trkpt><trkpt lat="63.824376" lon="-19.217808"><time>2021-07-26T10:59:47.000Z</time><ele>569.6</ele></trkpt><trkpt lat="63.824359" lon="-19.217843"><time>2021-07-26T10:59:49.000Z</time><ele>570</ele></trkpt><trkpt lat="63.824319" lon="-19.217932"><time>2021-07-26T10:59:54.000Z</time><ele>569</ele></trkpt><trkpt lat="63.824301" lon="-19.217958"><time>2021-07-26T10:59:56.000Z</time><ele>569</ele></trkpt><trkpt lat="63.82422" lon="-19.218072"><time>2021-07-26T11:00:03.000Z</time><ele>568.4</ele></trkpt><trkpt lat="63.824211" lon="-19.218087"><time>2021-07-26T11:00:04.000Z</time><ele>568.4</ele></trkpt><trkpt lat="63.824132" lon="-19.218207"><time>2021-07-26T11:00:12.000Z</time><ele>567.8</ele></trkpt><trkpt lat="63.824042" lon="-19.218333"><time>2021-07-26T11:00:21.000Z</time><ele>567.6</ele></trkpt><trkpt lat="63.823951" lon="-19.218431"><time>2021-07-26T11:00:29.000Z</time><ele>567.8</ele></trkpt><trkpt lat="63.823869" lon="-19.218523"><time>2021-07-26T11:00:36.000Z</time><ele>568</ele></trkpt><trkpt lat="63.82385" lon="-19.218549"><time>2021-07-26T11:00:38.000Z</time><ele>568</ele></trkpt><trkpt lat="63.823774" lon="-19.218627"><time>2021-07-26T11:00:45.000Z</time><ele>567.8</ele></trkpt><trkpt lat="63.823668" lon="-19.21874"><time>2021-07-26T11:00:55.000Z</time><ele>568.2</ele></trkpt><trkpt lat="63.823572" lon="-19.218834"><time>2021-07-26T11:01:04.000Z</time><ele>568</ele></trkpt><trkpt lat="63.823484" lon="-19.218923"><time>2021-07-26T11:01:13.000Z</time><ele>567.4</ele></trkpt><trkpt lat="63.823451" lon="-19.218965"><time>2021-07-26T11:01:15.000Z</time><ele>567.4</ele></trkpt><trkpt lat="63.823433" lon="-19.218991"><time>2021-07-26T11:01:17.000Z</time><ele>567.4</ele></trkpt><trkpt lat="63.823389" lon="-19.219045"><time>2021-07-26T11:01:21.000Z</time><ele>567.8</ele></trkpt><trkpt lat="63.823348" lon="-19.219093"><time>2021-07-26T11:01:25.000Z</time><ele>567.6</ele></trkpt><trkpt lat="63.823313" lon="-19.219144"><time>2021-07-26T11:01:29.000Z</time><ele>567.8</ele></trkpt><trkpt lat="63.823272" lon="-19.219193"><time>2021-07-26T11:01:33.000Z</time><ele>568</ele></trkpt><trkpt lat="63.823215" lon="-19.219213"><time>2021-07-26T11:01:38.000Z</time><ele>568</ele></trkpt><trkpt lat="63.823146" lon="-19.219215"><time>2021-07-26T11:01:45.000Z</time><ele>567.8</ele></trkpt><trkpt lat="63.823125" lon="-19.219211"><time>2021-07-26T11:01:46.000Z</time><ele>567.8</ele></trkpt><trkpt lat="63.822999" lon="-19.219141"><time>2021-07-26T11:01:57.000Z</time><ele>567.6</ele></trkpt><trkpt lat="63.82299" lon="-19.219136"><time>2021-07-26T11:01:58.000Z</time><ele>567.6</ele></trkpt><trkpt lat="63.822941" lon="-19.21912"><time>2021-07-26T11:02:02.000Z</time><ele>567.6</ele></trkpt><trkpt lat="63.822858" lon="-19.219033"><time>2021-07-26T11:02:10.000Z</time><ele>567.4</ele></trkpt><trkpt lat="63.822775" lon="-19.218958"><time>2021-07-26T11:02:19.000Z</time><ele>567.2</ele></trkpt><trkpt lat="63.822691" lon="-19.218812"><time>2021-07-26T11:02:28.000Z</time><ele>567.4</ele></trkpt><trkpt lat="63.822664" lon="-19.218747"><time>2021-07-26T11:02:32.000Z</time><ele>567.4</ele></trkpt><trkpt lat="63.822625" lon="-19.218631"><time>2021-07-26T11:02:39.000Z</time><ele>567.2</ele></trkpt><trkpt lat="63.822554" lon="-19.2185"><time>2021-07-26T11:02:49.000Z</time><ele>567.6</ele></trkpt><trkpt lat="63.822549" lon="-19.218489"><time>2021-07-26T11:02:50.000Z</time><ele>567.6</ele></trkpt><trkpt lat="63.822534" lon="-19.218467"><time>2021-07-26T11:02:54.000Z</time><ele>567.6</ele></trkpt><trkpt lat="63.822529" lon="-19.218469"><time>2021-07-26T11:02:56.000Z</time><ele>567.6</ele></trkpt><trkpt lat="63.82253" lon="-19.218467"><time>2021-07-26T11:02:57.000Z</time><ele>567.6</ele></trkpt><trkpt lat="63.822532" lon="-19.218465"><time>2021-07-26T11:03:09.000Z</time><ele>567.4</ele></trkpt><trkpt lat="63.822532" lon="-19.218465"><time>2021-07-26T11:03:13.000Z</time><ele>567.4</ele></trkpt><trkpt lat="63.822527" lon="-19.218466"><time>2021-07-26T11:03:22.000Z</time><ele>567.4</ele></trkpt><trkpt lat="63.822527" lon="-19.218466"><time>2021-07-26T11:03:24.000Z</time><ele>567.4</ele></trkpt><trkpt lat="63.822527" lon="-19.218465"><time>2021-07-26T11:03:25.000Z</time><ele>567.4</ele></trkpt><trkpt lat="63.822515" lon="-19.218449"><time>2021-07-26T11:03:33.000Z</time><ele>567.4</ele></trkpt><trkpt lat="63.822501" lon="-19.218409"><time>2021-07-26T11:03:37.000Z</time><ele>567.4</ele></trkpt><trkpt lat="63.82249" lon="-19.218403"><time>2021-07-26T11:03:41.000Z</time><ele>567.4</ele></trkpt><trkpt lat="63.822488" lon="-19.218397"><time>2021-07-26T11:03:46.000Z</time><ele>567.4</ele></trkpt><trkpt lat="63.822488" lon="-19.218387"><time>2021-07-26T11:03:47.000Z</time><ele>567.4</ele></trkpt><trkpt lat="63.822482" lon="-19.218339"><time>2021-07-26T11:04:09.000Z</time><ele>567.4</ele></trkpt><trkpt lat="63.822483" lon="-19.218342"><time>2021-07-26T11:04:12.000Z</time><ele>567.4</ele></trkpt><trkpt lat="63.822484" lon="-19.218343"><time>2021-07-26T11:04:16.000Z</time><ele>567.4</ele></trkpt><trkpt lat="63.822484" lon="-19.218345"><time>2021-07-26T11:04:19.000Z</time><ele>567.4</ele></trkpt><trkpt lat="63.822482" lon="-19.218357"><time>2021-07-26T11:04:42.000Z</time><ele>567.4</ele></trkpt><trkpt lat="63.822482" lon="-19.218354"><time>2021-07-26T11:04:51.000Z</time><ele>567.4</ele></trkpt><trkpt lat="63.822483" lon="-19.218353"><time>2021-07-26T11:04:57.000Z</time><ele>567.4</ele></trkpt><trkpt lat="63.822486" lon="-19.218352"><time>2021-07-26T11:05:11.000Z</time><ele>567.4</ele></trkpt><trkpt lat="63.822489" lon="-19.218365"><time>2021-07-26T11:05:34.000Z</time><ele>567.4</ele></trkpt><trkpt lat="63.82249" lon="-19.218366"><time>2021-07-26T11:05:36.000Z</time><ele>567.4</ele></trkpt><trkpt lat="63.82249" lon="-19.218365"><time>2021-07-26T11:05:43.000Z</time><ele>567.4</ele></trkpt><trkpt lat="63.822467" lon="-19.21838"><time>2021-07-26T11:06:13.000Z</time><ele>567.4</ele></trkpt><trkpt lat="63.822462" lon="-19.218386"><time>2021-07-26T11:06:20.000Z</time><ele>567.4</ele></trkpt><trkpt lat="63.822462" lon="-19.218386"><time>2021-07-26T11:06:21.000Z</time><ele>567.4</ele></trkpt><trkpt lat="63.822462" lon="-19.218386"><time>2021-07-26T11:06:22.000Z</time><ele>567.4</ele></trkpt><trkpt lat="63.822462" lon="-19.218387"><time>2021-07-26T11:06:24.000Z</time><ele>567.4</ele></trkpt><trkpt lat="63.822462" lon="-19.218387"><time>2021-07-26T11:06:27.000Z</time><ele>567.4</ele></trkpt><trkpt lat="63.822461" lon="-19.218387"><time>2021-07-26T11:06:33.000Z</time><ele>567.4</ele></trkpt><trkpt lat="63.822461" lon="-19.218387"><time>2021-07-26T11:06:38.000Z</time><ele>567.4</ele></trkpt><trkpt lat="63.822461" lon="-19.218388"><time>2021-07-26T11:06:48.000Z</time><ele>567.4</ele></trkpt><trkpt lat="63.822461" lon="-19.218389"><time>2021-07-26T11:06:51.000Z</time><ele>567.4</ele></trkpt><trkpt lat="63.82246" lon="-19.21839"><time>2021-07-26T11:07:01.000Z</time><ele>567.4</ele></trkpt><trkpt lat="63.82246" lon="-19.218392"><time>2021-07-26T11:07:09.000Z</time><ele>567.4</ele></trkpt><trkpt lat="63.822459" lon="-19.218394"><time>2021-07-26T11:07:19.000Z</time><ele>567.4</ele></trkpt><trkpt lat="63.822458" lon="-19.218395"><time>2021-07-26T11:07:24.000Z</time><ele>567.4</ele></trkpt><trkpt lat="63.822458" lon="-19.218395"><time>2021-07-26T11:07:26.000Z</time><ele>567.4</ele></trkpt><trkpt lat="63.822458" lon="-19.218396"><time>2021-07-26T11:07:27.000Z</time><ele>567.4</ele></trkpt><trkpt lat="63.822457" lon="-19.218397"><time>2021-07-26T11:07:32.000Z</time><ele>567.4</ele></trkpt><trkpt lat="63.822457" lon="-19.218398"><time>2021-07-26T11:07:36.000Z</time><ele>567.4</ele></trkpt><trkpt lat="63.822456" lon="-19.218401"><time>2021-07-26T11:07:46.000Z</time><ele>567.4</ele></trkpt><trkpt lat="63.822455" lon="-19.218402"><time>2021-07-26T11:07:53.000Z</time><ele>567.4</ele></trkpt><trkpt lat="63.822451" lon="-19.218411"><time>2021-07-26T11:08:31.000Z</time><ele>567.4</ele></trkpt><trkpt lat="63.822451" lon="-19.218412"><time>2021-07-26T11:08:34.000Z</time><ele>567.4</ele></trkpt><trkpt lat="63.822451" lon="-19.218413"><time>2021-07-26T11:08:38.000Z</time><ele>567.4</ele></trkpt><trkpt lat="63.82245" lon="-19.218414"><time>2021-07-26T11:08:43.000Z</time><ele>567.4</ele></trkpt><trkpt lat="63.822449" lon="-19.218417"><time>2021-07-26T11:08:54.000Z</time><ele>567.4</ele></trkpt><trkpt lat="63.822448" lon="-19.21842"><time>2021-07-26T11:09:07.000Z</time><ele>567.4</ele></trkpt><trkpt lat="63.822446" lon="-19.218424"><time>2021-07-26T11:09:26.000Z</time><ele>567.4</ele></trkpt><trkpt lat="63.822445" lon="-19.218424"><time>2021-07-26T11:09:32.000Z</time><ele>567.4</ele></trkpt><trkpt lat="63.822444" lon="-19.218425"><time>2021-07-26T11:09:42.000Z</time><ele>567.4</ele></trkpt><trkpt lat="63.822444" lon="-19.218425"><time>2021-07-26T11:09:43.000Z</time><ele>567.4</ele></trkpt><trkpt lat="63.822444" lon="-19.218426"><time>2021-07-26T11:09:44.000Z</time><ele>567.4</ele></trkpt><trkpt lat="63.822443" lon="-19.218426"><time>2021-07-26T11:09:45.000Z</time><ele>567.4</ele></trkpt><trkpt lat="63.822443" lon="-19.218426"><time>2021-07-26T11:09:48.000Z</time><ele>567.4</ele></trkpt><trkpt lat="63.822441" lon="-19.218427"><time>2021-07-26T11:09:57.000Z</time><ele>567.4</ele></trkpt><trkpt lat="63.82244" lon="-19.218428"><time>2021-07-26T11:10:03.000Z</time><ele>567.4</ele></trkpt><trkpt lat="63.822439" lon="-19.218429"><time>2021-07-26T11:10:09.000Z</time><ele>567.4</ele></trkpt><trkpt lat="63.822438" lon="-19.21843"><time>2021-07-26T11:10:13.000Z</time><ele>567.4</ele></trkpt><trkpt lat="63.822434" lon="-19.218434"><time>2021-07-26T11:10:32.000Z</time><ele>567.4</ele></trkpt><trkpt lat="63.822432" lon="-19.218435"><time>2021-07-26T11:10:39.000Z</time><ele>567.4</ele></trkpt><trkpt lat="63.822431" lon="-19.218437"><time>2021-07-26T11:10:46.000Z</time><ele>567.4</ele></trkpt><trkpt lat="63.822429" lon="-19.218438"><time>2021-07-26T11:10:52.000Z</time><ele>567.4</ele></trkpt><trkpt lat="63.822429" lon="-19.218439"><time>2021-07-26T11:10:53.000Z</time><ele>567.4</ele></trkpt><trkpt lat="63.822425" lon="-19.218442"><time>2021-07-26T11:11:07.000Z</time><ele>567.4</ele></trkpt><trkpt lat="63.822423" lon="-19.218444"><time>2021-07-26T11:11:15.000Z</time><ele>567.4</ele></trkpt><trkpt lat="63.822414" lon="-19.218451"><time>2021-07-26T11:11:50.000Z</time><ele>567.4</ele></trkpt><trkpt lat="63.822411" lon="-19.218453"><time>2021-07-26T11:12:04.000Z</time><ele>567.4</ele></trkpt><trkpt lat="63.822405" lon="-19.218458"><time>2021-07-26T11:12:33.000Z</time><ele>567.4</ele></trkpt><trkpt lat="63.822405" lon="-19.218459"><time>2021-07-26T11:12:36.000Z</time><ele>567.4</ele></trkpt><trkpt lat="63.822401" lon="-19.218462"><time>2021-07-26T11:12:56.000Z</time><ele>567.4</ele></trkpt><trkpt lat="63.822398" lon="-19.218463"><time>2021-07-26T11:13:08.000Z</time><ele>567.4</ele></trkpt><trkpt lat="63.822397" lon="-19.218464"><time>2021-07-26T11:13:15.000Z</time><ele>567.4</ele></trkpt><trkpt lat="63.822397" lon="-19.218465"><time>2021-07-26T11:13:16.000Z</time><ele>567.4</ele></trkpt><trkpt lat="63.822394" lon="-19.218466"><time>2021-07-26T11:13:27.000Z</time><ele>567.4</ele></trkpt><trkpt lat="63.822393" lon="-19.218467"><time>2021-07-26T11:13:35.000Z</time><ele>567.4</ele></trkpt><trkpt lat="63.822391" lon="-19.218468"><time>2021-07-26T11:13:44.000Z</time><ele>567.4</ele></trkpt><trkpt lat="63.822391" lon="-19.218469"><time>2021-07-26T11:13:47.000Z</time><ele>567.4</ele></trkpt><trkpt lat="63.822389" lon="-19.21847"><time>2021-07-26T11:13:59.000Z</time><ele>567.4</ele></trkpt><trkpt lat="63.822384" lon="-19.218472"><time>2021-07-26T11:14:27.000Z</time><ele>567.4</ele></trkpt><trkpt lat="63.822383" lon="-19.218472"><time>2021-07-26T11:14:31.000Z</time><ele>567.4</ele></trkpt><trkpt lat="63.822379" lon="-19.218474"><time>2021-07-26T11:14:52.000Z</time><ele>567.4</ele></trkpt><trkpt lat="63.822376" lon="-19.218476"><time>2021-07-26T11:15:12.000Z</time><ele>567.4</ele></trkpt><trkpt lat="63.822373" lon="-19.218479"><time>2021-07-26T11:15:31.000Z</time><ele>567.4</ele></trkpt><trkpt lat="63.822371" lon="-19.218479"><time>2021-07-26T11:15:41.000Z</time><ele>567.4</ele></trkpt><trkpt lat="63.822371" lon="-19.21848"><time>2021-07-26T11:15:42.000Z</time><ele>567.4</ele></trkpt><trkpt lat="63.822368" lon="-19.218481"><time>2021-07-26T11:16:02.000Z</time><ele>567.4</ele></trkpt><trkpt lat="63.822339" lon="-19.218657"><time>2021-07-26T11:16:07.000Z</time><ele>567.4</ele></trkpt><trkpt lat="63.822333" lon="-19.218697"><time>2021-07-26T11:16:08.000Z</time><ele>567.4</ele></trkpt><trkpt lat="63.822318" lon="-19.218896"><time>2021-07-26T11:16:16.000Z</time><ele>568.4</ele></trkpt><trkpt lat="63.822321" lon="-19.218913"><time>2021-07-26T11:16:17.000Z</time><ele>568.6</ele></trkpt><trkpt lat="63.822331" lon="-19.218989"><time>2021-07-26T11:16:22.000Z</time><ele>568.6</ele></trkpt><trkpt lat="63.822349" lon="-19.219086"><time>2021-07-26T11:16:26.000Z</time><ele>568.6</ele></trkpt><trkpt lat="63.82236" lon="-19.219126"><time>2021-07-26T11:16:28.000Z</time><ele>568.6</ele></trkpt><trkpt lat="63.82237" lon="-19.219158"><time>2021-07-26T11:16:30.000Z</time><ele>568.6</ele></trkpt><trkpt lat="63.822396" lon="-19.219282"><time>2021-07-26T11:16:37.000Z</time><ele>568.6</ele></trkpt><trkpt lat="63.822405" lon="-19.219313"><time>2021-07-26T11:16:39.000Z</time><ele>568.6</ele></trkpt><trkpt lat="63.822455" lon="-19.219463"><time>2021-07-26T11:16:50.000Z</time><ele>568.2</ele></trkpt><trkpt lat="63.822456" lon="-19.219462"><time>2021-07-26T11:16:51.000Z</time><ele>568.2</ele></trkpt><trkpt lat="63.822461" lon="-19.219465"><time>2021-07-26T11:17:07.000Z</time><ele>568.2</ele></trkpt><trkpt lat="63.822461" lon="-19.219465"><time>2021-07-26T11:17:08.000Z</time><ele>568.2</ele></trkpt><trkpt lat="63.82246" lon="-19.219465"><time>2021-07-26T11:17:13.000Z</time><ele>567.8</ele></trkpt><trkpt lat="63.822459" lon="-19.219466"><time>2021-07-26T11:17:21.000Z</time><ele>568</ele></trkpt><trkpt lat="63.822459" lon="-19.219468"><time>2021-07-26T11:17:30.000Z</time><ele>568.4</ele></trkpt><trkpt lat="63.822459" lon="-19.219468"><time>2021-07-26T11:17:31.000Z</time><ele>568.4</ele></trkpt><trkpt lat="63.822454" lon="-19.219465"><time>2021-07-26T11:17:57.000Z</time><ele>568.6</ele></trkpt><trkpt lat="63.822454" lon="-19.219468"><time>2021-07-26T11:18:02.000Z</time><ele>568</ele></trkpt><trkpt lat="63.822454" lon="-19.219471"><time>2021-07-26T11:18:06.000Z</time><ele>567.8</ele></trkpt><trkpt lat="63.822454" lon="-19.219472"><time>2021-07-26T11:18:08.000Z</time><ele>568</ele></trkpt><trkpt lat="63.822454" lon="-19.219472"><time>2021-07-26T11:18:10.000Z</time><ele>568</ele></trkpt><trkpt lat="63.822454" lon="-19.219474"><time>2021-07-26T11:18:12.000Z</time><ele>568</ele></trkpt><trkpt lat="63.822454" lon="-19.219475"><time>2021-07-26T11:18:16.000Z</time><ele>568</ele></trkpt><trkpt lat="63.82245" lon="-19.219451"><time>2021-07-26T11:18:32.000Z</time><ele>567.8</ele></trkpt><trkpt lat="63.822448" lon="-19.219443"><time>2021-07-26T11:18:40.000Z</time><ele>567.8</ele></trkpt><trkpt lat="63.822448" lon="-19.219443"><time>2021-07-26T11:18:43.000Z</time><ele>567.8</ele></trkpt><trkpt lat="63.822448" lon="-19.219443"><time>2021-07-26T11:18:46.000Z</time><ele>567.8</ele></trkpt><trkpt lat="63.822398" lon="-19.219469"><time>2021-07-26T11:18:49.000Z</time><ele>567.8</ele></trkpt><trkpt lat="63.822371" lon="-19.219462"><time>2021-07-26T11:18:51.000Z</time><ele>567.8</ele></trkpt><trkpt lat="63.822308" lon="-19.219449"><time>2021-07-26T11:18:58.000Z</time><ele>567.6</ele></trkpt><trkpt lat="63.822277" lon="-19.219469"><time>2021-07-26T11:19:02.000Z</time><ele>567.8</ele></trkpt><trkpt lat="63.822221" lon="-19.219639"><time>2021-07-26T11:19:13.000Z</time><ele>568.6</ele></trkpt><trkpt lat="63.822214" lon="-19.219646"><time>2021-07-26T11:19:15.000Z</time><ele>568.6</ele></trkpt><trkpt lat="63.822205" lon="-19.219673"><time>2021-07-26T11:19:17.000Z</time><ele>568.6</ele></trkpt><trkpt lat="63.82218" lon="-19.219703"><time>2021-07-26T11:19:19.000Z</time><ele>568.6</ele></trkpt><trkpt lat="63.822159" lon="-19.219829"><time>2021-07-26T11:19:25.000Z</time><ele>568.8</ele></trkpt><trkpt lat="63.822117" lon="-19.219973"><time>2021-07-26T11:19:34.000Z</time><ele>569</ele></trkpt><trkpt lat="63.822028" lon="-19.220193"><time>2021-07-26T11:19:48.000Z</time><ele>569.2</ele></trkpt><trkpt lat="63.821956" lon="-19.220375"><time>2021-07-26T11:19:58.000Z</time><ele>568.8</ele></trkpt><trkpt lat="63.821887" lon="-19.220567"><time>2021-07-26T11:20:09.000Z</time><ele>569</ele></trkpt><trkpt lat="63.821875" lon="-19.2206"><time>2021-07-26T11:20:11.000Z</time><ele>569</ele></trkpt><trkpt lat="63.821831" lon="-19.220711"><time>2021-07-26T11:20:19.000Z</time><ele>568.8</ele></trkpt><trkpt lat="63.821791" lon="-19.220818"><time>2021-07-26T11:20:25.000Z</time><ele>569.6</ele></trkpt><trkpt lat="63.821769" lon="-19.220863"><time>2021-07-26T11:20:27.000Z</time><ele>569.2</ele></trkpt><trkpt lat="63.821759" lon="-19.22088"><time>2021-07-26T11:20:28.000Z</time><ele>568.8</ele></trkpt><trkpt lat="63.821743" lon="-19.220897"><time>2021-07-26T11:20:30.000Z</time><ele>568.6</ele></trkpt><trkpt lat="63.821695" lon="-19.221039"><time>2021-07-26T11:20:37.000Z</time><ele>570.6</ele></trkpt><trkpt lat="63.821687" lon="-19.221057"><time>2021-07-26T11:20:38.000Z</time><ele>570.8</ele></trkpt><trkpt lat="63.821681" lon="-19.221071"><time>2021-07-26T11:20:39.000Z</time><ele>570.8</ele></trkpt><trkpt lat="63.821619" lon="-19.221214"><time>2021-07-26T11:20:49.000Z</time><ele>569.6</ele></trkpt><trkpt lat="63.821617" lon="-19.221214"><time>2021-07-26T11:20:50.000Z</time><ele>569.6</ele></trkpt><trkpt lat="63.821623" lon="-19.221226"><time>2021-07-26T11:20:55.000Z</time><ele>569.6</ele></trkpt><trkpt lat="63.821623" lon="-19.221219"><time>2021-07-26T11:20:57.000Z</time><ele>570</ele></trkpt><trkpt lat="63.821624" lon="-19.221227"><time>2021-07-26T11:20:59.000Z</time><ele>570</ele></trkpt><trkpt lat="63.821593" lon="-19.221327"><time>2021-07-26T11:21:16.000Z</time><ele>570</ele></trkpt><trkpt lat="63.821531" lon="-19.221507"><time>2021-07-26T11:21:25.000Z</time><ele>570.4</ele></trkpt><trkpt lat="63.821527" lon="-19.221525"><time>2021-07-26T11:21:26.000Z</time><ele>570.6</ele></trkpt><trkpt lat="63.821479" lon="-19.221645"><time>2021-07-26T11:21:33.000Z</time><ele>570.2</ele></trkpt><trkpt lat="63.821469" lon="-19.221693"><time>2021-07-26T11:21:35.000Z</time><ele>569.8</ele></trkpt><trkpt lat="63.821464" lon="-19.221712"><time>2021-07-26T11:21:36.000Z</time><ele>569.8</ele></trkpt><trkpt lat="63.821434" lon="-19.221777"><time>2021-07-26T11:21:41.000Z</time><ele>569.8</ele></trkpt><trkpt lat="63.821432" lon="-19.22179"><time>2021-07-26T11:21:42.000Z</time><ele>569.8</ele></trkpt><trkpt lat="63.821429" lon="-19.221805"><time>2021-07-26T11:21:43.000Z</time><ele>569.8</ele></trkpt><trkpt lat="63.821425" lon="-19.221822"><time>2021-07-26T11:21:44.000Z</time><ele>569.8</ele></trkpt><trkpt lat="63.821421" lon="-19.221847"><time>2021-07-26T11:21:45.000Z</time><ele>569.8</ele></trkpt><trkpt lat="63.821383" lon="-19.221946"><time>2021-07-26T11:21:50.000Z</time><ele>569.8</ele></trkpt><trkpt lat="63.821367" lon="-19.221998"><time>2021-07-26T11:21:53.000Z</time><ele>569.6</ele></trkpt><trkpt lat="63.821348" lon="-19.222069"><time>2021-07-26T11:21:59.000Z</time><ele>569.6</ele></trkpt><trkpt lat="63.821347" lon="-19.222071"><time>2021-07-26T11:22:01.000Z</time><ele>569.6</ele></trkpt><trkpt lat="63.821348" lon="-19.222077"><time>2021-07-26T11:22:03.000Z</time><ele>569.4</ele></trkpt><trkpt lat="63.821345" lon="-19.222069"><time>2021-07-26T11:22:05.000Z</time><ele>569.4</ele></trkpt><trkpt lat="63.821343" lon="-19.222075"><time>2021-07-26T11:22:09.000Z</time><ele>568.6</ele></trkpt><trkpt lat="63.821343" lon="-19.222075"><time>2021-07-26T11:22:11.000Z</time><ele>568.6</ele></trkpt><trkpt lat="63.821347" lon="-19.222075"><time>2021-07-26T11:22:23.000Z</time><ele>568.6</ele></trkpt><trkpt lat="63.821348" lon="-19.222075"><time>2021-07-26T11:22:27.000Z</time><ele>568.8</ele></trkpt><trkpt lat="63.821349" lon="-19.222076"><time>2021-07-26T11:22:29.000Z</time><ele>569</ele></trkpt><trkpt lat="63.821351" lon="-19.222078"><time>2021-07-26T11:22:32.000Z</time><ele>569.4</ele></trkpt><trkpt lat="63.821353" lon="-19.222078"><time>2021-07-26T11:22:33.000Z</time><ele>569.6</ele></trkpt><trkpt lat="63.821357" lon="-19.222085"><time>2021-07-26T11:23:01.000Z</time><ele>570.6</ele></trkpt><trkpt lat="63.821342" lon="-19.222125"><time>2021-07-26T11:23:03.000Z</time><ele>570.6</ele></trkpt><trkpt lat="63.821328" lon="-19.222162"><time>2021-07-26T11:23:05.000Z</time><ele>570.6</ele></trkpt><trkpt lat="63.821321" lon="-19.222184"><time>2021-07-26T11:23:06.000Z</time><ele>570.6</ele></trkpt><trkpt lat="63.821311" lon="-19.222208"><time>2021-07-26T11:23:07.000Z</time><ele>570.6</ele></trkpt><trkpt lat="63.821297" lon="-19.222234"><time>2021-07-26T11:23:08.000Z</time><ele>570.6</ele></trkpt><trkpt lat="63.821275" lon="-19.222335"><time>2021-07-26T11:23:12.000Z</time><ele>570.2</ele></trkpt><trkpt lat="63.821264" lon="-19.222383"><time>2021-07-26T11:23:14.000Z</time><ele>570.4</ele></trkpt><trkpt lat="63.821232" lon="-19.222476"><time>2021-07-26T11:23:19.000Z</time><ele>570</ele></trkpt><trkpt lat="63.821208" lon="-19.222543"><time>2021-07-26T11:23:23.000Z</time><ele>570.2</ele></trkpt><trkpt lat="63.821165" lon="-19.222669"><time>2021-07-26T11:23:30.000Z</time><ele>570.4</ele></trkpt><trkpt lat="63.821158" lon="-19.222691"><time>2021-07-26T11:23:31.000Z</time><ele>570.4</ele></trkpt><trkpt lat="63.821135" lon="-19.222741"><time>2021-07-26T11:23:34.000Z</time><ele>570.4</ele></trkpt><trkpt lat="63.821122" lon="-19.222778"><time>2021-07-26T11:23:36.000Z</time><ele>570.4</ele></trkpt><trkpt lat="63.821087" lon="-19.22286"><time>2021-07-26T11:23:41.000Z</time><ele>570.2</ele></trkpt><trkpt lat="63.821048" lon="-19.222971"><time>2021-07-26T11:23:48.000Z</time><ele>570.6</ele></trkpt><trkpt lat="63.821009" lon="-19.223112"><time>2021-07-26T11:23:55.000Z</time><ele>571.2</ele></trkpt><trkpt lat="63.821003" lon="-19.223124"><time>2021-07-26T11:23:56.000Z</time><ele>571.2</ele></trkpt><trkpt lat="63.820973" lon="-19.223212"><time>2021-07-26T11:24:01.000Z</time><ele>571.4</ele></trkpt><trkpt lat="63.820952" lon="-19.223317"><time>2021-07-26T11:24:06.000Z</time><ele>571</ele></trkpt><trkpt lat="63.820948" lon="-19.223336"><time>2021-07-26T11:24:07.000Z</time><ele>570.8</ele></trkpt><trkpt lat="63.820944" lon="-19.223381"><time>2021-07-26T11:24:09.000Z</time><ele>570.6</ele></trkpt><trkpt lat="63.820938" lon="-19.223402"><time>2021-07-26T11:24:10.000Z</time><ele>570.8</ele></trkpt><trkpt lat="63.820887" lon="-19.223576"><time>2021-07-26T11:24:19.000Z</time><ele>570.8</ele></trkpt><trkpt lat="63.820824" lon="-19.22378"><time>2021-07-26T11:24:28.000Z</time><ele>571</ele></trkpt><trkpt lat="63.820812" lon="-19.22382"><time>2021-07-26T11:24:31.000Z</time><ele>571.2</ele></trkpt><trkpt lat="63.820724" lon="-19.224105"><time>2021-07-26T11:24:43.000Z</time><ele>571</ele></trkpt><trkpt lat="63.820702" lon="-19.22419"><time>2021-07-26T11:24:47.000Z</time><ele>570.8</ele></trkpt><trkpt lat="63.820682" lon="-19.22425"><time>2021-07-26T11:24:51.000Z</time><ele>570.6</ele></trkpt><trkpt lat="63.820644" lon="-19.224308"><time>2021-07-26T11:24:54.000Z</time><ele>570.8</ele></trkpt><trkpt lat="63.820644" lon="-19.224308"><time>2021-07-26T11:24:55.000Z</time><ele>570.8</ele></trkpt><trkpt lat="63.820635" lon="-19.224325"><time>2021-07-26T11:24:56.000Z</time><ele>570.8</ele></trkpt><trkpt lat="63.820577" lon="-19.224491"><time>2021-07-26T11:25:04.000Z</time><ele>570.8</ele></trkpt><trkpt lat="63.820508" lon="-19.224678"><time>2021-07-26T11:25:15.000Z</time><ele>571.4</ele></trkpt><trkpt lat="63.820505" lon="-19.224702"><time>2021-07-26T11:25:16.000Z</time><ele>571.4</ele></trkpt><trkpt lat="63.820459" lon="-19.22482"><time>2021-07-26T11:25:22.000Z</time><ele>571.6</ele></trkpt><trkpt lat="63.820447" lon="-19.22488"><time>2021-07-26T11:25:25.000Z</time><ele>571.6</ele></trkpt><trkpt lat="63.820381" lon="-19.22507"><time>2021-07-26T11:25:34.000Z</time><ele>571</ele></trkpt><trkpt lat="63.820314" lon="-19.225328"><time>2021-07-26T11:25:47.000Z</time><ele>570.8</ele></trkpt><trkpt lat="63.820298" lon="-19.225375"><time>2021-07-26T11:25:49.000Z</time><ele>570.8</ele></trkpt><trkpt lat="63.82027" lon="-19.225476"><time>2021-07-26T11:25:53.000Z</time><ele>571</ele></trkpt><trkpt lat="63.820241" lon="-19.225584"><time>2021-07-26T11:25:58.000Z</time><ele>571</ele></trkpt><trkpt lat="63.820241" lon="-19.225584"><time>2021-07-26T11:25:59.000Z</time><ele>571</ele></trkpt><trkpt lat="63.820235" lon="-19.225627"><time>2021-07-26T11:26:00.000Z</time><ele>571</ele></trkpt><trkpt lat="63.820208" lon="-19.225766"><time>2021-07-26T11:26:07.000Z</time><ele>570.8</ele></trkpt><trkpt lat="63.82014" lon="-19.226071"><time>2021-07-26T11:26:19.000Z</time><ele>570.2</ele></trkpt><trkpt lat="63.820091" lon="-19.226222"><time>2021-07-26T11:26:27.000Z</time><ele>569.6</ele></trkpt><trkpt lat="63.820078" lon="-19.226282"><time>2021-07-26T11:26:29.000Z</time><ele>569.6</ele></trkpt><trkpt lat="63.82002" lon="-19.226545"><time>2021-07-26T11:26:40.000Z</time><ele>569.6</ele></trkpt><trkpt lat="63.820006" lon="-19.226637"><time>2021-07-26T11:26:45.000Z</time><ele>569.8</ele></trkpt><trkpt lat="63.819968" lon="-19.226709"><time>2021-07-26T11:26:50.000Z</time><ele>569.8</ele></trkpt><trkpt lat="63.819909" lon="-19.22681"><time>2021-07-26T11:27:00.000Z</time><ele>568.8</ele></trkpt><trkpt lat="63.819909" lon="-19.22681"><time>2021-07-26T11:27:01.000Z</time><ele>568.6</ele></trkpt><trkpt lat="63.819909" lon="-19.226808"><time>2021-07-26T11:27:02.000Z</time><ele>568.4</ele></trkpt><trkpt lat="63.819907" lon="-19.226884"><time>2021-07-26T11:27:09.000Z</time><ele>568.6</ele></trkpt><trkpt lat="63.819866" lon="-19.227037"><time>2021-07-26T11:27:17.000Z</time><ele>568.6</ele></trkpt><trkpt lat="63.819775" lon="-19.227276"><time>2021-07-26T11:27:29.000Z</time><ele>568.6</ele></trkpt><trkpt lat="63.819754" lon="-19.227285"><time>2021-07-26T11:27:31.000Z</time><ele>568.6</ele></trkpt><trkpt lat="63.819674" lon="-19.227337"><time>2021-07-26T11:27:39.000Z</time><ele>569</ele></trkpt><trkpt lat="63.819661" lon="-19.227369"><time>2021-07-26T11:27:42.000Z</time><ele>568.8</ele></trkpt><trkpt lat="63.819602" lon="-19.227601"><time>2021-07-26T11:27:53.000Z</time><ele>569</ele></trkpt><trkpt lat="63.819601" lon="-19.227911"><time>2021-07-26T11:28:04.000Z</time><ele>569.4</ele></trkpt><trkpt lat="63.819596" lon="-19.227959"><time>2021-07-26T11:28:06.000Z</time><ele>569.2</ele></trkpt><trkpt lat="63.819589" lon="-19.228001"><time>2021-07-26T11:28:08.000Z</time><ele>569</ele></trkpt><trkpt lat="63.819546" lon="-19.228242"><time>2021-07-26T11:28:18.000Z</time><ele>569.4</ele></trkpt><trkpt lat="63.819512" lon="-19.228367"><time>2021-07-26T11:28:23.000Z</time><ele>569.2</ele></trkpt><trkpt lat="63.819496" lon="-19.228447"><time>2021-07-26T11:28:26.000Z</time><ele>569</ele></trkpt><trkpt lat="63.819493" lon="-19.228472"><time>2021-07-26T11:28:27.000Z</time><ele>569</ele></trkpt><trkpt lat="63.819477" lon="-19.228542"><time>2021-07-26T11:28:30.000Z</time><ele>569</ele></trkpt><trkpt lat="63.819443" lon="-19.228671"><time>2021-07-26T11:28:36.000Z</time><ele>569.4</ele></trkpt><trkpt lat="63.81943" lon="-19.228716"><time>2021-07-26T11:28:38.000Z</time><ele>569.4</ele></trkpt><trkpt lat="63.819397" lon="-19.228825"><time>2021-07-26T11:28:43.000Z</time><ele>569.2</ele></trkpt><trkpt lat="63.819342" lon="-19.229003"><time>2021-07-26T11:28:51.000Z</time><ele>568.6</ele></trkpt><trkpt lat="63.819335" lon="-19.229021"><time>2021-07-26T11:28:52.000Z</time><ele>568.2</ele></trkpt><trkpt lat="63.819277" lon="-19.229231"><time>2021-07-26T11:29:01.000Z</time><ele>568.4</ele></trkpt><trkpt lat="63.819251" lon="-19.229318"><time>2021-07-26T11:29:05.000Z</time><ele>568.4</ele></trkpt><trkpt lat="63.819212" lon="-19.229504"><time>2021-07-26T11:29:13.000Z</time><ele>568.8</ele></trkpt><trkpt lat="63.819161" lon="-19.229722"><time>2021-07-26T11:29:22.000Z</time><ele>568.2</ele></trkpt><trkpt lat="63.819122" lon="-19.229923"><time>2021-07-26T11:29:30.000Z</time><ele>568</ele></trkpt><trkpt lat="63.81911" lon="-19.229971"><time>2021-07-26T11:29:32.000Z</time><ele>567.8</ele></trkpt><trkpt lat="63.81904" lon="-19.230233"><time>2021-07-26T11:29:43.000Z</time><ele>567.4</ele></trkpt><trkpt lat="63.818985" lon="-19.230488"><time>2021-07-26T11:29:54.000Z</time><ele>567.8</ele></trkpt><trkpt lat="63.818946" lon="-19.230591"><time>2021-07-26T11:29:59.000Z</time><ele>568</ele></trkpt><trkpt lat="63.818914" lon="-19.230698"><time>2021-07-26T11:30:04.000Z</time><ele>567.8</ele></trkpt><trkpt lat="63.818888" lon="-19.230849"><time>2021-07-26T11:30:10.000Z</time><ele>568.2</ele></trkpt><trkpt lat="63.818851" lon="-19.231007"><time>2021-07-26T11:30:17.000Z</time><ele>568</ele></trkpt><trkpt lat="63.818848" lon="-19.231019"><time>2021-07-26T11:30:20.000Z</time><ele>567</ele></trkpt><trkpt lat="63.81885" lon="-19.231025"><time>2021-07-26T11:30:22.000Z</time><ele>566.4</ele></trkpt><trkpt lat="63.818859" lon="-19.231011"><time>2021-07-26T11:30:30.000Z</time><ele>566</ele></trkpt><trkpt lat="63.818859" lon="-19.231011"><time>2021-07-26T11:30:37.000Z</time><ele>565.8</ele></trkpt><trkpt lat="63.818858" lon="-19.231011"><time>2021-07-26T11:30:41.000Z</time><ele>565.8</ele></trkpt><trkpt lat="63.818855" lon="-19.231011"><time>2021-07-26T11:30:46.000Z</time><ele>565.8</ele></trkpt><trkpt lat="63.818855" lon="-19.23101"><time>2021-07-26T11:30:47.000Z</time><ele>565.8</ele></trkpt><trkpt lat="63.818839" lon="-19.231006"><time>2021-07-26T11:31:01.000Z</time><ele>567</ele></trkpt><trkpt lat="63.818832" lon="-19.231031"><time>2021-07-26T11:31:02.000Z</time><ele>567</ele></trkpt><trkpt lat="63.818825" lon="-19.231056"><time>2021-07-26T11:31:03.000Z</time><ele>567</ele></trkpt><trkpt lat="63.818802" lon="-19.231108"><time>2021-07-26T11:31:05.000Z</time><ele>567</ele></trkpt><trkpt lat="63.81875" lon="-19.23129"><time>2021-07-26T11:31:12.000Z</time><ele>566.8</ele></trkpt><trkpt lat="63.8187" lon="-19.231512"><time>2021-07-26T11:31:23.000Z</time><ele>567.4</ele></trkpt><trkpt lat="63.81867" lon="-19.231761"><time>2021-07-26T11:31:32.000Z</time><ele>567.8</ele></trkpt><trkpt lat="63.818627" lon="-19.232002"><time>2021-07-26T11:31:41.000Z</time><ele>567.2</ele></trkpt><trkpt lat="63.818582" lon="-19.232165"><time>2021-07-26T11:31:48.000Z</time><ele>567</ele></trkpt><trkpt lat="63.818576" lon="-19.232194"><time>2021-07-26T11:31:49.000Z</time><ele>567.2</ele></trkpt><trkpt lat="63.81855" lon="-19.232378"><time>2021-07-26T11:31:56.000Z</time><ele>567.2</ele></trkpt><trkpt lat="63.818544" lon="-19.232411"><time>2021-07-26T11:31:57.000Z</time><ele>567.2</ele></trkpt><trkpt lat="63.818539" lon="-19.232436"><time>2021-07-26T11:31:58.000Z</time><ele>567.2</ele></trkpt><trkpt lat="63.818513" lon="-19.232555"><time>2021-07-26T11:32:04.000Z</time><ele>567</ele></trkpt><trkpt lat="63.818505" lon="-19.232593"><time>2021-07-26T11:32:06.000Z</time><ele>566.8</ele></trkpt><trkpt lat="63.818492" lon="-19.23265"><time>2021-07-26T11:32:11.000Z</time><ele>566.6</ele></trkpt><trkpt lat="63.818491" lon="-19.23265"><time>2021-07-26T11:32:12.000Z</time><ele>566.6</ele></trkpt><trkpt lat="63.818491" lon="-19.232651"><time>2021-07-26T11:32:13.000Z</time><ele>566.6</ele></trkpt><trkpt lat="63.818496" lon="-19.232635"><time>2021-07-26T11:32:23.000Z</time><ele>566.2</ele></trkpt><trkpt lat="63.818496" lon="-19.232635"><time>2021-07-26T11:32:29.000Z</time><ele>566.2</ele></trkpt><trkpt lat="63.818493" lon="-19.23265"><time>2021-07-26T11:32:39.000Z</time><ele>566.2</ele></trkpt><trkpt lat="63.818487" lon="-19.232659"><time>2021-07-26T11:33:16.000Z</time><ele>566.2</ele></trkpt><trkpt lat="63.818475" lon="-19.232764"><time>2021-07-26T11:33:26.000Z</time><ele>566.2</ele></trkpt><trkpt lat="63.818436" lon="-19.233024"><time>2021-07-26T11:33:34.000Z</time><ele>566.4</ele></trkpt><trkpt lat="63.818383" lon="-19.233292"><time>2021-07-26T11:33:45.000Z</time><ele>566.6</ele></trkpt><trkpt lat="63.818376" lon="-19.233313"><time>2021-07-26T11:33:46.000Z</time><ele>566.4</ele></trkpt><trkpt lat="63.818368" lon="-19.233351"><time>2021-07-26T11:33:48.000Z</time><ele>565.8</ele></trkpt><trkpt lat="63.818356" lon="-19.233422"><time>2021-07-26T11:33:51.000Z</time><ele>565.4</ele></trkpt><trkpt lat="63.818331" lon="-19.233597"><time>2021-07-26T11:33:58.000Z</time><ele>565.6</ele></trkpt><trkpt lat="63.818322" lon="-19.233633"><time>2021-07-26T11:34:00.000Z</time><ele>565.4</ele></trkpt><trkpt lat="63.818314" lon="-19.233699"><time>2021-07-26T11:34:03.000Z</time><ele>565.2</ele></trkpt><trkpt lat="63.818301" lon="-19.233783"><time>2021-07-26T11:34:06.000Z</time><ele>565.2</ele></trkpt><trkpt lat="63.818283" lon="-19.233846"><time>2021-07-26T11:34:09.000Z</time><ele>565.4</ele></trkpt><trkpt lat="63.818278" lon="-19.233892"><time>2021-07-26T11:34:11.000Z</time><ele>565.2</ele></trkpt><trkpt lat="63.818269" lon="-19.233943"><time>2021-07-26T11:34:13.000Z</time><ele>565.4</ele></trkpt><trkpt lat="63.818262" lon="-19.233995"><time>2021-07-26T11:34:15.000Z</time><ele>565.4</ele></trkpt><trkpt lat="63.818244" lon="-19.234081"><time>2021-07-26T11:34:19.000Z</time><ele>565.2</ele></trkpt><trkpt lat="63.818166" lon="-19.23443"><time>2021-07-26T11:34:33.000Z</time><ele>565.4</ele></trkpt><trkpt lat="63.818125" lon="-19.234697"><time>2021-07-26T11:34:44.000Z</time><ele>565.4</ele></trkpt><trkpt lat="63.818096" lon="-19.234838"><time>2021-07-26T11:34:51.000Z</time><ele>566</ele></trkpt><trkpt lat="63.818055" lon="-19.235045"><time>2021-07-26T11:35:00.000Z</time><ele>566</ele></trkpt><trkpt lat="63.818005" lon="-19.235332"><time>2021-07-26T11:35:12.000Z</time><ele>566</ele></trkpt><trkpt lat="63.817997" lon="-19.23536"><time>2021-07-26T11:35:15.000Z</time><ele>565.8</ele></trkpt><trkpt lat="63.817993" lon="-19.235428"><time>2021-07-26T11:35:18.000Z</time><ele>565.6</ele></trkpt><trkpt lat="63.817992" lon="-19.235456"><time>2021-07-26T11:35:19.000Z</time><ele>565.6</ele></trkpt><trkpt lat="63.817962" lon="-19.235643"><time>2021-07-26T11:35:26.000Z</time><ele>565.6</ele></trkpt><trkpt lat="63.817923" lon="-19.235885"><time>2021-07-26T11:35:35.000Z</time><ele>565.8</ele></trkpt><trkpt lat="63.817893" lon="-19.236068"><time>2021-07-26T11:35:44.000Z</time><ele>565.6</ele></trkpt><trkpt lat="63.81786" lon="-19.236243"><time>2021-07-26T11:35:50.000Z</time><ele>565.6</ele></trkpt><trkpt lat="63.817851" lon="-19.236326"><time>2021-07-26T11:35:54.000Z</time><ele>565.6</ele></trkpt><trkpt lat="63.817809" lon="-19.236558"><time>2021-07-26T11:36:04.000Z</time><ele>564.8</ele></trkpt><trkpt lat="63.817791" lon="-19.236646"><time>2021-07-26T11:36:08.000Z</time><ele>565.6</ele></trkpt><trkpt lat="63.817774" lon="-19.23681"><time>2021-07-26T11:36:14.000Z</time><ele>565.6</ele></trkpt><trkpt lat="63.817755" lon="-19.236911"><time>2021-07-26T11:36:18.000Z</time><ele>565.8</ele></trkpt><trkpt lat="63.817746" lon="-19.237006"><time>2021-07-26T11:36:23.000Z</time><ele>565.6</ele></trkpt><trkpt lat="63.81771" lon="-19.237168"><time>2021-07-26T11:36:31.000Z</time><ele>565.4</ele></trkpt><trkpt lat="63.817713" lon="-19.237177"><time>2021-07-26T11:36:33.000Z</time><ele>565.4</ele></trkpt><trkpt lat="63.817715" lon="-19.237196"><time>2021-07-26T11:36:38.000Z</time><ele>564.8</ele></trkpt><trkpt lat="63.817716" lon="-19.237194"><time>2021-07-26T11:36:45.000Z</time><ele>565</ele></trkpt><trkpt lat="63.817716" lon="-19.237194"><time>2021-07-26T11:36:48.000Z</time><ele>564.8</ele></trkpt><trkpt lat="63.817716" lon="-19.237194"><time>2021-07-26T11:36:50.000Z</time><ele>564.8</ele></trkpt><trkpt lat="63.817715" lon="-19.237194"><time>2021-07-26T11:36:52.000Z</time><ele>564.8</ele></trkpt><trkpt lat="63.817715" lon="-19.237194"><time>2021-07-26T11:36:54.000Z</time><ele>564.6</ele></trkpt><trkpt lat="63.817714" lon="-19.237194"><time>2021-07-26T11:36:57.000Z</time><ele>564.6</ele></trkpt><trkpt lat="63.817714" lon="-19.237196"><time>2021-07-26T11:37:00.000Z</time><ele>564.6</ele></trkpt><trkpt lat="63.817699" lon="-19.237308"><time>2021-07-26T11:37:08.000Z</time><ele>565.2</ele></trkpt><trkpt lat="63.817693" lon="-19.237343"><time>2021-07-26T11:37:09.000Z</time><ele>565.2</ele></trkpt><trkpt lat="63.817629" lon="-19.23756"><time>2021-07-26T11:37:17.000Z</time><ele>565.6</ele></trkpt><trkpt lat="63.817589" lon="-19.237721"><time>2021-07-26T11:37:24.000Z</time><ele>565.2</ele></trkpt><trkpt lat="63.817575" lon="-19.237781"><time>2021-07-26T11:37:28.000Z</time><ele>565.4</ele></trkpt><trkpt lat="63.817547" lon="-19.237912"><time>2021-07-26T11:37:33.000Z</time><ele>565.4</ele></trkpt><trkpt lat="63.817522" lon="-19.238013"><time>2021-07-26T11:37:36.000Z</time><ele>565.6</ele></trkpt><trkpt lat="63.817483" lon="-19.23815"><time>2021-07-26T11:37:42.000Z</time><ele>565.2</ele></trkpt><trkpt lat="63.817468" lon="-19.238206"><time>2021-07-26T11:37:44.000Z</time><ele>565.2</ele></trkpt><trkpt lat="63.81746" lon="-19.23823"><time>2021-07-26T11:37:45.000Z</time><ele>565.2</ele></trkpt><trkpt lat="63.817408" lon="-19.238381"><time>2021-07-26T11:37:53.000Z</time><ele>564.2</ele></trkpt><trkpt lat="63.817386" lon="-19.23849"><time>2021-07-26T11:37:58.000Z</time><ele>564.6</ele></trkpt><trkpt lat="63.817344" lon="-19.238614"><time>2021-07-26T11:38:03.000Z</time><ele>564.4</ele></trkpt><trkpt lat="63.817281" lon="-19.238824"><time>2021-07-26T11:38:13.000Z</time><ele>564.6</ele></trkpt><trkpt lat="63.817231" lon="-19.239017"><time>2021-07-26T11:38:21.000Z</time><ele>564.8</ele></trkpt><trkpt lat="63.817221" lon="-19.239038"><time>2021-07-26T11:38:22.000Z</time><ele>564.8</ele></trkpt><trkpt lat="63.817153" lon="-19.239233"><time>2021-07-26T11:38:31.000Z</time><ele>564.2</ele></trkpt><trkpt lat="63.817117" lon="-19.239346"><time>2021-07-26T11:38:36.000Z</time><ele>564.2</ele></trkpt><trkpt lat="63.817105" lon="-19.239375"><time>2021-07-26T11:38:37.000Z</time><ele>564.2</ele></trkpt><trkpt lat="63.817066" lon="-19.23947"><time>2021-07-26T11:38:42.000Z</time><ele>564.2</ele></trkpt><trkpt lat="63.81703" lon="-19.239611"><time>2021-07-26T11:38:49.000Z</time><ele>564</ele></trkpt><trkpt lat="63.816993" lon="-19.239776"><time>2021-07-26T11:38:56.000Z</time><ele>563.8</ele></trkpt><trkpt lat="63.816985" lon="-19.239869"><time>2021-07-26T11:38:59.000Z</time><ele>563.8</ele></trkpt><trkpt lat="63.816944" lon="-19.240068"><time>2021-07-26T11:39:07.000Z</time><ele>563.6</ele></trkpt><trkpt lat="63.816927" lon="-19.2401"><time>2021-07-26T11:39:09.000Z</time><ele>563.8</ele></trkpt><trkpt lat="63.816911" lon="-19.240136"><time>2021-07-26T11:39:11.000Z</time><ele>563.8</ele></trkpt><trkpt lat="63.816891" lon="-19.240182"><time>2021-07-26T11:39:13.000Z</time><ele>563.8</ele></trkpt><trkpt lat="63.816877" lon="-19.240231"><time>2021-07-26T11:39:15.000Z</time><ele>563.8</ele></trkpt><trkpt lat="63.816869" lon="-19.240268"><time>2021-07-26T11:39:17.000Z</time><ele>563.8</ele></trkpt><trkpt lat="63.816834" lon="-19.240455"><time>2021-07-26T11:39:24.000Z</time><ele>563.4</ele></trkpt><trkpt lat="63.816815" lon="-19.240526"><time>2021-07-26T11:39:27.000Z</time><ele>563.4</ele></trkpt><trkpt lat="63.816788" lon="-19.240656"><time>2021-07-26T11:39:32.000Z</time><ele>563.2</ele></trkpt><trkpt lat="63.816758" lon="-19.240887"><time>2021-07-26T11:39:41.000Z</time><ele>563.2</ele></trkpt><trkpt lat="63.816756" lon="-19.240908"><time>2021-07-26T11:39:42.000Z</time><ele>563.2</ele></trkpt><trkpt lat="63.816737" lon="-19.240971"><time>2021-07-26T11:39:45.000Z</time><ele>563</ele></trkpt><trkpt lat="63.816712" lon="-19.241097"><time>2021-07-26T11:39:48.000Z</time><ele>563.2</ele></trkpt><trkpt lat="63.816694" lon="-19.241153"><time>2021-07-26T11:39:51.000Z</time><ele>563.2</ele></trkpt><trkpt lat="63.816619" lon="-19.241404"><time>2021-07-26T11:40:01.000Z</time><ele>563.2</ele></trkpt><trkpt lat="63.816588" lon="-19.241623"><time>2021-07-26T11:40:09.000Z</time><ele>562.8</ele></trkpt><trkpt lat="63.816583" lon="-19.241785"><time>2021-07-26T11:40:14.000Z</time><ele>562.8</ele></trkpt><trkpt lat="63.816582" lon="-19.241827"><time>2021-07-26T11:40:17.000Z</time><ele>562.8</ele></trkpt><trkpt lat="63.816589" lon="-19.241905"><time>2021-07-26T11:40:20.000Z</time><ele>562.6</ele></trkpt><trkpt lat="63.81659" lon="-19.241918"><time>2021-07-26T11:40:23.000Z</time><ele>562.6</ele></trkpt><trkpt lat="63.81659" lon="-19.241916"><time>2021-07-26T11:40:24.000Z</time><ele>562.6</ele></trkpt><trkpt lat="63.816588" lon="-19.241979"><time>2021-07-26T11:40:28.000Z</time><ele>562.6</ele></trkpt><trkpt lat="63.816581" lon="-19.241996"><time>2021-07-26T11:40:31.000Z</time><ele>562.6</ele></trkpt><trkpt lat="63.816581" lon="-19.241992"><time>2021-07-26T11:40:39.000Z</time><ele>562.8</ele></trkpt><trkpt lat="63.816584" lon="-19.241997"><time>2021-07-26T11:40:48.000Z</time><ele>562.8</ele></trkpt><trkpt lat="63.816583" lon="-19.242005"><time>2021-07-26T11:40:51.000Z</time><ele>562.8</ele></trkpt><trkpt lat="63.816548" lon="-19.242225"><time>2021-07-26T11:40:58.000Z</time><ele>562.4</ele></trkpt><trkpt lat="63.816485" lon="-19.242342"><time>2021-07-26T11:41:06.000Z</time><ele>562.6</ele></trkpt><trkpt lat="63.816479" lon="-19.242368"><time>2021-07-26T11:41:07.000Z</time><ele>562.6</ele></trkpt><trkpt lat="63.816444" lon="-19.242617"><time>2021-07-26T11:41:17.000Z</time><ele>562.8</ele></trkpt><trkpt lat="63.816378" lon="-19.242793"><time>2021-07-26T11:41:26.000Z</time><ele>562.4</ele></trkpt><trkpt lat="63.816318" lon="-19.242982"><time>2021-07-26T11:41:36.000Z</time><ele>562.4</ele></trkpt><trkpt lat="63.816245" lon="-19.243193"><time>2021-07-26T11:41:45.000Z</time><ele>562.2</ele></trkpt><trkpt lat="63.81621" lon="-19.24331"><time>2021-07-26T11:41:51.000Z</time><ele>562.2</ele></trkpt><trkpt lat="63.816205" lon="-19.243337"><time>2021-07-26T11:41:52.000Z</time><ele>562.2</ele></trkpt><trkpt lat="63.816164" lon="-19.243573"><time>2021-07-26T11:42:01.000Z</time><ele>562.2</ele></trkpt><trkpt lat="63.816162" lon="-19.243594"><time>2021-07-26T11:42:02.000Z</time><ele>562.2</ele></trkpt><trkpt lat="63.816151" lon="-19.243654"><time>2021-07-26T11:42:05.000Z</time><ele>562.2</ele></trkpt><trkpt lat="63.816116" lon="-19.243719"><time>2021-07-26T11:42:09.000Z</time><ele>562</ele></trkpt><trkpt lat="63.816095" lon="-19.243754"><time>2021-07-26T11:42:11.000Z</time><ele>561.6</ele></trkpt><trkpt lat="63.81602" lon="-19.243928"><time>2021-07-26T11:42:20.000Z</time><ele>561.6</ele></trkpt><trkpt lat="63.815979" lon="-19.244063"><time>2021-07-26T11:42:27.000Z</time><ele>561.4</ele></trkpt><trkpt lat="63.815972" lon="-19.244141"><time>2021-07-26T11:42:30.000Z</time><ele>561.6</ele></trkpt><trkpt lat="63.815942" lon="-19.244327"><time>2021-07-26T11:42:38.000Z</time><ele>561.8</ele></trkpt><trkpt lat="63.81594" lon="-19.244351"><time>2021-07-26T11:42:40.000Z</time><ele>561.6</ele></trkpt><trkpt lat="63.815938" lon="-19.244361"><time>2021-07-26T11:42:43.000Z</time><ele>561.4</ele></trkpt><trkpt lat="63.815942" lon="-19.24438"><time>2021-07-26T11:42:48.000Z</time><ele>561.4</ele></trkpt><trkpt lat="63.815935" lon="-19.244367"><time>2021-07-26T11:42:55.000Z</time><ele>561.2</ele></trkpt><trkpt lat="63.815952" lon="-19.244389"><time>2021-07-26T11:43:04.000Z</time><ele>561.2</ele></trkpt><trkpt lat="63.815958" lon="-19.24439"><time>2021-07-26T11:43:30.000Z</time><ele>562</ele></trkpt><trkpt lat="63.815959" lon="-19.24439"><time>2021-07-26T11:43:33.000Z</time><ele>562</ele></trkpt><trkpt lat="63.815914" lon="-19.244435"><time>2021-07-26T11:44:09.000Z</time><ele>561.6</ele></trkpt><trkpt lat="63.815911" lon="-19.244449"><time>2021-07-26T11:44:10.000Z</time><ele>561.4</ele></trkpt><trkpt lat="63.815886" lon="-19.244587"><time>2021-07-26T11:44:17.000Z</time><ele>561.4</ele></trkpt><trkpt lat="63.815846" lon="-19.244779"><time>2021-07-26T11:44:25.000Z</time><ele>561</ele></trkpt><trkpt lat="63.815829" lon="-19.244868"><time>2021-07-26T11:44:29.000Z</time><ele>561.6</ele></trkpt><trkpt lat="63.815793" lon="-19.244991"><time>2021-07-26T11:44:34.000Z</time><ele>561.2</ele></trkpt><trkpt lat="63.815782" lon="-19.245038"><time>2021-07-26T11:44:36.000Z</time><ele>561.2</ele></trkpt><trkpt lat="63.815757" lon="-19.245097"><time>2021-07-26T11:44:39.000Z</time><ele>561</ele></trkpt><trkpt lat="63.815745" lon="-19.245141"><time>2021-07-26T11:44:41.000Z</time><ele>561</ele></trkpt><trkpt lat="63.815658" lon="-19.245468"><time>2021-07-26T11:44:55.000Z</time><ele>561.2</ele></trkpt><trkpt lat="63.815591" lon="-19.245745"><time>2021-07-26T11:45:07.000Z</time><ele>561</ele></trkpt><trkpt lat="63.815525" lon="-19.245926"><time>2021-07-26T11:45:16.000Z</time><ele>560.6</ele></trkpt><trkpt lat="63.815515" lon="-19.245971"><time>2021-07-26T11:45:18.000Z</time><ele>560.4</ele></trkpt><trkpt lat="63.815476" lon="-19.246121"><time>2021-07-26T11:45:25.000Z</time><ele>560.2</ele></trkpt><trkpt lat="63.815459" lon="-19.246208"><time>2021-07-26T11:45:29.000Z</time><ele>560.2</ele></trkpt><trkpt lat="63.815458" lon="-19.246226"><time>2021-07-26T11:45:32.000Z</time><ele>560.6</ele></trkpt><trkpt lat="63.815459" lon="-19.246223"><time>2021-07-26T11:45:35.000Z</time><ele>560.6</ele></trkpt><trkpt lat="63.815459" lon="-19.246221"><time>2021-07-26T11:45:47.000Z</time><ele>560.8</ele></trkpt><trkpt lat="63.81546" lon="-19.246222"><time>2021-07-26T11:45:58.000Z</time><ele>560.8</ele></trkpt><trkpt lat="63.815461" lon="-19.246218"><time>2021-07-26T11:46:15.000Z</time><ele>560.6</ele></trkpt><trkpt lat="63.815459" lon="-19.246219"><time>2021-07-26T11:46:23.000Z</time><ele>560</ele></trkpt><trkpt lat="63.815443" lon="-19.246236"><time>2021-07-26T11:46:40.000Z</time><ele>560.2</ele></trkpt><trkpt lat="63.815444" lon="-19.246245"><time>2021-07-26T11:47:06.000Z</time><ele>560.2</ele></trkpt><trkpt lat="63.815445" lon="-19.246243"><time>2021-07-26T11:47:10.000Z</time><ele>560.2</ele></trkpt><trkpt lat="63.815434" lon="-19.246329"><time>2021-07-26T11:48:10.000Z</time><ele>560.2</ele></trkpt><trkpt lat="63.815405" lon="-19.246474"><time>2021-07-26T11:48:15.000Z</time><ele>560.2</ele></trkpt><trkpt lat="63.815376" lon="-19.246622"><time>2021-07-26T11:48:22.000Z</time><ele>560.4</ele></trkpt><trkpt lat="63.815329" lon="-19.246807"><time>2021-07-26T11:48:30.000Z</time><ele>559.8</ele></trkpt><trkpt lat="63.815322" lon="-19.246931"><time>2021-07-26T11:48:34.000Z</time><ele>559.6</ele></trkpt><trkpt lat="63.815304" lon="-19.247023"><time>2021-07-26T11:48:38.000Z</time><ele>559.6</ele></trkpt><trkpt lat="63.815296" lon="-19.247042"><time>2021-07-26T11:48:39.000Z</time><ele>559.4</ele></trkpt><trkpt lat="63.815289" lon="-19.247059"><time>2021-07-26T11:48:40.000Z</time><ele>559.4</ele></trkpt><trkpt lat="63.815237" lon="-19.24729"><time>2021-07-26T11:48:50.000Z</time><ele>559.4</ele></trkpt><trkpt lat="63.815203" lon="-19.247491"><time>2021-07-26T11:48:59.000Z</time><ele>559.6</ele></trkpt><trkpt lat="63.815199" lon="-19.247518"><time>2021-07-26T11:49:00.000Z</time><ele>559.6</ele></trkpt><trkpt lat="63.815171" lon="-19.24769"><time>2021-07-26T11:49:08.000Z</time><ele>560</ele></trkpt><trkpt lat="63.81516" lon="-19.247771"><time>2021-07-26T11:49:11.000Z</time><ele>559.8</ele></trkpt><trkpt lat="63.815158" lon="-19.24783"><time>2021-07-26T11:49:13.000Z</time><ele>559.8</ele></trkpt><trkpt lat="63.815157" lon="-19.247938"><time>2021-07-26T11:49:17.000Z</time><ele>560</ele></trkpt><trkpt lat="63.815156" lon="-19.247972"><time>2021-07-26T11:49:18.000Z</time><ele>560</ele></trkpt><trkpt lat="63.815132" lon="-19.248193"><time>2021-07-26T11:49:27.000Z</time><ele>560</ele></trkpt><trkpt lat="63.815127" lon="-19.24822"><time>2021-07-26T11:49:28.000Z</time><ele>560</ele></trkpt><trkpt lat="63.815111" lon="-19.248333"><time>2021-07-26T11:49:33.000Z</time><ele>560.2</ele></trkpt><trkpt lat="63.8151" lon="-19.248362"><time>2021-07-26T11:49:35.000Z</time><ele>559.8</ele></trkpt><trkpt lat="63.815086" lon="-19.248528"><time>2021-07-26T11:49:41.000Z</time><ele>558.4</ele></trkpt><trkpt lat="63.815075" lon="-19.248586"><time>2021-07-26T11:49:44.000Z</time><ele>558</ele></trkpt><trkpt lat="63.815024" lon="-19.248771"><time>2021-07-26T11:49:51.000Z</time><ele>557.4</ele></trkpt><trkpt lat="63.814997" lon="-19.248821"><time>2021-07-26T11:49:54.000Z</time><ele>557</ele></trkpt><trkpt lat="63.814912" lon="-19.248979"><time>2021-07-26T11:50:03.000Z</time><ele>556.8</ele></trkpt><trkpt lat="63.814841" lon="-19.249101"><time>2021-07-26T11:50:11.000Z</time><ele>556.8</ele></trkpt><trkpt lat="63.814785" lon="-19.24918"><time>2021-07-26T11:50:17.000Z</time><ele>556.8</ele></trkpt><trkpt lat="63.814751" lon="-19.249235"><time>2021-07-26T11:50:20.000Z</time><ele>556.2</ele></trkpt><trkpt lat="63.81473" lon="-19.24926"><time>2021-07-26T11:50:22.000Z</time><ele>555.8</ele></trkpt><trkpt lat="63.814657" lon="-19.249411"><time>2021-07-26T11:50:32.000Z</time><ele>555.4</ele></trkpt><trkpt lat="63.814642" lon="-19.249424"><time>2021-07-26T11:50:35.000Z</time><ele>556</ele></trkpt><trkpt lat="63.814644" lon="-19.249436"><time>2021-07-26T11:50:37.000Z</time><ele>556.2</ele></trkpt><trkpt lat="63.814632" lon="-19.249454"><time>2021-07-26T11:50:39.000Z</time><ele>556</ele></trkpt><trkpt lat="63.814599" lon="-19.249544"><time>2021-07-26T11:50:44.000Z</time><ele>555.8</ele></trkpt><trkpt lat="63.814496" lon="-19.249785"><time>2021-07-26T11:50:56.000Z</time><ele>555.6</ele></trkpt><trkpt lat="63.814405" lon="-19.250021"><time>2021-07-26T11:51:07.000Z</time><ele>555.6</ele></trkpt><trkpt lat="63.814389" lon="-19.250064"><time>2021-07-26T11:51:09.000Z</time><ele>555.8</ele></trkpt><trkpt lat="63.814333" lon="-19.250213"><time>2021-07-26T11:51:16.000Z</time><ele>555.2</ele></trkpt><trkpt lat="63.814307" lon="-19.250315"><time>2021-07-26T11:51:20.000Z</time><ele>555</ele></trkpt><trkpt lat="63.814211" lon="-19.250675"><time>2021-07-26T11:51:35.000Z</time><ele>554.8</ele></trkpt><trkpt lat="63.814128" lon="-19.250992"><time>2021-07-26T11:51:47.000Z</time><ele>554.8</ele></trkpt><trkpt lat="63.814124" lon="-19.251016"><time>2021-07-26T11:51:48.000Z</time><ele>555</ele></trkpt><trkpt lat="63.814113" lon="-19.251078"><time>2021-07-26T11:51:50.000Z</time><ele>555</ele></trkpt><trkpt lat="63.814106" lon="-19.251107"><time>2021-07-26T11:51:51.000Z</time><ele>554.8</ele></trkpt><trkpt lat="63.813995" lon="-19.251426"><time>2021-07-26T11:52:05.000Z</time><ele>555</ele></trkpt><trkpt lat="63.81398" lon="-19.251476"><time>2021-07-26T11:52:07.000Z</time><ele>555</ele></trkpt><trkpt lat="63.813889" lon="-19.251722"><time>2021-07-26T11:52:18.000Z</time><ele>554.6</ele></trkpt><trkpt lat="63.813848" lon="-19.251854"><time>2021-07-26T11:52:24.000Z</time><ele>554</ele></trkpt><trkpt lat="63.81379" lon="-19.252074"><time>2021-07-26T11:52:33.000Z</time><ele>554</ele></trkpt><trkpt lat="63.813695" lon="-19.252342"><time>2021-07-26T11:52:45.000Z</time><ele>554.4</ele></trkpt><trkpt lat="63.813649" lon="-19.252486"><time>2021-07-26T11:52:51.000Z</time><ele>553.6</ele></trkpt><trkpt lat="63.813611" lon="-19.252618"><time>2021-07-26T11:52:57.000Z</time><ele>553.6</ele></trkpt><trkpt lat="63.813588" lon="-19.25268"><time>2021-07-26T11:53:00.000Z</time><ele>553.6</ele></trkpt><trkpt lat="63.813582" lon="-19.252707"><time>2021-07-26T11:53:01.000Z</time><ele>553.6</ele></trkpt><trkpt lat="63.813573" lon="-19.252833"><time>2021-07-26T11:53:06.000Z</time><ele>553.4</ele></trkpt><trkpt lat="63.813565" lon="-19.252865"><time>2021-07-26T11:53:08.000Z</time><ele>553.4</ele></trkpt><trkpt lat="63.813528" lon="-19.252923"><time>2021-07-26T11:53:12.000Z</time><ele>553.4</ele></trkpt><trkpt lat="63.813496" lon="-19.253046"><time>2021-07-26T11:53:18.000Z</time><ele>553</ele></trkpt><trkpt lat="63.81349" lon="-19.253071"><time>2021-07-26T11:53:19.000Z</time><ele>552.8</ele></trkpt><trkpt lat="63.813474" lon="-19.253135"><time>2021-07-26T11:53:22.000Z</time><ele>552.8</ele></trkpt><trkpt lat="63.813452" lon="-19.253222"><time>2021-07-26T11:53:26.000Z</time><ele>553</ele></trkpt><trkpt lat="63.81343" lon="-19.253311"><time>2021-07-26T11:53:30.000Z</time><ele>553</ele></trkpt><trkpt lat="63.813405" lon="-19.25343"><time>2021-07-26T11:53:35.000Z</time><ele>553.8</ele></trkpt><trkpt lat="63.813364" lon="-19.253685"><time>2021-07-26T11:53:45.000Z</time><ele>552.8</ele></trkpt><trkpt lat="63.813353" lon="-19.253742"><time>2021-07-26T11:53:47.000Z</time><ele>552.8</ele></trkpt><trkpt lat="63.813335" lon="-19.253873"><time>2021-07-26T11:53:52.000Z</time><ele>553.4</ele></trkpt><trkpt lat="63.813324" lon="-19.253919"><time>2021-07-26T11:53:54.000Z</time><ele>553.8</ele></trkpt><trkpt lat="63.813299" lon="-19.254018"><time>2021-07-26T11:53:58.000Z</time><ele>553.8</ele></trkpt><trkpt lat="63.813299" lon="-19.254018"><time>2021-07-26T11:53:59.000Z</time><ele>553.8</ele></trkpt><trkpt lat="63.81325" lon="-19.254229"><time>2021-07-26T11:54:07.000Z</time><ele>553</ele></trkpt><trkpt lat="63.813237" lon="-19.254288"><time>2021-07-26T11:54:09.000Z</time><ele>553.2</ele></trkpt><trkpt lat="63.813237" lon="-19.254288"><time>2021-07-26T11:54:10.000Z</time><ele>553.4</ele></trkpt><trkpt lat="63.81322" lon="-19.254384"><time>2021-07-26T11:54:13.000Z</time><ele>553.8</ele></trkpt><trkpt lat="63.81321" lon="-19.254442"><time>2021-07-26T11:54:15.000Z</time><ele>553.6</ele></trkpt><trkpt lat="63.813205" lon="-19.254469"><time>2021-07-26T11:54:16.000Z</time><ele>553.4</ele></trkpt><trkpt lat="63.813196" lon="-19.254543"><time>2021-07-26T11:54:19.000Z</time><ele>553.4</ele></trkpt><trkpt lat="63.81319" lon="-19.254594"><time>2021-07-26T11:54:21.000Z</time><ele>553.4</ele></trkpt><trkpt lat="63.813177" lon="-19.254686"><time>2021-07-26T11:54:24.000Z</time><ele>553.2</ele></trkpt><trkpt lat="63.813155" lon="-19.254843"><time>2021-07-26T11:54:30.000Z</time><ele>552.8</ele></trkpt><trkpt lat="63.813147" lon="-19.254927"><time>2021-07-26T11:54:33.000Z</time><ele>553</ele></trkpt><trkpt lat="63.813134" lon="-19.254991"><time>2021-07-26T11:54:36.000Z</time><ele>553.2</ele></trkpt><trkpt lat="63.813118" lon="-19.255037"><time>2021-07-26T11:54:38.000Z</time><ele>553.4</ele></trkpt><trkpt lat="63.813109" lon="-19.255075"><time>2021-07-26T11:54:40.000Z</time><ele>553.4</ele></trkpt><trkpt lat="63.813109" lon="-19.255075"><time>2021-07-26T11:54:41.000Z</time><ele>553.4</ele></trkpt><trkpt lat="63.813082" lon="-19.25517"><time>2021-07-26T11:54:44.000Z</time><ele>553</ele></trkpt><trkpt lat="63.813047" lon="-19.2553"><time>2021-07-26T11:54:49.000Z</time><ele>553.2</ele></trkpt><trkpt lat="63.81301" lon="-19.255463"><time>2021-07-26T11:54:55.000Z</time><ele>553</ele></trkpt><trkpt lat="63.813003" lon="-19.255504"><time>2021-07-26T11:54:57.000Z</time><ele>553.4</ele></trkpt><trkpt lat="63.812945" lon="-19.255715"><time>2021-07-26T11:55:06.000Z</time><ele>553.4</ele></trkpt><trkpt lat="63.812879" lon="-19.255941"><time>2021-07-26T11:55:16.000Z</time><ele>553.6</ele></trkpt><trkpt lat="63.812859" lon="-19.256006"><time>2021-07-26T11:55:19.000Z</time><ele>553.8</ele></trkpt><trkpt lat="63.812826" lon="-19.256147"><time>2021-07-26T11:55:25.000Z</time><ele>553.8</ele></trkpt><trkpt lat="63.8128" lon="-19.256264"><time>2021-07-26T11:55:33.000Z</time><ele>553.6</ele></trkpt><trkpt lat="63.812799" lon="-19.256249"><time>2021-07-26T11:55:36.000Z</time><ele>553</ele></trkpt><trkpt lat="63.812801" lon="-19.256249"><time>2021-07-26T11:55:37.000Z</time><ele>552.8</ele></trkpt><trkpt lat="63.812804" lon="-19.256251"><time>2021-07-26T11:55:41.000Z</time><ele>552.4</ele></trkpt><trkpt lat="63.81281" lon="-19.25626"><time>2021-07-26T11:55:52.000Z</time><ele>552.8</ele></trkpt><trkpt lat="63.812808" lon="-19.25626"><time>2021-07-26T11:55:57.000Z</time><ele>552.6</ele></trkpt><trkpt lat="63.812794" lon="-19.256339"><time>2021-07-26T11:56:28.000Z</time><ele>554</ele></trkpt><trkpt lat="63.812786" lon="-19.256384"><time>2021-07-26T11:56:30.000Z</time><ele>555.2</ele></trkpt><trkpt lat="63.812775" lon="-19.256438"><time>2021-07-26T11:56:32.000Z</time><ele>556</ele></trkpt><trkpt lat="63.812767" lon="-19.256464"><time>2021-07-26T11:56:33.000Z</time><ele>556.2</ele></trkpt><trkpt lat="63.812722" lon="-19.256586"><time>2021-07-26T11:56:39.000Z</time><ele>556.8</ele></trkpt><trkpt lat="63.812697" lon="-19.256687"><time>2021-07-26T11:56:43.000Z</time><ele>556.8</ele></trkpt><trkpt lat="63.812667" lon="-19.256798"><time>2021-07-26T11:56:49.000Z</time><ele>556.2</ele></trkpt><trkpt lat="63.812655" lon="-19.256844"><time>2021-07-26T11:56:51.000Z</time><ele>556.2</ele></trkpt><trkpt lat="63.81265" lon="-19.256868"><time>2021-07-26T11:56:52.000Z</time><ele>556.2</ele></trkpt><trkpt lat="63.812591" lon="-19.257143"><time>2021-07-26T11:57:03.000Z</time><ele>555.8</ele></trkpt><trkpt lat="63.812559" lon="-19.257233"><time>2021-07-26T11:57:08.000Z</time><ele>555.6</ele></trkpt><trkpt lat="63.812523" lon="-19.257364"><time>2021-07-26T11:57:15.000Z</time><ele>555.6</ele></trkpt><trkpt lat="63.812497" lon="-19.257453"><time>2021-07-26T11:57:18.000Z</time><ele>555</ele></trkpt><trkpt lat="63.812478" lon="-19.257528"><time>2021-07-26T11:57:21.000Z</time><ele>554.6</ele></trkpt><trkpt lat="63.812454" lon="-19.257664"><time>2021-07-26T11:57:26.000Z</time><ele>554.6</ele></trkpt><trkpt lat="63.812407" lon="-19.257894"><time>2021-07-26T11:57:35.000Z</time><ele>554</ele></trkpt><trkpt lat="63.812386" lon="-19.257976"><time>2021-07-26T11:57:38.000Z</time><ele>554</ele></trkpt><trkpt lat="63.812358" lon="-19.258134"><time>2021-07-26T11:57:44.000Z</time><ele>553.4</ele></trkpt><trkpt lat="63.812355" lon="-19.25816"><time>2021-07-26T11:57:45.000Z</time><ele>553.4</ele></trkpt><trkpt lat="63.8123" lon="-19.258453"><time>2021-07-26T11:57:58.000Z</time><ele>554.8</ele></trkpt><trkpt lat="63.812253" lon="-19.258701"><time>2021-07-26T11:58:07.000Z</time><ele>554.4</ele></trkpt><trkpt lat="63.812234" lon="-19.258784"><time>2021-07-26T11:58:11.000Z</time><ele>554.4</ele></trkpt><trkpt lat="63.81223" lon="-19.258806"><time>2021-07-26T11:58:12.000Z</time><ele>554</ele></trkpt><trkpt lat="63.812213" lon="-19.258866"><time>2021-07-26T11:58:15.000Z</time><ele>553.8</ele></trkpt><trkpt lat="63.812201" lon="-19.25894"><time>2021-07-26T11:58:18.000Z</time><ele>553.8</ele></trkpt><trkpt lat="63.812161" lon="-19.259106"><time>2021-07-26T11:58:25.000Z</time><ele>554.6</ele></trkpt><trkpt lat="63.812097" lon="-19.259324"><time>2021-07-26T11:58:35.000Z</time><ele>554.8</ele></trkpt><trkpt lat="63.812087" lon="-19.259345"><time>2021-07-26T11:58:36.000Z</time><ele>554.8</ele></trkpt><trkpt lat="63.812051" lon="-19.259445"><time>2021-07-26T11:58:41.000Z</time><ele>554.6</ele></trkpt><trkpt lat="63.81201" lon="-19.259579"><time>2021-07-26T11:58:47.000Z</time><ele>554.2</ele></trkpt><trkpt lat="63.811925" lon="-19.259889"><time>2021-07-26T11:59:00.000Z</time><ele>554.4</ele></trkpt><trkpt lat="63.811859" lon="-19.260099"><time>2021-07-26T11:59:10.000Z</time><ele>553.4</ele></trkpt><trkpt lat="63.811806" lon="-19.260326"><time>2021-07-26T11:59:19.000Z</time><ele>553.8</ele></trkpt><trkpt lat="63.8118" lon="-19.260353"><time>2021-07-26T11:59:20.000Z</time><ele>553.8</ele></trkpt><trkpt lat="63.811779" lon="-19.26044"><time>2021-07-26T11:59:24.000Z</time><ele>553.6</ele></trkpt><trkpt lat="63.811732" lon="-19.260609"><time>2021-07-26T11:59:31.000Z</time><ele>553.6</ele></trkpt><trkpt lat="63.811719" lon="-19.26066"><time>2021-07-26T11:59:33.000Z</time><ele>553.6</ele></trkpt><trkpt lat="63.811623" lon="-19.260901"><time>2021-07-26T11:59:45.000Z</time><ele>553.8</ele></trkpt><trkpt lat="63.811604" lon="-19.260971"><time>2021-07-26T11:59:48.000Z</time><ele>553.8</ele></trkpt><trkpt lat="63.811597" lon="-19.260998"><time>2021-07-26T11:59:49.000Z</time><ele>553.8</ele></trkpt><trkpt lat="63.811572" lon="-19.261065"><time>2021-07-26T11:59:52.000Z</time><ele>553.6</ele></trkpt><trkpt lat="63.811535" lon="-19.261162"><time>2021-07-26T11:59:57.000Z</time><ele>553.6</ele></trkpt><trkpt lat="63.811456" lon="-19.261345"><time>2021-07-26T12:00:06.000Z</time><ele>552.8</ele></trkpt><trkpt lat="63.811444" lon="-19.261391"><time>2021-07-26T12:00:08.000Z</time><ele>552.8</ele></trkpt><trkpt lat="63.811423" lon="-19.261466"><time>2021-07-26T12:00:11.000Z</time><ele>552.4</ele></trkpt><trkpt lat="63.811394" lon="-19.261559"><time>2021-07-26T12:00:15.000Z</time><ele>552</ele></trkpt><trkpt lat="63.811383" lon="-19.261597"><time>2021-07-26T12:00:17.000Z</time><ele>552</ele></trkpt><trkpt lat="63.811315" lon="-19.261777"><time>2021-07-26T12:00:26.000Z</time><ele>551.8</ele></trkpt><trkpt lat="63.811305" lon="-19.261797"><time>2021-07-26T12:00:27.000Z</time><ele>551.6</ele></trkpt><trkpt lat="63.811253" lon="-19.261904"><time>2021-07-26T12:00:33.000Z</time><ele>551.4</ele></trkpt><trkpt lat="63.81123" lon="-19.261973"><time>2021-07-26T12:00:38.000Z</time><ele>551.6</ele></trkpt><trkpt lat="63.811213" lon="-19.262018"><time>2021-07-26T12:00:41.000Z</time><ele>552</ele></trkpt><trkpt lat="63.811208" lon="-19.262032"><time>2021-07-26T12:00:42.000Z</time><ele>552</ele></trkpt><trkpt lat="63.81119" lon="-19.262113"><time>2021-07-26T12:00:48.000Z</time><ele>551.2</ele></trkpt><trkpt lat="63.811177" lon="-19.262145"><time>2021-07-26T12:00:49.000Z</time><ele>551.2</ele></trkpt><trkpt lat="63.81117" lon="-19.262169"><time>2021-07-26T12:00:51.000Z</time><ele>551.2</ele></trkpt><trkpt lat="63.811166" lon="-19.262229"><time>2021-07-26T12:00:54.000Z</time><ele>550.8</ele></trkpt><trkpt lat="63.811164" lon="-19.262246"><time>2021-07-26T12:00:55.000Z</time><ele>550.6</ele></trkpt><trkpt lat="63.811121" lon="-19.262408"><time>2021-07-26T12:01:04.000Z</time><ele>550.2</ele></trkpt><trkpt lat="63.811046" lon="-19.262485"><time>2021-07-26T12:01:12.000Z</time><ele>550.2</ele></trkpt><trkpt lat="63.811038" lon="-19.262497"><time>2021-07-26T12:01:13.000Z</time><ele>550.2</ele></trkpt><trkpt lat="63.811022" lon="-19.262512"><time>2021-07-26T12:01:16.000Z</time><ele>549.8</ele></trkpt><trkpt lat="63.811016" lon="-19.262522"><time>2021-07-26T12:01:19.000Z</time><ele>549.6</ele></trkpt><trkpt lat="63.811013" lon="-19.262527"><time>2021-07-26T12:01:21.000Z</time><ele>549.6</ele></trkpt><trkpt lat="63.810993" lon="-19.262553"><time>2021-07-26T12:01:34.000Z</time><ele>549.6</ele></trkpt><trkpt lat="63.810993" lon="-19.26256"><time>2021-07-26T12:02:30.000Z</time><ele>548.8</ele></trkpt><trkpt lat="63.810992" lon="-19.262561"><time>2021-07-26T12:02:35.000Z</time><ele>548.6</ele></trkpt><trkpt lat="63.810992" lon="-19.262562"><time>2021-07-26T12:02:37.000Z</time><ele>548.6</ele></trkpt><trkpt lat="63.810993" lon="-19.262563"><time>2021-07-26T12:02:46.000Z</time><ele>548.6</ele></trkpt><trkpt lat="63.810996" lon="-19.262563"><time>2021-07-26T12:03:09.000Z</time><ele>548.4</ele></trkpt><trkpt lat="63.810997" lon="-19.262568"><time>2021-07-26T12:03:14.000Z</time><ele>548.6</ele></trkpt><trkpt lat="63.810997" lon="-19.262568"><time>2021-07-26T12:03:19.000Z</time><ele>549</ele></trkpt><trkpt lat="63.810998" lon="-19.262568"><time>2021-07-26T12:03:22.000Z</time><ele>548.8</ele></trkpt><trkpt lat="63.810998" lon="-19.262567"><time>2021-07-26T12:03:28.000Z</time><ele>548.8</ele></trkpt><trkpt lat="63.811002" lon="-19.262564"><time>2021-07-26T12:03:47.000Z</time><ele>548.8</ele></trkpt><trkpt lat="63.811003" lon="-19.262564"><time>2021-07-26T12:03:49.000Z</time><ele>548.8</ele></trkpt><trkpt lat="63.811003" lon="-19.262561"><time>2021-07-26T12:04:08.000Z</time><ele>548.8</ele></trkpt><trkpt lat="63.810994" lon="-19.262555"><time>2021-07-26T12:04:18.000Z</time><ele>548.8</ele></trkpt><trkpt lat="63.810987" lon="-19.262549"><time>2021-07-26T12:04:28.000Z</time><ele>548.8</ele></trkpt><trkpt lat="63.810984" lon="-19.262547"><time>2021-07-26T12:04:35.000Z</time><ele>548.8</ele></trkpt><trkpt lat="63.810979" lon="-19.262542"><time>2021-07-26T12:04:51.000Z</time><ele>548.8</ele></trkpt><trkpt lat="63.810979" lon="-19.262542"><time>2021-07-26T12:04:57.000Z</time><ele>548.8</ele></trkpt><trkpt lat="63.810979" lon="-19.262542"><time>2021-07-26T12:05:00.000Z</time><ele>548.8</ele></trkpt><trkpt lat="63.810979" lon="-19.262541"><time>2021-07-26T12:05:05.000Z</time><ele>548.8</ele></trkpt><trkpt lat="63.81098" lon="-19.262541"><time>2021-07-26T12:05:21.000Z</time><ele>548.8</ele></trkpt><trkpt lat="63.81098" lon="-19.262541"><time>2021-07-26T12:05:39.000Z</time><ele>548.8</ele></trkpt><trkpt lat="63.810981" lon="-19.262541"><time>2021-07-26T12:05:50.000Z</time><ele>548.8</ele></trkpt><trkpt lat="63.810983" lon="-19.262542"><time>2021-07-26T12:06:45.000Z</time><ele>548.8</ele></trkpt><trkpt lat="63.810984" lon="-19.262542"><time>2021-07-26T12:07:19.000Z</time><ele>548.8</ele></trkpt><trkpt lat="63.810984" lon="-19.262542"><time>2021-07-26T12:07:29.000Z</time><ele>548.8</ele></trkpt><trkpt lat="63.810984" lon="-19.262542"><time>2021-07-26T12:07:40.000Z</time><ele>548.8</ele></trkpt><trkpt lat="63.810984" lon="-19.262543"><time>2021-07-26T12:07:43.000Z</time><ele>548.8</ele></trkpt><trkpt lat="63.810984" lon="-19.262543"><time>2021-07-26T12:07:46.000Z</time><ele>548.8</ele></trkpt><trkpt lat="63.810984" lon="-19.262543"><time>2021-07-26T12:07:56.000Z</time><ele>548.8</ele></trkpt><trkpt lat="63.810984" lon="-19.262543"><time>2021-07-26T12:08:04.000Z</time><ele>548.8</ele></trkpt><trkpt lat="63.810985" lon="-19.262545"><time>2021-07-26T12:08:30.000Z</time><ele>548.8</ele></trkpt><trkpt lat="63.810985" lon="-19.262545"><time>2021-07-26T12:08:37.000Z</time><ele>548.8</ele></trkpt><trkpt lat="63.810985" lon="-19.262546"><time>2021-07-26T12:09:04.000Z</time><ele>548.8</ele></trkpt><trkpt lat="63.810986" lon="-19.262546"><time>2021-07-26T12:09:19.000Z</time><ele>548.8</ele></trkpt><trkpt lat="63.810986" lon="-19.262546"><time>2021-07-26T12:09:32.000Z</time><ele>548.8</ele></trkpt><trkpt lat="63.810986" lon="-19.262546"><time>2021-07-26T12:09:33.000Z</time><ele>548.8</ele></trkpt><trkpt lat="63.810986" lon="-19.262546"><time>2021-07-26T12:09:35.000Z</time><ele>548.8</ele></trkpt><trkpt lat="63.810986" lon="-19.262545"><time>2021-07-26T12:09:44.000Z</time><ele>548.8</ele></trkpt><trkpt lat="63.810987" lon="-19.262545"><time>2021-07-26T12:09:49.000Z</time><ele>548.8</ele></trkpt><trkpt lat="63.810987" lon="-19.262546"><time>2021-07-26T12:10:02.000Z</time><ele>548.8</ele></trkpt><trkpt lat="63.810987" lon="-19.262546"><time>2021-07-26T12:10:08.000Z</time><ele>548.8</ele></trkpt><trkpt lat="63.810987" lon="-19.262545"><time>2021-07-26T12:10:26.000Z</time><ele>548.8</ele></trkpt><trkpt lat="63.810986" lon="-19.262544"><time>2021-07-26T12:10:39.000Z</time><ele>548.8</ele></trkpt><trkpt lat="63.810986" lon="-19.262544"><time>2021-07-26T12:10:44.000Z</time><ele>548.8</ele></trkpt><trkpt lat="63.810986" lon="-19.262544"><time>2021-07-26T12:10:52.000Z</time><ele>548.8</ele></trkpt><trkpt lat="63.810986" lon="-19.262543"><time>2021-07-26T12:10:54.000Z</time><ele>548.8</ele></trkpt><trkpt lat="63.810986" lon="-19.262543"><time>2021-07-26T12:10:56.000Z</time><ele>548.8</ele></trkpt><trkpt lat="63.810985" lon="-19.262543"><time>2021-07-26T12:10:58.000Z</time><ele>548.8</ele></trkpt><trkpt lat="63.810985" lon="-19.262543"><time>2021-07-26T12:11:01.000Z</time><ele>548.8</ele></trkpt><trkpt lat="63.810985" lon="-19.262543"><time>2021-07-26T12:11:04.000Z</time><ele>548.8</ele></trkpt><trkpt lat="63.810985" lon="-19.262543"><time>2021-07-26T12:11:08.000Z</time><ele>548.8</ele></trkpt><trkpt lat="63.810984" lon="-19.262542"><time>2021-07-26T12:11:48.000Z</time><ele>548.8</ele></trkpt><trkpt lat="63.810984" lon="-19.262542"><time>2021-07-26T12:11:53.000Z</time><ele>548.8</ele></trkpt><trkpt lat="63.810983" lon="-19.262542"><time>2021-07-26T12:12:09.000Z</time><ele>548.8</ele></trkpt><trkpt lat="63.810983" lon="-19.262542"><time>2021-07-26T12:12:17.000Z</time><ele>548.8</ele></trkpt><trkpt lat="63.810983" lon="-19.262542"><time>2021-07-26T12:12:21.000Z</time><ele>548.8</ele></trkpt><trkpt lat="63.810983" lon="-19.262543"><time>2021-07-26T12:12:29.000Z</time><ele>548.8</ele></trkpt><trkpt lat="63.810983" lon="-19.262543"><time>2021-07-26T12:13:38.000Z</time><ele>548.8</ele></trkpt><trkpt lat="63.810983" lon="-19.262543"><time>2021-07-26T12:13:41.000Z</time><ele>548.8</ele></trkpt><trkpt lat="63.810983" lon="-19.262543"><time>2021-07-26T12:13:45.000Z</time><ele>548.8</ele></trkpt><trkpt lat="63.810983" lon="-19.262542"><time>2021-07-26T12:13:59.000Z</time><ele>548.8</ele></trkpt><trkpt lat="63.810983" lon="-19.262542"><time>2021-07-26T12:14:12.000Z</time><ele>548.8</ele></trkpt><trkpt lat="63.810983" lon="-19.262543"><time>2021-07-26T12:14:44.000Z</time><ele>548.8</ele></trkpt><trkpt lat="63.810983" lon="-19.262543"><time>2021-07-26T12:14:59.000Z</time><ele>548.8</ele></trkpt><trkpt lat="63.810984" lon="-19.262544"><time>2021-07-26T12:15:41.000Z</time><ele>548.8</ele></trkpt><trkpt lat="63.810984" lon="-19.262544"><time>2021-07-26T12:16:27.000Z</time><ele>548.8</ele></trkpt><trkpt lat="63.810985" lon="-19.262544"><time>2021-07-26T12:16:40.000Z</time><ele>548.8</ele></trkpt><trkpt lat="63.810985" lon="-19.262544"><time>2021-07-26T12:16:45.000Z</time><ele>548.8</ele></trkpt><trkpt lat="63.810986" lon="-19.262544"><time>2021-07-26T12:16:53.000Z</time><ele>548.8</ele></trkpt><trkpt lat="63.810986" lon="-19.262544"><time>2021-07-26T12:16:59.000Z</time><ele>548.8</ele></trkpt><trkpt lat="63.810986" lon="-19.262544"><time>2021-07-26T12:17:03.000Z</time><ele>548.8</ele></trkpt><trkpt lat="63.810986" lon="-19.262544"><time>2021-07-26T12:17:17.000Z</time><ele>548.8</ele></trkpt><trkpt lat="63.810986" lon="-19.262544"><time>2021-07-26T12:17:20.000Z</time><ele>548.8</ele></trkpt><trkpt lat="63.810987" lon="-19.262543"><time>2021-07-26T12:17:29.000Z</time><ele>548.8</ele></trkpt><trkpt lat="63.810987" lon="-19.262543"><time>2021-07-26T12:17:36.000Z</time><ele>548.8</ele></trkpt><trkpt lat="63.810987" lon="-19.262543"><time>2021-07-26T12:17:49.000Z</time><ele>548.8</ele></trkpt><trkpt lat="63.810987" lon="-19.262543"><time>2021-07-26T12:18:43.000Z</time><ele>548.8</ele></trkpt><trkpt lat="63.810988" lon="-19.262542"><time>2021-07-26T12:18:50.000Z</time><ele>548.8</ele></trkpt><trkpt lat="63.810988" lon="-19.262542"><time>2021-07-26T12:18:51.000Z</time><ele>548.8</ele></trkpt><trkpt lat="63.810988" lon="-19.262542"><time>2021-07-26T12:19:10.000Z</time><ele>548.8</ele></trkpt><trkpt lat="63.810988" lon="-19.262542"><time>2021-07-26T12:19:19.000Z</time><ele>548.8</ele></trkpt><trkpt lat="63.810989" lon="-19.262543"><time>2021-07-26T12:19:38.000Z</time><ele>548.8</ele></trkpt><trkpt lat="63.810989" lon="-19.262543"><time>2021-07-26T12:19:41.000Z</time><ele>548.8</ele></trkpt><trkpt lat="63.810989" lon="-19.262543"><time>2021-07-26T12:20:00.000Z</time><ele>548.8</ele></trkpt><trkpt lat="63.810989" lon="-19.262543"><time>2021-07-26T12:20:08.000Z</time><ele>548.8</ele></trkpt><trkpt lat="63.810989" lon="-19.262543"><time>2021-07-26T12:20:11.000Z</time><ele>548.8</ele></trkpt><trkpt lat="63.810989" lon="-19.262543"><time>2021-07-26T12:20:12.000Z</time><ele>548.8</ele></trkpt><trkpt lat="63.810989" lon="-19.262543"><time>2021-07-26T12:20:13.000Z</time><ele>548.8</ele></trkpt><trkpt lat="63.810989" lon="-19.262543"><time>2021-07-26T12:20:14.000Z</time><ele>548.8</ele></trkpt><trkpt lat="63.810989" lon="-19.262543"><time>2021-07-26T12:20:15.000Z</time><ele>548.8</ele></trkpt><trkpt lat="63.810989" lon="-19.262543"><time>2021-07-26T12:20:17.000Z</time><ele>548.8</ele></trkpt><trkpt lat="63.810989" lon="-19.262543"><time>2021-07-26T12:20:23.000Z</time><ele>548.8</ele></trkpt><trkpt lat="63.810989" lon="-19.262543"><time>2021-07-26T12:20:31.000Z</time><ele>548.8</ele></trkpt><trkpt lat="63.810989" lon="-19.262543"><time>2021-07-26T12:20:36.000Z</time><ele>548.8</ele></trkpt><trkpt lat="63.810989" lon="-19.262543"><time>2021-07-26T12:20:38.000Z</time><ele>548.8</ele></trkpt><trkpt lat="63.810989" lon="-19.262543"><time>2021-07-26T12:20:40.000Z</time><ele>548.8</ele></trkpt><trkpt lat="63.810989" lon="-19.262543"><time>2021-07-26T12:20:44.000Z</time><ele>548.8</ele></trkpt><trkpt lat="63.81099" lon="-19.262543"><time>2021-07-26T12:20:46.000Z</time><ele>548.8</ele></trkpt><trkpt lat="63.81099" lon="-19.262543"><time>2021-07-26T12:20:48.000Z</time><ele>548.8</ele></trkpt><trkpt lat="63.81099" lon="-19.262543"><time>2021-07-26T12:20:54.000Z</time><ele>548.8</ele></trkpt><trkpt lat="63.81099" lon="-19.262543"><time>2021-07-26T12:21:10.000Z</time><ele>548.8</ele></trkpt><trkpt lat="63.81099" lon="-19.262544"><time>2021-07-26T12:21:49.000Z</time><ele>548.8</ele></trkpt><trkpt lat="63.81099" lon="-19.262544"><time>2021-07-26T12:21:54.000Z</time><ele>548.8</ele></trkpt><trkpt lat="63.81099" lon="-19.262545"><time>2021-07-26T12:22:22.000Z</time><ele>548.8</ele></trkpt><trkpt lat="63.81099" lon="-19.262545"><time>2021-07-26T12:22:24.000Z</time><ele>548.8</ele></trkpt><trkpt lat="63.81099" lon="-19.262545"><time>2021-07-26T12:22:26.000Z</time><ele>548.8</ele></trkpt><trkpt lat="63.81099" lon="-19.262545"><time>2021-07-26T12:22:36.000Z</time><ele>548.8</ele></trkpt><trkpt lat="63.81099" lon="-19.262545"><time>2021-07-26T12:22:45.000Z</time><ele>548.8</ele></trkpt><trkpt lat="63.81099" lon="-19.262545"><time>2021-07-26T12:22:48.000Z</time><ele>548.8</ele></trkpt><trkpt lat="63.810991" lon="-19.262546"><time>2021-07-26T12:23:32.000Z</time><ele>548.8</ele></trkpt><trkpt lat="63.810991" lon="-19.262546"><time>2021-07-26T12:23:35.000Z</time><ele>548.8</ele></trkpt><trkpt lat="63.810991" lon="-19.262546"><time>2021-07-26T12:23:38.000Z</time><ele>548.8</ele></trkpt><trkpt lat="63.811007" lon="-19.262649"><time>2021-07-26T12:23:54.000Z</time><ele>548.8</ele></trkpt><trkpt lat="63.811013" lon="-19.262706"><time>2021-07-26T12:23:56.000Z</time><ele>548.8</ele></trkpt><trkpt lat="63.811011" lon="-19.262736"><time>2021-07-26T12:23:57.000Z</time><ele>548.8</ele></trkpt><trkpt lat="63.811006" lon="-19.262776"><time>2021-07-26T12:23:59.000Z</time><ele>548.8</ele></trkpt><trkpt lat="63.810993" lon="-19.262802"><time>2021-07-26T12:24:01.000Z</time><ele>548.8</ele></trkpt><trkpt lat="63.810984" lon="-19.262807"><time>2021-07-26T12:24:02.000Z</time><ele>548.8</ele></trkpt><trkpt lat="63.810978" lon="-19.262806"><time>2021-07-26T12:24:04.000Z</time><ele>548.8</ele></trkpt><trkpt lat="63.810979" lon="-19.262804"><time>2021-07-26T12:24:08.000Z</time><ele>548.6</ele></trkpt><trkpt lat="63.810977" lon="-19.2628"><time>2021-07-26T12:24:09.000Z</time><ele>548.6</ele></trkpt><trkpt lat="63.810976" lon="-19.262798"><time>2021-07-26T12:24:12.000Z</time><ele>548.2</ele></trkpt><trkpt lat="63.810976" lon="-19.262798"><time>2021-07-26T12:24:20.000Z</time><ele>548</ele></trkpt><trkpt lat="63.810976" lon="-19.262801"><time>2021-07-26T12:24:27.000Z</time><ele>547.8</ele></trkpt><trkpt lat="63.810975" lon="-19.262804"><time>2021-07-26T12:24:28.000Z</time><ele>547.8</ele></trkpt><trkpt lat="63.810971" lon="-19.262809"><time>2021-07-26T12:24:30.000Z</time><ele>547.8</ele></trkpt><trkpt lat="63.810947" lon="-19.262846"><time>2021-07-26T12:24:32.000Z</time><ele>547.4</ele></trkpt><trkpt lat="63.810927" lon="-19.262885"><time>2021-07-26T12:24:34.000Z</time><ele>547.2</ele></trkpt><trkpt lat="63.810864" lon="-19.26311"><time>2021-07-26T12:24:44.000Z</time><ele>547</ele></trkpt><trkpt lat="63.81086" lon="-19.263159"><time>2021-07-26T12:24:46.000Z</time><ele>546.8</ele></trkpt><trkpt lat="63.810808" lon="-19.263347"><time>2021-07-26T12:24:56.000Z</time><ele>547</ele></trkpt><trkpt lat="63.810785" lon="-19.263484"><time>2021-07-26T12:25:02.000Z</time><ele>546.6</ele></trkpt><trkpt lat="63.810773" lon="-19.263547"><time>2021-07-26T12:25:05.000Z</time><ele>546.6</ele></trkpt><trkpt lat="63.810758" lon="-19.263604"><time>2021-07-26T12:25:08.000Z</time><ele>546.4</ele></trkpt><trkpt lat="63.810716" lon="-19.263712"><time>2021-07-26T12:25:14.000Z</time><ele>545.6</ele></trkpt><trkpt lat="63.810712" lon="-19.263738"><time>2021-07-26T12:25:15.000Z</time><ele>545.6</ele></trkpt><trkpt lat="63.810712" lon="-19.263859"><time>2021-07-26T12:25:20.000Z</time><ele>546</ele></trkpt><trkpt lat="63.810707" lon="-19.263977"><time>2021-07-26T12:25:24.000Z</time><ele>545.6</ele></trkpt><trkpt lat="63.810702" lon="-19.264003"><time>2021-07-26T12:25:25.000Z</time><ele>545.4</ele></trkpt><trkpt lat="63.810697" lon="-19.264024"><time>2021-07-26T12:25:26.000Z</time><ele>545.2</ele></trkpt><trkpt lat="63.810651" lon="-19.264195"><time>2021-07-26T12:25:34.000Z</time><ele>545.6</ele></trkpt><trkpt lat="63.810643" lon="-19.264275"><time>2021-07-26T12:25:37.000Z</time><ele>546</ele></trkpt><trkpt lat="63.810655" lon="-19.264453"><time>2021-07-26T12:25:44.000Z</time><ele>545.6</ele></trkpt><trkpt lat="63.81064" lon="-19.264605"><time>2021-07-26T12:25:50.000Z</time><ele>546</ele></trkpt><trkpt lat="63.810623" lon="-19.264751"><time>2021-07-26T12:25:56.000Z</time><ele>546</ele></trkpt><trkpt lat="63.810575" lon="-19.265046"><time>2021-07-26T12:26:08.000Z</time><ele>545.6</ele></trkpt><trkpt lat="63.810536" lon="-19.265113"><time>2021-07-26T12:26:12.000Z</time><ele>545</ele></trkpt><trkpt lat="63.81049" lon="-19.265149"><time>2021-07-26T12:26:17.000Z</time><ele>545</ele></trkpt><trkpt lat="63.810366" lon="-19.26527"><time>2021-07-26T12:26:30.000Z</time><ele>546.2</ele></trkpt><trkpt lat="63.810314" lon="-19.265326"><time>2021-07-26T12:26:35.000Z</time><ele>546</ele></trkpt><trkpt lat="63.810278" lon="-19.265381"><time>2021-07-26T12:26:39.000Z</time><ele>546.4</ele></trkpt><trkpt lat="63.810249" lon="-19.265421"><time>2021-07-26T12:26:42.000Z</time><ele>546.6</ele></trkpt><trkpt lat="63.810196" lon="-19.265475"><time>2021-07-26T12:26:48.000Z</time><ele>547.2</ele></trkpt><trkpt lat="63.810104" lon="-19.265628"><time>2021-07-26T12:26:58.000Z</time><ele>547.4</ele></trkpt><trkpt lat="63.810095" lon="-19.26564"><time>2021-07-26T12:26:59.000Z</time><ele>547.6</ele></trkpt><trkpt lat="63.809987" lon="-19.26582"><time>2021-07-26T12:27:11.000Z</time><ele>547.6</ele></trkpt><trkpt lat="63.809903" lon="-19.265961"><time>2021-07-26T12:27:21.000Z</time><ele>548.6</ele></trkpt><trkpt lat="63.809885" lon="-19.26599"><time>2021-07-26T12:27:23.000Z</time><ele>549</ele></trkpt><trkpt lat="63.80986" lon="-19.266039"><time>2021-07-26T12:27:26.000Z</time><ele>549</ele></trkpt><trkpt lat="63.809837" lon="-19.266072"><time>2021-07-26T12:27:28.000Z</time><ele>548.8</ele></trkpt><trkpt lat="63.809753" lon="-19.266169"><time>2021-07-26T12:27:36.000Z</time><ele>549</ele></trkpt><trkpt lat="63.80964" lon="-19.2663"><time>2021-07-26T12:27:47.000Z</time><ele>549.4</ele></trkpt><trkpt lat="63.809614" lon="-19.266331"><time>2021-07-26T12:27:50.000Z</time><ele>549.4</ele></trkpt><trkpt lat="63.809494" lon="-19.266496"><time>2021-07-26T12:28:01.000Z</time><ele>548.4</ele></trkpt><trkpt lat="63.809435" lon="-19.266553"><time>2021-07-26T12:28:06.000Z</time><ele>547.2</ele></trkpt><trkpt lat="63.80937" lon="-19.266612"><time>2021-07-26T12:28:12.000Z</time><ele>546.8</ele></trkpt><trkpt lat="63.809278" lon="-19.266724"><time>2021-07-26T12:28:23.000Z</time><ele>547</ele></trkpt><trkpt lat="63.809271" lon="-19.266736"><time>2021-07-26T12:28:24.000Z</time><ele>546.8</ele></trkpt><trkpt lat="63.809261" lon="-19.266757"><time>2021-07-26T12:28:27.000Z</time><ele>546</ele></trkpt><trkpt lat="63.809249" lon="-19.266791"><time>2021-07-26T12:28:29.000Z</time><ele>545.8</ele></trkpt><trkpt lat="63.809244" lon="-19.266809"><time>2021-07-26T12:28:30.000Z</time><ele>545.6</ele></trkpt><trkpt lat="63.809237" lon="-19.26685"><time>2021-07-26T12:28:32.000Z</time><ele>545</ele></trkpt><trkpt lat="63.809207" lon="-19.266949"><time>2021-07-26T12:28:36.000Z</time><ele>544.4</ele></trkpt><trkpt lat="63.809189" lon="-19.266987"><time>2021-07-26T12:28:39.000Z</time><ele>544</ele></trkpt><trkpt lat="63.809151" lon="-19.267055"><time>2021-07-26T12:28:43.000Z</time><ele>543.4</ele></trkpt><trkpt lat="63.809108" lon="-19.267104"><time>2021-07-26T12:28:48.000Z</time><ele>542.8</ele></trkpt><trkpt lat="63.809089" lon="-19.267134"><time>2021-07-26T12:28:50.000Z</time><ele>542.6</ele></trkpt><trkpt lat="63.809069" lon="-19.267161"><time>2021-07-26T12:28:52.000Z</time><ele>542.6</ele></trkpt><trkpt lat="63.809032" lon="-19.267208"><time>2021-07-26T12:28:55.000Z</time><ele>542.6</ele></trkpt><trkpt lat="63.809015" lon="-19.267221"><time>2021-07-26T12:28:57.000Z</time><ele>542.6</ele></trkpt><trkpt lat="63.808944" lon="-19.267304"><time>2021-07-26T12:29:04.000Z</time><ele>542.6</ele></trkpt><trkpt lat="63.80891" lon="-19.267345"><time>2021-07-26T12:29:08.000Z</time><ele>543</ele></trkpt><trkpt lat="63.808865" lon="-19.267402"><time>2021-07-26T12:29:14.000Z</time><ele>543.8</ele></trkpt><trkpt lat="63.808838" lon="-19.267428"><time>2021-07-26T12:29:18.000Z</time><ele>544.6</ele></trkpt><trkpt lat="63.808829" lon="-19.267437"><time>2021-07-26T12:29:19.000Z</time><ele>544.6</ele></trkpt><trkpt lat="63.808809" lon="-19.267462"><time>2021-07-26T12:29:21.000Z</time><ele>545.2</ele></trkpt><trkpt lat="63.808794" lon="-19.267486"><time>2021-07-26T12:29:23.000Z</time><ele>545.8</ele></trkpt><trkpt lat="63.808769" lon="-19.267523"><time>2021-07-26T12:29:26.000Z</time><ele>546</ele></trkpt><trkpt lat="63.808762" lon="-19.267536"><time>2021-07-26T12:29:27.000Z</time><ele>546</ele></trkpt><trkpt lat="63.808742" lon="-19.267566"><time>2021-07-26T12:29:29.000Z</time><ele>546.2</ele></trkpt><trkpt lat="63.808696" lon="-19.26764"><time>2021-07-26T12:29:35.000Z</time><ele>547</ele></trkpt><trkpt lat="63.808678" lon="-19.267668"><time>2021-07-26T12:29:37.000Z</time><ele>547.4</ele></trkpt><trkpt lat="63.808668" lon="-19.267683"><time>2021-07-26T12:29:38.000Z</time><ele>547.6</ele></trkpt><trkpt lat="63.808628" lon="-19.267736"><time>2021-07-26T12:29:43.000Z</time><ele>548.2</ele></trkpt><trkpt lat="63.808619" lon="-19.267749"><time>2021-07-26T12:29:44.000Z</time><ele>548.4</ele></trkpt><trkpt lat="63.808586" lon="-19.267808"><time>2021-07-26T12:29:48.000Z</time><ele>549.2</ele></trkpt><trkpt lat="63.808571" lon="-19.267841"><time>2021-07-26T12:29:50.000Z</time><ele>549.4</ele></trkpt><trkpt lat="63.808547" lon="-19.267885"><time>2021-07-26T12:29:53.000Z</time><ele>549.4</ele></trkpt><trkpt lat="63.80852" lon="-19.267922"><time>2021-07-26T12:29:59.000Z</time><ele>549.4</ele></trkpt><trkpt lat="63.808517" lon="-19.267929"><time>2021-07-26T12:30:02.000Z</time><ele>549.8</ele></trkpt><trkpt lat="63.808516" lon="-19.267941"><time>2021-07-26T12:30:09.000Z</time><ele>549.8</ele></trkpt><trkpt lat="63.80852" lon="-19.267956"><time>2021-07-26T12:30:14.000Z</time><ele>549.8</ele></trkpt><trkpt lat="63.808521" lon="-19.267956"><time>2021-07-26T12:30:26.000Z</time><ele>549.8</ele></trkpt><trkpt lat="63.808538" lon="-19.267948"><time>2021-07-26T12:30:32.000Z</time><ele>549.8</ele></trkpt><trkpt lat="63.808539" lon="-19.267945"><time>2021-07-26T12:30:35.000Z</time><ele>549.8</ele></trkpt><trkpt lat="63.808539" lon="-19.267948"><time>2021-07-26T12:30:41.000Z</time><ele>549.8</ele></trkpt><trkpt lat="63.808526" lon="-19.267958"><time>2021-07-26T12:30:43.000Z</time><ele>549.8</ele></trkpt><trkpt lat="63.808503" lon="-19.267974"><time>2021-07-26T12:30:45.000Z</time><ele>549.8</ele></trkpt><trkpt lat="63.808493" lon="-19.26798"><time>2021-07-26T12:30:46.000Z</time><ele>549.8</ele></trkpt><trkpt lat="63.808461" lon="-19.268007"><time>2021-07-26T12:30:49.000Z</time><ele>549.8</ele></trkpt><trkpt lat="63.808429" lon="-19.26805"><time>2021-07-26T12:30:53.000Z</time><ele>550.4</ele></trkpt><trkpt lat="63.808424" lon="-19.26806"><time>2021-07-26T12:30:54.000Z</time><ele>550.8</ele></trkpt><trkpt lat="63.808415" lon="-19.268077"><time>2021-07-26T12:30:56.000Z</time><ele>551.2</ele></trkpt><trkpt lat="63.808392" lon="-19.268095"><time>2021-07-26T12:31:02.000Z</time><ele>551.6</ele></trkpt><trkpt lat="63.808374" lon="-19.268107"><time>2021-07-26T12:31:05.000Z</time><ele>552</ele></trkpt><trkpt lat="63.808352" lon="-19.268133"><time>2021-07-26T12:31:08.000Z</time><ele>552.6</ele></trkpt><trkpt lat="63.80833" lon="-19.268161"><time>2021-07-26T12:31:11.000Z</time><ele>553</ele></trkpt><trkpt lat="63.808274" lon="-19.268241"><time>2021-07-26T12:31:18.000Z</time><ele>553.8</ele></trkpt><trkpt lat="63.808254" lon="-19.268289"><time>2021-07-26T12:31:21.000Z</time><ele>553.6</ele></trkpt><trkpt lat="63.808224" lon="-19.268388"><time>2021-07-26T12:31:26.000Z</time><ele>553</ele></trkpt><trkpt lat="63.808194" lon="-19.268518"><time>2021-07-26T12:31:33.000Z</time><ele>553.8</ele></trkpt><trkpt lat="63.808177" lon="-19.268598"><time>2021-07-26T12:31:36.000Z</time><ele>554</ele></trkpt><trkpt lat="63.808173" lon="-19.26862"><time>2021-07-26T12:31:37.000Z</time><ele>554</ele></trkpt><trkpt lat="63.808115" lon="-19.268865"><time>2021-07-26T12:31:48.000Z</time><ele>553.4</ele></trkpt><trkpt lat="63.808096" lon="-19.268941"><time>2021-07-26T12:31:51.000Z</time><ele>553</ele></trkpt><trkpt lat="63.80809" lon="-19.268967"><time>2021-07-26T12:31:52.000Z</time><ele>553</ele></trkpt><trkpt lat="63.808068" lon="-19.269085"><time>2021-07-26T12:31:57.000Z</time><ele>553</ele></trkpt><trkpt lat="63.808039" lon="-19.269183"><time>2021-07-26T12:32:01.000Z</time><ele>554.2</ele></trkpt><trkpt lat="63.808017" lon="-19.26926"><time>2021-07-26T12:32:05.000Z</time><ele>554.4</ele></trkpt><trkpt lat="63.807939" lon="-19.269578"><time>2021-07-26T12:32:19.000Z</time><ele>554.4</ele></trkpt><trkpt lat="63.807933" lon="-19.269603"><time>2021-07-26T12:32:20.000Z</time><ele>554.8</ele></trkpt><trkpt lat="63.807917" lon="-19.269659"><time>2021-07-26T12:32:22.000Z</time><ele>555.2</ele></trkpt><trkpt lat="63.807864" lon="-19.269815"><time>2021-07-26T12:32:29.000Z</time><ele>555.8</ele></trkpt><trkpt lat="63.807829" lon="-19.269914"><time>2021-07-26T12:32:34.000Z</time><ele>556</ele></trkpt><trkpt lat="63.807801" lon="-19.269989"><time>2021-07-26T12:32:38.000Z</time><ele>554.4</ele></trkpt><trkpt lat="63.807794" lon="-19.270007"><time>2021-07-26T12:32:39.000Z</time><ele>553.8</ele></trkpt><trkpt lat="63.80778" lon="-19.270046"><time>2021-07-26T12:32:41.000Z</time><ele>553.6</ele></trkpt><trkpt lat="63.807757" lon="-19.270121"><time>2021-07-26T12:32:45.000Z</time><ele>553</ele></trkpt><trkpt lat="63.807751" lon="-19.270139"><time>2021-07-26T12:32:46.000Z</time><ele>552.8</ele></trkpt><trkpt lat="63.807738" lon="-19.270181"><time>2021-07-26T12:32:48.000Z</time><ele>551.6</ele></trkpt><trkpt lat="63.807693" lon="-19.270317"><time>2021-07-26T12:32:55.000Z</time><ele>550.4</ele></trkpt><trkpt lat="63.80768" lon="-19.270361"><time>2021-07-26T12:32:57.000Z</time><ele>549.2</ele></trkpt><trkpt lat="63.807673" lon="-19.270384"><time>2021-07-26T12:32:58.000Z</time><ele>548</ele></trkpt><trkpt lat="63.807661" lon="-19.270426"><time>2021-07-26T12:33:00.000Z</time><ele>547</ele></trkpt><trkpt lat="63.807649" lon="-19.270484"><time>2021-07-26T12:33:03.000Z</time><ele>545.8</ele></trkpt><trkpt lat="63.807591" lon="-19.270692"><time>2021-07-26T12:33:12.000Z</time><ele>544.8</ele></trkpt><trkpt lat="63.807545" lon="-19.270827"><time>2021-07-26T12:33:18.000Z</time><ele>544.2</ele></trkpt><trkpt lat="63.807479" lon="-19.271003"><time>2021-07-26T12:33:26.000Z</time><ele>543.6</ele></trkpt><trkpt lat="63.807418" lon="-19.271155"><time>2021-07-26T12:33:33.000Z</time><ele>543.8</ele></trkpt><trkpt lat="63.807386" lon="-19.271258"><time>2021-07-26T12:33:38.000Z</time><ele>544.2</ele></trkpt><trkpt lat="63.807365" lon="-19.271316"><time>2021-07-26T12:33:41.000Z</time><ele>544.4</ele></trkpt><trkpt lat="63.807359" lon="-19.271341"><time>2021-07-26T12:33:42.000Z</time><ele>544.4</ele></trkpt><trkpt lat="63.807326" lon="-19.271453"><time>2021-07-26T12:33:47.000Z</time><ele>544.8</ele></trkpt><trkpt lat="63.807315" lon="-19.2715"><time>2021-07-26T12:33:49.000Z</time><ele>544.8</ele></trkpt><trkpt lat="63.807309" lon="-19.271514"><time>2021-07-26T12:33:50.000Z</time><ele>544.8</ele></trkpt><trkpt lat="63.807274" lon="-19.271678"><time>2021-07-26T12:33:57.000Z</time><ele>544.6</ele></trkpt><trkpt lat="63.807239" lon="-19.271888"><time>2021-07-26T12:34:05.000Z</time><ele>544.4</ele></trkpt><trkpt lat="63.807186" lon="-19.272114"><time>2021-07-26T12:34:14.000Z</time><ele>544</ele></trkpt><trkpt lat="63.807151" lon="-19.272253"><time>2021-07-26T12:34:20.000Z</time><ele>544.2</ele></trkpt><trkpt lat="63.807141" lon="-19.272314"><time>2021-07-26T12:34:22.000Z</time><ele>544</ele></trkpt><trkpt lat="63.807106" lon="-19.272474"><time>2021-07-26T12:34:29.000Z</time><ele>544</ele></trkpt><trkpt lat="63.80705" lon="-19.272695"><time>2021-07-26T12:34:38.000Z</time><ele>543.8</ele></trkpt><trkpt lat="63.807007" lon="-19.272819"><time>2021-07-26T12:34:44.000Z</time><ele>543.8</ele></trkpt><trkpt lat="63.807002" lon="-19.272841"><time>2021-07-26T12:34:45.000Z</time><ele>543.6</ele></trkpt><trkpt lat="63.806954" lon="-19.273038"><time>2021-07-26T12:34:53.000Z</time><ele>543.6</ele></trkpt><trkpt lat="63.806897" lon="-19.273296"><time>2021-07-26T12:35:03.000Z</time><ele>542.8</ele></trkpt><trkpt lat="63.806878" lon="-19.273351"><time>2021-07-26T12:35:05.000Z</time><ele>542.6</ele></trkpt><trkpt lat="63.806857" lon="-19.273397"><time>2021-07-26T12:35:08.000Z</time><ele>542.4</ele></trkpt><trkpt lat="63.806853" lon="-19.273416"><time>2021-07-26T12:35:09.000Z</time><ele>542.2</ele></trkpt><trkpt lat="63.806835" lon="-19.27349"><time>2021-07-26T12:35:12.000Z</time><ele>541.6</ele></trkpt><trkpt lat="63.806829" lon="-19.273518"><time>2021-07-26T12:35:13.000Z</time><ele>541.6</ele></trkpt><trkpt lat="63.806772" lon="-19.273708"><time>2021-07-26T12:35:21.000Z</time><ele>540.8</ele></trkpt><trkpt lat="63.806729" lon="-19.273845"><time>2021-07-26T12:35:27.000Z</time><ele>541</ele></trkpt><trkpt lat="63.806722" lon="-19.273892"><time>2021-07-26T12:35:29.000Z</time><ele>540.8</ele></trkpt><trkpt lat="63.806667" lon="-19.274084"><time>2021-07-26T12:35:38.000Z</time><ele>540.8</ele></trkpt><trkpt lat="63.806634" lon="-19.274206"><time>2021-07-26T12:35:44.000Z</time><ele>540.8</ele></trkpt><trkpt lat="63.806627" lon="-19.274223"><time>2021-07-26T12:35:45.000Z</time><ele>540.8</ele></trkpt><trkpt lat="63.806602" lon="-19.274342"><time>2021-07-26T12:35:50.000Z</time><ele>540.6</ele></trkpt><trkpt lat="63.806589" lon="-19.274411"><time>2021-07-26T12:35:53.000Z</time><ele>540.6</ele></trkpt><trkpt lat="63.806538" lon="-19.274646"><time>2021-07-26T12:36:02.000Z</time><ele>540.4</ele></trkpt><trkpt lat="63.806503" lon="-19.274851"><time>2021-07-26T12:36:10.000Z</time><ele>540.6</ele></trkpt><trkpt lat="63.806476" lon="-19.275005"><time>2021-07-26T12:36:17.000Z</time><ele>540.6</ele></trkpt><trkpt lat="63.806473" lon="-19.275031"><time>2021-07-26T12:36:18.000Z</time><ele>540.6</ele></trkpt><trkpt lat="63.806455" lon="-19.275089"><time>2021-07-26T12:36:21.000Z</time><ele>540.6</ele></trkpt><trkpt lat="63.806445" lon="-19.275117"><time>2021-07-26T12:36:23.000Z</time><ele>540.6</ele></trkpt><trkpt lat="63.806438" lon="-19.275144"><time>2021-07-26T12:36:24.000Z</time><ele>540.6</ele></trkpt><trkpt lat="63.806433" lon="-19.275162"><time>2021-07-26T12:36:25.000Z</time><ele>540.4</ele></trkpt><trkpt lat="63.806416" lon="-19.275222"><time>2021-07-26T12:36:27.000Z</time><ele>540.4</ele></trkpt><trkpt lat="63.806395" lon="-19.275312"><time>2021-07-26T12:36:31.000Z</time><ele>540</ele></trkpt><trkpt lat="63.806359" lon="-19.275432"><time>2021-07-26T12:36:36.000Z</time><ele>539.6</ele></trkpt><trkpt lat="63.806354" lon="-19.275453"><time>2021-07-26T12:36:37.000Z</time><ele>539.6</ele></trkpt><trkpt lat="63.806351" lon="-19.275477"><time>2021-07-26T12:36:38.000Z</time><ele>539.6</ele></trkpt><trkpt lat="63.806309" lon="-19.275662"><time>2021-07-26T12:36:47.000Z</time><ele>539.8</ele></trkpt><trkpt lat="63.806284" lon="-19.275759"><time>2021-07-26T12:36:51.000Z</time><ele>540</ele></trkpt><trkpt lat="63.806253" lon="-19.275852"><time>2021-07-26T12:36:56.000Z</time><ele>539.8</ele></trkpt><trkpt lat="63.80623" lon="-19.275955"><time>2021-07-26T12:37:01.000Z</time><ele>539.6</ele></trkpt><trkpt lat="63.806212" lon="-19.276071"><time>2021-07-26T12:37:06.000Z</time><ele>539.4</ele></trkpt><trkpt lat="63.806178" lon="-19.276212"><time>2021-07-26T12:37:13.000Z</time><ele>539</ele></trkpt><trkpt lat="63.806161" lon="-19.27629"><time>2021-07-26T12:37:16.000Z</time><ele>539</ele></trkpt><trkpt lat="63.806155" lon="-19.276314"><time>2021-07-26T12:37:17.000Z</time><ele>539</ele></trkpt><trkpt lat="63.806131" lon="-19.27638"><time>2021-07-26T12:37:21.000Z</time><ele>539.2</ele></trkpt><trkpt lat="63.806123" lon="-19.276428"><time>2021-07-26T12:37:23.000Z</time><ele>539.2</ele></trkpt><trkpt lat="63.806119" lon="-19.276447"><time>2021-07-26T12:37:24.000Z</time><ele>539.2</ele></trkpt><trkpt lat="63.806103" lon="-19.276525"><time>2021-07-26T12:37:27.000Z</time><ele>539.2</ele></trkpt><trkpt lat="63.806089" lon="-19.276609"><time>2021-07-26T12:37:31.000Z</time><ele>539</ele></trkpt><trkpt lat="63.806088" lon="-19.276624"><time>2021-07-26T12:37:32.000Z</time><ele>538.8</ele></trkpt><trkpt lat="63.806088" lon="-19.276686"><time>2021-07-26T12:37:35.000Z</time><ele>538.8</ele></trkpt><trkpt lat="63.806063" lon="-19.276757"><time>2021-07-26T12:37:39.000Z</time><ele>538.6</ele></trkpt><trkpt lat="63.80605" lon="-19.276856"><time>2021-07-26T12:37:44.000Z</time><ele>538.4</ele></trkpt><trkpt lat="63.806051" lon="-19.276879"><time>2021-07-26T12:37:46.000Z</time><ele>538.4</ele></trkpt><trkpt lat="63.806055" lon="-19.276891"><time>2021-07-26T12:37:47.000Z</time><ele>538.2</ele></trkpt><trkpt lat="63.806056" lon="-19.276904"><time>2021-07-26T12:37:48.000Z</time><ele>538.2</ele></trkpt><trkpt lat="63.806058" lon="-19.276935"><time>2021-07-26T12:37:50.000Z</time><ele>538.2</ele></trkpt><trkpt lat="63.806056" lon="-19.276969"><time>2021-07-26T12:37:53.000Z</time><ele>538</ele></trkpt><trkpt lat="63.806056" lon="-19.276982"><time>2021-07-26T12:37:54.000Z</time><ele>538</ele></trkpt><trkpt lat="63.806058" lon="-19.277016"><time>2021-07-26T12:37:56.000Z</time><ele>537.8</ele></trkpt><trkpt lat="63.806054" lon="-19.277053"><time>2021-07-26T12:37:58.000Z</time><ele>537.8</ele></trkpt><trkpt lat="63.806045" lon="-19.277108"><time>2021-07-26T12:38:02.000Z</time><ele>537.4</ele></trkpt><trkpt lat="63.806045" lon="-19.277123"><time>2021-07-26T12:38:03.000Z</time><ele>537.2</ele></trkpt><trkpt lat="63.806025" lon="-19.277172"><time>2021-07-26T12:38:08.000Z</time><ele>536.8</ele></trkpt><trkpt lat="63.806022" lon="-19.277196"><time>2021-07-26T12:38:10.000Z</time><ele>536.6</ele></trkpt><trkpt lat="63.806005" lon="-19.277255"><time>2021-07-26T12:38:14.000Z</time><ele>536.4</ele></trkpt><trkpt lat="63.806001" lon="-19.277273"><time>2021-07-26T12:38:16.000Z</time><ele>536.2</ele></trkpt><trkpt lat="63.805967" lon="-19.277316"><time>2021-07-26T12:38:24.000Z</time><ele>536</ele></trkpt><trkpt lat="63.805968" lon="-19.277324"><time>2021-07-26T12:38:32.000Z</time><ele>535.8</ele></trkpt><trkpt lat="63.805968" lon="-19.277324"><time>2021-07-26T12:38:33.000Z</time><ele>535.8</ele></trkpt><trkpt lat="63.805968" lon="-19.277324"><time>2021-07-26T12:38:35.000Z</time><ele>535.8</ele></trkpt><trkpt lat="63.805965" lon="-19.277324"><time>2021-07-26T12:38:47.000Z</time><ele>535.2</ele></trkpt><trkpt lat="63.805963" lon="-19.277325"><time>2021-07-26T12:39:05.000Z</time><ele>535.4</ele></trkpt><trkpt lat="63.805963" lon="-19.277326"><time>2021-07-26T12:39:09.000Z</time><ele>535.2</ele></trkpt><trkpt lat="63.805962" lon="-19.277326"><time>2021-07-26T12:39:29.000Z</time><ele>535.6</ele></trkpt><trkpt lat="63.805962" lon="-19.277326"><time>2021-07-26T12:39:38.000Z</time><ele>536</ele></trkpt><trkpt lat="63.80595" lon="-19.277434"><time>2021-07-26T12:39:49.000Z</time><ele>536</ele></trkpt><trkpt lat="63.80594" lon="-19.277496"><time>2021-07-26T12:39:51.000Z</time><ele>536</ele></trkpt><trkpt lat="63.805933" lon="-19.277547"><time>2021-07-26T12:39:53.000Z</time><ele>536.6</ele></trkpt><trkpt lat="63.805929" lon="-19.277618"><time>2021-07-26T12:39:55.000Z</time><ele>537.4</ele></trkpt><trkpt lat="63.805917" lon="-19.277712"><time>2021-07-26T12:39:59.000Z</time><ele>537.6</ele></trkpt><trkpt lat="63.805912" lon="-19.277758"><time>2021-07-26T12:40:01.000Z</time><ele>537.6</ele></trkpt><trkpt lat="63.805881" lon="-19.277855"><time>2021-07-26T12:40:06.000Z</time><ele>537.2</ele></trkpt><trkpt lat="63.805867" lon="-19.277878"><time>2021-07-26T12:40:09.000Z</time><ele>537.4</ele></trkpt><trkpt lat="63.805853" lon="-19.277917"><time>2021-07-26T12:40:11.000Z</time><ele>537.6</ele></trkpt><trkpt lat="63.805835" lon="-19.27796"><time>2021-07-26T12:40:15.000Z</time><ele>538.6</ele></trkpt><trkpt lat="63.805798" lon="-19.278007"><time>2021-07-26T12:40:20.000Z</time><ele>538</ele></trkpt><trkpt lat="63.805791" lon="-19.278014"><time>2021-07-26T12:40:23.000Z</time><ele>538.8</ele></trkpt><trkpt lat="63.805789" lon="-19.278016"><time>2021-07-26T12:40:28.000Z</time><ele>538.8</ele></trkpt><trkpt lat="63.805788" lon="-19.278017"><time>2021-07-26T12:40:29.000Z</time><ele>538.8</ele></trkpt><trkpt lat="63.805787" lon="-19.278031"><time>2021-07-26T12:40:38.000Z</time><ele>538.8</ele></trkpt><trkpt lat="63.805776" lon="-19.278043"><time>2021-07-26T12:40:43.000Z</time><ele>539.2</ele></trkpt><trkpt lat="63.805746" lon="-19.278087"><time>2021-07-26T12:40:47.000Z</time><ele>539</ele></trkpt><trkpt lat="63.805738" lon="-19.278092"><time>2021-07-26T12:40:49.000Z</time><ele>538.8</ele></trkpt><trkpt lat="63.805735" lon="-19.278116"><time>2021-07-26T12:40:56.000Z</time><ele>538.8</ele></trkpt><trkpt lat="63.805734" lon="-19.278111"><time>2021-07-26T12:41:11.000Z</time><ele>539.6</ele></trkpt><trkpt lat="63.805731" lon="-19.278107"><time>2021-07-26T12:41:18.000Z</time><ele>539.4</ele></trkpt><trkpt lat="63.805731" lon="-19.27811"><time>2021-07-26T12:41:24.000Z</time><ele>538.8</ele></trkpt><trkpt lat="63.805725" lon="-19.278094"><time>2021-07-26T12:41:48.000Z</time><ele>539.2</ele></trkpt><trkpt lat="63.805723" lon="-19.278062"><time>2021-07-26T12:41:51.000Z</time><ele>539.2</ele></trkpt><trkpt lat="63.805722" lon="-19.278055"><time>2021-07-26T12:41:53.000Z</time><ele>539.2</ele></trkpt><trkpt lat="63.805721" lon="-19.278054"><time>2021-07-26T12:41:55.000Z</time><ele>539.2</ele></trkpt><trkpt lat="63.80572" lon="-19.278052"><time>2021-07-26T12:41:58.000Z</time><ele>539.2</ele></trkpt><trkpt lat="63.805719" lon="-19.278052"><time>2021-07-26T12:42:01.000Z</time><ele>539.2</ele></trkpt><trkpt lat="63.805717" lon="-19.278051"><time>2021-07-26T12:42:07.000Z</time><ele>539.2</ele></trkpt><trkpt lat="63.805717" lon="-19.278054"><time>2021-07-26T12:42:15.000Z</time><ele>539.2</ele></trkpt><trkpt lat="63.80572" lon="-19.278055"><time>2021-07-26T12:42:22.000Z</time><ele>539.2</ele></trkpt><trkpt lat="63.805725" lon="-19.278064"><time>2021-07-26T12:42:25.000Z</time><ele>539.2</ele></trkpt><trkpt lat="63.805726" lon="-19.278071"><time>2021-07-26T12:42:26.000Z</time><ele>539.2</ele></trkpt><trkpt lat="63.805755" lon="-19.278151"><time>2021-07-26T12:42:35.000Z</time><ele>539.2</ele></trkpt><trkpt lat="63.805771" lon="-19.278155"><time>2021-07-26T12:42:50.000Z</time><ele>539.2</ele></trkpt><trkpt lat="63.805763" lon="-19.278132"><time>2021-07-26T12:43:04.000Z</time><ele>539.2</ele></trkpt><trkpt lat="63.805757" lon="-19.278112"><time>2021-07-26T12:43:14.000Z</time><ele>539.2</ele></trkpt><trkpt lat="63.805757" lon="-19.278111"><time>2021-07-26T12:43:16.000Z</time><ele>539.2</ele></trkpt><trkpt lat="63.805751" lon="-19.27811"><time>2021-07-26T12:43:41.000Z</time><ele>539.2</ele></trkpt><trkpt lat="63.805748" lon="-19.27811"><time>2021-07-26T12:43:45.000Z</time><ele>539.2</ele></trkpt><trkpt lat="63.805741" lon="-19.278109"><time>2021-07-26T12:43:57.000Z</time><ele>539.2</ele></trkpt><trkpt lat="63.805705" lon="-19.27814"><time>2021-07-26T12:44:06.000Z</time><ele>539.2</ele></trkpt><trkpt lat="63.80568" lon="-19.278164"><time>2021-07-26T12:44:08.000Z</time><ele>539.2</ele></trkpt><trkpt lat="63.805552" lon="-19.278286"><time>2021-07-26T12:44:19.000Z</time><ele>539.2</ele></trkpt><trkpt lat="63.805492" lon="-19.278362"><time>2021-07-26T12:44:26.000Z</time><ele>538.2</ele></trkpt><trkpt lat="63.805471" lon="-19.27839"><time>2021-07-26T12:44:29.000Z</time><ele>538.2</ele></trkpt><trkpt lat="63.805419" lon="-19.278478"><time>2021-07-26T12:44:37.000Z</time><ele>538.4</ele></trkpt><trkpt lat="63.805416" lon="-19.27848"><time>2021-07-26T12:44:38.000Z</time><ele>538.4</ele></trkpt><trkpt lat="63.80541" lon="-19.278481"><time>2021-07-26T12:44:45.000Z</time><ele>538.6</ele></trkpt><trkpt lat="63.805412" lon="-19.278494"><time>2021-07-26T12:44:56.000Z</time><ele>538.6</ele></trkpt><trkpt lat="63.805378" lon="-19.278547"><time>2021-07-26T12:45:07.000Z</time><ele>537.8</ele></trkpt><trkpt lat="63.805351" lon="-19.278587"><time>2021-07-26T12:45:09.000Z</time><ele>537.6</ele></trkpt><trkpt lat="63.805295" lon="-19.278668"><time>2021-07-26T12:45:13.000Z</time><ele>537.2</ele></trkpt><trkpt lat="63.805269" lon="-19.278692"><time>2021-07-26T12:45:15.000Z</time><ele>537.2</ele></trkpt><trkpt lat="63.80523" lon="-19.278752"><time>2021-07-26T12:45:19.000Z</time><ele>537</ele></trkpt><trkpt lat="63.805153" lon="-19.278845"><time>2021-07-26T12:45:27.000Z</time><ele>537.6</ele></trkpt><trkpt lat="63.805132" lon="-19.278873"><time>2021-07-26T12:45:30.000Z</time><ele>538</ele></trkpt><trkpt lat="63.805021" lon="-19.279011"><time>2021-07-26T12:45:43.000Z</time><ele>538.4</ele></trkpt><trkpt lat="63.804979" lon="-19.279044"><time>2021-07-26T12:45:47.000Z</time><ele>538.8</ele></trkpt><trkpt lat="63.804887" lon="-19.279147"><time>2021-07-26T12:45:56.000Z</time><ele>539</ele></trkpt><trkpt lat="63.804839" lon="-19.279197"><time>2021-07-26T12:46:01.000Z</time><ele>539.8</ele></trkpt><trkpt lat="63.804785" lon="-19.27927"><time>2021-07-26T12:46:06.000Z</time><ele>539.6</ele></trkpt><trkpt lat="63.804766" lon="-19.279293"><time>2021-07-26T12:46:08.000Z</time><ele>539.4</ele></trkpt><trkpt lat="63.804722" lon="-19.279366"><time>2021-07-26T12:46:13.000Z</time><ele>539</ele></trkpt><trkpt lat="63.804714" lon="-19.279376"><time>2021-07-26T12:46:14.000Z</time><ele>538.8</ele></trkpt><trkpt lat="63.804678" lon="-19.279433"><time>2021-07-26T12:46:18.000Z</time><ele>538.8</ele></trkpt><trkpt lat="63.804669" lon="-19.279446"><time>2021-07-26T12:46:19.000Z</time><ele>538.8</ele></trkpt><trkpt lat="63.804649" lon="-19.279479"><time>2021-07-26T12:46:21.000Z</time><ele>539</ele></trkpt><trkpt lat="63.804547" lon="-19.279666"><time>2021-07-26T12:46:32.000Z</time><ele>539.2</ele></trkpt><trkpt lat="63.804443" lon="-19.279881"><time>2021-07-26T12:46:43.000Z</time><ele>539.2</ele></trkpt><trkpt lat="63.804419" lon="-19.279922"><time>2021-07-26T12:46:45.000Z</time><ele>539.2</ele></trkpt><trkpt lat="63.804313" lon="-19.280092"><time>2021-07-26T12:46:56.000Z</time><ele>538.6</ele></trkpt><trkpt lat="63.80423" lon="-19.280272"><time>2021-07-26T12:47:06.000Z</time><ele>539.8</ele></trkpt><trkpt lat="63.804215" lon="-19.280317"><time>2021-07-26T12:47:08.000Z</time><ele>539.6</ele></trkpt><trkpt lat="63.804175" lon="-19.280435"><time>2021-07-26T12:47:14.000Z</time><ele>539.8</ele></trkpt><trkpt lat="63.804165" lon="-19.280477"><time>2021-07-26T12:47:16.000Z</time><ele>540</ele></trkpt><trkpt lat="63.804142" lon="-19.28055"><time>2021-07-26T12:47:20.000Z</time><ele>540.2</ele></trkpt><trkpt lat="63.804134" lon="-19.280565"><time>2021-07-26T12:47:21.000Z</time><ele>540.2</ele></trkpt><trkpt lat="63.804127" lon="-19.280581"><time>2021-07-26T12:47:22.000Z</time><ele>540.4</ele></trkpt><trkpt lat="63.804113" lon="-19.280619"><time>2021-07-26T12:47:24.000Z</time><ele>541</ele></trkpt><trkpt lat="63.80407" lon="-19.280697"><time>2021-07-26T12:47:29.000Z</time><ele>542</ele></trkpt><trkpt lat="63.804062" lon="-19.28071"><time>2021-07-26T12:47:30.000Z</time><ele>542</ele></trkpt><trkpt lat="63.804047" lon="-19.280727"><time>2021-07-26T12:47:32.000Z</time><ele>542.2</ele></trkpt><trkpt lat="63.803956" lon="-19.280826"><time>2021-07-26T12:47:41.000Z</time><ele>543</ele></trkpt><trkpt lat="63.803931" lon="-19.28085"><time>2021-07-26T12:47:45.000Z</time><ele>543</ele></trkpt><trkpt lat="63.803929" lon="-19.280849"><time>2021-07-26T12:47:46.000Z</time><ele>543</ele></trkpt><trkpt lat="63.803927" lon="-19.280845"><time>2021-07-26T12:47:50.000Z</time><ele>542.2</ele></trkpt><trkpt lat="63.803934" lon="-19.280853"><time>2021-07-26T12:47:55.000Z</time><ele>542.6</ele></trkpt><trkpt lat="63.803916" lon="-19.280891"><time>2021-07-26T12:47:59.000Z</time><ele>543</ele></trkpt><trkpt lat="63.80389" lon="-19.280916"><time>2021-07-26T12:48:02.000Z</time><ele>543.8</ele></trkpt><trkpt lat="63.803821" lon="-19.281017"><time>2021-07-26T12:48:10.000Z</time><ele>543.8</ele></trkpt><trkpt lat="63.803785" lon="-19.281082"><time>2021-07-26T12:48:14.000Z</time><ele>544.2</ele></trkpt><trkpt lat="63.803735" lon="-19.281176"><time>2021-07-26T12:48:20.000Z</time><ele>544.6</ele></trkpt><trkpt lat="63.803652" lon="-19.281352"><time>2021-07-26T12:48:31.000Z</time><ele>544.8</ele></trkpt><trkpt lat="63.803632" lon="-19.281392"><time>2021-07-26T12:48:34.000Z</time><ele>545.2</ele></trkpt><trkpt lat="63.803579" lon="-19.281517"><time>2021-07-26T12:48:41.000Z</time><ele>546</ele></trkpt><trkpt lat="63.803537" lon="-19.281612"><time>2021-07-26T12:48:46.000Z</time><ele>546.2</ele></trkpt><trkpt lat="63.803501" lon="-19.281695"><time>2021-07-26T12:48:51.000Z</time><ele>546.4</ele></trkpt><trkpt lat="63.803462" lon="-19.281816"><time>2021-07-26T12:48:57.000Z</time><ele>546.2</ele></trkpt><trkpt lat="63.803448" lon="-19.281855"><time>2021-07-26T12:48:59.000Z</time><ele>546.2</ele></trkpt><trkpt lat="63.803435" lon="-19.281906"><time>2021-07-26T12:49:01.000Z</time><ele>546.2</ele></trkpt><trkpt lat="63.803406" lon="-19.282068"><time>2021-07-26T12:49:08.000Z</time><ele>546.2</ele></trkpt><trkpt lat="63.803405" lon="-19.282105"><time>2021-07-26T12:49:10.000Z</time><ele>546.2</ele></trkpt><trkpt lat="63.803405" lon="-19.282123"><time>2021-07-26T12:49:12.000Z</time><ele>546.4</ele></trkpt><trkpt lat="63.803404" lon="-19.282123"><time>2021-07-26T12:49:15.000Z</time><ele>546.4</ele></trkpt><trkpt lat="63.803404" lon="-19.282121"><time>2021-07-26T12:49:16.000Z</time><ele>546.2</ele></trkpt><trkpt lat="63.803407" lon="-19.282162"><time>2021-07-26T12:49:19.000Z</time><ele>546</ele></trkpt><trkpt lat="63.803403" lon="-19.282185"><time>2021-07-26T12:49:20.000Z</time><ele>546</ele></trkpt><trkpt lat="63.8034" lon="-19.282261"><time>2021-07-26T12:49:23.000Z</time><ele>546</ele></trkpt><trkpt lat="63.803401" lon="-19.282371"><time>2021-07-26T12:49:27.000Z</time><ele>545.8</ele></trkpt><trkpt lat="63.803391" lon="-19.282524"><time>2021-07-26T12:49:33.000Z</time><ele>546</ele></trkpt><trkpt lat="63.803394" lon="-19.282637"><time>2021-07-26T12:49:37.000Z</time><ele>546</ele></trkpt><trkpt lat="63.803395" lon="-19.282827"><time>2021-07-26T12:49:44.000Z</time><ele>546</ele></trkpt><trkpt lat="63.803395" lon="-19.282944"><time>2021-07-26T12:49:48.000Z</time><ele>546</ele></trkpt><trkpt lat="63.803392" lon="-19.283293"><time>2021-07-26T12:50:01.000Z</time><ele>546</ele></trkpt><trkpt lat="63.803381" lon="-19.283508"><time>2021-07-26T12:50:09.000Z</time><ele>546.2</ele></trkpt><trkpt lat="63.803373" lon="-19.283626"><time>2021-07-26T12:50:13.000Z</time><ele>546</ele></trkpt><trkpt lat="63.803366" lon="-19.28376"><time>2021-07-26T12:50:18.000Z</time><ele>545.8</ele></trkpt><trkpt lat="63.803369" lon="-19.283876"><time>2021-07-26T12:50:22.000Z</time><ele>545.8</ele></trkpt><trkpt lat="63.803361" lon="-19.284096"><time>2021-07-26T12:50:30.000Z</time><ele>545.6</ele></trkpt><trkpt lat="63.803344" lon="-19.284313"><time>2021-07-26T12:50:38.000Z</time><ele>545.6</ele></trkpt><trkpt lat="63.803328" lon="-19.2845"><time>2021-07-26T12:50:45.000Z</time><ele>545.4</ele></trkpt><trkpt lat="63.803327" lon="-19.284552"><time>2021-07-26T12:50:47.000Z</time><ele>545</ele></trkpt><trkpt lat="63.803316" lon="-19.28468"><time>2021-07-26T12:50:53.000Z</time><ele>544.4</ele></trkpt><trkpt lat="63.803314" lon="-19.284767"><time>2021-07-26T12:50:55.000Z</time><ele>544.2</ele></trkpt><trkpt lat="63.803305" lon="-19.284906"><time>2021-07-26T12:51:00.000Z</time><ele>543.2</ele></trkpt><trkpt lat="63.803305" lon="-19.285025"><time>2021-07-26T12:51:05.000Z</time><ele>542.6</ele></trkpt><trkpt lat="63.803301" lon="-19.285127"><time>2021-07-26T12:51:09.000Z</time><ele>542.2</ele></trkpt><trkpt lat="63.803302" lon="-19.285157"><time>2021-07-26T12:51:10.000Z</time><ele>542</ele></trkpt><trkpt lat="63.803306" lon="-19.285213"><time>2021-07-26T12:51:12.000Z</time><ele>541.6</ele></trkpt><trkpt lat="63.80332" lon="-19.285285"><time>2021-07-26T12:51:15.000Z</time><ele>541.4</ele></trkpt><trkpt lat="63.803317" lon="-19.285335"><time>2021-07-26T12:51:17.000Z</time><ele>541.2</ele></trkpt><trkpt lat="63.803315" lon="-19.285355"><time>2021-07-26T12:51:18.000Z</time><ele>541.2</ele></trkpt><trkpt lat="63.803314" lon="-19.285406"><time>2021-07-26T12:51:20.000Z</time><ele>541.2</ele></trkpt><trkpt lat="63.803313" lon="-19.285507"><time>2021-07-26T12:51:24.000Z</time><ele>541</ele></trkpt><trkpt lat="63.803312" lon="-19.285533"><time>2021-07-26T12:51:25.000Z</time><ele>541</ele></trkpt><trkpt lat="63.803309" lon="-19.285654"><time>2021-07-26T12:51:30.000Z</time><ele>540.2</ele></trkpt><trkpt lat="63.803307" lon="-19.285713"><time>2021-07-26T12:51:32.000Z</time><ele>539.8</ele></trkpt><trkpt lat="63.803309" lon="-19.28577"><time>2021-07-26T12:51:34.000Z</time><ele>539.6</ele></trkpt><trkpt lat="63.803294" lon="-19.286036"><time>2021-07-26T12:51:44.000Z</time><ele>539.2</ele></trkpt><trkpt lat="63.8033" lon="-19.28612"><time>2021-07-26T12:51:47.000Z</time><ele>539</ele></trkpt><trkpt lat="63.803295" lon="-19.286224"><time>2021-07-26T12:51:51.000Z</time><ele>539</ele></trkpt><trkpt lat="63.803291" lon="-19.286247"><time>2021-07-26T12:51:53.000Z</time><ele>538.8</ele></trkpt><trkpt lat="63.803291" lon="-19.286295"><time>2021-07-26T12:51:54.000Z</time><ele>539</ele></trkpt><trkpt lat="63.803286" lon="-19.286449"><time>2021-07-26T12:52:00.000Z</time><ele>538.8</ele></trkpt><trkpt lat="63.803282" lon="-19.286506"><time>2021-07-26T12:52:02.000Z</time><ele>538.8</ele></trkpt><trkpt lat="63.803275" lon="-19.286697"><time>2021-07-26T12:52:11.000Z</time><ele>539</ele></trkpt><trkpt lat="63.803275" lon="-19.286695"><time>2021-07-26T12:52:12.000Z</time><ele>539</ele></trkpt><trkpt lat="63.803272" lon="-19.286822"><time>2021-07-26T12:52:20.000Z</time><ele>539.2</ele></trkpt><trkpt lat="63.803263" lon="-19.28697"><time>2021-07-26T12:52:27.000Z</time><ele>539.8</ele></trkpt><trkpt lat="63.803264" lon="-19.286992"><time>2021-07-26T12:52:28.000Z</time><ele>540</ele></trkpt><trkpt lat="63.803259" lon="-19.287173"><time>2021-07-26T12:52:36.000Z</time><ele>540.8</ele></trkpt><trkpt lat="63.803258" lon="-19.287189"><time>2021-07-26T12:52:37.000Z</time><ele>541</ele></trkpt><trkpt lat="63.803258" lon="-19.287215"><time>2021-07-26T12:52:38.000Z</time><ele>541</ele></trkpt><trkpt lat="63.803258" lon="-19.287242"><time>2021-07-26T12:52:39.000Z</time><ele>541</ele></trkpt><trkpt lat="63.803259" lon="-19.287259"><time>2021-07-26T12:52:40.000Z</time><ele>541</ele></trkpt><trkpt lat="63.803243" lon="-19.287445"><time>2021-07-26T12:52:49.000Z</time><ele>541.8</ele></trkpt><trkpt lat="63.803243" lon="-19.287465"><time>2021-07-26T12:52:50.000Z</time><ele>542.2</ele></trkpt><trkpt lat="63.803241" lon="-19.287511"><time>2021-07-26T12:52:52.000Z</time><ele>542.4</ele></trkpt><trkpt lat="63.803233" lon="-19.287608"><time>2021-07-26T12:52:56.000Z</time><ele>542.4</ele></trkpt><trkpt lat="63.803211" lon="-19.28784"><time>2021-07-26T12:53:06.000Z</time><ele>542.8</ele></trkpt><trkpt lat="63.803194" lon="-19.288036"><time>2021-07-26T12:53:14.000Z</time><ele>543</ele></trkpt><trkpt lat="63.803195" lon="-19.288256"><time>2021-07-26T12:53:23.000Z</time><ele>543.2</ele></trkpt><trkpt lat="63.803189" lon="-19.288322"><time>2021-07-26T12:53:26.000Z</time><ele>543.2</ele></trkpt><trkpt lat="63.803198" lon="-19.288486"><time>2021-07-26T12:53:32.000Z</time><ele>543.6</ele></trkpt><trkpt lat="63.803199" lon="-19.288534"><time>2021-07-26T12:53:34.000Z</time><ele>543.6</ele></trkpt><trkpt lat="63.803203" lon="-19.288697"><time>2021-07-26T12:53:40.000Z</time><ele>543.8</ele></trkpt><trkpt lat="63.803207" lon="-19.288784"><time>2021-07-26T12:53:43.000Z</time><ele>544.2</ele></trkpt><trkpt lat="63.803209" lon="-19.288812"><time>2021-07-26T12:53:44.000Z</time><ele>544.2</ele></trkpt><trkpt lat="63.803209" lon="-19.288838"><time>2021-07-26T12:53:45.000Z</time><ele>544.2</ele></trkpt><trkpt lat="63.803219" lon="-19.289126"><time>2021-07-26T12:53:56.000Z</time><ele>544.6</ele></trkpt><trkpt lat="63.803218" lon="-19.289402"><time>2021-07-26T12:54:07.000Z</time><ele>545.2</ele></trkpt><trkpt lat="63.803219" lon="-19.289426"><time>2021-07-26T12:54:08.000Z</time><ele>545.2</ele></trkpt><trkpt lat="63.803217" lon="-19.289474"><time>2021-07-26T12:54:10.000Z</time><ele>545.2</ele></trkpt><trkpt lat="63.803198" lon="-19.289684"><time>2021-07-26T12:54:19.000Z</time><ele>546</ele></trkpt><trkpt lat="63.803191" lon="-19.289803"><time>2021-07-26T12:54:24.000Z</time><ele>546.4</ele></trkpt><trkpt lat="63.803189" lon="-19.289843"><time>2021-07-26T12:54:26.000Z</time><ele>546.8</ele></trkpt><trkpt lat="63.803182" lon="-19.289922"><time>2021-07-26T12:54:30.000Z</time><ele>547</ele></trkpt><trkpt lat="63.80318" lon="-19.289943"><time>2021-07-26T12:54:31.000Z</time><ele>547</ele></trkpt><trkpt lat="63.803145" lon="-19.290072"><time>2021-07-26T12:54:38.000Z</time><ele>547.2</ele></trkpt><trkpt lat="63.803138" lon="-19.290088"><time>2021-07-26T12:54:39.000Z</time><ele>547.4</ele></trkpt><trkpt lat="63.803127" lon="-19.290128"><time>2021-07-26T12:54:41.000Z</time><ele>547.6</ele></trkpt><trkpt lat="63.803105" lon="-19.290221"><time>2021-07-26T12:54:46.000Z</time><ele>548</ele></trkpt><trkpt lat="63.803087" lon="-19.290271"><time>2021-07-26T12:54:49.000Z</time><ele>548.6</ele></trkpt><trkpt lat="63.803074" lon="-19.290295"><time>2021-07-26T12:54:51.000Z</time><ele>548.6</ele></trkpt><trkpt lat="63.803028" lon="-19.290343"><time>2021-07-26T12:54:57.000Z</time><ele>549.4</ele></trkpt><trkpt lat="63.80302" lon="-19.290348"><time>2021-07-26T12:54:58.000Z</time><ele>549.6</ele></trkpt><trkpt lat="63.803012" lon="-19.290352"><time>2021-07-26T12:54:59.000Z</time><ele>549.6</ele></trkpt><trkpt lat="63.802996" lon="-19.290377"><time>2021-07-26T12:55:02.000Z</time><ele>550</ele></trkpt><trkpt lat="63.802978" lon="-19.290407"><time>2021-07-26T12:55:05.000Z</time><ele>550.6</ele></trkpt><trkpt lat="63.80297" lon="-19.290418"><time>2021-07-26T12:55:06.000Z</time><ele>550.6</ele></trkpt><trkpt lat="63.802908" lon="-19.290491"><time>2021-07-26T12:55:16.000Z</time><ele>551.4</ele></trkpt><trkpt lat="63.802906" lon="-19.290497"><time>2021-07-26T12:55:23.000Z</time><ele>551.4</ele></trkpt><trkpt lat="63.802905" lon="-19.290497"><time>2021-07-26T12:55:26.000Z</time><ele>551.4</ele></trkpt><trkpt lat="63.802905" lon="-19.290489"><time>2021-07-26T12:55:43.000Z</time><ele>550.2</ele></trkpt><trkpt lat="63.802905" lon="-19.290488"><time>2021-07-26T12:55:44.000Z</time><ele>551</ele></trkpt><trkpt lat="63.802905" lon="-19.290487"><time>2021-07-26T12:55:45.000Z</time><ele>551.8</ele></trkpt><trkpt lat="63.802905" lon="-19.290488"><time>2021-07-26T12:55:48.000Z</time><ele>553</ele></trkpt><trkpt lat="63.802862" lon="-19.290581"><time>2021-07-26T12:55:53.000Z</time><ele>553.6</ele></trkpt><trkpt lat="63.802794" lon="-19.290762"><time>2021-07-26T12:56:01.000Z</time><ele>553.6</ele></trkpt><trkpt lat="63.802778" lon="-19.290835"><time>2021-07-26T12:56:05.000Z</time><ele>554</ele></trkpt><trkpt lat="63.802765" lon="-19.2909"><time>2021-07-26T12:56:08.000Z</time><ele>554.4</ele></trkpt><trkpt lat="63.802733" lon="-19.291016"><time>2021-07-26T12:56:14.000Z</time><ele>554.6</ele></trkpt><trkpt lat="63.802722" lon="-19.291054"><time>2021-07-26T12:56:16.000Z</time><ele>554.6</ele></trkpt><trkpt lat="63.802682" lon="-19.291108"><time>2021-07-26T12:56:24.000Z</time><ele>554</ele></trkpt><trkpt lat="63.802681" lon="-19.291107"><time>2021-07-26T12:56:25.000Z</time><ele>553.8</ele></trkpt><trkpt lat="63.802688" lon="-19.291099"><time>2021-07-26T12:56:29.000Z</time><ele>553.8</ele></trkpt><trkpt lat="63.802686" lon="-19.291102"><time>2021-07-26T12:56:32.000Z</time><ele>553.6</ele></trkpt><trkpt lat="63.802686" lon="-19.291102"><time>2021-07-26T12:56:33.000Z</time><ele>553.4</ele></trkpt><trkpt lat="63.802686" lon="-19.291102"><time>2021-07-26T12:56:36.000Z</time><ele>553</ele></trkpt><trkpt lat="63.802685" lon="-19.291104"><time>2021-07-26T12:56:44.000Z</time><ele>554</ele></trkpt><trkpt lat="63.802682" lon="-19.291104"><time>2021-07-26T12:56:50.000Z</time><ele>555.2</ele></trkpt><trkpt lat="63.802678" lon="-19.291099"><time>2021-07-26T12:56:57.000Z</time><ele>554.8</ele></trkpt><trkpt lat="63.802663" lon="-19.291083"><time>2021-07-26T12:57:01.000Z</time><ele>554</ele></trkpt><trkpt lat="63.802664" lon="-19.291079"><time>2021-07-26T12:57:15.000Z</time><ele>554.6</ele></trkpt><trkpt lat="63.802682" lon="-19.291079"><time>2021-07-26T12:57:28.000Z</time><ele>554.6</ele></trkpt><trkpt lat="63.802683" lon="-19.291079"><time>2021-07-26T12:57:35.000Z</time><ele>554.2</ele></trkpt><trkpt lat="63.802685" lon="-19.291081"><time>2021-07-26T12:57:46.000Z</time><ele>554</ele></trkpt><trkpt lat="63.802686" lon="-19.291112"><time>2021-07-26T12:57:53.000Z</time><ele>553.2</ele></trkpt><trkpt lat="63.802682" lon="-19.291132"><time>2021-07-26T12:58:04.000Z</time><ele>555.2</ele></trkpt><trkpt lat="63.802659" lon="-19.291161"><time>2021-07-26T12:58:06.000Z</time><ele>555.4</ele></trkpt><trkpt lat="63.802636" lon="-19.291199"><time>2021-07-26T12:58:08.000Z</time><ele>555.4</ele></trkpt><trkpt lat="63.802544" lon="-19.291383"><time>2021-07-26T12:58:19.000Z</time><ele>555</ele></trkpt><trkpt lat="63.802534" lon="-19.291395"><time>2021-07-26T12:58:20.000Z</time><ele>555.2</ele></trkpt><trkpt lat="63.802491" lon="-19.291492"><time>2021-07-26T12:58:27.000Z</time><ele>555.4</ele></trkpt><trkpt lat="63.802414" lon="-19.29163"><time>2021-07-26T12:58:36.000Z</time><ele>555.2</ele></trkpt><trkpt lat="63.802325" lon="-19.29179"><time>2021-07-26T12:58:46.000Z</time><ele>555.4</ele></trkpt><trkpt lat="63.802252" lon="-19.291918"><time>2021-07-26T12:58:54.000Z</time><ele>556.2</ele></trkpt><trkpt lat="63.802215" lon="-19.291978"><time>2021-07-26T12:58:58.000Z</time><ele>555.6</ele></trkpt><trkpt lat="63.802198" lon="-19.292011"><time>2021-07-26T12:59:00.000Z</time><ele>555.8</ele></trkpt><trkpt lat="63.802178" lon="-19.292041"><time>2021-07-26T12:59:02.000Z</time><ele>556</ele></trkpt><trkpt lat="63.802118" lon="-19.292155"><time>2021-07-26T12:59:09.000Z</time><ele>556</ele></trkpt><trkpt lat="63.802033" lon="-19.292325"><time>2021-07-26T12:59:19.000Z</time><ele>555.6</ele></trkpt><trkpt lat="63.801946" lon="-19.292495"><time>2021-07-26T12:59:29.000Z</time><ele>555.8</ele></trkpt><trkpt lat="63.80191" lon="-19.292558"><time>2021-07-26T12:59:33.000Z</time><ele>555.6</ele></trkpt><trkpt lat="63.801882" lon="-19.29262"><time>2021-07-26T12:59:36.000Z</time><ele>555.6</ele></trkpt><trkpt lat="63.801864" lon="-19.29265"><time>2021-07-26T12:59:38.000Z</time><ele>555.6</ele></trkpt><trkpt lat="63.801831" lon="-19.292708"><time>2021-07-26T12:59:42.000Z</time><ele>555.6</ele></trkpt><trkpt lat="63.801724" lon="-19.292903"><time>2021-07-26T12:59:53.000Z</time><ele>555.6</ele></trkpt><trkpt lat="63.801657" lon="-19.29302"><time>2021-07-26T13:00:00.000Z</time><ele>555.8</ele></trkpt><trkpt lat="63.801634" lon="-19.29306"><time>2021-07-26T13:00:03.000Z</time><ele>555.4</ele></trkpt><trkpt lat="63.80155" lon="-19.29322"><time>2021-07-26T13:00:12.000Z</time><ele>555</ele></trkpt><trkpt lat="63.801491" lon="-19.293356"><time>2021-07-26T13:00:20.000Z</time><ele>555</ele></trkpt><trkpt lat="63.801461" lon="-19.29342"><time>2021-07-26T13:00:23.000Z</time><ele>555</ele></trkpt><trkpt lat="63.801424" lon="-19.293489"><time>2021-07-26T13:00:27.000Z</time><ele>555.2</ele></trkpt><trkpt lat="63.801375" lon="-19.293575"><time>2021-07-26T13:00:32.000Z</time><ele>555.2</ele></trkpt><trkpt lat="63.801347" lon="-19.293639"><time>2021-07-26T13:00:35.000Z</time><ele>555.2</ele></trkpt><trkpt lat="63.801317" lon="-19.293677"><time>2021-07-26T13:00:38.000Z</time><ele>555.2</ele></trkpt><trkpt lat="63.801279" lon="-19.293755"><time>2021-07-26T13:00:42.000Z</time><ele>555</ele></trkpt><trkpt lat="63.801216" lon="-19.293881"><time>2021-07-26T13:00:49.000Z</time><ele>555.2</ele></trkpt><trkpt lat="63.80121" lon="-19.293896"><time>2021-07-26T13:00:50.000Z</time><ele>555.2</ele></trkpt><trkpt lat="63.801148" lon="-19.294013"><time>2021-07-26T13:00:57.000Z</time><ele>555.2</ele></trkpt><trkpt lat="63.801085" lon="-19.294135"><time>2021-07-26T13:01:04.000Z</time><ele>554.8</ele></trkpt><trkpt lat="63.801041" lon="-19.294262"><time>2021-07-26T13:01:10.000Z</time><ele>554.8</ele></trkpt><trkpt lat="63.80103" lon="-19.294281"><time>2021-07-26T13:01:11.000Z</time><ele>554.8</ele></trkpt><trkpt lat="63.800958" lon="-19.294426"><time>2021-07-26T13:01:19.000Z</time><ele>554.6</ele></trkpt><trkpt lat="63.800883" lon="-19.294557"><time>2021-07-26T13:01:27.000Z</time><ele>554.4</ele></trkpt><trkpt lat="63.800875" lon="-19.294571"><time>2021-07-26T13:01:28.000Z</time><ele>554.2</ele></trkpt><trkpt lat="63.800866" lon="-19.294583"><time>2021-07-26T13:01:29.000Z</time><ele>554.2</ele></trkpt><trkpt lat="63.80079" lon="-19.294733"><time>2021-07-26T13:01:38.000Z</time><ele>554.6</ele></trkpt><trkpt lat="63.800723" lon="-19.294898"><time>2021-07-26T13:01:47.000Z</time><ele>554.8</ele></trkpt><trkpt lat="63.800704" lon="-19.29493"><time>2021-07-26T13:01:49.000Z</time><ele>554.8</ele></trkpt><trkpt lat="63.800623" lon="-19.295096"><time>2021-07-26T13:01:59.000Z</time><ele>554.6</ele></trkpt><trkpt lat="63.800581" lon="-19.295183"><time>2021-07-26T13:02:04.000Z</time><ele>555.2</ele></trkpt><trkpt lat="63.800545" lon="-19.295264"><time>2021-07-26T13:02:09.000Z</time><ele>555.2</ele></trkpt><trkpt lat="63.800507" lon="-19.295343"><time>2021-07-26T13:02:16.000Z</time><ele>554.8</ele></trkpt><trkpt lat="63.800514" lon="-19.295359"><time>2021-07-26T13:02:19.000Z</time><ele>554.6</ele></trkpt><trkpt lat="63.800514" lon="-19.295362"><time>2021-07-26T13:02:20.000Z</time><ele>554.4</ele></trkpt><trkpt lat="63.800518" lon="-19.295351"><time>2021-07-26T13:02:24.000Z</time><ele>554.6</ele></trkpt><trkpt lat="63.800518" lon="-19.295353"><time>2021-07-26T13:02:27.000Z</time><ele>554</ele></trkpt><trkpt lat="63.800517" lon="-19.295351"><time>2021-07-26T13:02:40.000Z</time><ele>554</ele></trkpt><trkpt lat="63.800515" lon="-19.295348"><time>2021-07-26T13:02:47.000Z</time><ele>554</ele></trkpt><trkpt lat="63.800516" lon="-19.295345"><time>2021-07-26T13:02:57.000Z</time><ele>554</ele></trkpt><trkpt lat="63.800516" lon="-19.295344"><time>2021-07-26T13:03:01.000Z</time><ele>554</ele></trkpt><trkpt lat="63.800519" lon="-19.295337"><time>2021-07-26T13:03:13.000Z</time><ele>554</ele></trkpt><trkpt lat="63.80052" lon="-19.29532"><time>2021-07-26T13:03:27.000Z</time><ele>554</ele></trkpt><trkpt lat="63.800521" lon="-19.295319"><time>2021-07-26T13:03:39.000Z</time><ele>554</ele></trkpt><trkpt lat="63.80048" lon="-19.295392"><time>2021-07-26T13:03:45.000Z</time><ele>554</ele></trkpt><trkpt lat="63.800401" lon="-19.295541"><time>2021-07-26T13:03:51.000Z</time><ele>554.6</ele></trkpt><trkpt lat="63.800383" lon="-19.29558"><time>2021-07-26T13:03:53.000Z</time><ele>554.8</ele></trkpt><trkpt lat="63.800358" lon="-19.295632"><time>2021-07-26T13:03:56.000Z</time><ele>554.8</ele></trkpt><trkpt lat="63.800329" lon="-19.295695"><time>2021-07-26T13:03:59.000Z</time><ele>554.6</ele></trkpt><trkpt lat="63.800306" lon="-19.295747"><time>2021-07-26T13:04:02.000Z</time><ele>554.4</ele></trkpt><trkpt lat="63.800212" lon="-19.295965"><time>2021-07-26T13:04:13.000Z</time><ele>554.4</ele></trkpt><trkpt lat="63.800136" lon="-19.296133"><time>2021-07-26T13:04:22.000Z</time><ele>554.6</ele></trkpt><trkpt lat="63.800096" lon="-19.296221"><time>2021-07-26T13:04:27.000Z</time><ele>555.2</ele></trkpt><trkpt lat="63.800077" lon="-19.296296"><time>2021-07-26T13:04:30.000Z</time><ele>555.4</ele></trkpt><trkpt lat="63.800034" lon="-19.29641"><time>2021-07-26T13:04:36.000Z</time><ele>555.2</ele></trkpt><trkpt lat="63.800003" lon="-19.296495"><time>2021-07-26T13:04:40.000Z</time><ele>554.8</ele></trkpt><trkpt lat="63.799918" lon="-19.296636"><time>2021-07-26T13:04:49.000Z</time><ele>554.8</ele></trkpt><trkpt lat="63.799877" lon="-19.296755"><time>2021-07-26T13:04:56.000Z</time><ele>554.8</ele></trkpt><trkpt lat="63.799799" lon="-19.296995"><time>2021-07-26T13:05:08.000Z</time><ele>554.6</ele></trkpt><trkpt lat="63.799763" lon="-19.297086"><time>2021-07-26T13:05:12.000Z</time><ele>554.2</ele></trkpt><trkpt lat="63.799726" lon="-19.297168"><time>2021-07-26T13:05:16.000Z</time><ele>553.8</ele></trkpt><trkpt lat="63.799681" lon="-19.297288"><time>2021-07-26T13:05:22.000Z</time><ele>553.8</ele></trkpt><trkpt lat="63.799662" lon="-19.297335"><time>2021-07-26T13:05:24.000Z</time><ele>553.8</ele></trkpt><trkpt lat="63.799652" lon="-19.297375"><time>2021-07-26T13:05:26.000Z</time><ele>553.4</ele></trkpt><trkpt lat="63.79964" lon="-19.297413"><time>2021-07-26T13:05:28.000Z</time><ele>553</ele></trkpt><trkpt lat="63.799619" lon="-19.297462"><time>2021-07-26T13:05:30.000Z</time><ele>552.8</ele></trkpt><trkpt lat="63.79959" lon="-19.297515"><time>2021-07-26T13:05:33.000Z</time><ele>552.6</ele></trkpt><trkpt lat="63.799565" lon="-19.297616"><time>2021-07-26T13:05:37.000Z</time><ele>552.6</ele></trkpt><trkpt lat="63.799507" lon="-19.297812"><time>2021-07-26T13:05:45.000Z</time><ele>552.4</ele></trkpt><trkpt lat="63.799494" lon="-19.297846"><time>2021-07-26T13:05:47.000Z</time><ele>551.8</ele></trkpt><trkpt lat="63.799476" lon="-19.297913"><time>2021-07-26T13:05:50.000Z</time><ele>551.6</ele></trkpt><trkpt lat="63.799461" lon="-19.297964"><time>2021-07-26T13:05:53.000Z</time><ele>551.6</ele></trkpt><trkpt lat="63.799407" lon="-19.298127"><time>2021-07-26T13:06:01.000Z</time><ele>551.4</ele></trkpt><trkpt lat="63.799396" lon="-19.298146"><time>2021-07-26T13:06:02.000Z</time><ele>551.4</ele></trkpt><trkpt lat="63.799347" lon="-19.298269"><time>2021-07-26T13:06:08.000Z</time><ele>551.6</ele></trkpt><trkpt lat="63.799314" lon="-19.298383"><time>2021-07-26T13:06:13.000Z</time><ele>551.2</ele></trkpt><trkpt lat="63.799291" lon="-19.298426"><time>2021-07-26T13:06:16.000Z</time><ele>551.2</ele></trkpt><trkpt lat="63.799252" lon="-19.298531"><time>2021-07-26T13:06:21.000Z</time><ele>550.8</ele></trkpt><trkpt lat="63.79923" lon="-19.298571"><time>2021-07-26T13:06:23.000Z</time><ele>550.8</ele></trkpt><trkpt lat="63.799161" lon="-19.298729"><time>2021-07-26T13:06:31.000Z</time><ele>551.4</ele></trkpt><trkpt lat="63.799139" lon="-19.298775"><time>2021-07-26T13:06:34.000Z</time><ele>551.8</ele></trkpt><trkpt lat="63.799111" lon="-19.298833"><time>2021-07-26T13:06:37.000Z</time><ele>551.4</ele></trkpt><trkpt lat="63.799044" lon="-19.298995"><time>2021-07-26T13:06:45.000Z</time><ele>550.8</ele></trkpt><trkpt lat="63.799037" lon="-19.299009"><time>2021-07-26T13:06:46.000Z</time><ele>550.8</ele></trkpt><trkpt lat="63.79898" lon="-19.299112"><time>2021-07-26T13:06:53.000Z</time><ele>550.8</ele></trkpt><trkpt lat="63.798973" lon="-19.299125"><time>2021-07-26T13:06:54.000Z</time><ele>550.8</ele></trkpt><trkpt lat="63.798885" lon="-19.299317"><time>2021-07-26T13:07:05.000Z</time><ele>550.6</ele></trkpt><trkpt lat="63.798797" lon="-19.299489"><time>2021-07-26T13:07:14.000Z</time><ele>550.6</ele></trkpt><trkpt lat="63.798724" lon="-19.299672"><time>2021-07-26T13:07:24.000Z</time><ele>550.8</ele></trkpt><trkpt lat="63.798687" lon="-19.299796"><time>2021-07-26T13:07:30.000Z</time><ele>551</ele></trkpt><trkpt lat="63.798621" lon="-19.299989"><time>2021-07-26T13:07:39.000Z</time><ele>551.8</ele></trkpt><trkpt lat="63.798616" lon="-19.300003"><time>2021-07-26T13:07:40.000Z</time><ele>551.8</ele></trkpt><trkpt lat="63.798543" lon="-19.300184"><time>2021-07-26T13:07:49.000Z</time><ele>551.2</ele></trkpt><trkpt lat="63.798527" lon="-19.300215"><time>2021-07-26T13:07:51.000Z</time><ele>551</ele></trkpt><trkpt lat="63.798463" lon="-19.300359"><time>2021-07-26T13:07:59.000Z</time><ele>550.8</ele></trkpt><trkpt lat="63.798414" lon="-19.300442"><time>2021-07-26T13:08:04.000Z</time><ele>551.2</ele></trkpt><trkpt lat="63.798386" lon="-19.300499"><time>2021-07-26T13:08:08.000Z</time><ele>550.8</ele></trkpt><trkpt lat="63.798311" lon="-19.300701"><time>2021-07-26T13:08:18.000Z</time><ele>550.8</ele></trkpt><trkpt lat="63.798291" lon="-19.300697"><time>2021-07-26T13:08:21.000Z</time><ele>549.8</ele></trkpt><trkpt lat="63.798283" lon="-19.300696"><time>2021-07-26T13:08:24.000Z</time><ele>548.8</ele></trkpt><trkpt lat="63.798291" lon="-19.300693"><time>2021-07-26T13:08:28.000Z</time><ele>548.4</ele></trkpt><trkpt lat="63.798294" lon="-19.300682"><time>2021-07-26T13:08:30.000Z</time><ele>548.4</ele></trkpt><trkpt lat="63.798296" lon="-19.300684"><time>2021-07-26T13:08:33.000Z</time><ele>549.2</ele></trkpt><trkpt lat="63.798296" lon="-19.300689"><time>2021-07-26T13:08:38.000Z</time><ele>549.8</ele></trkpt><trkpt lat="63.798296" lon="-19.300687"><time>2021-07-26T13:08:53.000Z</time><ele>550.8</ele></trkpt><trkpt lat="63.798298" lon="-19.300686"><time>2021-07-26T13:09:02.000Z</time><ele>549.8</ele></trkpt><trkpt lat="63.798301" lon="-19.300682"><time>2021-07-26T13:09:06.000Z</time><ele>548.6</ele></trkpt><trkpt lat="63.798302" lon="-19.300672"><time>2021-07-26T13:09:21.000Z</time><ele>548.2</ele></trkpt><trkpt lat="63.7983" lon="-19.300669"><time>2021-07-26T13:09:32.000Z</time><ele>550</ele></trkpt><trkpt lat="63.798263" lon="-19.300738"><time>2021-07-26T13:09:47.000Z</time><ele>550.8</ele></trkpt><trkpt lat="63.798228" lon="-19.300807"><time>2021-07-26T13:09:50.000Z</time><ele>550.6</ele></trkpt><trkpt lat="63.798183" lon="-19.300889"><time>2021-07-26T13:09:54.000Z</time><ele>550.4</ele></trkpt><trkpt lat="63.79816" lon="-19.30093"><time>2021-07-26T13:09:57.000Z</time><ele>550</ele></trkpt><trkpt lat="63.798133" lon="-19.300982"><time>2021-07-26T13:10:00.000Z</time><ele>550</ele></trkpt><trkpt lat="63.798114" lon="-19.30101"><time>2021-07-26T13:10:02.000Z</time><ele>550.2</ele></trkpt><trkpt lat="63.798106" lon="-19.301026"><time>2021-07-26T13:10:03.000Z</time><ele>550.2</ele></trkpt><trkpt lat="63.798077" lon="-19.301073"><time>2021-07-26T13:10:06.000Z</time><ele>550.2</ele></trkpt><trkpt lat="63.798062" lon="-19.301108"><time>2021-07-26T13:10:08.000Z</time><ele>550.4</ele></trkpt><trkpt lat="63.798035" lon="-19.301171"><time>2021-07-26T13:10:11.000Z</time><ele>550.2</ele></trkpt><trkpt lat="63.797959" lon="-19.301368"><time>2021-07-26T13:10:22.000Z</time><ele>550.4</ele></trkpt><trkpt lat="63.79793" lon="-19.301461"><time>2021-07-26T13:10:27.000Z</time><ele>550.8</ele></trkpt><trkpt lat="63.797901" lon="-19.301534"><time>2021-07-26T13:10:31.000Z</time><ele>551</ele></trkpt><trkpt lat="63.797874" lon="-19.301606"><time>2021-07-26T13:10:35.000Z</time><ele>551.8</ele></trkpt><trkpt lat="63.797866" lon="-19.301624"><time>2021-07-26T13:10:36.000Z</time><ele>552</ele></trkpt><trkpt lat="63.797838" lon="-19.301706"><time>2021-07-26T13:10:40.000Z</time><ele>552.4</ele></trkpt><trkpt lat="63.797826" lon="-19.301748"><time>2021-07-26T13:10:42.000Z</time><ele>552.6</ele></trkpt><trkpt lat="63.797794" lon="-19.301838"><time>2021-07-26T13:10:46.000Z</time><ele>552.6</ele></trkpt><trkpt lat="63.797769" lon="-19.301896"><time>2021-07-26T13:10:49.000Z</time><ele>552.4</ele></trkpt><trkpt lat="63.797749" lon="-19.301946"><time>2021-07-26T13:10:52.000Z</time><ele>552.4</ele></trkpt><trkpt lat="63.797741" lon="-19.301964"><time>2021-07-26T13:10:53.000Z</time><ele>552.4</ele></trkpt><trkpt lat="63.797723" lon="-19.301997"><time>2021-07-26T13:10:55.000Z</time><ele>552.6</ele></trkpt><trkpt lat="63.797679" lon="-19.30208"><time>2021-07-26T13:11:00.000Z</time><ele>553</ele></trkpt><trkpt lat="63.797644" lon="-19.302161"><time>2021-07-26T13:11:05.000Z</time><ele>553</ele></trkpt><trkpt lat="63.797615" lon="-19.302215"><time>2021-07-26T13:11:08.000Z</time><ele>553</ele></trkpt><trkpt lat="63.797549" lon="-19.302399"><time>2021-07-26T13:11:18.000Z</time><ele>553.4</ele></trkpt><trkpt lat="63.797446" lon="-19.302663"><time>2021-07-26T13:11:32.000Z</time><ele>554.2</ele></trkpt><trkpt lat="63.797438" lon="-19.302682"><time>2021-07-26T13:11:33.000Z</time><ele>554</ele></trkpt><trkpt lat="63.797416" lon="-19.302749"><time>2021-07-26T13:11:36.000Z</time><ele>554</ele></trkpt><trkpt lat="63.797364" lon="-19.302877"><time>2021-07-26T13:11:42.000Z</time><ele>553.4</ele></trkpt><trkpt lat="63.797358" lon="-19.302894"><time>2021-07-26T13:11:43.000Z</time><ele>553.4</ele></trkpt><trkpt lat="63.79732" lon="-19.303001"><time>2021-07-26T13:11:48.000Z</time><ele>553.4</ele></trkpt><trkpt lat="63.797265" lon="-19.30313"><time>2021-07-26T13:11:55.000Z</time><ele>553.4</ele></trkpt><trkpt lat="63.797165" lon="-19.303381"><time>2021-07-26T13:12:07.000Z</time><ele>554.4</ele></trkpt><trkpt lat="63.797128" lon="-19.303455"><time>2021-07-26T13:12:11.000Z</time><ele>554.2</ele></trkpt><trkpt lat="63.79712" lon="-19.303478"><time>2021-07-26T13:12:12.000Z</time><ele>554.4</ele></trkpt><trkpt lat="63.797077" lon="-19.303608"><time>2021-07-26T13:12:18.000Z</time><ele>554.6</ele></trkpt><trkpt lat="63.797059" lon="-19.303642"><time>2021-07-26T13:12:20.000Z</time><ele>554.6</ele></trkpt><trkpt lat="63.796945" lon="-19.303873"><time>2021-07-26T13:12:34.000Z</time><ele>554.8</ele></trkpt><trkpt lat="63.796872" lon="-19.304017"><time>2021-07-26T13:12:42.000Z</time><ele>555.2</ele></trkpt><trkpt lat="63.796844" lon="-19.304087"><time>2021-07-26T13:12:46.000Z</time><ele>555</ele></trkpt><trkpt lat="63.796714" lon="-19.304361"><time>2021-07-26T13:13:01.000Z</time><ele>555.6</ele></trkpt><trkpt lat="63.796691" lon="-19.304408"><time>2021-07-26T13:13:04.000Z</time><ele>555.4</ele></trkpt><trkpt lat="63.796624" lon="-19.304574"><time>2021-07-26T13:13:13.000Z</time><ele>555.2</ele></trkpt><trkpt lat="63.796619" lon="-19.304575"><time>2021-07-26T13:13:15.000Z</time><ele>555.2</ele></trkpt><trkpt lat="63.796625" lon="-19.304585"><time>2021-07-26T13:13:18.000Z</time><ele>555.2</ele></trkpt><trkpt lat="63.796589" lon="-19.304682"><time>2021-07-26T13:13:25.000Z</time><ele>555.8</ele></trkpt><trkpt lat="63.796554" lon="-19.304766"><time>2021-07-26T13:13:31.000Z</time><ele>556.2</ele></trkpt><trkpt lat="63.796519" lon="-19.304847"><time>2021-07-26T13:13:38.000Z</time><ele>556</ele></trkpt><trkpt lat="63.796465" lon="-19.304952"><time>2021-07-26T13:13:45.000Z</time><ele>556.2</ele></trkpt><trkpt lat="63.7964" lon="-19.305116"><time>2021-07-26T13:13:53.000Z</time><ele>556.4</ele></trkpt><trkpt lat="63.796371" lon="-19.305177"><time>2021-07-26T13:13:57.000Z</time><ele>557.2</ele></trkpt><trkpt lat="63.796361" lon="-19.305196"><time>2021-07-26T13:13:58.000Z</time><ele>557.2</ele></trkpt><trkpt lat="63.796324" lon="-19.30528"><time>2021-07-26T13:14:03.000Z</time><ele>557.2</ele></trkpt><trkpt lat="63.796308" lon="-19.305307"><time>2021-07-26T13:14:05.000Z</time><ele>557.2</ele></trkpt><trkpt lat="63.796233" lon="-19.305425"><time>2021-07-26T13:14:12.000Z</time><ele>557</ele></trkpt><trkpt lat="63.796215" lon="-19.305478"><time>2021-07-26T13:14:15.000Z</time><ele>557</ele></trkpt><trkpt lat="63.796133" lon="-19.305656"><time>2021-07-26T13:14:25.000Z</time><ele>557.6</ele></trkpt><trkpt lat="63.796099" lon="-19.305733"><time>2021-07-26T13:14:29.000Z</time><ele>558.2</ele></trkpt><trkpt lat="63.796065" lon="-19.305802"><time>2021-07-26T13:14:33.000Z</time><ele>558</ele></trkpt><trkpt lat="63.795992" lon="-19.305951"><time>2021-07-26T13:14:42.000Z</time><ele>557.8</ele></trkpt><trkpt lat="63.795949" lon="-19.306016"><time>2021-07-26T13:14:46.000Z</time><ele>558.2</ele></trkpt><trkpt lat="63.79589" lon="-19.306141"><time>2021-07-26T13:14:53.000Z</time><ele>558.6</ele></trkpt><trkpt lat="63.795792" lon="-19.30631"><time>2021-07-26T13:15:03.000Z</time><ele>558.6</ele></trkpt><trkpt lat="63.795736" lon="-19.306401"><time>2021-07-26T13:15:09.000Z</time><ele>558.8</ele></trkpt><trkpt lat="63.795721" lon="-19.30643"><time>2021-07-26T13:15:11.000Z</time><ele>559.2</ele></trkpt><trkpt lat="63.795672" lon="-19.306513"><time>2021-07-26T13:15:16.000Z</time><ele>559</ele></trkpt><trkpt lat="63.795632" lon="-19.306574"><time>2021-07-26T13:15:20.000Z</time><ele>559.2</ele></trkpt><trkpt lat="63.795607" lon="-19.306616"><time>2021-07-26T13:15:23.000Z</time><ele>559.4</ele></trkpt><trkpt lat="63.795556" lon="-19.306713"><time>2021-07-26T13:15:29.000Z</time><ele>559.6</ele></trkpt><trkpt lat="63.795511" lon="-19.306788"><time>2021-07-26T13:15:34.000Z</time><ele>559.6</ele></trkpt><trkpt lat="63.795471" lon="-19.306864"><time>2021-07-26T13:15:39.000Z</time><ele>560.2</ele></trkpt><trkpt lat="63.795383" lon="-19.30702"><time>2021-07-26T13:15:48.000Z</time><ele>560.2</ele></trkpt><trkpt lat="63.795311" lon="-19.307135"><time>2021-07-26T13:15:56.000Z</time><ele>561.2</ele></trkpt><trkpt lat="63.795301" lon="-19.307147"><time>2021-07-26T13:15:57.000Z</time><ele>561.4</ele></trkpt><trkpt lat="63.795257" lon="-19.307195"><time>2021-07-26T13:16:04.000Z</time><ele>560.2</ele></trkpt><trkpt lat="63.795261" lon="-19.307219"><time>2021-07-26T13:16:08.000Z</time><ele>559.2</ele></trkpt><trkpt lat="63.795259" lon="-19.307216"><time>2021-07-26T13:16:10.000Z</time><ele>558.2</ele></trkpt><trkpt lat="63.795255" lon="-19.307201"><time>2021-07-26T13:16:12.000Z</time><ele>557.8</ele></trkpt><trkpt lat="63.795254" lon="-19.307196"><time>2021-07-26T13:16:14.000Z</time><ele>557.8</ele></trkpt><trkpt lat="63.795254" lon="-19.30721"><time>2021-07-26T13:16:25.000Z</time><ele>558.4</ele></trkpt><trkpt lat="63.795254" lon="-19.307211"><time>2021-07-26T13:16:27.000Z</time><ele>558.4</ele></trkpt><trkpt lat="63.795254" lon="-19.307217"><time>2021-07-26T13:16:30.000Z</time><ele>558.2</ele></trkpt><trkpt lat="63.795253" lon="-19.307221"><time>2021-07-26T13:16:36.000Z</time><ele>558.8</ele></trkpt><trkpt lat="63.795253" lon="-19.307223"><time>2021-07-26T13:16:44.000Z</time><ele>559</ele></trkpt><trkpt lat="63.795254" lon="-19.307223"><time>2021-07-26T13:16:46.000Z</time><ele>559</ele></trkpt><trkpt lat="63.795254" lon="-19.307223"><time>2021-07-26T13:16:48.000Z</time><ele>559</ele></trkpt><trkpt lat="63.795251" lon="-19.307227"><time>2021-07-26T13:16:50.000Z</time><ele>559.2</ele></trkpt><trkpt lat="63.795205" lon="-19.307291"><time>2021-07-26T13:16:54.000Z</time><ele>559.4</ele></trkpt><trkpt lat="63.795161" lon="-19.307353"><time>2021-07-26T13:16:58.000Z</time><ele>559.4</ele></trkpt><trkpt lat="63.79515" lon="-19.307373"><time>2021-07-26T13:16:59.000Z</time><ele>559.4</ele></trkpt><trkpt lat="63.795112" lon="-19.307433"><time>2021-07-26T13:17:03.000Z</time><ele>559</ele></trkpt><trkpt lat="63.795078" lon="-19.307485"><time>2021-07-26T13:17:07.000Z</time><ele>559.4</ele></trkpt><trkpt lat="63.794993" lon="-19.307608"><time>2021-07-26T13:17:16.000Z</time><ele>559.2</ele></trkpt><trkpt lat="63.794906" lon="-19.307759"><time>2021-07-26T13:17:26.000Z</time><ele>559.6</ele></trkpt><trkpt lat="63.794858" lon="-19.307854"><time>2021-07-26T13:17:32.000Z</time><ele>559.6</ele></trkpt><trkpt lat="63.794807" lon="-19.307929"><time>2021-07-26T13:17:37.000Z</time><ele>560</ele></trkpt><trkpt lat="63.794752" lon="-19.307991"><time>2021-07-26T13:17:43.000Z</time><ele>560.2</ele></trkpt><trkpt lat="63.794745" lon="-19.308009"><time>2021-07-26T13:17:44.000Z</time><ele>560.2</ele></trkpt><trkpt lat="63.794684" lon="-19.308094"><time>2021-07-26T13:17:50.000Z</time><ele>561.2</ele></trkpt><trkpt lat="63.79461" lon="-19.30819"><time>2021-07-26T13:17:57.000Z</time><ele>561</ele></trkpt><trkpt lat="63.794557" lon="-19.308254"><time>2021-07-26T13:18:02.000Z</time><ele>560.8</ele></trkpt><trkpt lat="63.794535" lon="-19.308266"><time>2021-07-26T13:18:06.000Z</time><ele>560.2</ele></trkpt><trkpt lat="63.79454" lon="-19.308266"><time>2021-07-26T13:18:08.000Z</time><ele>560</ele></trkpt><trkpt lat="63.794542" lon="-19.308261"><time>2021-07-26T13:18:12.000Z</time><ele>559.8</ele></trkpt><trkpt lat="63.794521" lon="-19.308294"><time>2021-07-26T13:18:24.000Z</time><ele>561</ele></trkpt><trkpt lat="63.794508" lon="-19.308313"><time>2021-07-26T13:18:25.000Z</time><ele>561.2</ele></trkpt><trkpt lat="63.794498" lon="-19.308327"><time>2021-07-26T13:18:26.000Z</time><ele>561.4</ele></trkpt><trkpt lat="63.794444" lon="-19.308388"><time>2021-07-26T13:18:31.000Z</time><ele>561.8</ele></trkpt><trkpt lat="63.794333" lon="-19.308523"><time>2021-07-26T13:18:41.000Z</time><ele>561.2</ele></trkpt><trkpt lat="63.794243" lon="-19.308666"><time>2021-07-26T13:18:51.000Z</time><ele>560.8</ele></trkpt><trkpt lat="63.79418" lon="-19.30876"><time>2021-07-26T13:18:57.000Z</time><ele>560.4</ele></trkpt><trkpt lat="63.794127" lon="-19.30884"><time>2021-07-26T13:19:02.000Z</time><ele>559.8</ele></trkpt><trkpt lat="63.794032" lon="-19.308985"><time>2021-07-26T13:19:11.000Z</time><ele>559.8</ele></trkpt><trkpt lat="63.793925" lon="-19.30915"><time>2021-07-26T13:19:22.000Z</time><ele>559.8</ele></trkpt><trkpt lat="63.793827" lon="-19.309297"><time>2021-07-26T13:19:32.000Z</time><ele>560.2</ele></trkpt><trkpt lat="63.793781" lon="-19.309365"><time>2021-07-26T13:19:37.000Z</time><ele>561</ele></trkpt><trkpt lat="63.793747" lon="-19.309438"><time>2021-07-26T13:19:41.000Z</time><ele>560.6</ele></trkpt><trkpt lat="63.793669" lon="-19.309589"><time>2021-07-26T13:19:50.000Z</time><ele>560.6</ele></trkpt><trkpt lat="63.793556" lon="-19.309779"><time>2021-07-26T13:20:02.000Z</time><ele>560.6</ele></trkpt><trkpt lat="63.793422" lon="-19.310082"><time>2021-07-26T13:20:18.000Z</time><ele>560.6</ele></trkpt><trkpt lat="63.793329" lon="-19.310321"><time>2021-07-26T13:20:30.000Z</time><ele>561</ele></trkpt><trkpt lat="63.793306" lon="-19.31039"><time>2021-07-26T13:20:34.000Z</time><ele>561.4</ele></trkpt><trkpt lat="63.79327" lon="-19.310484"><time>2021-07-26T13:20:39.000Z</time><ele>561.8</ele></trkpt><trkpt lat="63.793232" lon="-19.310584"><time>2021-07-26T13:20:44.000Z</time><ele>562.4</ele></trkpt><trkpt lat="63.793178" lon="-19.310681"><time>2021-07-26T13:20:50.000Z</time><ele>563.6</ele></trkpt><trkpt lat="63.793137" lon="-19.310789"><time>2021-07-26T13:20:56.000Z</time><ele>565</ele></trkpt><trkpt lat="63.793111" lon="-19.310847"><time>2021-07-26T13:20:59.000Z</time><ele>565.6</ele></trkpt><trkpt lat="63.79304" lon="-19.311003"><time>2021-07-26T13:21:08.000Z</time><ele>565</ele></trkpt><trkpt lat="63.792996" lon="-19.311129"><time>2021-07-26T13:21:17.000Z</time><ele>564.6</ele></trkpt><trkpt lat="63.792998" lon="-19.311132"><time>2021-07-26T13:21:18.000Z</time><ele>564.6</ele></trkpt><trkpt lat="63.793001" lon="-19.311129"><time>2021-07-26T13:21:20.000Z</time><ele>564.2</ele></trkpt><trkpt lat="63.792988" lon="-19.311125"><time>2021-07-26T13:21:26.000Z</time><ele>564</ele></trkpt><trkpt lat="63.792992" lon="-19.311131"><time>2021-07-26T13:21:28.000Z</time><ele>564</ele></trkpt><trkpt lat="63.792983" lon="-19.311117"><time>2021-07-26T13:21:35.000Z</time><ele>563.8</ele></trkpt><trkpt lat="63.792981" lon="-19.311106"><time>2021-07-26T13:22:01.000Z</time><ele>564</ele></trkpt><trkpt lat="63.792968" lon="-19.3111"><time>2021-07-26T13:22:10.000Z</time><ele>564.2</ele></trkpt><trkpt lat="63.792964" lon="-19.311099"><time>2021-07-26T13:22:12.000Z</time><ele>563.8</ele></trkpt><trkpt lat="63.792963" lon="-19.311099"><time>2021-07-26T13:22:17.000Z</time><ele>563.6</ele></trkpt><trkpt lat="63.792963" lon="-19.311099"><time>2021-07-26T13:22:20.000Z</time><ele>563.4</ele></trkpt><trkpt lat="63.792963" lon="-19.311099"><time>2021-07-26T13:22:24.000Z</time><ele>563.4</ele></trkpt><trkpt lat="63.792953" lon="-19.311113"><time>2021-07-26T13:22:43.000Z</time><ele>563.6</ele></trkpt><trkpt lat="63.792953" lon="-19.311113"><time>2021-07-26T13:22:45.000Z</time><ele>563.6</ele></trkpt><trkpt lat="63.792904" lon="-19.311222"><time>2021-07-26T13:22:52.000Z</time><ele>563.6</ele></trkpt><trkpt lat="63.792839" lon="-19.311359"><time>2021-07-26T13:22:57.000Z</time><ele>563.6</ele></trkpt><trkpt lat="63.792801" lon="-19.311429"><time>2021-07-26T13:23:02.000Z</time><ele>563.6</ele></trkpt><trkpt lat="63.792752" lon="-19.311549"><time>2021-07-26T13:23:09.000Z</time><ele>565</ele></trkpt><trkpt lat="63.792706" lon="-19.311651"><time>2021-07-26T13:23:15.000Z</time><ele>565.2</ele></trkpt><trkpt lat="63.792627" lon="-19.31186"><time>2021-07-26T13:23:26.000Z</time><ele>565.4</ele></trkpt><trkpt lat="63.792604" lon="-19.31192"><time>2021-07-26T13:23:29.000Z</time><ele>565.4</ele></trkpt><trkpt lat="63.792569" lon="-19.312048"><time>2021-07-26T13:23:35.000Z</time><ele>565.6</ele></trkpt><trkpt lat="63.792506" lon="-19.312223"><time>2021-07-26T13:23:44.000Z</time><ele>565.8</ele></trkpt><trkpt lat="63.792497" lon="-19.312272"><time>2021-07-26T13:23:46.000Z</time><ele>566</ele></trkpt><trkpt lat="63.792422" lon="-19.312463"><time>2021-07-26T13:23:56.000Z</time><ele>567</ele></trkpt><trkpt lat="63.792381" lon="-19.312585"><time>2021-07-26T13:24:02.000Z</time><ele>567.2</ele></trkpt><trkpt lat="63.792348" lon="-19.312657"><time>2021-07-26T13:24:06.000Z</time><ele>567.2</ele></trkpt><trkpt lat="63.79229" lon="-19.312836"><time>2021-07-26T13:24:15.000Z</time><ele>568</ele></trkpt><trkpt lat="63.792265" lon="-19.312881"><time>2021-07-26T13:24:18.000Z</time><ele>568.2</ele></trkpt><trkpt lat="63.792252" lon="-19.312942"><time>2021-07-26T13:24:21.000Z</time><ele>568.4</ele></trkpt><trkpt lat="63.792242" lon="-19.312985"><time>2021-07-26T13:24:23.000Z</time><ele>568.4</ele></trkpt><trkpt lat="63.792196" lon="-19.313077"><time>2021-07-26T13:24:29.000Z</time><ele>569.4</ele></trkpt><trkpt lat="63.79218" lon="-19.313141"><time>2021-07-26T13:24:32.000Z</time><ele>569.4</ele></trkpt><trkpt lat="63.792156" lon="-19.3132"><time>2021-07-26T13:24:35.000Z</time><ele>569.6</ele></trkpt><trkpt lat="63.792147" lon="-19.31327"><time>2021-07-26T13:24:38.000Z</time><ele>570</ele></trkpt><trkpt lat="63.79212" lon="-19.313392"><time>2021-07-26T13:24:44.000Z</time><ele>570.4</ele></trkpt><trkpt lat="63.792103" lon="-19.313476"><time>2021-07-26T13:24:48.000Z</time><ele>570.6</ele></trkpt><trkpt lat="63.792079" lon="-19.313601"><time>2021-07-26T13:24:54.000Z</time><ele>571.2</ele></trkpt><trkpt lat="63.792072" lon="-19.313633"><time>2021-07-26T13:24:56.000Z</time><ele>571.2</ele></trkpt><trkpt lat="63.792041" lon="-19.313728"><time>2021-07-26T13:25:01.000Z</time><ele>571.6</ele></trkpt><trkpt lat="63.792031" lon="-19.313771"><time>2021-07-26T13:25:03.000Z</time><ele>571.4</ele></trkpt><trkpt lat="63.792002" lon="-19.313867"><time>2021-07-26T13:25:08.000Z</time><ele>571.6</ele></trkpt><trkpt lat="63.791989" lon="-19.313905"><time>2021-07-26T13:25:10.000Z</time><ele>571.6</ele></trkpt><trkpt lat="63.791963" lon="-19.314047"><time>2021-07-26T13:25:16.000Z</time><ele>572</ele></trkpt><trkpt lat="63.791937" lon="-19.314203"><time>2021-07-26T13:25:23.000Z</time><ele>572.4</ele></trkpt><trkpt lat="63.791934" lon="-19.314229"><time>2021-07-26T13:25:24.000Z</time><ele>572.8</ele></trkpt><trkpt lat="63.791932" lon="-19.314374"><time>2021-07-26T13:25:31.000Z</time><ele>573.2</ele></trkpt><trkpt lat="63.791933" lon="-19.314445"><time>2021-07-26T13:25:34.000Z</time><ele>573.8</ele></trkpt><trkpt lat="63.791926" lon="-19.314581"><time>2021-07-26T13:25:41.000Z</time><ele>574.6</ele></trkpt><trkpt lat="63.791929" lon="-19.314627"><time>2021-07-26T13:25:43.000Z</time><ele>574.8</ele></trkpt><trkpt lat="63.791908" lon="-19.314773"><time>2021-07-26T13:25:50.000Z</time><ele>575.6</ele></trkpt><trkpt lat="63.791885" lon="-19.314962"><time>2021-07-26T13:25:58.000Z</time><ele>575.8</ele></trkpt><trkpt lat="63.791882" lon="-19.314983"><time>2021-07-26T13:25:59.000Z</time><ele>576</ele></trkpt><trkpt lat="63.79186" lon="-19.315164"><time>2021-07-26T13:26:08.000Z</time><ele>576.8</ele></trkpt><trkpt lat="63.791858" lon="-19.315182"><time>2021-07-26T13:26:09.000Z</time><ele>577</ele></trkpt><trkpt lat="63.791846" lon="-19.315262"><time>2021-07-26T13:26:13.000Z</time><ele>577.2</ele></trkpt><trkpt lat="63.791844" lon="-19.315301"><time>2021-07-26T13:26:15.000Z</time><ele>577</ele></trkpt><trkpt lat="63.791836" lon="-19.315403"><time>2021-07-26T13:26:20.000Z</time><ele>577</ele></trkpt><trkpt lat="63.791834" lon="-19.315474"><time>2021-07-26T13:26:23.000Z</time><ele>577.4</ele></trkpt><trkpt lat="63.791815" lon="-19.315577"><time>2021-07-26T13:26:28.000Z</time><ele>577.4</ele></trkpt><trkpt lat="63.791794" lon="-19.31575"><time>2021-07-26T13:26:36.000Z</time><ele>578</ele></trkpt><trkpt lat="63.791792" lon="-19.315771"><time>2021-07-26T13:26:37.000Z</time><ele>578</ele></trkpt><trkpt lat="63.791784" lon="-19.315838"><time>2021-07-26T13:26:40.000Z</time><ele>579.2</ele></trkpt><trkpt lat="63.791762" lon="-19.315952"><time>2021-07-26T13:26:46.000Z</time><ele>579.4</ele></trkpt><trkpt lat="63.791734" lon="-19.316096"><time>2021-07-26T13:26:54.000Z</time><ele>579.2</ele></trkpt><trkpt lat="63.791731" lon="-19.316107"><time>2021-07-26T13:26:57.000Z</time><ele>579.2</ele></trkpt><trkpt lat="63.791728" lon="-19.316106"><time>2021-07-26T13:26:59.000Z</time><ele>579.2</ele></trkpt><trkpt lat="63.791728" lon="-19.316131"><time>2021-07-26T13:27:06.000Z</time><ele>579.4</ele></trkpt><trkpt lat="63.791727" lon="-19.316155"><time>2021-07-26T13:27:08.000Z</time><ele>579.6</ele></trkpt><trkpt lat="63.791721" lon="-19.316263"><time>2021-07-26T13:27:15.000Z</time><ele>580.2</ele></trkpt><trkpt lat="63.791717" lon="-19.316274"><time>2021-07-26T13:27:16.000Z</time><ele>580.4</ele></trkpt><trkpt lat="63.791716" lon="-19.316344"><time>2021-07-26T13:27:21.000Z</time><ele>581.2</ele></trkpt><trkpt lat="63.791708" lon="-19.316395"><time>2021-07-26T13:27:25.000Z</time><ele>581.8</ele></trkpt><trkpt lat="63.791685" lon="-19.316468"><time>2021-07-26T13:27:30.000Z</time><ele>582.4</ele></trkpt><trkpt lat="63.791653" lon="-19.316535"><time>2021-07-26T13:27:36.000Z</time><ele>583.4</ele></trkpt><trkpt lat="63.791649" lon="-19.316531"><time>2021-07-26T13:27:37.000Z</time><ele>583.4</ele></trkpt><trkpt lat="63.791636" lon="-19.31652"><time>2021-07-26T13:27:47.000Z</time><ele>583.8</ele></trkpt><trkpt lat="63.791636" lon="-19.31652"><time>2021-07-26T13:27:53.000Z</time><ele>583.8</ele></trkpt><trkpt lat="63.791641" lon="-19.31653"><time>2021-07-26T13:28:07.000Z</time><ele>583.8</ele></trkpt><trkpt lat="63.791642" lon="-19.316531"><time>2021-07-26T13:28:12.000Z</time><ele>584</ele></trkpt><trkpt lat="63.791643" lon="-19.316531"><time>2021-07-26T13:28:14.000Z</time><ele>584</ele></trkpt><trkpt lat="63.791643" lon="-19.31653"><time>2021-07-26T13:28:16.000Z</time><ele>584</ele></trkpt><trkpt lat="63.791694" lon="-19.316567"><time>2021-07-26T13:29:12.000Z</time><ele>584.4</ele></trkpt><trkpt lat="63.7917" lon="-19.316574"><time>2021-07-26T13:29:19.000Z</time><ele>584.4</ele></trkpt><trkpt lat="63.791715" lon="-19.316574"><time>2021-07-26T13:29:25.000Z</time><ele>584.4</ele></trkpt><trkpt lat="63.791634" lon="-19.316662"><time>2021-07-26T13:29:50.000Z</time><ele>584.4</ele></trkpt><trkpt lat="63.791611" lon="-19.316701"><time>2021-07-26T13:29:52.000Z</time><ele>584.4</ele></trkpt><trkpt lat="63.791588" lon="-19.316762"><time>2021-07-26T13:29:55.000Z</time><ele>584.4</ele></trkpt><trkpt lat="63.791579" lon="-19.316813"><time>2021-07-26T13:29:58.000Z</time><ele>584.4</ele></trkpt><trkpt lat="63.791563" lon="-19.316867"><time>2021-07-26T13:30:02.000Z</time><ele>584.4</ele></trkpt><trkpt lat="63.791545" lon="-19.316891"><time>2021-07-26T13:30:04.000Z</time><ele>584.4</ele></trkpt><trkpt lat="63.791527" lon="-19.316922"><time>2021-07-26T13:30:07.000Z</time><ele>588.4</ele></trkpt><trkpt lat="63.791469" lon="-19.31701"><time>2021-07-26T13:30:14.000Z</time><ele>587.8</ele></trkpt><trkpt lat="63.791461" lon="-19.317027"><time>2021-07-26T13:30:15.000Z</time><ele>587.6</ele></trkpt><trkpt lat="63.791434" lon="-19.317082"><time>2021-07-26T13:30:19.000Z</time><ele>587.2</ele></trkpt><trkpt lat="63.791435" lon="-19.317086"><time>2021-07-26T13:30:21.000Z</time><ele>587</ele></trkpt><trkpt lat="63.791435" lon="-19.317088"><time>2021-07-26T13:30:22.000Z</time><ele>586.8</ele></trkpt><trkpt lat="63.791439" lon="-19.3171"><time>2021-07-26T13:30:24.000Z</time><ele>586.2</ele></trkpt><trkpt lat="63.791401" lon="-19.317057"><time>2021-07-26T13:30:33.000Z</time><ele>586.2</ele></trkpt><trkpt lat="63.791418" lon="-19.317076"><time>2021-07-26T13:30:44.000Z</time><ele>586.6</ele></trkpt><trkpt lat="63.791422" lon="-19.317088"><time>2021-07-26T13:30:51.000Z</time><ele>585.6</ele></trkpt><trkpt lat="63.791418" lon="-19.317095"><time>2021-07-26T13:30:56.000Z</time><ele>585.8</ele></trkpt><trkpt lat="63.791418" lon="-19.317102"><time>2021-07-26T13:31:00.000Z</time><ele>586</ele></trkpt><trkpt lat="63.791415" lon="-19.317102"><time>2021-07-26T13:31:07.000Z</time><ele>586</ele></trkpt><trkpt lat="63.791396" lon="-19.317099"><time>2021-07-26T13:31:17.000Z</time><ele>585.4</ele></trkpt><trkpt lat="63.791395" lon="-19.317099"><time>2021-07-26T13:31:20.000Z</time><ele>585.2</ele></trkpt><trkpt lat="63.791395" lon="-19.317099"><time>2021-07-26T13:31:22.000Z</time><ele>585.2</ele></trkpt><trkpt lat="63.791395" lon="-19.317099"><time>2021-07-26T13:31:25.000Z</time><ele>585.2</ele></trkpt><trkpt lat="63.791395" lon="-19.317099"><time>2021-07-26T13:31:28.000Z</time><ele>585.2</ele></trkpt><trkpt lat="63.791396" lon="-19.317106"><time>2021-07-26T13:31:33.000Z</time><ele>585.2</ele></trkpt><trkpt lat="63.7914" lon="-19.317107"><time>2021-07-26T13:31:37.000Z</time><ele>585.2</ele></trkpt><trkpt lat="63.791402" lon="-19.317107"><time>2021-07-26T13:31:43.000Z</time><ele>585.2</ele></trkpt><trkpt lat="63.791422" lon="-19.31712"><time>2021-07-26T13:32:22.000Z</time><ele>586.2</ele></trkpt><trkpt lat="63.7914" lon="-19.317089"><time>2021-07-26T13:32:46.000Z</time><ele>585.8</ele></trkpt><trkpt lat="63.791398" lon="-19.317084"><time>2021-07-26T13:32:55.000Z</time><ele>586.2</ele></trkpt><trkpt lat="63.791399" lon="-19.317087"><time>2021-07-26T13:33:02.000Z</time><ele>585</ele></trkpt><trkpt lat="63.791402" lon="-19.31709"><time>2021-07-26T13:33:07.000Z</time><ele>585</ele></trkpt><trkpt lat="63.791403" lon="-19.317106"><time>2021-07-26T13:33:12.000Z</time><ele>585.6</ele></trkpt><trkpt lat="63.791403" lon="-19.31711"><time>2021-07-26T13:33:14.000Z</time><ele>585.6</ele></trkpt><trkpt lat="63.791403" lon="-19.317114"><time>2021-07-26T13:33:16.000Z</time><ele>585.6</ele></trkpt><trkpt lat="63.791403" lon="-19.317116"><time>2021-07-26T13:33:18.000Z</time><ele>585.6</ele></trkpt><trkpt lat="63.791403" lon="-19.317117"><time>2021-07-26T13:33:19.000Z</time><ele>585.6</ele></trkpt><trkpt lat="63.791403" lon="-19.317132"><time>2021-07-26T13:33:30.000Z</time><ele>585.6</ele></trkpt><trkpt lat="63.791402" lon="-19.317145"><time>2021-07-26T13:33:39.000Z</time><ele>585.6</ele></trkpt><trkpt lat="63.791403" lon="-19.317148"><time>2021-07-26T13:34:01.000Z</time><ele>585.6</ele></trkpt><trkpt lat="63.791403" lon="-19.317148"><time>2021-07-26T13:34:04.000Z</time><ele>585.6</ele></trkpt><trkpt lat="63.791403" lon="-19.317148"><time>2021-07-26T13:34:07.000Z</time><ele>585.6</ele></trkpt><trkpt lat="63.791403" lon="-19.317148"><time>2021-07-26T13:34:10.000Z</time><ele>585.6</ele></trkpt><trkpt lat="63.791393" lon="-19.31718"><time>2021-07-26T13:34:12.000Z</time><ele>585.6</ele></trkpt><trkpt lat="63.791372" lon="-19.31722"><time>2021-07-26T13:34:14.000Z</time><ele>585.6</ele></trkpt><trkpt lat="63.791359" lon="-19.317244"><time>2021-07-26T13:34:15.000Z</time><ele>585.6</ele></trkpt><trkpt lat="63.791312" lon="-19.317318"><time>2021-07-26T13:34:19.000Z</time><ele>586.2</ele></trkpt><trkpt lat="63.7913" lon="-19.317341"><time>2021-07-26T13:34:21.000Z</time><ele>586.6</ele></trkpt><trkpt lat="63.79128" lon="-19.317376"><time>2021-07-26T13:34:24.000Z</time><ele>587.4</ele></trkpt><trkpt lat="63.791249" lon="-19.317427"><time>2021-07-26T13:34:29.000Z</time><ele>587.4</ele></trkpt><trkpt lat="63.791232" lon="-19.317447"><time>2021-07-26T13:34:31.000Z</time><ele>587.4</ele></trkpt><trkpt lat="63.791225" lon="-19.317459"><time>2021-07-26T13:34:32.000Z</time><ele>587.4</ele></trkpt><trkpt lat="63.791201" lon="-19.317505"><time>2021-07-26T13:34:35.000Z</time><ele>587.6</ele></trkpt><trkpt lat="63.791177" lon="-19.317557"><time>2021-07-26T13:34:39.000Z</time><ele>588.2</ele></trkpt><trkpt lat="63.791174" lon="-19.317567"><time>2021-07-26T13:34:40.000Z</time><ele>588.2</ele></trkpt><trkpt lat="63.79116" lon="-19.317602"><time>2021-07-26T13:34:42.000Z</time><ele>588.6</ele></trkpt><trkpt lat="63.791133" lon="-19.317665"><time>2021-07-26T13:34:46.000Z</time><ele>589.2</ele></trkpt><trkpt lat="63.791128" lon="-19.317684"><time>2021-07-26T13:34:47.000Z</time><ele>589.4</ele></trkpt><trkpt lat="63.791083" lon="-19.317819"><time>2021-07-26T13:34:55.000Z</time><ele>589.8</ele></trkpt><trkpt lat="63.791075" lon="-19.317834"><time>2021-07-26T13:34:56.000Z</time><ele>590</ele></trkpt><trkpt lat="63.791042" lon="-19.317914"><time>2021-07-26T13:35:01.000Z</time><ele>590.8</ele></trkpt><trkpt lat="63.791027" lon="-19.317948"><time>2021-07-26T13:35:03.000Z</time><ele>591.6</ele></trkpt><trkpt lat="63.791019" lon="-19.317966"><time>2021-07-26T13:35:04.000Z</time><ele>592.6</ele></trkpt><trkpt lat="63.790991" lon="-19.318037"><time>2021-07-26T13:35:08.000Z</time><ele>593.6</ele></trkpt><trkpt lat="63.790952" lon="-19.318174"><time>2021-07-26T13:35:15.000Z</time><ele>593.2</ele></trkpt><trkpt lat="63.790926" lon="-19.318234"><time>2021-07-26T13:35:18.000Z</time><ele>592.4</ele></trkpt><trkpt lat="63.790919" lon="-19.318247"><time>2021-07-26T13:35:19.000Z</time><ele>591.2</ele></trkpt><trkpt lat="63.790906" lon="-19.318282"><time>2021-07-26T13:35:21.000Z</time><ele>590.2</ele></trkpt><trkpt lat="63.790873" lon="-19.318349"><time>2021-07-26T13:35:25.000Z</time><ele>590.8</ele></trkpt><trkpt lat="63.79083" lon="-19.318448"><time>2021-07-26T13:35:31.000Z</time><ele>591.2</ele></trkpt><trkpt lat="63.790824" lon="-19.318474"><time>2021-07-26T13:35:32.000Z</time><ele>591.2</ele></trkpt><trkpt lat="63.790815" lon="-19.318509"><time>2021-07-26T13:35:34.000Z</time><ele>591.4</ele></trkpt><trkpt lat="63.790808" lon="-19.318515"><time>2021-07-26T13:35:36.000Z</time><ele>591.6</ele></trkpt><trkpt lat="63.79081" lon="-19.318513"><time>2021-07-26T13:35:37.000Z</time><ele>591.6</ele></trkpt><trkpt lat="63.790811" lon="-19.318518"><time>2021-07-26T13:35:45.000Z</time><ele>591.8</ele></trkpt><trkpt lat="63.790811" lon="-19.318518"><time>2021-07-26T13:35:48.000Z</time><ele>592</ele></trkpt><trkpt lat="63.790791" lon="-19.318582"><time>2021-07-26T13:36:07.000Z</time><ele>592</ele></trkpt><trkpt lat="63.790781" lon="-19.318608"><time>2021-07-26T13:36:08.000Z</time><ele>592.4</ele></trkpt><trkpt lat="63.790757" lon="-19.318657"><time>2021-07-26T13:36:11.000Z</time><ele>592.4</ele></trkpt><trkpt lat="63.790731" lon="-19.318744"><time>2021-07-26T13:36:15.000Z</time><ele>592.8</ele></trkpt><trkpt lat="63.790721" lon="-19.318756"><time>2021-07-26T13:36:19.000Z</time><ele>592.4</ele></trkpt><trkpt lat="63.790721" lon="-19.318752"><time>2021-07-26T13:36:20.000Z</time><ele>592.4</ele></trkpt><trkpt lat="63.790726" lon="-19.318747"><time>2021-07-26T13:36:27.000Z</time><ele>591.8</ele></trkpt><trkpt lat="63.790726" lon="-19.318747"><time>2021-07-26T13:36:33.000Z</time><ele>591.8</ele></trkpt><trkpt lat="63.790726" lon="-19.31875"><time>2021-07-26T13:36:41.000Z</time><ele>591.2</ele></trkpt><trkpt lat="63.790733" lon="-19.318749"><time>2021-07-26T13:36:48.000Z</time><ele>591</ele></trkpt><trkpt lat="63.790704" lon="-19.318844"><time>2021-07-26T13:37:07.000Z</time><ele>591.6</ele></trkpt><trkpt lat="63.79067" lon="-19.318925"><time>2021-07-26T13:37:10.000Z</time><ele>591.6</ele></trkpt><trkpt lat="63.790632" lon="-19.319019"><time>2021-07-26T13:37:13.000Z</time><ele>592.2</ele></trkpt><trkpt lat="63.790626" lon="-19.319034"><time>2021-07-26T13:37:14.000Z</time><ele>592.4</ele></trkpt><trkpt lat="63.790594" lon="-19.319136"><time>2021-07-26T13:37:19.000Z</time><ele>593.4</ele></trkpt><trkpt lat="63.790587" lon="-19.319147"><time>2021-07-26T13:37:20.000Z</time><ele>593.6</ele></trkpt><trkpt lat="63.790555" lon="-19.319221"><time>2021-07-26T13:37:24.000Z</time><ele>594</ele></trkpt><trkpt lat="63.790491" lon="-19.31934"><time>2021-07-26T13:37:31.000Z</time><ele>594.4</ele></trkpt><trkpt lat="63.790467" lon="-19.319404"><time>2021-07-26T13:37:34.000Z</time><ele>594.4</ele></trkpt><trkpt lat="63.790442" lon="-19.319593"><time>2021-07-26T13:37:42.000Z</time><ele>594.2</ele></trkpt><trkpt lat="63.790432" lon="-19.31966"><time>2021-07-26T13:37:47.000Z</time><ele>593.8</ele></trkpt><trkpt lat="63.790432" lon="-19.319663"><time>2021-07-26T13:37:48.000Z</time><ele>593.4</ele></trkpt><trkpt lat="63.790431" lon="-19.319782"><time>2021-07-26T13:37:55.000Z</time><ele>593.4</ele></trkpt><trkpt lat="63.790417" lon="-19.319937"><time>2021-07-26T13:38:01.000Z</time><ele>593</ele></trkpt><trkpt lat="63.790409" lon="-19.320067"><time>2021-07-26T13:38:06.000Z</time><ele>593</ele></trkpt><trkpt lat="63.79038" lon="-19.320302"><time>2021-07-26T13:38:15.000Z</time><ele>593.4</ele></trkpt><trkpt lat="63.790352" lon="-19.320384"><time>2021-07-26T13:38:21.000Z</time><ele>593.6</ele></trkpt><trkpt lat="63.790351" lon="-19.320398"><time>2021-07-26T13:38:22.000Z</time><ele>593.4</ele></trkpt><trkpt lat="63.790334" lon="-19.32045"><time>2021-07-26T13:38:25.000Z</time><ele>592.2</ele></trkpt><trkpt lat="63.790307" lon="-19.320499"><time>2021-07-26T13:38:28.000Z</time><ele>591.4</ele></trkpt><trkpt lat="63.790297" lon="-19.320508"><time>2021-07-26T13:38:29.000Z</time><ele>591</ele></trkpt><trkpt lat="63.790216" lon="-19.320549"><time>2021-07-26T13:38:37.000Z</time><ele>590</ele></trkpt><trkpt lat="63.79011" lon="-19.320579"><time>2021-07-26T13:38:46.000Z</time><ele>590</ele></trkpt><trkpt lat="63.790098" lon="-19.320581"><time>2021-07-26T13:38:47.000Z</time><ele>590</ele></trkpt><trkpt lat="63.789986" lon="-19.320628"><time>2021-07-26T13:38:57.000Z</time><ele>590.2</ele></trkpt><trkpt lat="63.789913" lon="-19.32064"><time>2021-07-26T13:39:04.000Z</time><ele>591.2</ele></trkpt><trkpt lat="63.789845" lon="-19.320646"><time>2021-07-26T13:39:11.000Z</time><ele>591</ele></trkpt><trkpt lat="63.789843" lon="-19.32066"><time>2021-07-26T13:39:14.000Z</time><ele>590.6</ele></trkpt><trkpt lat="63.789838" lon="-19.320667"><time>2021-07-26T13:39:16.000Z</time><ele>590</ele></trkpt><trkpt lat="63.789837" lon="-19.320672"><time>2021-07-26T13:39:18.000Z</time><ele>590</ele></trkpt><trkpt lat="63.78984" lon="-19.320698"><time>2021-07-26T13:39:27.000Z</time><ele>590.6</ele></trkpt><trkpt lat="63.789866" lon="-19.320704"><time>2021-07-26T13:39:29.000Z</time><ele>590.8</ele></trkpt><trkpt lat="63.789874" lon="-19.320706"><time>2021-07-26T13:39:33.000Z</time><ele>590</ele></trkpt><trkpt lat="63.789874" lon="-19.320706"><time>2021-07-26T13:39:38.000Z</time><ele>588.8</ele></trkpt><trkpt lat="63.789871" lon="-19.320704"><time>2021-07-26T13:39:43.000Z</time><ele>590.4</ele></trkpt><trkpt lat="63.789851" lon="-19.320736"><time>2021-07-26T13:39:45.000Z</time><ele>592.6</ele></trkpt><trkpt lat="63.789839" lon="-19.320745"><time>2021-07-26T13:39:46.000Z</time><ele>593.2</ele></trkpt><trkpt lat="63.789827" lon="-19.320768"><time>2021-07-26T13:39:47.000Z</time><ele>593.6</ele></trkpt><trkpt lat="63.789801" lon="-19.320837"><time>2021-07-26T13:39:50.000Z</time><ele>591.8</ele></trkpt><trkpt lat="63.789783" lon="-19.320863"><time>2021-07-26T13:39:52.000Z</time><ele>590.6</ele></trkpt><trkpt lat="63.789779" lon="-19.320895"><time>2021-07-26T13:39:54.000Z</time><ele>590</ele></trkpt><trkpt lat="63.789777" lon="-19.320904"><time>2021-07-26T13:39:55.000Z</time><ele>589.8</ele></trkpt><trkpt lat="63.789773" lon="-19.320907"><time>2021-07-26T13:39:56.000Z</time><ele>589.6</ele></trkpt><trkpt lat="63.789769" lon="-19.32091"><time>2021-07-26T13:39:57.000Z</time><ele>589.2</ele></trkpt><trkpt lat="63.789761" lon="-19.32094"><time>2021-07-26T13:39:59.000Z</time><ele>588.6</ele></trkpt><trkpt lat="63.789755" lon="-19.320956"><time>2021-07-26T13:40:00.000Z</time><ele>588.4</ele></trkpt><trkpt lat="63.789751" lon="-19.320969"><time>2021-07-26T13:40:01.000Z</time><ele>588.4</ele></trkpt><trkpt lat="63.789747" lon="-19.320974"><time>2021-07-26T13:40:02.000Z</time><ele>588.4</ele></trkpt><trkpt lat="63.789733" lon="-19.32103"><time>2021-07-26T13:40:05.000Z</time><ele>587.4</ele></trkpt><trkpt lat="63.789728" lon="-19.321045"><time>2021-07-26T13:40:06.000Z</time><ele>587</ele></trkpt><trkpt lat="63.789719" lon="-19.321058"><time>2021-07-26T13:40:08.000Z</time><ele>586.2</ele></trkpt><trkpt lat="63.789712" lon="-19.321074"><time>2021-07-26T13:40:09.000Z</time><ele>586</ele></trkpt><trkpt lat="63.789702" lon="-19.321132"><time>2021-07-26T13:40:11.000Z</time><ele>585.8</ele></trkpt><trkpt lat="63.789685" lon="-19.321191"><time>2021-07-26T13:40:14.000Z</time><ele>585.4</ele></trkpt><trkpt lat="63.789679" lon="-19.321206"><time>2021-07-26T13:40:15.000Z</time><ele>585</ele></trkpt><trkpt lat="63.789672" lon="-19.321212"><time>2021-07-26T13:40:16.000Z</time><ele>584.8</ele></trkpt><trkpt lat="63.789648" lon="-19.321245"><time>2021-07-26T13:40:19.000Z</time><ele>584</ele></trkpt><trkpt lat="63.789638" lon="-19.321269"><time>2021-07-26T13:40:20.000Z</time><ele>584</ele></trkpt><trkpt lat="63.789584" lon="-19.321402"><time>2021-07-26T13:40:26.000Z</time><ele>584.4</ele></trkpt><trkpt lat="63.789564" lon="-19.321463"><time>2021-07-26T13:40:29.000Z</time><ele>584.6</ele></trkpt><trkpt lat="63.789541" lon="-19.321542"><time>2021-07-26T13:40:33.000Z</time><ele>585.2</ele></trkpt><trkpt lat="63.789531" lon="-19.321604"><time>2021-07-26T13:40:37.000Z</time><ele>585.4</ele></trkpt><trkpt lat="63.789497" lon="-19.321685"><time>2021-07-26T13:40:44.000Z</time><ele>584.2</ele></trkpt><trkpt lat="63.789482" lon="-19.321743"><time>2021-07-26T13:40:49.000Z</time><ele>584.4</ele></trkpt><trkpt lat="63.789489" lon="-19.321743"><time>2021-07-26T13:40:52.000Z</time><ele>584.6</ele></trkpt><trkpt lat="63.789491" lon="-19.321711"><time>2021-07-26T13:41:02.000Z</time><ele>584.8</ele></trkpt><trkpt lat="63.789479" lon="-19.321725"><time>2021-07-26T13:41:21.000Z</time><ele>585.4</ele></trkpt><trkpt lat="63.789389" lon="-19.321909"><time>2021-07-26T13:41:50.000Z</time><ele>584.6</ele></trkpt><trkpt lat="63.789353" lon="-19.32202"><time>2021-07-26T13:41:54.000Z</time><ele>584.8</ele></trkpt><trkpt lat="63.789342" lon="-19.322064"><time>2021-07-26T13:41:56.000Z</time><ele>584.8</ele></trkpt><trkpt lat="63.78933" lon="-19.322117"><time>2021-07-26T13:41:59.000Z</time><ele>584.6</ele></trkpt><trkpt lat="63.789305" lon="-19.322175"><time>2021-07-26T13:42:02.000Z</time><ele>584.6</ele></trkpt><trkpt lat="63.789266" lon="-19.322263"><time>2021-07-26T13:42:08.000Z</time><ele>584.4</ele></trkpt><trkpt lat="63.789254" lon="-19.322289"><time>2021-07-26T13:42:10.000Z</time><ele>584.2</ele></trkpt><trkpt lat="63.789233" lon="-19.322314"><time>2021-07-26T13:42:12.000Z</time><ele>584.2</ele></trkpt><trkpt lat="63.789223" lon="-19.322331"><time>2021-07-26T13:42:15.000Z</time><ele>583.4</ele></trkpt><trkpt lat="63.789191" lon="-19.322384"><time>2021-07-26T13:42:19.000Z</time><ele>583</ele></trkpt><trkpt lat="63.789176" lon="-19.322401"><time>2021-07-26T13:42:21.000Z</time><ele>582</ele></trkpt><trkpt lat="63.789167" lon="-19.322402"><time>2021-07-26T13:42:22.000Z</time><ele>582</ele></trkpt><trkpt lat="63.789154" lon="-19.322434"><time>2021-07-26T13:42:24.000Z</time><ele>581.8</ele></trkpt><trkpt lat="63.789145" lon="-19.322461"><time>2021-07-26T13:42:25.000Z</time><ele>581.6</ele></trkpt><trkpt lat="63.789133" lon="-19.322499"><time>2021-07-26T13:42:27.000Z</time><ele>580.8</ele></trkpt><trkpt lat="63.789127" lon="-19.322518"><time>2021-07-26T13:42:28.000Z</time><ele>580.6</ele></trkpt><trkpt lat="63.789106" lon="-19.322561"><time>2021-07-26T13:42:32.000Z</time><ele>580.4</ele></trkpt><trkpt lat="63.789092" lon="-19.32258"><time>2021-07-26T13:42:34.000Z</time><ele>580.2</ele></trkpt><trkpt lat="63.78908" lon="-19.322617"><time>2021-07-26T13:42:36.000Z</time><ele>579.8</ele></trkpt><trkpt lat="63.789077" lon="-19.322637"><time>2021-07-26T13:42:37.000Z</time><ele>579.4</ele></trkpt><trkpt lat="63.789063" lon="-19.322702"><time>2021-07-26T13:42:40.000Z</time><ele>580</ele></trkpt><trkpt lat="63.789055" lon="-19.322739"><time>2021-07-26T13:42:42.000Z</time><ele>580.8</ele></trkpt><trkpt lat="63.78902" lon="-19.322843"><time>2021-07-26T13:42:48.000Z</time><ele>579.4</ele></trkpt><trkpt lat="63.789016" lon="-19.322858"><time>2021-07-26T13:42:49.000Z</time><ele>578.6</ele></trkpt><trkpt lat="63.789013" lon="-19.322873"><time>2021-07-26T13:42:50.000Z</time><ele>578</ele></trkpt><trkpt lat="63.789008" lon="-19.322889"><time>2021-07-26T13:42:51.000Z</time><ele>577.8</ele></trkpt><trkpt lat="63.788992" lon="-19.322906"><time>2021-07-26T13:42:54.000Z</time><ele>577.4</ele></trkpt><trkpt lat="63.78898" lon="-19.322933"><time>2021-07-26T13:42:56.000Z</time><ele>576.8</ele></trkpt><trkpt lat="63.788907" lon="-19.323117"><time>2021-07-26T13:43:07.000Z</time><ele>576</ele></trkpt><trkpt lat="63.788899" lon="-19.323127"><time>2021-07-26T13:43:08.000Z</time><ele>575.8</ele></trkpt><trkpt lat="63.788859" lon="-19.323229"><time>2021-07-26T13:43:16.000Z</time><ele>574.8</ele></trkpt><trkpt lat="63.788832" lon="-19.323283"><time>2021-07-26T13:43:20.000Z</time><ele>573.8</ele></trkpt><trkpt lat="63.788824" lon="-19.323289"><time>2021-07-26T13:43:21.000Z</time><ele>573.6</ele></trkpt><trkpt lat="63.78881" lon="-19.323311"><time>2021-07-26T13:43:23.000Z</time><ele>573.4</ele></trkpt><trkpt lat="63.788799" lon="-19.323354"><time>2021-07-26T13:43:25.000Z</time><ele>573.2</ele></trkpt><trkpt lat="63.78877" lon="-19.323508"><time>2021-07-26T13:43:32.000Z</time><ele>573</ele></trkpt><trkpt lat="63.788759" lon="-19.323561"><time>2021-07-26T13:43:35.000Z</time><ele>572.6</ele></trkpt><trkpt lat="63.788755" lon="-19.323584"><time>2021-07-26T13:43:36.000Z</time><ele>572.4</ele></trkpt><trkpt lat="63.788737" lon="-19.323663"><time>2021-07-26T13:43:40.000Z</time><ele>572</ele></trkpt><trkpt lat="63.788711" lon="-19.323791"><time>2021-07-26T13:43:46.000Z</time><ele>571.8</ele></trkpt><trkpt lat="63.788706" lon="-19.323812"><time>2021-07-26T13:43:47.000Z</time><ele>571.6</ele></trkpt><trkpt lat="63.788689" lon="-19.323878"><time>2021-07-26T13:43:50.000Z</time><ele>571.4</ele></trkpt><trkpt lat="63.788663" lon="-19.323957"><time>2021-07-26T13:43:54.000Z</time><ele>571</ele></trkpt><trkpt lat="63.788647" lon="-19.324036"><time>2021-07-26T13:43:57.000Z</time><ele>571.2</ele></trkpt><trkpt lat="63.788617" lon="-19.324139"><time>2021-07-26T13:44:02.000Z</time><ele>571</ele></trkpt><trkpt lat="63.788576" lon="-19.324339"><time>2021-07-26T13:44:10.000Z</time><ele>570.8</ele></trkpt><trkpt lat="63.788536" lon="-19.324568"><time>2021-07-26T13:44:20.000Z</time><ele>570.6</ele></trkpt><trkpt lat="63.788526" lon="-19.324663"><time>2021-07-26T13:44:24.000Z</time><ele>570.6</ele></trkpt><trkpt lat="63.788522" lon="-19.324688"><time>2021-07-26T13:44:25.000Z</time><ele>570.6</ele></trkpt><trkpt lat="63.788519" lon="-19.324766"><time>2021-07-26T13:44:28.000Z</time><ele>570.6</ele></trkpt><trkpt lat="63.788516" lon="-19.324787"><time>2021-07-26T13:44:29.000Z</time><ele>570.4</ele></trkpt><trkpt lat="63.788513" lon="-19.324812"><time>2021-07-26T13:44:30.000Z</time><ele>570.4</ele></trkpt><trkpt lat="63.788502" lon="-19.324899"><time>2021-07-26T13:44:34.000Z</time><ele>570.2</ele></trkpt><trkpt lat="63.7885" lon="-19.324922"><time>2021-07-26T13:44:35.000Z</time><ele>570.2</ele></trkpt><trkpt lat="63.788497" lon="-19.324937"><time>2021-07-26T13:44:36.000Z</time><ele>570.2</ele></trkpt><trkpt lat="63.788483" lon="-19.325005"><time>2021-07-26T13:44:40.000Z</time><ele>570</ele></trkpt><trkpt lat="63.788484" lon="-19.325044"><time>2021-07-26T13:44:42.000Z</time><ele>569.8</ele></trkpt><trkpt lat="63.788486" lon="-19.325067"><time>2021-07-26T13:44:43.000Z</time><ele>569.8</ele></trkpt><trkpt lat="63.788485" lon="-19.325089"><time>2021-07-26T13:44:44.000Z</time><ele>569.8</ele></trkpt><trkpt lat="63.788481" lon="-19.325112"><time>2021-07-26T13:44:47.000Z</time><ele>569.8</ele></trkpt><trkpt lat="63.788488" lon="-19.325113"><time>2021-07-26T13:44:49.000Z</time><ele>569.8</ele></trkpt><trkpt lat="63.788493" lon="-19.32511"><time>2021-07-26T13:44:50.000Z</time><ele>569.6</ele></trkpt><trkpt lat="63.788482" lon="-19.325154"><time>2021-07-26T13:44:54.000Z</time><ele>569.2</ele></trkpt><trkpt lat="63.788461" lon="-19.325222"><time>2021-07-26T13:44:57.000Z</time><ele>569</ele></trkpt><trkpt lat="63.788451" lon="-19.325388"><time>2021-07-26T13:45:04.000Z</time><ele>568.2</ele></trkpt><trkpt lat="63.788449" lon="-19.325412"><time>2021-07-26T13:45:05.000Z</time><ele>568.2</ele></trkpt><trkpt lat="63.788439" lon="-19.325487"><time>2021-07-26T13:45:08.000Z</time><ele>567.8</ele></trkpt><trkpt lat="63.78842" lon="-19.325632"><time>2021-07-26T13:45:14.000Z</time><ele>567.2</ele></trkpt><trkpt lat="63.788419" lon="-19.325658"><time>2021-07-26T13:45:15.000Z</time><ele>567.2</ele></trkpt><trkpt lat="63.788417" lon="-19.325824"><time>2021-07-26T13:45:21.000Z</time><ele>566.2</ele></trkpt><trkpt lat="63.788421" lon="-19.3259"><time>2021-07-26T13:45:24.000Z</time><ele>565.8</ele></trkpt><trkpt lat="63.788424" lon="-19.326071"><time>2021-07-26T13:45:31.000Z</time><ele>565</ele></trkpt><trkpt lat="63.788412" lon="-19.326133"><time>2021-07-26T13:45:34.000Z</time><ele>564.8</ele></trkpt><trkpt lat="63.788401" lon="-19.32627"><time>2021-07-26T13:45:40.000Z</time><ele>564</ele></trkpt><trkpt lat="63.788399" lon="-19.326292"><time>2021-07-26T13:45:41.000Z</time><ele>563.8</ele></trkpt><trkpt lat="63.7884" lon="-19.326318"><time>2021-07-26T13:45:42.000Z</time><ele>563.6</ele></trkpt><trkpt lat="63.788408" lon="-19.326549"><time>2021-07-26T13:45:51.000Z</time><ele>562.8</ele></trkpt><trkpt lat="63.788409" lon="-19.326706"><time>2021-07-26T13:45:57.000Z</time><ele>562</ele></trkpt><trkpt lat="63.788409" lon="-19.326722"><time>2021-07-26T13:45:58.000Z</time><ele>561.8</ele></trkpt><trkpt lat="63.788407" lon="-19.326736"><time>2021-07-26T13:45:59.000Z</time><ele>561.6</ele></trkpt><trkpt lat="63.788411" lon="-19.326878"><time>2021-07-26T13:46:04.000Z</time><ele>561.2</ele></trkpt><trkpt lat="63.788398" lon="-19.327049"><time>2021-07-26T13:46:11.000Z</time><ele>561</ele></trkpt><trkpt lat="63.788395" lon="-19.327064"><time>2021-07-26T13:46:12.000Z</time><ele>560.8</ele></trkpt><trkpt lat="63.788393" lon="-19.327081"><time>2021-07-26T13:46:13.000Z</time><ele>560.6</ele></trkpt><trkpt lat="63.788386" lon="-19.327219"><time>2021-07-26T13:46:18.000Z</time><ele>559.8</ele></trkpt><trkpt lat="63.78838" lon="-19.32725"><time>2021-07-26T13:46:20.000Z</time><ele>559.6</ele></trkpt><trkpt lat="63.788358" lon="-19.327368"><time>2021-07-26T13:46:25.000Z</time><ele>558.8</ele></trkpt><trkpt lat="63.788354" lon="-19.327384"><time>2021-07-26T13:46:26.000Z</time><ele>558.6</ele></trkpt><trkpt lat="63.788352" lon="-19.327407"><time>2021-07-26T13:46:27.000Z</time><ele>558.4</ele></trkpt><trkpt lat="63.788327" lon="-19.327532"><time>2021-07-26T13:46:33.000Z</time><ele>557.6</ele></trkpt><trkpt lat="63.788318" lon="-19.327574"><time>2021-07-26T13:46:35.000Z</time><ele>557.2</ele></trkpt><trkpt lat="63.788294" lon="-19.327665"><time>2021-07-26T13:46:40.000Z</time><ele>556.2</ele></trkpt><trkpt lat="63.788288" lon="-19.327681"><time>2021-07-26T13:46:41.000Z</time><ele>556</ele></trkpt><trkpt lat="63.788268" lon="-19.327786"><time>2021-07-26T13:46:45.000Z</time><ele>555.6</ele></trkpt><trkpt lat="63.788253" lon="-19.327822"><time>2021-07-26T13:46:47.000Z</time><ele>555.2</ele></trkpt><trkpt lat="63.788245" lon="-19.327834"><time>2021-07-26T13:46:48.000Z</time><ele>555</ele></trkpt><trkpt lat="63.788208" lon="-19.327873"><time>2021-07-26T13:46:51.000Z</time><ele>554.4</ele></trkpt><trkpt lat="63.788199" lon="-19.327894"><time>2021-07-26T13:46:52.000Z</time><ele>554.2</ele></trkpt><trkpt lat="63.788193" lon="-19.327917"><time>2021-07-26T13:46:53.000Z</time><ele>554</ele></trkpt><trkpt lat="63.788182" lon="-19.327945"><time>2021-07-26T13:46:55.000Z</time><ele>553.6</ele></trkpt><trkpt lat="63.788184" lon="-19.328038"><time>2021-07-26T13:46:59.000Z</time><ele>553.2</ele></trkpt><trkpt lat="63.788179" lon="-19.328076"><time>2021-07-26T13:47:01.000Z</time><ele>553.2</ele></trkpt><trkpt lat="63.788166" lon="-19.328124"><time>2021-07-26T13:47:03.000Z</time><ele>553.2</ele></trkpt><trkpt lat="63.788148" lon="-19.328237"><time>2021-07-26T13:47:08.000Z</time><ele>553</ele></trkpt><trkpt lat="63.788132" lon="-19.328319"><time>2021-07-26T13:47:11.000Z</time><ele>552.8</ele></trkpt><trkpt lat="63.788128" lon="-19.328339"><time>2021-07-26T13:47:12.000Z</time><ele>552.8</ele></trkpt><trkpt lat="63.788116" lon="-19.328434"><time>2021-07-26T13:47:16.000Z</time><ele>552.6</ele></trkpt><trkpt lat="63.78811" lon="-19.328456"><time>2021-07-26T13:47:17.000Z</time><ele>552.6</ele></trkpt><trkpt lat="63.788104" lon="-19.328493"><time>2021-07-26T13:47:19.000Z</time><ele>552.4</ele></trkpt><trkpt lat="63.7881" lon="-19.328582"><time>2021-07-26T13:47:22.000Z</time><ele>552</ele></trkpt><trkpt lat="63.788098" lon="-19.328618"><time>2021-07-26T13:47:23.000Z</time><ele>551.8</ele></trkpt><trkpt lat="63.788087" lon="-19.328719"><time>2021-07-26T13:47:27.000Z</time><ele>551.2</ele></trkpt><trkpt lat="63.788084" lon="-19.328761"><time>2021-07-26T13:47:29.000Z</time><ele>550.6</ele></trkpt><trkpt lat="63.788065" lon="-19.328924"><time>2021-07-26T13:47:36.000Z</time><ele>550</ele></trkpt><trkpt lat="63.788074" lon="-19.329199"><time>2021-07-26T13:47:46.000Z</time><ele>550</ele></trkpt><trkpt lat="63.788068" lon="-19.329257"><time>2021-07-26T13:47:48.000Z</time><ele>550</ele></trkpt><trkpt lat="63.788072" lon="-19.329376"><time>2021-07-26T13:47:53.000Z</time><ele>549.8</ele></trkpt><trkpt lat="63.788077" lon="-19.329456"><time>2021-07-26T13:47:56.000Z</time><ele>549.8</ele></trkpt><trkpt lat="63.788082" lon="-19.329503"><time>2021-07-26T13:47:58.000Z</time><ele>549.6</ele></trkpt><trkpt lat="63.788088" lon="-19.329547"><time>2021-07-26T13:48:00.000Z</time><ele>549.4</ele></trkpt><trkpt lat="63.788104" lon="-19.329776"><time>2021-07-26T13:48:08.000Z</time><ele>549.2</ele></trkpt><trkpt lat="63.788106" lon="-19.329929"><time>2021-07-26T13:48:14.000Z</time><ele>549</ele></trkpt><trkpt lat="63.788116" lon="-19.330025"><time>2021-07-26T13:48:18.000Z</time><ele>548.8</ele></trkpt><trkpt lat="63.788119" lon="-19.330133"><time>2021-07-26T13:48:22.000Z</time><ele>548.8</ele></trkpt><trkpt lat="63.788116" lon="-19.330356"><time>2021-07-26T13:48:31.000Z</time><ele>548.6</ele></trkpt><trkpt lat="63.788109" lon="-19.330399"><time>2021-07-26T13:48:33.000Z</time><ele>548.4</ele></trkpt><trkpt lat="63.788093" lon="-19.330483"><time>2021-07-26T13:48:37.000Z</time><ele>548.6</ele></trkpt><trkpt lat="63.788087" lon="-19.330548"><time>2021-07-26T13:48:41.000Z</time><ele>548.8</ele></trkpt><trkpt lat="63.788089" lon="-19.330547"><time>2021-07-26T13:48:42.000Z</time><ele>548.8</ele></trkpt><trkpt lat="63.788088" lon="-19.330544"><time>2021-07-26T13:48:43.000Z</time><ele>548.8</ele></trkpt><trkpt lat="63.788086" lon="-19.33054"><time>2021-07-26T13:48:44.000Z</time><ele>548.8</ele></trkpt><trkpt lat="63.788079" lon="-19.33053"><time>2021-07-26T13:48:50.000Z</time><ele>548.8</ele></trkpt><trkpt lat="63.788079" lon="-19.33053"><time>2021-07-26T13:48:57.000Z</time><ele>548.8</ele></trkpt><trkpt lat="63.788079" lon="-19.33053"><time>2021-07-26T13:49:01.000Z</time><ele>549</ele></trkpt><trkpt lat="63.788079" lon="-19.33053"><time>2021-07-26T13:49:02.000Z</time><ele>549.2</ele></trkpt><trkpt lat="63.788078" lon="-19.33053"><time>2021-07-26T13:49:14.000Z</time><ele>548.8</ele></trkpt><trkpt lat="63.788077" lon="-19.33053"><time>2021-07-26T13:49:17.000Z</time><ele>548.8</ele></trkpt><trkpt lat="63.788075" lon="-19.330531"><time>2021-07-26T13:49:31.000Z</time><ele>548.4</ele></trkpt><trkpt lat="63.788083" lon="-19.330532"><time>2021-07-26T13:49:46.000Z</time><ele>548.2</ele></trkpt><trkpt lat="63.788084" lon="-19.330532"><time>2021-07-26T13:49:49.000Z</time><ele>548.2</ele></trkpt><trkpt lat="63.788083" lon="-19.330543"><time>2021-07-26T13:50:05.000Z</time><ele>548.2</ele></trkpt><trkpt lat="63.788083" lon="-19.330543"><time>2021-07-26T13:50:08.000Z</time><ele>548.2</ele></trkpt><trkpt lat="63.788075" lon="-19.330687"><time>2021-07-26T13:50:22.000Z</time><ele>548</ele></trkpt><trkpt lat="63.788063" lon="-19.330899"><time>2021-07-26T13:50:29.000Z</time><ele>548.4</ele></trkpt><trkpt lat="63.78805" lon="-19.331081"><time>2021-07-26T13:50:37.000Z</time><ele>548.2</ele></trkpt><trkpt lat="63.788038" lon="-19.33125"><time>2021-07-26T13:50:44.000Z</time><ele>548</ele></trkpt><trkpt lat="63.788013" lon="-19.331463"><time>2021-07-26T13:50:53.000Z</time><ele>548</ele></trkpt><trkpt lat="63.788003" lon="-19.331497"><time>2021-07-26T13:50:55.000Z</time><ele>548</ele></trkpt><trkpt lat="63.787968" lon="-19.331653"><time>2021-07-26T13:51:02.000Z</time><ele>548.2</ele></trkpt><trkpt lat="63.787958" lon="-19.331707"><time>2021-07-26T13:51:04.000Z</time><ele>548.4</ele></trkpt><trkpt lat="63.787949" lon="-19.33175"><time>2021-07-26T13:51:06.000Z</time><ele>548</ele></trkpt><trkpt lat="63.787936" lon="-19.331832"><time>2021-07-26T13:51:09.000Z</time><ele>547.8</ele></trkpt><trkpt lat="63.78793" lon="-19.331857"><time>2021-07-26T13:51:10.000Z</time><ele>547.6</ele></trkpt><trkpt lat="63.787904" lon="-19.331942"><time>2021-07-26T13:51:14.000Z</time><ele>547.6</ele></trkpt><trkpt lat="63.7879" lon="-19.331968"><time>2021-07-26T13:51:15.000Z</time><ele>547.4</ele></trkpt><trkpt lat="63.78788" lon="-19.332027"><time>2021-07-26T13:51:18.000Z</time><ele>547.2</ele></trkpt><trkpt lat="63.787875" lon="-19.332047"><time>2021-07-26T13:51:19.000Z</time><ele>547.2</ele></trkpt><trkpt lat="63.787838" lon="-19.332171"><time>2021-07-26T13:51:24.000Z</time><ele>547.2</ele></trkpt><trkpt lat="63.787829" lon="-19.332208"><time>2021-07-26T13:51:26.000Z</time><ele>547</ele></trkpt><trkpt lat="63.787768" lon="-19.332397"><time>2021-07-26T13:51:34.000Z</time><ele>546.8</ele></trkpt><trkpt lat="63.787711" lon="-19.33261"><time>2021-07-26T13:51:43.000Z</time><ele>546.2</ele></trkpt><trkpt lat="63.7877" lon="-19.332669"><time>2021-07-26T13:51:45.000Z</time><ele>546</ele></trkpt><trkpt lat="63.787695" lon="-19.332688"><time>2021-07-26T13:51:46.000Z</time><ele>546</ele></trkpt><trkpt lat="63.787649" lon="-19.33285"><time>2021-07-26T13:51:53.000Z</time><ele>545.6</ele></trkpt><trkpt lat="63.787613" lon="-19.332993"><time>2021-07-26T13:51:59.000Z</time><ele>545.4</ele></trkpt><trkpt lat="63.787604" lon="-19.333031"><time>2021-07-26T13:52:01.000Z</time><ele>545.4</ele></trkpt><trkpt lat="63.787593" lon="-19.333065"><time>2021-07-26T13:52:03.000Z</time><ele>545.6</ele></trkpt><trkpt lat="63.787566" lon="-19.33317"><time>2021-07-26T13:52:07.000Z</time><ele>545.4</ele></trkpt><trkpt lat="63.787554" lon="-19.333203"><time>2021-07-26T13:52:09.000Z</time><ele>545.2</ele></trkpt><trkpt lat="63.787502" lon="-19.333342"><time>2021-07-26T13:52:16.000Z</time><ele>545</ele></trkpt><trkpt lat="63.787484" lon="-19.333417"><time>2021-07-26T13:52:19.000Z</time><ele>545</ele></trkpt><trkpt lat="63.787453" lon="-19.333491"><time>2021-07-26T13:52:23.000Z</time><ele>545.4</ele></trkpt><trkpt lat="63.787416" lon="-19.333589"><time>2021-07-26T13:52:28.000Z</time><ele>545.4</ele></trkpt><trkpt lat="63.787382" lon="-19.3337"><time>2021-07-26T13:52:33.000Z</time><ele>545.4</ele></trkpt><trkpt lat="63.787319" lon="-19.333856"><time>2021-07-26T13:52:41.000Z</time><ele>545.2</ele></trkpt><trkpt lat="63.787284" lon="-19.333971"><time>2021-07-26T13:52:46.000Z</time><ele>545.4</ele></trkpt><trkpt lat="63.787268" lon="-19.334036"><time>2021-07-26T13:52:50.000Z</time><ele>545.2</ele></trkpt><trkpt lat="63.787269" lon="-19.334038"><time>2021-07-26T13:52:51.000Z</time><ele>545.2</ele></trkpt><trkpt lat="63.787276" lon="-19.334031"><time>2021-07-26T13:52:55.000Z</time><ele>545.2</ele></trkpt><trkpt lat="63.787296" lon="-19.334028"><time>2021-07-26T13:52:59.000Z</time><ele>545.2</ele></trkpt><trkpt lat="63.787299" lon="-19.334021"><time>2021-07-26T13:53:07.000Z</time><ele>545.8</ele></trkpt><trkpt lat="63.787299" lon="-19.334021"><time>2021-07-26T13:53:08.000Z</time><ele>546</ele></trkpt><trkpt lat="63.787299" lon="-19.334021"><time>2021-07-26T13:53:09.000Z</time><ele>546.2</ele></trkpt><trkpt lat="63.787299" lon="-19.334021"><time>2021-07-26T13:53:12.000Z</time><ele>546</ele></trkpt><trkpt lat="63.787299" lon="-19.334021"><time>2021-07-26T13:53:14.000Z</time><ele>546</ele></trkpt><trkpt lat="63.787299" lon="-19.334026"><time>2021-07-26T13:53:35.000Z</time><ele>544.8</ele></trkpt><trkpt lat="63.787297" lon="-19.334026"><time>2021-07-26T13:53:40.000Z</time><ele>545</ele></trkpt><trkpt lat="63.787303" lon="-19.334009"><time>2021-07-26T13:54:04.000Z</time><ele>544.6</ele></trkpt><trkpt lat="63.787307" lon="-19.334007"><time>2021-07-26T13:54:07.000Z</time><ele>544.6</ele></trkpt><trkpt lat="63.787313" lon="-19.334003"><time>2021-07-26T13:54:44.000Z</time><ele>545.2</ele></trkpt><trkpt lat="63.787313" lon="-19.334003"><time>2021-07-26T13:54:45.000Z</time><ele>545.2</ele></trkpt><trkpt lat="63.787302" lon="-19.334024"><time>2021-07-26T13:54:50.000Z</time><ele>545.2</ele></trkpt><trkpt lat="63.787256" lon="-19.334159"><time>2021-07-26T13:54:54.000Z</time><ele>545.6</ele></trkpt><trkpt lat="63.787232" lon="-19.334212"><time>2021-07-26T13:54:56.000Z</time><ele>545.8</ele></trkpt><trkpt lat="63.787192" lon="-19.334333"><time>2021-07-26T13:55:00.000Z</time><ele>545.6</ele></trkpt><trkpt lat="63.787189" lon="-19.334352"><time>2021-07-26T13:55:01.000Z</time><ele>545.6</ele></trkpt><trkpt lat="63.787164" lon="-19.334424"><time>2021-07-26T13:55:06.000Z</time><ele>545.8</ele></trkpt><trkpt lat="63.787133" lon="-19.334506"><time>2021-07-26T13:55:11.000Z</time><ele>545.8</ele></trkpt><trkpt lat="63.78713" lon="-19.334527"><time>2021-07-26T13:55:13.000Z</time><ele>546.2</ele></trkpt><trkpt lat="63.787129" lon="-19.33453"><time>2021-07-26T13:55:14.000Z</time><ele>546.2</ele></trkpt><trkpt lat="63.787131" lon="-19.334527"><time>2021-07-26T13:55:15.000Z</time><ele>546.4</ele></trkpt><trkpt lat="63.787126" lon="-19.334536"><time>2021-07-26T13:55:20.000Z</time><ele>546.4</ele></trkpt><trkpt lat="63.787114" lon="-19.334589"><time>2021-07-26T13:55:26.000Z</time><ele>546.8</ele></trkpt><trkpt lat="63.787103" lon="-19.334627"><time>2021-07-26T13:55:28.000Z</time><ele>546.6</ele></trkpt><trkpt lat="63.787064" lon="-19.334749"><time>2021-07-26T13:55:34.000Z</time><ele>546.6</ele></trkpt><trkpt lat="63.787045" lon="-19.334805"><time>2021-07-26T13:55:37.000Z</time><ele>546.8</ele></trkpt><trkpt lat="63.786986" lon="-19.335001"><time>2021-07-26T13:55:46.000Z</time><ele>547</ele></trkpt><trkpt lat="63.786931" lon="-19.335157"><time>2021-07-26T13:55:55.000Z</time><ele>546.8</ele></trkpt><trkpt lat="63.786856" lon="-19.335344"><time>2021-07-26T13:56:05.000Z</time><ele>547.2</ele></trkpt><trkpt lat="63.786839" lon="-19.335411"><time>2021-07-26T13:56:09.000Z</time><ele>547.2</ele></trkpt><trkpt lat="63.786805" lon="-19.335548"><time>2021-07-26T13:56:16.000Z</time><ele>547.2</ele></trkpt><trkpt lat="63.786754" lon="-19.335763"><time>2021-07-26T13:56:26.000Z</time><ele>546.4</ele></trkpt><trkpt lat="63.786688" lon="-19.336003"><time>2021-07-26T13:56:37.000Z</time><ele>545.6</ele></trkpt><trkpt lat="63.786626" lon="-19.336216"><time>2021-07-26T13:56:47.000Z</time><ele>545.4</ele></trkpt><trkpt lat="63.786609" lon="-19.336279"><time>2021-07-26T13:56:50.000Z</time><ele>545.2</ele></trkpt><trkpt lat="63.786605" lon="-19.3363"><time>2021-07-26T13:56:51.000Z</time><ele>545.2</ele></trkpt><trkpt lat="63.786594" lon="-19.336378"><time>2021-07-26T13:56:54.000Z</time><ele>545.2</ele></trkpt><trkpt lat="63.786582" lon="-19.336418"><time>2021-07-26T13:56:56.000Z</time><ele>545.2</ele></trkpt><trkpt lat="63.78654" lon="-19.336553"><time>2021-07-26T13:57:02.000Z</time><ele>544.8</ele></trkpt><trkpt lat="63.786517" lon="-19.336643"><time>2021-07-26T13:57:06.000Z</time><ele>544.6</ele></trkpt><trkpt lat="63.786499" lon="-19.33671"><time>2021-07-26T13:57:09.000Z</time><ele>544.2</ele></trkpt><trkpt lat="63.786494" lon="-19.336734"><time>2021-07-26T13:57:10.000Z</time><ele>544.2</ele></trkpt><trkpt lat="63.786428" lon="-19.336924"><time>2021-07-26T13:57:19.000Z</time><ele>544.2</ele></trkpt><trkpt lat="63.786375" lon="-19.337104"><time>2021-07-26T13:57:27.000Z</time><ele>544.4</ele></trkpt><trkpt lat="63.786341" lon="-19.337218"><time>2021-07-26T13:57:32.000Z</time><ele>544.2</ele></trkpt><trkpt lat="63.786288" lon="-19.337434"><time>2021-07-26T13:57:41.000Z</time><ele>543.8</ele></trkpt><trkpt lat="63.786282" lon="-19.337476"><time>2021-07-26T13:57:43.000Z</time><ele>543.8</ele></trkpt><trkpt lat="63.786261" lon="-19.337577"><time>2021-07-26T13:57:47.000Z</time><ele>543.8</ele></trkpt><trkpt lat="63.786243" lon="-19.337649"><time>2021-07-26T13:57:50.000Z</time><ele>543.8</ele></trkpt><trkpt lat="63.786213" lon="-19.337753"><time>2021-07-26T13:57:54.000Z</time><ele>543.8</ele></trkpt><trkpt lat="63.786166" lon="-19.33795"><time>2021-07-26T13:58:02.000Z</time><ele>543.6</ele></trkpt><trkpt lat="63.786143" lon="-19.338064"><time>2021-07-26T13:58:09.000Z</time><ele>543.6</ele></trkpt><trkpt lat="63.786137" lon="-19.338082"><time>2021-07-26T13:58:10.000Z</time><ele>543.6</ele></trkpt><trkpt lat="63.786127" lon="-19.338119"><time>2021-07-26T13:58:12.000Z</time><ele>543.6</ele></trkpt><trkpt lat="63.786078" lon="-19.33831"><time>2021-07-26T13:58:19.000Z</time><ele>543.8</ele></trkpt><trkpt lat="63.786008" lon="-19.338537"><time>2021-07-26T13:58:29.000Z</time><ele>544</ele></trkpt><trkpt lat="63.785998" lon="-19.338581"><time>2021-07-26T13:58:31.000Z</time><ele>543.8</ele></trkpt><trkpt lat="63.785969" lon="-19.338691"><time>2021-07-26T13:58:36.000Z</time><ele>544</ele></trkpt><trkpt lat="63.785941" lon="-19.338829"><time>2021-07-26T13:58:42.000Z</time><ele>544</ele></trkpt><trkpt lat="63.785898" lon="-19.338964"><time>2021-07-26T13:58:48.000Z</time><ele>544.2</ele></trkpt><trkpt lat="63.785885" lon="-19.339045"><time>2021-07-26T13:58:52.000Z</time><ele>544.4</ele></trkpt><trkpt lat="63.785825" lon="-19.339255"><time>2021-07-26T13:59:01.000Z</time><ele>544.6</ele></trkpt><trkpt lat="63.7858" lon="-19.339353"><time>2021-07-26T13:59:05.000Z</time><ele>544.4</ele></trkpt><trkpt lat="63.78578" lon="-19.339433"><time>2021-07-26T13:59:08.000Z</time><ele>544.4</ele></trkpt><trkpt lat="63.785769" lon="-19.339473"><time>2021-07-26T13:59:10.000Z</time><ele>544.4</ele></trkpt><trkpt lat="63.785715" lon="-19.339657"><time>2021-07-26T13:59:18.000Z</time><ele>544.2</ele></trkpt><trkpt lat="63.785652" lon="-19.339887"><time>2021-07-26T13:59:29.000Z</time><ele>545.2</ele></trkpt><trkpt lat="63.785647" lon="-19.339907"><time>2021-07-26T13:59:30.000Z</time><ele>545.2</ele></trkpt><trkpt lat="63.785598" lon="-19.340014"><time>2021-07-26T13:59:36.000Z</time><ele>545.6</ele></trkpt><trkpt lat="63.785593" lon="-19.340033"><time>2021-07-26T13:59:37.000Z</time><ele>545.6</ele></trkpt><trkpt lat="63.785586" lon="-19.340054"><time>2021-07-26T13:59:38.000Z</time><ele>545.6</ele></trkpt><trkpt lat="63.785535" lon="-19.340243"><time>2021-07-26T13:59:46.000Z</time><ele>545</ele></trkpt><trkpt lat="63.785507" lon="-19.340319"><time>2021-07-26T13:59:50.000Z</time><ele>545</ele></trkpt><trkpt lat="63.785475" lon="-19.340411"><time>2021-07-26T13:59:55.000Z</time><ele>545</ele></trkpt><trkpt lat="63.785417" lon="-19.340559"><time>2021-07-26T14:00:04.000Z</time><ele>544</ele></trkpt><trkpt lat="63.78541" lon="-19.340575"><time>2021-07-26T14:00:05.000Z</time><ele>543.8</ele></trkpt><trkpt lat="63.785352" lon="-19.340681"><time>2021-07-26T14:00:13.000Z</time><ele>543.4</ele></trkpt><trkpt lat="63.785332" lon="-19.340748"><time>2021-07-26T14:00:18.000Z</time><ele>543</ele></trkpt><trkpt lat="63.785319" lon="-19.340787"><time>2021-07-26T14:00:21.000Z</time><ele>542.2</ele></trkpt><trkpt lat="63.785314" lon="-19.340817"><time>2021-07-26T14:00:23.000Z</time><ele>541.8</ele></trkpt><trkpt lat="63.7853" lon="-19.340877"><time>2021-07-26T14:00:28.000Z</time><ele>540.8</ele></trkpt><trkpt lat="63.785301" lon="-19.340908"><time>2021-07-26T14:00:31.000Z</time><ele>540.2</ele></trkpt><trkpt lat="63.785302" lon="-19.340911"><time>2021-07-26T14:00:32.000Z</time><ele>540</ele></trkpt><trkpt lat="63.785306" lon="-19.340917"><time>2021-07-26T14:00:36.000Z</time><ele>539.8</ele></trkpt><trkpt lat="63.785307" lon="-19.340907"><time>2021-07-26T14:00:39.000Z</time><ele>539.8</ele></trkpt><trkpt lat="63.785308" lon="-19.340905"><time>2021-07-26T14:00:48.000Z</time><ele>539.8</ele></trkpt><trkpt lat="63.785305" lon="-19.340904"><time>2021-07-26T14:01:02.000Z</time><ele>539.8</ele></trkpt><trkpt lat="63.785305" lon="-19.3409"><time>2021-07-26T14:01:11.000Z</time><ele>539.6</ele></trkpt><trkpt lat="63.785307" lon="-19.340922"><time>2021-07-26T14:01:22.000Z</time><ele>539.8</ele></trkpt><trkpt lat="63.785313" lon="-19.340941"><time>2021-07-26T14:01:27.000Z</time><ele>539.8</ele></trkpt><trkpt lat="63.785316" lon="-19.340992"><time>2021-07-26T14:01:34.000Z</time><ele>539.4</ele></trkpt><trkpt lat="63.785316" lon="-19.341028"><time>2021-07-26T14:01:37.000Z</time><ele>539.6</ele></trkpt><trkpt lat="63.785317" lon="-19.341076"><time>2021-07-26T14:01:41.000Z</time><ele>539.8</ele></trkpt><trkpt lat="63.785317" lon="-19.341102"><time>2021-07-26T14:01:52.000Z</time><ele>540.2</ele></trkpt><trkpt lat="63.785316" lon="-19.34112"><time>2021-07-26T14:01:55.000Z</time><ele>540.2</ele></trkpt><trkpt lat="63.785316" lon="-19.341124"><time>2021-07-26T14:01:59.000Z</time><ele>540.2</ele></trkpt><trkpt lat="63.785312" lon="-19.341127"><time>2021-07-26T14:02:09.000Z</time><ele>540.2</ele></trkpt><trkpt lat="63.785275" lon="-19.341218"><time>2021-07-26T14:02:29.000Z</time><ele>540.2</ele></trkpt><trkpt lat="63.785252" lon="-19.341258"><time>2021-07-26T14:02:31.000Z</time><ele>540.2</ele></trkpt><trkpt lat="63.78521" lon="-19.341322"><time>2021-07-26T14:02:39.000Z</time><ele>540.2</ele></trkpt><trkpt lat="63.785215" lon="-19.341314"><time>2021-07-26T14:02:48.000Z</time><ele>540.2</ele></trkpt><trkpt lat="63.785222" lon="-19.341299"><time>2021-07-26T14:03:15.000Z</time><ele>540.2</ele></trkpt><trkpt lat="63.78522" lon="-19.341296"><time>2021-07-26T14:03:41.000Z</time><ele>540.2</ele></trkpt><trkpt lat="63.785217" lon="-19.341316"><time>2021-07-26T14:04:05.000Z</time><ele>540.2</ele></trkpt><trkpt lat="63.785212" lon="-19.3413"><time>2021-07-26T14:04:16.000Z</time><ele>540.2</ele></trkpt><trkpt lat="63.785205" lon="-19.341292"><time>2021-07-26T14:04:21.000Z</time><ele>540.2</ele></trkpt><trkpt lat="63.785203" lon="-19.341289"><time>2021-07-26T14:04:24.000Z</time><ele>540.2</ele></trkpt><trkpt lat="63.785203" lon="-19.341287"><time>2021-07-26T14:04:27.000Z</time><ele>540.2</ele></trkpt><trkpt lat="63.785203" lon="-19.341286"><time>2021-07-26T14:04:28.000Z</time><ele>540.2</ele></trkpt><trkpt lat="63.785203" lon="-19.341285"><time>2021-07-26T14:04:29.000Z</time><ele>540.2</ele></trkpt><trkpt lat="63.785203" lon="-19.341283"><time>2021-07-26T14:04:32.000Z</time><ele>540.2</ele></trkpt><trkpt lat="63.785203" lon="-19.341275"><time>2021-07-26T14:04:49.000Z</time><ele>540.2</ele></trkpt><trkpt lat="63.785203" lon="-19.341274"><time>2021-07-26T14:04:51.000Z</time><ele>540.2</ele></trkpt><trkpt lat="63.785203" lon="-19.341273"><time>2021-07-26T14:04:55.000Z</time><ele>540.2</ele></trkpt><trkpt lat="63.785192" lon="-19.341289"><time>2021-07-26T14:05:37.000Z</time><ele>540.2</ele></trkpt><trkpt lat="63.785203" lon="-19.341288"><time>2021-07-26T14:05:49.000Z</time><ele>540.2</ele></trkpt><trkpt lat="63.785211" lon="-19.341283"><time>2021-07-26T14:05:59.000Z</time><ele>540.2</ele></trkpt><trkpt lat="63.785213" lon="-19.341282"><time>2021-07-26T14:06:02.000Z</time><ele>540.2</ele></trkpt><trkpt lat="63.785215" lon="-19.341281"><time>2021-07-26T14:06:26.000Z</time><ele>540.2</ele></trkpt><trkpt lat="63.785215" lon="-19.341281"><time>2021-07-26T14:06:31.000Z</time><ele>540.2</ele></trkpt><trkpt lat="63.785215" lon="-19.341282"><time>2021-07-26T14:06:47.000Z</time><ele>540.2</ele></trkpt><trkpt lat="63.785215" lon="-19.341283"><time>2021-07-26T14:07:14.000Z</time><ele>540.2</ele></trkpt><trkpt lat="63.785215" lon="-19.341283"><time>2021-07-26T14:07:31.000Z</time><ele>540.2</ele></trkpt><trkpt lat="63.785214" lon="-19.341283"><time>2021-07-26T14:07:42.000Z</time><ele>540.2</ele></trkpt><trkpt lat="63.785214" lon="-19.341283"><time>2021-07-26T14:07:44.000Z</time><ele>540.2</ele></trkpt><trkpt lat="63.785214" lon="-19.341283"><time>2021-07-26T14:07:46.000Z</time><ele>540.2</ele></trkpt><trkpt lat="63.785214" lon="-19.341283"><time>2021-07-26T14:07:51.000Z</time><ele>540.2</ele></trkpt><trkpt lat="63.785214" lon="-19.341283"><time>2021-07-26T14:08:08.000Z</time><ele>540.2</ele></trkpt><trkpt lat="63.785214" lon="-19.341284"><time>2021-07-26T14:08:22.000Z</time><ele>540.2</ele></trkpt><trkpt lat="63.785214" lon="-19.341284"><time>2021-07-26T14:08:34.000Z</time><ele>540.2</ele></trkpt><trkpt lat="63.785214" lon="-19.341284"><time>2021-07-26T14:08:38.000Z</time><ele>540.2</ele></trkpt><trkpt lat="63.785213" lon="-19.341285"><time>2021-07-26T14:08:55.000Z</time><ele>540.2</ele></trkpt><trkpt lat="63.785213" lon="-19.341286"><time>2021-07-26T14:09:02.000Z</time><ele>540.2</ele></trkpt><trkpt lat="63.785213" lon="-19.341286"><time>2021-07-26T14:09:16.000Z</time><ele>540.2</ele></trkpt><trkpt lat="63.785213" lon="-19.341287"><time>2021-07-26T14:09:21.000Z</time><ele>540.2</ele></trkpt><trkpt lat="63.785213" lon="-19.341287"><time>2021-07-26T14:09:24.000Z</time><ele>540.2</ele></trkpt><trkpt lat="63.785213" lon="-19.341288"><time>2021-07-26T14:09:41.000Z</time><ele>540.2</ele></trkpt><trkpt lat="63.785213" lon="-19.34129"><time>2021-07-26T14:10:12.000Z</time><ele>540.2</ele></trkpt><trkpt lat="63.785213" lon="-19.341291"><time>2021-07-26T14:10:23.000Z</time><ele>540.2</ele></trkpt><trkpt lat="63.785213" lon="-19.341292"><time>2021-07-26T14:10:30.000Z</time><ele>540.2</ele></trkpt><trkpt lat="63.785213" lon="-19.341292"><time>2021-07-26T14:10:37.000Z</time><ele>540.2</ele></trkpt><trkpt lat="63.785213" lon="-19.341293"><time>2021-07-26T14:10:48.000Z</time><ele>540.2</ele></trkpt><trkpt lat="63.785213" lon="-19.341293"><time>2021-07-26T14:10:50.000Z</time><ele>540.2</ele></trkpt><trkpt lat="63.785213" lon="-19.341294"><time>2021-07-26T14:11:09.000Z</time><ele>540.2</ele></trkpt><trkpt lat="63.785213" lon="-19.341294"><time>2021-07-26T14:11:16.000Z</time><ele>540.2</ele></trkpt><trkpt lat="63.785213" lon="-19.341295"><time>2021-07-26T14:11:29.000Z</time><ele>540.2</ele></trkpt><trkpt lat="63.785213" lon="-19.341295"><time>2021-07-26T14:11:35.000Z</time><ele>540.2</ele></trkpt><trkpt lat="63.785213" lon="-19.341295"><time>2021-07-26T14:11:44.000Z</time><ele>540.2</ele></trkpt><trkpt lat="63.785213" lon="-19.341295"><time>2021-07-26T14:11:49.000Z</time><ele>540.2</ele></trkpt><trkpt lat="63.785213" lon="-19.341295"><time>2021-07-26T14:11:54.000Z</time><ele>540.2</ele></trkpt><trkpt lat="63.785213" lon="-19.341295"><time>2021-07-26T14:11:57.000Z</time><ele>540.2</ele></trkpt><trkpt lat="63.785213" lon="-19.341295"><time>2021-07-26T14:12:03.000Z</time><ele>540.2</ele></trkpt><trkpt lat="63.785213" lon="-19.341296"><time>2021-07-26T14:12:15.000Z</time><ele>540.2</ele></trkpt><trkpt lat="63.785213" lon="-19.341296"><time>2021-07-26T14:12:17.000Z</time><ele>540.2</ele></trkpt><trkpt lat="63.785213" lon="-19.341296"><time>2021-07-26T14:12:18.000Z</time><ele>540.2</ele></trkpt><trkpt lat="63.785213" lon="-19.341296"><time>2021-07-26T14:12:20.000Z</time><ele>540.2</ele></trkpt><trkpt lat="63.785213" lon="-19.341297"><time>2021-07-26T14:12:29.000Z</time><ele>540.2</ele></trkpt><trkpt lat="63.785213" lon="-19.341297"><time>2021-07-26T14:12:31.000Z</time><ele>540.2</ele></trkpt><trkpt lat="63.785213" lon="-19.341297"><time>2021-07-26T14:12:33.000Z</time><ele>540.2</ele></trkpt><trkpt lat="63.785213" lon="-19.341298"><time>2021-07-26T14:12:46.000Z</time><ele>540.2</ele></trkpt><trkpt lat="63.785167" lon="-19.341394"><time>2021-07-26T14:13:03.000Z</time><ele>540.2</ele></trkpt><trkpt lat="63.785145" lon="-19.341445"><time>2021-07-26T14:13:05.000Z</time><ele>540.2</ele></trkpt><trkpt lat="63.785124" lon="-19.341505"><time>2021-07-26T14:13:07.000Z</time><ele>540</ele></trkpt><trkpt lat="63.785111" lon="-19.341532"><time>2021-07-26T14:13:08.000Z</time><ele>540</ele></trkpt><trkpt lat="63.78507" lon="-19.341594"><time>2021-07-26T14:13:15.000Z</time><ele>539.2</ele></trkpt><trkpt lat="63.785036" lon="-19.341673"><time>2021-07-26T14:13:22.000Z</time><ele>539</ele></trkpt><trkpt lat="63.785" lon="-19.341771"><time>2021-07-26T14:13:29.000Z</time><ele>539.6</ele></trkpt><trkpt lat="63.784975" lon="-19.341851"><time>2021-07-26T14:13:33.000Z</time><ele>539.8</ele></trkpt><trkpt lat="63.784933" lon="-19.341957"><time>2021-07-26T14:13:39.000Z</time><ele>539.6</ele></trkpt><trkpt lat="63.784894" lon="-19.34215"><time>2021-07-26T14:13:49.000Z</time><ele>540</ele></trkpt><trkpt lat="63.784881" lon="-19.342249"><time>2021-07-26T14:13:54.000Z</time><ele>540.6</ele></trkpt><trkpt lat="63.784865" lon="-19.342301"><time>2021-07-26T14:13:57.000Z</time><ele>540.8</ele></trkpt><trkpt lat="63.78486" lon="-19.342317"><time>2021-07-26T14:13:58.000Z</time><ele>541</ele></trkpt><trkpt lat="63.784795" lon="-19.34251"><time>2021-07-26T14:14:08.000Z</time><ele>540.8</ele></trkpt><trkpt lat="63.784784" lon="-19.342525"><time>2021-07-26T14:14:09.000Z</time><ele>540.8</ele></trkpt><trkpt lat="63.784782" lon="-19.34253"><time>2021-07-26T14:14:12.000Z</time><ele>540.8</ele></trkpt><trkpt lat="63.784785" lon="-19.34254"><time>2021-07-26T14:14:13.000Z</time><ele>540.8</ele></trkpt><trkpt lat="63.784761" lon="-19.342643"><time>2021-07-26T14:14:19.000Z</time><ele>541</ele></trkpt><trkpt lat="63.784711" lon="-19.342798"><time>2021-07-26T14:14:29.000Z</time><ele>541.2</ele></trkpt><trkpt lat="63.784692" lon="-19.342868"><time>2021-07-26T14:14:32.000Z</time><ele>541.4</ele></trkpt><trkpt lat="63.784674" lon="-19.342941"><time>2021-07-26T14:14:36.000Z</time><ele>541.6</ele></trkpt><trkpt lat="63.784669" lon="-19.342964"><time>2021-07-26T14:14:37.000Z</time><ele>541.6</ele></trkpt><trkpt lat="63.784665" lon="-19.342982"><time>2021-07-26T14:14:38.000Z</time><ele>541.8</ele></trkpt><trkpt lat="63.784654" lon="-19.343023"><time>2021-07-26T14:14:40.000Z</time><ele>541.8</ele></trkpt><trkpt lat="63.784637" lon="-19.343069"><time>2021-07-26T14:14:42.000Z</time><ele>541.8</ele></trkpt><trkpt lat="63.784628" lon="-19.343103"><time>2021-07-26T14:14:44.000Z</time><ele>541.8</ele></trkpt><trkpt lat="63.784613" lon="-19.34314"><time>2021-07-26T14:14:46.000Z</time><ele>541.8</ele></trkpt><trkpt lat="63.784606" lon="-19.343159"><time>2021-07-26T14:14:47.000Z</time><ele>541.8</ele></trkpt><trkpt lat="63.784603" lon="-19.34318"><time>2021-07-26T14:14:48.000Z</time><ele>541.8</ele></trkpt><trkpt lat="63.784541" lon="-19.343374"><time>2021-07-26T14:14:59.000Z</time><ele>542</ele></trkpt><trkpt lat="63.784492" lon="-19.343517"><time>2021-07-26T14:15:07.000Z</time><ele>542.4</ele></trkpt><trkpt lat="63.784464" lon="-19.343599"><time>2021-07-26T14:15:11.000Z</time><ele>542.4</ele></trkpt><trkpt lat="63.784458" lon="-19.343615"><time>2021-07-26T14:15:12.000Z</time><ele>542.4</ele></trkpt><trkpt lat="63.784402" lon="-19.343777"><time>2021-07-26T14:15:21.000Z</time><ele>542.8</ele></trkpt><trkpt lat="63.784395" lon="-19.343795"><time>2021-07-26T14:15:22.000Z</time><ele>542.8</ele></trkpt><trkpt lat="63.784387" lon="-19.343815"><time>2021-07-26T14:15:23.000Z</time><ele>542.8</ele></trkpt><trkpt lat="63.784342" lon="-19.34394"><time>2021-07-26T14:15:29.000Z</time><ele>542.8</ele></trkpt><trkpt lat="63.784331" lon="-19.34397"><time>2021-07-26T14:15:31.000Z</time><ele>542.8</ele></trkpt><trkpt lat="63.784311" lon="-19.344033"><time>2021-07-26T14:15:33.000Z</time><ele>542.8</ele></trkpt><trkpt lat="63.784271" lon="-19.344101"><time>2021-07-26T14:15:36.000Z</time><ele>542.8</ele></trkpt><trkpt lat="63.784257" lon="-19.344143"><time>2021-07-26T14:15:38.000Z</time><ele>542.8</ele></trkpt><trkpt lat="63.78425" lon="-19.344169"><time>2021-07-26T14:15:40.000Z</time><ele>542.8</ele></trkpt><trkpt lat="63.784244" lon="-19.344184"><time>2021-07-26T14:15:41.000Z</time><ele>542.8</ele></trkpt><trkpt lat="63.784201" lon="-19.344312"><time>2021-07-26T14:15:48.000Z</time><ele>543</ele></trkpt><trkpt lat="63.784182" lon="-19.344366"><time>2021-07-26T14:15:51.000Z</time><ele>543</ele></trkpt><trkpt lat="63.784162" lon="-19.344414"><time>2021-07-26T14:15:54.000Z</time><ele>543</ele></trkpt><trkpt lat="63.784149" lon="-19.344447"><time>2021-07-26T14:15:56.000Z</time><ele>543</ele></trkpt><trkpt lat="63.784142" lon="-19.344467"><time>2021-07-26T14:15:57.000Z</time><ele>542.8</ele></trkpt><trkpt lat="63.784071" lon="-19.344683"><time>2021-07-26T14:16:07.000Z</time><ele>543</ele></trkpt><trkpt lat="63.784068" lon="-19.344703"><time>2021-07-26T14:16:08.000Z</time><ele>542.8</ele></trkpt><trkpt lat="63.784028" lon="-19.344823"><time>2021-07-26T14:16:14.000Z</time><ele>542.8</ele></trkpt><trkpt lat="63.784002" lon="-19.344899"><time>2021-07-26T14:16:18.000Z</time><ele>543</ele></trkpt><trkpt lat="63.783992" lon="-19.344936"><time>2021-07-26T14:16:20.000Z</time><ele>543.2</ele></trkpt><trkpt lat="63.783988" lon="-19.344949"><time>2021-07-26T14:16:21.000Z</time><ele>543.2</ele></trkpt><trkpt lat="63.783943" lon="-19.345087"><time>2021-07-26T14:16:27.000Z</time><ele>543.2</ele></trkpt><trkpt lat="63.783935" lon="-19.345102"><time>2021-07-26T14:16:28.000Z</time><ele>543.2</ele></trkpt><trkpt lat="63.783903" lon="-19.345173"><time>2021-07-26T14:16:32.000Z</time><ele>543.4</ele></trkpt><trkpt lat="63.783903" lon="-19.345176"><time>2021-07-26T14:16:34.000Z</time><ele>543.4</ele></trkpt><trkpt lat="63.783908" lon="-19.345172"><time>2021-07-26T14:16:35.000Z</time><ele>543.4</ele></trkpt><trkpt lat="63.783908" lon="-19.345174"><time>2021-07-26T14:16:36.000Z</time><ele>543.2</ele></trkpt><trkpt lat="63.783894" lon="-19.345219"><time>2021-07-26T14:16:39.000Z</time><ele>543.2</ele></trkpt><trkpt lat="63.783898" lon="-19.345228"><time>2021-07-26T14:16:41.000Z</time><ele>543.4</ele></trkpt><trkpt lat="63.783876" lon="-19.345281"><time>2021-07-26T14:16:44.000Z</time><ele>543.4</ele></trkpt><trkpt lat="63.783873" lon="-19.345299"><time>2021-07-26T14:16:45.000Z</time><ele>543.4</ele></trkpt><trkpt lat="63.783858" lon="-19.345356"><time>2021-07-26T14:16:48.000Z</time><ele>543</ele></trkpt><trkpt lat="63.78381" lon="-19.345494"><time>2021-07-26T14:16:55.000Z</time><ele>543</ele></trkpt><trkpt lat="63.783751" lon="-19.345658"><time>2021-07-26T14:17:04.000Z</time><ele>543.2</ele></trkpt><trkpt lat="63.783691" lon="-19.34583"><time>2021-07-26T14:17:12.000Z</time><ele>543.4</ele></trkpt><trkpt lat="63.783642" lon="-19.345934"><time>2021-07-26T14:17:19.000Z</time><ele>543.4</ele></trkpt><trkpt lat="63.783592" lon="-19.346081"><time>2021-07-26T14:17:27.000Z</time><ele>543.6</ele></trkpt><trkpt lat="63.78359" lon="-19.346083"><time>2021-07-26T14:17:28.000Z</time><ele>543.4</ele></trkpt><trkpt lat="63.783608" lon="-19.346074"><time>2021-07-26T14:17:47.000Z</time><ele>543.2</ele></trkpt><trkpt lat="63.783608" lon="-19.346076"><time>2021-07-26T14:17:52.000Z</time><ele>543.4</ele></trkpt><trkpt lat="63.783594" lon="-19.346121"><time>2021-07-26T14:18:01.000Z</time><ele>543.4</ele></trkpt><trkpt lat="63.78357" lon="-19.346178"><time>2021-07-26T14:18:03.000Z</time><ele>543.4</ele></trkpt><trkpt lat="63.783562" lon="-19.346205"><time>2021-07-26T14:18:04.000Z</time><ele>543.4</ele></trkpt><trkpt lat="63.783503" lon="-19.346395"><time>2021-07-26T14:18:11.000Z</time><ele>543.2</ele></trkpt><trkpt lat="63.783494" lon="-19.346414"><time>2021-07-26T14:18:12.000Z</time><ele>543.4</ele></trkpt><trkpt lat="63.783405" lon="-19.346625"><time>2021-07-26T14:18:24.000Z</time><ele>543.6</ele></trkpt><trkpt lat="63.783379" lon="-19.346732"><time>2021-07-26T14:18:30.000Z</time><ele>544</ele></trkpt><trkpt lat="63.783374" lon="-19.346744"><time>2021-07-26T14:18:31.000Z</time><ele>544</ele></trkpt><trkpt lat="63.783363" lon="-19.346781"><time>2021-07-26T14:18:33.000Z</time><ele>544</ele></trkpt><trkpt lat="63.783317" lon="-19.346871"><time>2021-07-26T14:18:38.000Z</time><ele>544.4</ele></trkpt><trkpt lat="63.7833" lon="-19.346918"><time>2021-07-26T14:18:40.000Z</time><ele>544.6</ele></trkpt><trkpt lat="63.783291" lon="-19.346996"><time>2021-07-26T14:18:43.000Z</time><ele>544.8</ele></trkpt><trkpt lat="63.783289" lon="-19.347025"><time>2021-07-26T14:18:44.000Z</time><ele>545</ele></trkpt><trkpt lat="63.783274" lon="-19.347091"><time>2021-07-26T14:18:47.000Z</time><ele>545</ele></trkpt><trkpt lat="63.783266" lon="-19.347133"><time>2021-07-26T14:18:49.000Z</time><ele>545.2</ele></trkpt><trkpt lat="63.783259" lon="-19.347149"><time>2021-07-26T14:18:50.000Z</time><ele>545</ele></trkpt><trkpt lat="63.783255" lon="-19.347167"><time>2021-07-26T14:18:51.000Z</time><ele>545</ele></trkpt><trkpt lat="63.783216" lon="-19.347362"><time>2021-07-26T14:18:59.000Z</time><ele>544.6</ele></trkpt><trkpt lat="63.783152" lon="-19.347552"><time>2021-07-26T14:19:08.000Z</time><ele>544.6</ele></trkpt><trkpt lat="63.783124" lon="-19.347726"><time>2021-07-26T14:19:15.000Z</time><ele>544.6</ele></trkpt><trkpt lat="63.783102" lon="-19.34777"><time>2021-07-26T14:19:17.000Z</time><ele>544.8</ele></trkpt><trkpt lat="63.783039" lon="-19.348023"><time>2021-07-26T14:19:28.000Z</time><ele>544.6</ele></trkpt><trkpt lat="63.783014" lon="-19.348131"><time>2021-07-26T14:19:33.000Z</time><ele>544.4</ele></trkpt><trkpt lat="63.783012" lon="-19.348152"><time>2021-07-26T14:19:34.000Z</time><ele>544.6</ele></trkpt><trkpt lat="63.782996" lon="-19.348232"><time>2021-07-26T14:19:38.000Z</time><ele>544.6</ele></trkpt><trkpt lat="63.782973" lon="-19.348309"><time>2021-07-26T14:19:41.000Z</time><ele>544.6</ele></trkpt><trkpt lat="63.782941" lon="-19.348457"><time>2021-07-26T14:19:47.000Z</time><ele>544.6</ele></trkpt><trkpt lat="63.78289" lon="-19.34862"><time>2021-07-26T14:19:55.000Z</time><ele>544.6</ele></trkpt><trkpt lat="63.782867" lon="-19.348679"><time>2021-07-26T14:19:58.000Z</time><ele>544.6</ele></trkpt><trkpt lat="63.782828" lon="-19.348818"><time>2021-07-26T14:20:04.000Z</time><ele>545</ele></trkpt><trkpt lat="63.782786" lon="-19.348979"><time>2021-07-26T14:20:13.000Z</time><ele>545</ele></trkpt><trkpt lat="63.782754" lon="-19.349062"><time>2021-07-26T14:20:17.000Z</time><ele>545.2</ele></trkpt><trkpt lat="63.782739" lon="-19.34911"><time>2021-07-26T14:20:19.000Z</time><ele>545.2</ele></trkpt><trkpt lat="63.782698" lon="-19.349221"><time>2021-07-26T14:20:25.000Z</time><ele>545.4</ele></trkpt><trkpt lat="63.782633" lon="-19.349421"><time>2021-07-26T14:20:34.000Z</time><ele>546</ele></trkpt><trkpt lat="63.782595" lon="-19.349533"><time>2021-07-26T14:20:39.000Z</time><ele>546</ele></trkpt><trkpt lat="63.782586" lon="-19.349557"><time>2021-07-26T14:20:40.000Z</time><ele>546</ele></trkpt><trkpt lat="63.782567" lon="-19.349629"><time>2021-07-26T14:20:44.000Z</time><ele>546.2</ele></trkpt><trkpt lat="63.782542" lon="-19.349696"><time>2021-07-26T14:20:48.000Z</time><ele>546.6</ele></trkpt><trkpt lat="63.782484" lon="-19.349845"><time>2021-07-26T14:20:55.000Z</time><ele>547</ele></trkpt><trkpt lat="63.782472" lon="-19.349886"><time>2021-07-26T14:20:57.000Z</time><ele>547.2</ele></trkpt><trkpt lat="63.78247" lon="-19.349902"><time>2021-07-26T14:20:58.000Z</time><ele>547.2</ele></trkpt><trkpt lat="63.782465" lon="-19.349923"><time>2021-07-26T14:20:59.000Z</time><ele>547.4</ele></trkpt><trkpt lat="63.782435" lon="-19.350025"><time>2021-07-26T14:21:04.000Z</time><ele>547.6</ele></trkpt><trkpt lat="63.782388" lon="-19.350128"><time>2021-07-26T14:21:08.000Z</time><ele>547.8</ele></trkpt><trkpt lat="63.782383" lon="-19.350162"><time>2021-07-26T14:21:10.000Z</time><ele>548</ele></trkpt><trkpt lat="63.782314" lon="-19.350354"><time>2021-07-26T14:21:21.000Z</time><ele>548.6</ele></trkpt><trkpt lat="63.782286" lon="-19.350429"><time>2021-07-26T14:21:24.000Z</time><ele>548.6</ele></trkpt><trkpt lat="63.782254" lon="-19.350525"><time>2021-07-26T14:21:28.000Z</time><ele>548.6</ele></trkpt><trkpt lat="63.78224" lon="-19.350559"><time>2021-07-26T14:21:30.000Z</time><ele>548.6</ele></trkpt><trkpt lat="63.782203" lon="-19.350639"><time>2021-07-26T14:21:34.000Z</time><ele>548.8</ele></trkpt><trkpt lat="63.782131" lon="-19.350773"><time>2021-07-26T14:21:42.000Z</time><ele>548.4</ele></trkpt><trkpt lat="63.782066" lon="-19.350915"><time>2021-07-26T14:21:49.000Z</time><ele>548.4</ele></trkpt><trkpt lat="63.78203" lon="-19.351006"><time>2021-07-26T14:21:54.000Z</time><ele>548.4</ele></trkpt><trkpt lat="63.781999" lon="-19.351073"><time>2021-07-26T14:21:57.000Z</time><ele>548.4</ele></trkpt><trkpt lat="63.781981" lon="-19.351097"><time>2021-07-26T14:21:59.000Z</time><ele>548.6</ele></trkpt><trkpt lat="63.781941" lon="-19.351215"><time>2021-07-26T14:22:06.000Z</time><ele>549</ele></trkpt><trkpt lat="63.781936" lon="-19.351232"><time>2021-07-26T14:22:07.000Z</time><ele>549</ele></trkpt><trkpt lat="63.781909" lon="-19.351317"><time>2021-07-26T14:22:11.000Z</time><ele>549.6</ele></trkpt><trkpt lat="63.781889" lon="-19.351379"><time>2021-07-26T14:22:14.000Z</time><ele>549.8</ele></trkpt><trkpt lat="63.781882" lon="-19.351398"><time>2021-07-26T14:22:15.000Z</time><ele>550.2</ele></trkpt><trkpt lat="63.781864" lon="-19.351472"><time>2021-07-26T14:22:20.000Z</time><ele>550.8</ele></trkpt><trkpt lat="63.781849" lon="-19.351543"><time>2021-07-26T14:22:23.000Z</time><ele>551</ele></trkpt><trkpt lat="63.781828" lon="-19.35162"><time>2021-07-26T14:22:27.000Z</time><ele>551.2</ele></trkpt><trkpt lat="63.781792" lon="-19.351755"><time>2021-07-26T14:22:33.000Z</time><ele>552</ele></trkpt><trkpt lat="63.781762" lon="-19.351837"><time>2021-07-26T14:22:38.000Z</time><ele>552.2</ele></trkpt><trkpt lat="63.781751" lon="-19.351851"><time>2021-07-26T14:22:39.000Z</time><ele>552.2</ele></trkpt><trkpt lat="63.781734" lon="-19.35191"><time>2021-07-26T14:22:42.000Z</time><ele>552.4</ele></trkpt><trkpt lat="63.781729" lon="-19.351937"><time>2021-07-26T14:22:43.000Z</time><ele>552.6</ele></trkpt><trkpt lat="63.781723" lon="-19.351958"><time>2021-07-26T14:22:44.000Z</time><ele>552.6</ele></trkpt><trkpt lat="63.781687" lon="-19.352063"><time>2021-07-26T14:22:50.000Z</time><ele>553</ele></trkpt><trkpt lat="63.781683" lon="-19.352078"><time>2021-07-26T14:22:51.000Z</time><ele>553.2</ele></trkpt><trkpt lat="63.781663" lon="-19.35211"><time>2021-07-26T14:22:53.000Z</time><ele>553.4</ele></trkpt><trkpt lat="63.781656" lon="-19.352125"><time>2021-07-26T14:22:54.000Z</time><ele>553.4</ele></trkpt><trkpt lat="63.781624" lon="-19.35224"><time>2021-07-26T14:23:00.000Z</time><ele>553.6</ele></trkpt><trkpt lat="63.781555" lon="-19.352457"><time>2021-07-26T14:23:11.000Z</time><ele>554</ele></trkpt><trkpt lat="63.781553" lon="-19.352475"><time>2021-07-26T14:23:12.000Z</time><ele>554</ele></trkpt><trkpt lat="63.781497" lon="-19.352648"><time>2021-07-26T14:23:22.000Z</time><ele>554.4</ele></trkpt><trkpt lat="63.781492" lon="-19.352667"><time>2021-07-26T14:23:23.000Z</time><ele>554.4</ele></trkpt><trkpt lat="63.781477" lon="-19.35272"><time>2021-07-26T14:23:26.000Z</time><ele>554.4</ele></trkpt><trkpt lat="63.781467" lon="-19.352759"><time>2021-07-26T14:23:28.000Z</time><ele>554.6</ele></trkpt><trkpt lat="63.781438" lon="-19.352833"><time>2021-07-26T14:23:31.000Z</time><ele>554.4</ele></trkpt><trkpt lat="63.781398" lon="-19.352972"><time>2021-07-26T14:23:37.000Z</time><ele>554.2</ele></trkpt><trkpt lat="63.781347" lon="-19.35315"><time>2021-07-26T14:23:45.000Z</time><ele>554.6</ele></trkpt><trkpt lat="63.78132" lon="-19.35327"><time>2021-07-26T14:23:51.000Z</time><ele>554.8</ele></trkpt><trkpt lat="63.7813" lon="-19.353365"><time>2021-07-26T14:23:55.000Z</time><ele>555</ele></trkpt><trkpt lat="63.781292" lon="-19.35339"><time>2021-07-26T14:23:56.000Z</time><ele>555</ele></trkpt><trkpt lat="63.781292" lon="-19.353406"><time>2021-07-26T14:23:57.000Z</time><ele>555.2</ele></trkpt><trkpt lat="63.781284" lon="-19.35343"><time>2021-07-26T14:23:58.000Z</time><ele>555.2</ele></trkpt><trkpt lat="63.781277" lon="-19.353451"><time>2021-07-26T14:23:59.000Z</time><ele>555.2</ele></trkpt><trkpt lat="63.781271" lon="-19.353466"><time>2021-07-26T14:24:00.000Z</time><ele>555.4</ele></trkpt><trkpt lat="63.781243" lon="-19.353529"><time>2021-07-26T14:24:03.000Z</time><ele>555.4</ele></trkpt><trkpt lat="63.781229" lon="-19.353574"><time>2021-07-26T14:24:05.000Z</time><ele>555.6</ele></trkpt><trkpt lat="63.781197" lon="-19.353657"><time>2021-07-26T14:24:10.000Z</time><ele>555.6</ele></trkpt><trkpt lat="63.78119" lon="-19.353671"><time>2021-07-26T14:24:11.000Z</time><ele>555.6</ele></trkpt><trkpt lat="63.781164" lon="-19.353764"><time>2021-07-26T14:24:15.000Z</time><ele>556</ele></trkpt><trkpt lat="63.781105" lon="-19.353922"><time>2021-07-26T14:24:24.000Z</time><ele>556.2</ele></trkpt><trkpt lat="63.781035" lon="-19.354044"><time>2021-07-26T14:24:33.000Z</time><ele>556.2</ele></trkpt><trkpt lat="63.781018" lon="-19.354069"><time>2021-07-26T14:24:35.000Z</time><ele>556.2</ele></trkpt><trkpt lat="63.780968" lon="-19.354188"><time>2021-07-26T14:24:42.000Z</time><ele>556.2</ele></trkpt><trkpt lat="63.780953" lon="-19.354217"><time>2021-07-26T14:24:44.000Z</time><ele>556.2</ele></trkpt><trkpt lat="63.780929" lon="-19.354272"><time>2021-07-26T14:24:47.000Z</time><ele>556.6</ele></trkpt><trkpt lat="63.780901" lon="-19.354385"><time>2021-07-26T14:24:53.000Z</time><ele>557</ele></trkpt><trkpt lat="63.78087" lon="-19.354478"><time>2021-07-26T14:24:58.000Z</time><ele>557.6</ele></trkpt><trkpt lat="63.780818" lon="-19.354608"><time>2021-07-26T14:25:05.000Z</time><ele>558.4</ele></trkpt><trkpt lat="63.78082" lon="-19.354631"><time>2021-07-26T14:25:07.000Z</time><ele>558.6</ele></trkpt><trkpt lat="63.780805" lon="-19.354669"><time>2021-07-26T14:25:10.000Z</time><ele>558.8</ele></trkpt><trkpt lat="63.780788" lon="-19.354715"><time>2021-07-26T14:25:13.000Z</time><ele>559</ele></trkpt><trkpt lat="63.780782" lon="-19.35473"><time>2021-07-26T14:25:14.000Z</time><ele>559.2</ele></trkpt><trkpt lat="63.780735" lon="-19.354946"><time>2021-07-26T14:25:24.000Z</time><ele>559.4</ele></trkpt><trkpt lat="63.780656" lon="-19.355118"><time>2021-07-26T14:25:34.000Z</time><ele>559</ele></trkpt><trkpt lat="63.780605" lon="-19.355244"><time>2021-07-26T14:25:41.000Z</time><ele>558.8</ele></trkpt><trkpt lat="63.780575" lon="-19.355378"><time>2021-07-26T14:25:47.000Z</time><ele>558.2</ele></trkpt><trkpt lat="63.780561" lon="-19.355422"><time>2021-07-26T14:25:49.000Z</time><ele>558</ele></trkpt><trkpt lat="63.780481" lon="-19.355638"><time>2021-07-26T14:26:01.000Z</time><ele>558</ele></trkpt><trkpt lat="63.780467" lon="-19.355685"><time>2021-07-26T14:26:03.000Z</time><ele>558</ele></trkpt><trkpt lat="63.780443" lon="-19.355732"><time>2021-07-26T14:26:05.000Z</time><ele>558</ele></trkpt><trkpt lat="63.780407" lon="-19.355846"><time>2021-07-26T14:26:12.000Z</time><ele>558.4</ele></trkpt><trkpt lat="63.780362" lon="-19.355998"><time>2021-07-26T14:26:19.000Z</time><ele>558.4</ele></trkpt><trkpt lat="63.780341" lon="-19.356059"><time>2021-07-26T14:26:22.000Z</time><ele>557.8</ele></trkpt><trkpt lat="63.780273" lon="-19.356252"><time>2021-07-26T14:26:32.000Z</time><ele>558.8</ele></trkpt><trkpt lat="63.780254" lon="-19.356292"><time>2021-07-26T14:26:34.000Z</time><ele>558.8</ele></trkpt><trkpt lat="63.78025" lon="-19.356312"><time>2021-07-26T14:26:35.000Z</time><ele>558.8</ele></trkpt><trkpt lat="63.780208" lon="-19.356429"><time>2021-07-26T14:26:41.000Z</time><ele>559.6</ele></trkpt><trkpt lat="63.780208" lon="-19.356435"><time>2021-07-26T14:26:42.000Z</time><ele>559.8</ele></trkpt><trkpt lat="63.780185" lon="-19.356503"><time>2021-07-26T14:26:46.000Z</time><ele>560.2</ele></trkpt><trkpt lat="63.780161" lon="-19.356556"><time>2021-07-26T14:26:49.000Z</time><ele>560.8</ele></trkpt><trkpt lat="63.780157" lon="-19.356577"><time>2021-07-26T14:26:50.000Z</time><ele>561</ele></trkpt><trkpt lat="63.780048" lon="-19.356845"><time>2021-07-26T14:27:05.000Z</time><ele>561</ele></trkpt><trkpt lat="63.780028" lon="-19.356905"><time>2021-07-26T14:27:08.000Z</time><ele>561.2</ele></trkpt><trkpt lat="63.780027" lon="-19.356931"><time>2021-07-26T14:27:10.000Z</time><ele>561.4</ele></trkpt><trkpt lat="63.779995" lon="-19.357011"><time>2021-07-26T14:27:14.000Z</time><ele>561.6</ele></trkpt><trkpt lat="63.779968" lon="-19.357079"><time>2021-07-26T14:27:18.000Z</time><ele>561.8</ele></trkpt><trkpt lat="63.779939" lon="-19.357189"><time>2021-07-26T14:27:25.000Z</time><ele>562.4</ele></trkpt><trkpt lat="63.779936" lon="-19.357196"><time>2021-07-26T14:27:26.000Z</time><ele>562.4</ele></trkpt><trkpt lat="63.779931" lon="-19.357208"><time>2021-07-26T14:27:28.000Z</time><ele>562.4</ele></trkpt><trkpt lat="63.779931" lon="-19.3572"><time>2021-07-26T14:27:35.000Z</time><ele>562.2</ele></trkpt><trkpt lat="63.779931" lon="-19.3572"><time>2021-07-26T14:27:39.000Z</time><ele>562.2</ele></trkpt><trkpt lat="63.779895" lon="-19.357308"><time>2021-07-26T14:27:44.000Z</time><ele>562.8</ele></trkpt><trkpt lat="63.779829" lon="-19.357489"><time>2021-07-26T14:27:51.000Z</time><ele>562.8</ele></trkpt><trkpt lat="63.779821" lon="-19.357507"><time>2021-07-26T14:27:52.000Z</time><ele>562.8</ele></trkpt><trkpt lat="63.779704" lon="-19.357825"><time>2021-07-26T14:28:07.000Z</time><ele>562.8</ele></trkpt><trkpt lat="63.779664" lon="-19.357984"><time>2021-07-26T14:28:15.000Z</time><ele>563</ele></trkpt><trkpt lat="63.7796" lon="-19.358186"><time>2021-07-26T14:28:25.000Z</time><ele>563.2</ele></trkpt><trkpt lat="63.779564" lon="-19.358339"><time>2021-07-26T14:28:34.000Z</time><ele>563.8</ele></trkpt><trkpt lat="63.779552" lon="-19.358399"><time>2021-07-26T14:28:37.000Z</time><ele>564</ele></trkpt><trkpt lat="63.779483" lon="-19.358629"><time>2021-07-26T14:28:47.000Z</time><ele>565</ele></trkpt><trkpt lat="63.77945" lon="-19.358871"><time>2021-07-26T14:28:58.000Z</time><ele>566</ele></trkpt><trkpt lat="63.779447" lon="-19.358893"><time>2021-07-26T14:28:59.000Z</time><ele>566</ele></trkpt><trkpt lat="63.779404" lon="-19.359058"><time>2021-07-26T14:29:08.000Z</time><ele>566.2</ele></trkpt><trkpt lat="63.779397" lon="-19.359079"><time>2021-07-26T14:29:09.000Z</time><ele>566.4</ele></trkpt><trkpt lat="63.779365" lon="-19.359159"><time>2021-07-26T14:29:13.000Z</time><ele>566.4</ele></trkpt><trkpt lat="63.77932" lon="-19.359281"><time>2021-07-26T14:29:20.000Z</time><ele>566.8</ele></trkpt><trkpt lat="63.779291" lon="-19.359339"><time>2021-07-26T14:29:23.000Z</time><ele>566.8</ele></trkpt><trkpt lat="63.779234" lon="-19.359507"><time>2021-07-26T14:29:32.000Z</time><ele>566.8</ele></trkpt><trkpt lat="63.77921" lon="-19.359555"><time>2021-07-26T14:29:35.000Z</time><ele>566.8</ele></trkpt><trkpt lat="63.779203" lon="-19.359569"><time>2021-07-26T14:29:36.000Z</time><ele>566.6</ele></trkpt><trkpt lat="63.779114" lon="-19.35977"><time>2021-07-26T14:29:47.000Z</time><ele>565.6</ele></trkpt><trkpt lat="63.779106" lon="-19.359789"><time>2021-07-26T14:29:48.000Z</time><ele>565.4</ele></trkpt><trkpt lat="63.779097" lon="-19.359808"><time>2021-07-26T14:29:49.000Z</time><ele>565.4</ele></trkpt><trkpt lat="63.77906" lon="-19.359872"><time>2021-07-26T14:29:53.000Z</time><ele>565</ele></trkpt><trkpt lat="63.779047" lon="-19.359888"><time>2021-07-26T14:29:54.000Z</time><ele>565</ele></trkpt><trkpt lat="63.779015" lon="-19.359948"><time>2021-07-26T14:29:58.000Z</time><ele>564.4</ele></trkpt><trkpt lat="63.778948" lon="-19.360076"><time>2021-07-26T14:30:05.000Z</time><ele>564.2</ele></trkpt><trkpt lat="63.778943" lon="-19.360093"><time>2021-07-26T14:30:06.000Z</time><ele>564</ele></trkpt><trkpt lat="63.778934" lon="-19.360114"><time>2021-07-26T14:30:07.000Z</time><ele>563.8</ele></trkpt><trkpt lat="63.778865" lon="-19.360251"><time>2021-07-26T14:30:16.000Z</time><ele>563.4</ele></trkpt><trkpt lat="63.778861" lon="-19.360258"><time>2021-07-26T14:30:18.000Z</time><ele>563.2</ele></trkpt><trkpt lat="63.778857" lon="-19.360253"><time>2021-07-26T14:30:21.000Z</time><ele>563</ele></trkpt><trkpt lat="63.778852" lon="-19.360258"><time>2021-07-26T14:30:22.000Z</time><ele>563</ele></trkpt><trkpt lat="63.778856" lon="-19.360255"><time>2021-07-26T14:30:31.000Z</time><ele>563.2</ele></trkpt><trkpt lat="63.778856" lon="-19.360255"><time>2021-07-26T14:30:34.000Z</time><ele>563.2</ele></trkpt><trkpt lat="63.778846" lon="-19.360254"><time>2021-07-26T14:30:50.000Z</time><ele>563.2</ele></trkpt><trkpt lat="63.778837" lon="-19.360254"><time>2021-07-26T14:30:56.000Z</time><ele>563.2</ele></trkpt><trkpt lat="63.778821" lon="-19.360267"><time>2021-07-26T14:31:16.000Z</time><ele>563.2</ele></trkpt><trkpt lat="63.778812" lon="-19.360269"><time>2021-07-26T14:31:18.000Z</time><ele>563.2</ele></trkpt><trkpt lat="63.778795" lon="-19.360312"><time>2021-07-26T14:31:23.000Z</time><ele>563.2</ele></trkpt><trkpt lat="63.778789" lon="-19.360349"><time>2021-07-26T14:31:39.000Z</time><ele>563.2</ele></trkpt><trkpt lat="63.778789" lon="-19.360347"><time>2021-07-26T14:31:47.000Z</time><ele>563.2</ele></trkpt><trkpt lat="63.778789" lon="-19.360347"><time>2021-07-26T14:31:48.000Z</time><ele>563.2</ele></trkpt><trkpt lat="63.77879" lon="-19.360341"><time>2021-07-26T14:31:56.000Z</time><ele>563.2</ele></trkpt><trkpt lat="63.7788" lon="-19.360325"><time>2021-07-26T14:32:06.000Z</time><ele>563.2</ele></trkpt><trkpt lat="63.778812" lon="-19.360307"><time>2021-07-26T14:32:16.000Z</time><ele>563.2</ele></trkpt><trkpt lat="63.778817" lon="-19.360306"><time>2021-07-26T14:32:19.000Z</time><ele>563.2</ele></trkpt><trkpt lat="63.778819" lon="-19.360306"><time>2021-07-26T14:32:22.000Z</time><ele>563.2</ele></trkpt><trkpt lat="63.778819" lon="-19.360306"><time>2021-07-26T14:32:26.000Z</time><ele>563.2</ele></trkpt><trkpt lat="63.778819" lon="-19.360309"><time>2021-07-26T14:32:31.000Z</time><ele>563.2</ele></trkpt><trkpt lat="63.778819" lon="-19.360313"><time>2021-07-26T14:32:33.000Z</time><ele>563.2</ele></trkpt><trkpt lat="63.778799" lon="-19.360322"><time>2021-07-26T14:32:45.000Z</time><ele>563.2</ele></trkpt><trkpt lat="63.778808" lon="-19.360332"><time>2021-07-26T14:33:02.000Z</time><ele>563.2</ele></trkpt><trkpt lat="63.778812" lon="-19.360332"><time>2021-07-26T14:33:08.000Z</time><ele>563.2</ele></trkpt><trkpt lat="63.778814" lon="-19.360331"><time>2021-07-26T14:33:14.000Z</time><ele>563.2</ele></trkpt><trkpt lat="63.778819" lon="-19.36032"><time>2021-07-26T14:33:40.000Z</time><ele>563.2</ele></trkpt><trkpt lat="63.77882" lon="-19.360318"><time>2021-07-26T14:33:49.000Z</time><ele>563.2</ele></trkpt><trkpt lat="63.77882" lon="-19.360317"><time>2021-07-26T14:33:51.000Z</time><ele>563.2</ele></trkpt><trkpt lat="63.77882" lon="-19.360317"><time>2021-07-26T14:33:52.000Z</time><ele>563.2</ele></trkpt><trkpt lat="63.778774" lon="-19.360436"><time>2021-07-26T14:34:01.000Z</time><ele>563.2</ele></trkpt><trkpt lat="63.77869" lon="-19.360635"><time>2021-07-26T14:34:09.000Z</time><ele>562.4</ele></trkpt><trkpt lat="63.778684" lon="-19.360644"><time>2021-07-26T14:34:10.000Z</time><ele>561.8</ele></trkpt><trkpt lat="63.778664" lon="-19.360679"><time>2021-07-26T14:34:12.000Z</time><ele>561.2</ele></trkpt><trkpt lat="63.778598" lon="-19.360829"><time>2021-07-26T14:34:20.000Z</time><ele>560.8</ele></trkpt><trkpt lat="63.778511" lon="-19.361015"><time>2021-07-26T14:34:31.000Z</time><ele>561</ele></trkpt><trkpt lat="63.778503" lon="-19.361033"><time>2021-07-26T14:34:32.000Z</time><ele>561</ele></trkpt><trkpt lat="63.778453" lon="-19.361236"><time>2021-07-26T14:34:41.000Z</time><ele>561.2</ele></trkpt><trkpt lat="63.778409" lon="-19.361418"><time>2021-07-26T14:34:48.000Z</time><ele>561</ele></trkpt><trkpt lat="63.7784" lon="-19.361459"><time>2021-07-26T14:34:51.000Z</time><ele>561</ele></trkpt><trkpt lat="63.778364" lon="-19.361535"><time>2021-07-26T14:34:55.000Z</time><ele>561.2</ele></trkpt><trkpt lat="63.778357" lon="-19.361554"><time>2021-07-26T14:34:56.000Z</time><ele>561.2</ele></trkpt><trkpt lat="63.778349" lon="-19.361571"><time>2021-07-26T14:34:57.000Z</time><ele>561.2</ele></trkpt><trkpt lat="63.778314" lon="-19.361669"><time>2021-07-26T14:35:02.000Z</time><ele>561.2</ele></trkpt><trkpt lat="63.778293" lon="-19.361713"><time>2021-07-26T14:35:04.000Z</time><ele>561.2</ele></trkpt><trkpt lat="63.778199" lon="-19.361927"><time>2021-07-26T14:35:16.000Z</time><ele>561.6</ele></trkpt><trkpt lat="63.778145" lon="-19.362044"><time>2021-07-26T14:35:23.000Z</time><ele>561.8</ele></trkpt><trkpt lat="63.77811" lon="-19.362106"><time>2021-07-26T14:35:27.000Z</time><ele>561.8</ele></trkpt><trkpt lat="63.77809" lon="-19.36215"><time>2021-07-26T14:35:29.000Z</time><ele>561.8</ele></trkpt><trkpt lat="63.778079" lon="-19.362176"><time>2021-07-26T14:35:30.000Z</time><ele>562</ele></trkpt><trkpt lat="63.778051" lon="-19.362224"><time>2021-07-26T14:35:34.000Z</time><ele>562.4</ele></trkpt><trkpt lat="63.77802" lon="-19.362278"><time>2021-07-26T14:35:37.000Z</time><ele>562.4</ele></trkpt><trkpt lat="63.777985" lon="-19.362402"><time>2021-07-26T14:35:44.000Z</time><ele>562</ele></trkpt><trkpt lat="63.777931" lon="-19.362492"><time>2021-07-26T14:35:48.000Z</time><ele>562.2</ele></trkpt><trkpt lat="63.7779" lon="-19.362561"><time>2021-07-26T14:35:52.000Z</time><ele>562.2</ele></trkpt><trkpt lat="63.777886" lon="-19.362596"><time>2021-07-26T14:35:55.000Z</time><ele>562.4</ele></trkpt><trkpt lat="63.777872" lon="-19.362625"><time>2021-07-26T14:35:57.000Z</time><ele>562.4</ele></trkpt><trkpt lat="63.777858" lon="-19.362648"><time>2021-07-26T14:35:59.000Z</time><ele>562.4</ele></trkpt><trkpt lat="63.777849" lon="-19.362676"><time>2021-07-26T14:36:01.000Z</time><ele>562.2</ele></trkpt><trkpt lat="63.777815" lon="-19.362736"><time>2021-07-26T14:36:06.000Z</time><ele>562.4</ele></trkpt><trkpt lat="63.777784" lon="-19.362822"><time>2021-07-26T14:36:11.000Z</time><ele>562.4</ele></trkpt><trkpt lat="63.777679" lon="-19.362986"><time>2021-07-26T14:36:21.000Z</time><ele>562.6</ele></trkpt><trkpt lat="63.777633" lon="-19.363083"><time>2021-07-26T14:36:27.000Z</time><ele>562.8</ele></trkpt><trkpt lat="63.777589" lon="-19.363174"><time>2021-07-26T14:36:32.000Z</time><ele>563</ele></trkpt><trkpt lat="63.777589" lon="-19.363174"><time>2021-07-26T14:36:33.000Z</time><ele>563</ele></trkpt><trkpt lat="63.777537" lon="-19.363245"><time>2021-07-26T14:36:37.000Z</time><ele>563</ele></trkpt><trkpt lat="63.777502" lon="-19.363334"><time>2021-07-26T14:36:42.000Z</time><ele>563.2</ele></trkpt><trkpt lat="63.777479" lon="-19.363395"><time>2021-07-26T14:36:45.000Z</time><ele>563.4</ele></trkpt><trkpt lat="63.777397" lon="-19.36352"><time>2021-07-26T14:36:53.000Z</time><ele>563.4</ele></trkpt><trkpt lat="63.777339" lon="-19.363649"><time>2021-07-26T14:37:00.000Z</time><ele>563.2</ele></trkpt><trkpt lat="63.777305" lon="-19.363698"><time>2021-07-26T14:37:04.000Z</time><ele>563.4</ele></trkpt><trkpt lat="63.777241" lon="-19.363771"><time>2021-07-26T14:37:09.000Z</time><ele>563.6</ele></trkpt><trkpt lat="63.777218" lon="-19.363783"><time>2021-07-26T14:37:11.000Z</time><ele>563.6</ele></trkpt><trkpt lat="63.777194" lon="-19.363793"><time>2021-07-26T14:37:13.000Z</time><ele>563.6</ele></trkpt><trkpt lat="63.777158" lon="-19.363873"><time>2021-07-26T14:37:17.000Z</time><ele>563.6</ele></trkpt><trkpt lat="63.777072" lon="-19.364021"><time>2021-07-26T14:37:25.000Z</time><ele>563.2</ele></trkpt><trkpt lat="63.776988" lon="-19.364147"><time>2021-07-26T14:37:33.000Z</time><ele>563</ele></trkpt><trkpt lat="63.776965" lon="-19.364186"><time>2021-07-26T14:37:35.000Z</time><ele>562.6</ele></trkpt><trkpt lat="63.776932" lon="-19.364252"><time>2021-07-26T14:37:39.000Z</time><ele>562.8</ele></trkpt><trkpt lat="63.77692" lon="-19.364266"><time>2021-07-26T14:37:40.000Z</time><ele>562.8</ele></trkpt><trkpt lat="63.776867" lon="-19.364339"><time>2021-07-26T14:37:46.000Z</time><ele>562.6</ele></trkpt><trkpt lat="63.776798" lon="-19.364466"><time>2021-07-26T14:37:54.000Z</time><ele>562.4</ele></trkpt><trkpt lat="63.77678" lon="-19.364503"><time>2021-07-26T14:37:56.000Z</time><ele>562.4</ele></trkpt><trkpt lat="63.776764" lon="-19.364534"><time>2021-07-26T14:37:58.000Z</time><ele>562.6</ele></trkpt><trkpt lat="63.776716" lon="-19.364678"><time>2021-07-26T14:38:05.000Z</time><ele>562.8</ele></trkpt><trkpt lat="63.776703" lon="-19.364716"><time>2021-07-26T14:38:07.000Z</time><ele>562.8</ele></trkpt><trkpt lat="63.77659" lon="-19.365004"><time>2021-07-26T14:38:19.000Z</time><ele>562.8</ele></trkpt><trkpt lat="63.776489" lon="-19.365236"><time>2021-07-26T14:38:30.000Z</time><ele>563</ele></trkpt><trkpt lat="63.776475" lon="-19.365267"><time>2021-07-26T14:38:31.000Z</time><ele>562.8</ele></trkpt><trkpt lat="63.776406" lon="-19.365415"><time>2021-07-26T14:38:38.000Z</time><ele>562.6</ele></trkpt><trkpt lat="63.77638" lon="-19.365458"><time>2021-07-26T14:38:40.000Z</time><ele>562.6</ele></trkpt><trkpt lat="63.776356" lon="-19.365608"><time>2021-07-26T14:38:48.000Z</time><ele>562.4</ele></trkpt><trkpt lat="63.776359" lon="-19.365614"><time>2021-07-26T14:38:49.000Z</time><ele>562.4</ele></trkpt><trkpt lat="63.776361" lon="-19.36562"><time>2021-07-26T14:38:50.000Z</time><ele>562.4</ele></trkpt><trkpt lat="63.776353" lon="-19.365628"><time>2021-07-26T14:38:53.000Z</time><ele>562.4</ele></trkpt><trkpt lat="63.776356" lon="-19.365625"><time>2021-07-26T14:38:55.000Z</time><ele>562.4</ele></trkpt><trkpt lat="63.776358" lon="-19.365621"><time>2021-07-26T14:38:56.000Z</time><ele>562.4</ele></trkpt><trkpt lat="63.776354" lon="-19.365616"><time>2021-07-26T14:39:02.000Z</time><ele>562.4</ele></trkpt><trkpt lat="63.776318" lon="-19.365744"><time>2021-07-26T14:39:13.000Z</time><ele>562</ele></trkpt><trkpt lat="63.776201" lon="-19.366043"><time>2021-07-26T14:39:27.000Z</time><ele>562.6</ele></trkpt><trkpt lat="63.776125" lon="-19.36614"><time>2021-07-26T14:39:34.000Z</time><ele>563.4</ele></trkpt><trkpt lat="63.776095" lon="-19.36621"><time>2021-07-26T14:39:39.000Z</time><ele>563.8</ele></trkpt><trkpt lat="63.776023" lon="-19.366355"><time>2021-07-26T14:39:49.000Z</time><ele>564.2</ele></trkpt><trkpt lat="63.775948" lon="-19.36647"><time>2021-07-26T14:39:56.000Z</time><ele>564.4</ele></trkpt><trkpt lat="63.775932" lon="-19.366498"><time>2021-07-26T14:39:58.000Z</time><ele>564.4</ele></trkpt><trkpt lat="63.77592" lon="-19.366518"><time>2021-07-26T14:39:59.000Z</time><ele>564.6</ele></trkpt><trkpt lat="63.775841" lon="-19.366626"><time>2021-07-26T14:40:07.000Z</time><ele>564</ele></trkpt><trkpt lat="63.775804" lon="-19.366681"><time>2021-07-26T14:40:12.000Z</time><ele>564.2</ele></trkpt><trkpt lat="63.77579" lon="-19.366703"><time>2021-07-26T14:40:13.000Z</time><ele>564.2</ele></trkpt><trkpt lat="63.77569" lon="-19.366815"><time>2021-07-26T14:40:22.000Z</time><ele>563</ele></trkpt><trkpt lat="63.775683" lon="-19.366823"><time>2021-07-26T14:40:23.000Z</time><ele>562.8</ele></trkpt><trkpt lat="63.77567" lon="-19.366833"><time>2021-07-26T14:40:24.000Z</time><ele>562.8</ele></trkpt><trkpt lat="63.775655" lon="-19.366847"><time>2021-07-26T14:40:25.000Z</time><ele>562.6</ele></trkpt><trkpt lat="63.775545" lon="-19.366998"><time>2021-07-26T14:40:35.000Z</time><ele>562.8</ele></trkpt><trkpt lat="63.775508" lon="-19.367045"><time>2021-07-26T14:40:38.000Z</time><ele>562.8</ele></trkpt><trkpt lat="63.775433" lon="-19.367126"><time>2021-07-26T14:40:44.000Z</time><ele>563</ele></trkpt><trkpt lat="63.775416" lon="-19.367146"><time>2021-07-26T14:40:45.000Z</time><ele>563</ele></trkpt><trkpt lat="63.775312" lon="-19.367279"><time>2021-07-26T14:40:57.000Z</time><ele>563.8</ele></trkpt><trkpt lat="63.775292" lon="-19.367307"><time>2021-07-26T14:41:00.000Z</time><ele>564</ele></trkpt><trkpt lat="63.775155" lon="-19.367505"><time>2021-07-26T14:41:13.000Z</time><ele>563.4</ele></trkpt><trkpt lat="63.77505" lon="-19.367642"><time>2021-07-26T14:41:24.000Z</time><ele>563.6</ele></trkpt><trkpt lat="63.775022" lon="-19.367699"><time>2021-07-26T14:41:27.000Z</time><ele>563.6</ele></trkpt><trkpt lat="63.774913" lon="-19.367879"><time>2021-07-26T14:41:39.000Z</time><ele>563.6</ele></trkpt><trkpt lat="63.774856" lon="-19.367966"><time>2021-07-26T14:41:45.000Z</time><ele>563.8</ele></trkpt><trkpt lat="63.7748" lon="-19.368042"><time>2021-07-26T14:41:51.000Z</time><ele>564</ele></trkpt><trkpt lat="63.774792" lon="-19.368051"><time>2021-07-26T14:41:52.000Z</time><ele>564.2</ele></trkpt><trkpt lat="63.77476" lon="-19.368078"><time>2021-07-26T14:41:55.000Z</time><ele>564.4</ele></trkpt><trkpt lat="63.77473" lon="-19.368134"><time>2021-07-26T14:41:59.000Z</time><ele>564.6</ele></trkpt><trkpt lat="63.77467" lon="-19.368219"><time>2021-07-26T14:42:05.000Z</time><ele>565.2</ele></trkpt><trkpt lat="63.774659" lon="-19.368235"><time>2021-07-26T14:42:06.000Z</time><ele>565.4</ele></trkpt><trkpt lat="63.774649" lon="-19.368253"><time>2021-07-26T14:42:07.000Z</time><ele>565.4</ele></trkpt><trkpt lat="63.774644" lon="-19.368272"><time>2021-07-26T14:42:08.000Z</time><ele>565.4</ele></trkpt><trkpt lat="63.774617" lon="-19.368313"><time>2021-07-26T14:42:11.000Z</time><ele>565.8</ele></trkpt><trkpt lat="63.774606" lon="-19.368328"><time>2021-07-26T14:42:12.000Z</time><ele>566</ele></trkpt><trkpt lat="63.774588" lon="-19.368355"><time>2021-07-26T14:42:14.000Z</time><ele>566.4</ele></trkpt><trkpt lat="63.774545" lon="-19.368437"><time>2021-07-26T14:42:21.000Z</time><ele>567.4</ele></trkpt><trkpt lat="63.774529" lon="-19.368459"><time>2021-07-26T14:42:23.000Z</time><ele>568</ele></trkpt><trkpt lat="63.774519" lon="-19.368477"><time>2021-07-26T14:42:25.000Z</time><ele>568.4</ele></trkpt><trkpt lat="63.774485" lon="-19.36854"><time>2021-07-26T14:42:30.000Z</time><ele>569.4</ele></trkpt><trkpt lat="63.774474" lon="-19.368572"><time>2021-07-26T14:42:34.000Z</time><ele>569.8</ele></trkpt><trkpt lat="63.774465" lon="-19.368579"><time>2021-07-26T14:42:36.000Z</time><ele>570</ele></trkpt><trkpt lat="63.774455" lon="-19.368596"><time>2021-07-26T14:42:39.000Z</time><ele>570.4</ele></trkpt><trkpt lat="63.774419" lon="-19.368671"><time>2021-07-26T14:42:43.000Z</time><ele>570.6</ele></trkpt><trkpt lat="63.774415" lon="-19.368678"><time>2021-07-26T14:42:45.000Z</time><ele>570.8</ele></trkpt><trkpt lat="63.774409" lon="-19.36868"><time>2021-07-26T14:42:47.000Z</time><ele>571</ele></trkpt><trkpt lat="63.774401" lon="-19.368678"><time>2021-07-26T14:42:50.000Z</time><ele>571</ele></trkpt><trkpt lat="63.774396" lon="-19.368678"><time>2021-07-26T14:42:51.000Z</time><ele>571</ele></trkpt><trkpt lat="63.774395" lon="-19.368675"><time>2021-07-26T14:43:03.000Z</time><ele>570.8</ele></trkpt><trkpt lat="63.774395" lon="-19.368682"><time>2021-07-26T14:43:12.000Z</time><ele>570.6</ele></trkpt><trkpt lat="63.774398" lon="-19.368693"><time>2021-07-26T14:43:18.000Z</time><ele>570.6</ele></trkpt><trkpt lat="63.774398" lon="-19.368693"><time>2021-07-26T14:43:21.000Z</time><ele>570.8</ele></trkpt><trkpt lat="63.774402" lon="-19.368694"><time>2021-07-26T14:43:25.000Z</time><ele>570.6</ele></trkpt><trkpt lat="63.774408" lon="-19.368696"><time>2021-07-26T14:43:33.000Z</time><ele>570.6</ele></trkpt><trkpt lat="63.774393" lon="-19.36873"><time>2021-07-26T14:43:38.000Z</time><ele>570.6</ele></trkpt><trkpt lat="63.774352" lon="-19.368842"><time>2021-07-26T14:43:42.000Z</time><ele>569.8</ele></trkpt><trkpt lat="63.774308" lon="-19.368913"><time>2021-07-26T14:43:45.000Z</time><ele>569.6</ele></trkpt><trkpt lat="63.774298" lon="-19.368934"><time>2021-07-26T14:43:46.000Z</time><ele>569.2</ele></trkpt><trkpt lat="63.774283" lon="-19.368966"><time>2021-07-26T14:43:49.000Z</time><ele>568.6</ele></trkpt><trkpt lat="63.774266" lon="-19.369054"><time>2021-07-26T14:43:53.000Z</time><ele>568.2</ele></trkpt><trkpt lat="63.77426" lon="-19.369069"><time>2021-07-26T14:43:54.000Z</time><ele>568</ele></trkpt><trkpt lat="63.774246" lon="-19.369097"><time>2021-07-26T14:43:56.000Z</time><ele>566.8</ele></trkpt><trkpt lat="63.774176" lon="-19.369173"><time>2021-07-26T14:44:04.000Z</time><ele>565.8</ele></trkpt><trkpt lat="63.774156" lon="-19.369185"><time>2021-07-26T14:44:06.000Z</time><ele>565.4</ele></trkpt><trkpt lat="63.77412" lon="-19.369221"><time>2021-07-26T14:44:10.000Z</time><ele>565</ele></trkpt><trkpt lat="63.774112" lon="-19.369235"><time>2021-07-26T14:44:11.000Z</time><ele>564.4</ele></trkpt><trkpt lat="63.774075" lon="-19.369311"><time>2021-07-26T14:44:16.000Z</time><ele>563.6</ele></trkpt><trkpt lat="63.77407" lon="-19.369318"><time>2021-07-26T14:44:17.000Z</time><ele>563.4</ele></trkpt><trkpt lat="63.774067" lon="-19.369329"><time>2021-07-26T14:44:18.000Z</time><ele>563.2</ele></trkpt><trkpt lat="63.774027" lon="-19.369431"><time>2021-07-26T14:44:24.000Z</time><ele>562.2</ele></trkpt><trkpt lat="63.773996" lon="-19.369518"><time>2021-07-26T14:44:28.000Z</time><ele>561.8</ele></trkpt><trkpt lat="63.773969" lon="-19.369603"><time>2021-07-26T14:44:32.000Z</time><ele>561.2</ele></trkpt><trkpt lat="63.77396" lon="-19.369621"><time>2021-07-26T14:44:33.000Z</time><ele>560.8</ele></trkpt><trkpt lat="63.773891" lon="-19.369737"><time>2021-07-26T14:44:41.000Z</time><ele>560.2</ele></trkpt><trkpt lat="63.773884" lon="-19.369753"><time>2021-07-26T14:44:42.000Z</time><ele>560</ele></trkpt><trkpt lat="63.773807" lon="-19.369855"><time>2021-07-26T14:44:50.000Z</time><ele>559</ele></trkpt><trkpt lat="63.773797" lon="-19.369862"><time>2021-07-26T14:44:51.000Z</time><ele>558.8</ele></trkpt><trkpt lat="63.773767" lon="-19.369933"><time>2021-07-26T14:44:55.000Z</time><ele>558</ele></trkpt><trkpt lat="63.773757" lon="-19.36997"><time>2021-07-26T14:44:57.000Z</time><ele>557.8</ele></trkpt><trkpt lat="63.773726" lon="-19.370033"><time>2021-07-26T14:45:01.000Z</time><ele>557.4</ele></trkpt><trkpt lat="63.773712" lon="-19.370068"><time>2021-07-26T14:45:03.000Z</time><ele>556.6</ele></trkpt><trkpt lat="63.773664" lon="-19.370193"><time>2021-07-26T14:45:10.000Z</time><ele>556.2</ele></trkpt><trkpt lat="63.77365" lon="-19.370225"><time>2021-07-26T14:45:11.000Z</time><ele>556</ele></trkpt><trkpt lat="63.773624" lon="-19.370283"><time>2021-07-26T14:45:14.000Z</time><ele>555.8</ele></trkpt><trkpt lat="63.773553" lon="-19.370482"><time>2021-07-26T14:45:24.000Z</time><ele>555.8</ele></trkpt><trkpt lat="63.77354" lon="-19.370518"><time>2021-07-26T14:45:26.000Z</time><ele>555.8</ele></trkpt><trkpt lat="63.773484" lon="-19.370636"><time>2021-07-26T14:45:34.000Z</time><ele>557</ele></trkpt><trkpt lat="63.773433" lon="-19.370732"><time>2021-07-26T14:45:40.000Z</time><ele>557.4</ele></trkpt><trkpt lat="63.773417" lon="-19.370758"><time>2021-07-26T14:45:42.000Z</time><ele>557.6</ele></trkpt><trkpt lat="63.773394" lon="-19.370793"><time>2021-07-26T14:45:44.000Z</time><ele>557.6</ele></trkpt><trkpt lat="63.773386" lon="-19.37081"><time>2021-07-26T14:45:45.000Z</time><ele>557.8</ele></trkpt><trkpt lat="63.773361" lon="-19.370857"><time>2021-07-26T14:45:49.000Z</time><ele>557.8</ele></trkpt><trkpt lat="63.773333" lon="-19.37095"><time>2021-07-26T14:45:54.000Z</time><ele>558.2</ele></trkpt><trkpt lat="63.773246" lon="-19.371167"><time>2021-07-26T14:46:05.000Z</time><ele>557.8</ele></trkpt><trkpt lat="63.773236" lon="-19.371192"><time>2021-07-26T14:46:06.000Z</time><ele>557.8</ele></trkpt><trkpt lat="63.773163" lon="-19.371393"><time>2021-07-26T14:46:16.000Z</time><ele>557.4</ele></trkpt><trkpt lat="63.773154" lon="-19.371407"><time>2021-07-26T14:46:17.000Z</time><ele>557.4</ele></trkpt><trkpt lat="63.773122" lon="-19.371478"><time>2021-07-26T14:46:21.000Z</time><ele>557.6</ele></trkpt><trkpt lat="63.77309" lon="-19.371549"><time>2021-07-26T14:46:25.000Z</time><ele>557.4</ele></trkpt><trkpt lat="63.773046" lon="-19.371624"><time>2021-07-26T14:46:29.000Z</time><ele>557.2</ele></trkpt><trkpt lat="63.772989" lon="-19.37173"><time>2021-07-26T14:46:35.000Z</time><ele>556.8</ele></trkpt><trkpt lat="63.772975" lon="-19.371753"><time>2021-07-26T14:46:36.000Z</time><ele>556.6</ele></trkpt><trkpt lat="63.772949" lon="-19.371806"><time>2021-07-26T14:46:39.000Z</time><ele>556.4</ele></trkpt><trkpt lat="63.772924" lon="-19.371844"><time>2021-07-26T14:46:42.000Z</time><ele>556.4</ele></trkpt><trkpt lat="63.772889" lon="-19.371913"><time>2021-07-26T14:46:46.000Z</time><ele>556</ele></trkpt><trkpt lat="63.772871" lon="-19.371928"><time>2021-07-26T14:46:48.000Z</time><ele>556</ele></trkpt><trkpt lat="63.77286" lon="-19.371947"><time>2021-07-26T14:46:49.000Z</time><ele>555.8</ele></trkpt><trkpt lat="63.772814" lon="-19.372025"><time>2021-07-26T14:46:53.000Z</time><ele>555.8</ele></trkpt><trkpt lat="63.772794" lon="-19.372074"><time>2021-07-26T14:46:56.000Z</time><ele>555.8</ele></trkpt><trkpt lat="63.772776" lon="-19.372105"><time>2021-07-26T14:46:58.000Z</time><ele>555.6</ele></trkpt><trkpt lat="63.772728" lon="-19.372181"><time>2021-07-26T14:47:03.000Z</time><ele>555.4</ele></trkpt><trkpt lat="63.772707" lon="-19.372207"><time>2021-07-26T14:47:05.000Z</time><ele>555.4</ele></trkpt><trkpt lat="63.772644" lon="-19.37229"><time>2021-07-26T14:47:11.000Z</time><ele>555.2</ele></trkpt><trkpt lat="63.772631" lon="-19.37232"><time>2021-07-26T14:47:13.000Z</time><ele>555.4</ele></trkpt><trkpt lat="63.772533" lon="-19.372481"><time>2021-07-26T14:47:24.000Z</time><ele>555.6</ele></trkpt><trkpt lat="63.772385" lon="-19.372674"><time>2021-07-26T14:47:37.000Z</time><ele>556.2</ele></trkpt><trkpt lat="63.772358" lon="-19.372728"><time>2021-07-26T14:47:40.000Z</time><ele>556.2</ele></trkpt><trkpt lat="63.772349" lon="-19.372747"><time>2021-07-26T14:47:41.000Z</time><ele>556.2</ele></trkpt><trkpt lat="63.772306" lon="-19.372851"><time>2021-07-26T14:47:47.000Z</time><ele>556.6</ele></trkpt><trkpt lat="63.77229" lon="-19.372891"><time>2021-07-26T14:47:49.000Z</time><ele>556.8</ele></trkpt><trkpt lat="63.772281" lon="-19.372913"><time>2021-07-26T14:47:50.000Z</time><ele>556.8</ele></trkpt><trkpt lat="63.772236" lon="-19.373035"><time>2021-07-26T14:47:56.000Z</time><ele>557.6</ele></trkpt><trkpt lat="63.772205" lon="-19.373147"><time>2021-07-26T14:48:01.000Z</time><ele>557.4</ele></trkpt><trkpt lat="63.772166" lon="-19.373282"><time>2021-07-26T14:48:07.000Z</time><ele>557.8</ele></trkpt><trkpt lat="63.772129" lon="-19.373417"><time>2021-07-26T14:48:13.000Z</time><ele>557.8</ele></trkpt><trkpt lat="63.772123" lon="-19.373433"><time>2021-07-26T14:48:14.000Z</time><ele>557.8</ele></trkpt><trkpt lat="63.772114" lon="-19.373469"><time>2021-07-26T14:48:16.000Z</time><ele>558.4</ele></trkpt><trkpt lat="63.772102" lon="-19.37351"><time>2021-07-26T14:48:18.000Z</time><ele>559.2</ele></trkpt><trkpt lat="63.772086" lon="-19.373651"><time>2021-07-26T14:48:24.000Z</time><ele>559.6</ele></trkpt><trkpt lat="63.772086" lon="-19.373677"><time>2021-07-26T14:48:25.000Z</time><ele>559.8</ele></trkpt><trkpt lat="63.772054" lon="-19.37393"><time>2021-07-26T14:48:36.000Z</time><ele>560</ele></trkpt><trkpt lat="63.77204" lon="-19.373967"><time>2021-07-26T14:48:38.000Z</time><ele>560.2</ele></trkpt><trkpt lat="63.771975" lon="-19.374144"><time>2021-07-26T14:48:46.000Z</time><ele>560.4</ele></trkpt><trkpt lat="63.771919" lon="-19.374283"><time>2021-07-26T14:48:53.000Z</time><ele>560.2</ele></trkpt><trkpt lat="63.771881" lon="-19.374375"><time>2021-07-26T14:48:58.000Z</time><ele>559.8</ele></trkpt><trkpt lat="63.771803" lon="-19.374585"><time>2021-07-26T14:49:09.000Z</time><ele>559</ele></trkpt><trkpt lat="63.771796" lon="-19.374587"><time>2021-07-26T14:49:10.000Z</time><ele>558.8</ele></trkpt><trkpt lat="63.771798" lon="-19.374587"><time>2021-07-26T14:49:13.000Z</time><ele>559</ele></trkpt><trkpt lat="63.7718" lon="-19.374583"><time>2021-07-26T14:49:15.000Z</time><ele>559.4</ele></trkpt><trkpt lat="63.771793" lon="-19.374585"><time>2021-07-26T14:49:25.000Z</time><ele>558.8</ele></trkpt><trkpt lat="63.771793" lon="-19.374585"><time>2021-07-26T14:49:33.000Z</time><ele>558.8</ele></trkpt><trkpt lat="63.771798" lon="-19.374579"><time>2021-07-26T14:49:47.000Z</time><ele>559.6</ele></trkpt><trkpt lat="63.771824" lon="-19.374526"><time>2021-07-26T14:49:50.000Z</time><ele>560</ele></trkpt><trkpt lat="63.77183" lon="-19.374515"><time>2021-07-26T14:49:51.000Z</time><ele>560.2</ele></trkpt><trkpt lat="63.771851" lon="-19.37447"><time>2021-07-26T14:50:04.000Z</time><ele>560.6</ele></trkpt><trkpt lat="63.771851" lon="-19.37447"><time>2021-07-26T14:50:14.000Z</time><ele>560.2</ele></trkpt><trkpt lat="63.771821" lon="-19.374537"><time>2021-07-26T14:50:27.000Z</time><ele>559</ele></trkpt><trkpt lat="63.771779" lon="-19.374644"><time>2021-07-26T14:50:32.000Z</time><ele>559</ele></trkpt><trkpt lat="63.771749" lon="-19.374716"><time>2021-07-26T14:50:36.000Z</time><ele>559</ele></trkpt><trkpt lat="63.771733" lon="-19.37476"><time>2021-07-26T14:50:38.000Z</time><ele>559</ele></trkpt><trkpt lat="63.771724" lon="-19.374781"><time>2021-07-26T14:50:39.000Z</time><ele>558.8</ele></trkpt><trkpt lat="63.771681" lon="-19.374854"><time>2021-07-26T14:50:45.000Z</time><ele>557.8</ele></trkpt><trkpt lat="63.771672" lon="-19.374863"><time>2021-07-26T14:50:46.000Z</time><ele>557.6</ele></trkpt><trkpt lat="63.771659" lon="-19.374885"><time>2021-07-26T14:50:48.000Z</time><ele>557.8</ele></trkpt><trkpt lat="63.771639" lon="-19.374929"><time>2021-07-26T14:50:51.000Z</time><ele>557.4</ele></trkpt><trkpt lat="63.771598" lon="-19.375103"><time>2021-07-26T14:50:59.000Z</time><ele>557.8</ele></trkpt><trkpt lat="63.771574" lon="-19.375219"><time>2021-07-26T14:51:04.000Z</time><ele>557</ele></trkpt><trkpt lat="63.771558" lon="-19.37526"><time>2021-07-26T14:51:06.000Z</time><ele>556.2</ele></trkpt><trkpt lat="63.771513" lon="-19.375331"><time>2021-07-26T14:51:11.000Z</time><ele>555.2</ele></trkpt><trkpt lat="63.771474" lon="-19.375398"><time>2021-07-26T14:51:16.000Z</time><ele>555.4</ele></trkpt><trkpt lat="63.77142" lon="-19.375497"><time>2021-07-26T14:51:22.000Z</time><ele>554</ele></trkpt><trkpt lat="63.771402" lon="-19.375537"><time>2021-07-26T14:51:24.000Z</time><ele>553.8</ele></trkpt><trkpt lat="63.77135" lon="-19.375659"><time>2021-07-26T14:51:31.000Z</time><ele>555</ele></trkpt><trkpt lat="63.771318" lon="-19.375747"><time>2021-07-26T14:51:35.000Z</time><ele>554.8</ele></trkpt><trkpt lat="63.7713" lon="-19.375798"><time>2021-07-26T14:51:38.000Z</time><ele>554.4</ele></trkpt><trkpt lat="63.771246" lon="-19.375887"><time>2021-07-26T14:51:46.000Z</time><ele>554.8</ele></trkpt><trkpt lat="63.771241" lon="-19.375903"><time>2021-07-26T14:51:47.000Z</time><ele>555</ele></trkpt><trkpt lat="63.771199" lon="-19.375951"><time>2021-07-26T14:51:53.000Z</time><ele>556</ele></trkpt><trkpt lat="63.771173" lon="-19.375994"><time>2021-07-26T14:51:57.000Z</time><ele>556.2</ele></trkpt><trkpt lat="63.771142" lon="-19.376041"><time>2021-07-26T14:52:00.000Z</time><ele>557.4</ele></trkpt><trkpt lat="63.771099" lon="-19.376098"><time>2021-07-26T14:52:04.000Z</time><ele>558.2</ele></trkpt><trkpt lat="63.771081" lon="-19.376129"><time>2021-07-26T14:52:06.000Z</time><ele>558.8</ele></trkpt><trkpt lat="63.771062" lon="-19.376164"><time>2021-07-26T14:52:08.000Z</time><ele>559</ele></trkpt><trkpt lat="63.771038" lon="-19.37621"><time>2021-07-26T14:52:11.000Z</time><ele>559.2</ele></trkpt><trkpt lat="63.77102" lon="-19.376253"><time>2021-07-26T14:52:14.000Z</time><ele>559.8</ele></trkpt><trkpt lat="63.770994" lon="-19.376302"><time>2021-07-26T14:52:17.000Z</time><ele>559.6</ele></trkpt><trkpt lat="63.770966" lon="-19.376353"><time>2021-07-26T14:52:20.000Z</time><ele>559.4</ele></trkpt><trkpt lat="63.770878" lon="-19.376587"><time>2021-07-26T14:52:32.000Z</time><ele>559.8</ele></trkpt><trkpt lat="63.770813" lon="-19.376764"><time>2021-07-26T14:52:42.000Z</time><ele>559.2</ele></trkpt><trkpt lat="63.770746" lon="-19.376922"><time>2021-07-26T14:52:51.000Z</time><ele>560</ele></trkpt><trkpt lat="63.770703" lon="-19.376995"><time>2021-07-26T14:52:56.000Z</time><ele>560.2</ele></trkpt><trkpt lat="63.77066" lon="-19.377102"><time>2021-07-26T14:53:02.000Z</time><ele>559.8</ele></trkpt><trkpt lat="63.770641" lon="-19.377145"><time>2021-07-26T14:53:05.000Z</time><ele>559.8</ele></trkpt><trkpt lat="63.770566" lon="-19.377324"><time>2021-07-26T14:53:15.000Z</time><ele>560.4</ele></trkpt><trkpt lat="63.770504" lon="-19.377471"><time>2021-07-26T14:53:24.000Z</time><ele>561</ele></trkpt><trkpt lat="63.770477" lon="-19.377511"><time>2021-07-26T14:53:27.000Z</time><ele>561</ele></trkpt><trkpt lat="63.770438" lon="-19.377566"><time>2021-07-26T14:53:34.000Z</time><ele>561.2</ele></trkpt><trkpt lat="63.770436" lon="-19.377568"><time>2021-07-26T14:53:35.000Z</time><ele>561.2</ele></trkpt><trkpt lat="63.770435" lon="-19.377575"><time>2021-07-26T14:53:37.000Z</time><ele>561.2</ele></trkpt><trkpt lat="63.770427" lon="-19.377578"><time>2021-07-26T14:53:42.000Z</time><ele>561.4</ele></trkpt><trkpt lat="63.770426" lon="-19.377581"><time>2021-07-26T14:53:50.000Z</time><ele>562</ele></trkpt><trkpt lat="63.770426" lon="-19.377581"><time>2021-07-26T14:53:55.000Z</time><ele>562.4</ele></trkpt><trkpt lat="63.770426" lon="-19.37758"><time>2021-07-26T14:53:57.000Z</time><ele>562.4</ele></trkpt><trkpt lat="63.770427" lon="-19.377578"><time>2021-07-26T14:54:00.000Z</time><ele>562.2</ele></trkpt><trkpt lat="63.770429" lon="-19.377577"><time>2021-07-26T14:54:02.000Z</time><ele>562</ele></trkpt><trkpt lat="63.770387" lon="-19.377675"><time>2021-07-26T14:54:09.000Z</time><ele>562.2</ele></trkpt><trkpt lat="63.770334" lon="-19.377795"><time>2021-07-26T14:54:14.000Z</time><ele>562.4</ele></trkpt><trkpt lat="63.770261" lon="-19.377937"><time>2021-07-26T14:54:23.000Z</time><ele>562.8</ele></trkpt><trkpt lat="63.770189" lon="-19.378078"><time>2021-07-26T14:54:31.000Z</time><ele>562.8</ele></trkpt><trkpt lat="63.770165" lon="-19.378134"><time>2021-07-26T14:54:34.000Z</time><ele>562.6</ele></trkpt><trkpt lat="63.770134" lon="-19.37818"><time>2021-07-26T14:54:38.000Z</time><ele>562.4</ele></trkpt><trkpt lat="63.770073" lon="-19.378198"><time>2021-07-26T14:54:46.000Z</time><ele>562.4</ele></trkpt><trkpt lat="63.770069" lon="-19.378204"><time>2021-07-26T14:54:48.000Z</time><ele>562.4</ele></trkpt><trkpt lat="63.770066" lon="-19.378202"><time>2021-07-26T14:54:51.000Z</time><ele>562</ele></trkpt><trkpt lat="63.770071" lon="-19.3782"><time>2021-07-26T14:54:58.000Z</time><ele>562</ele></trkpt><trkpt lat="63.770071" lon="-19.3782"><time>2021-07-26T14:54:59.000Z</time><ele>562</ele></trkpt><trkpt lat="63.770071" lon="-19.3782"><time>2021-07-26T14:55:08.000Z</time><ele>562</ele></trkpt><trkpt lat="63.770062" lon="-19.378198"><time>2021-07-26T14:55:20.000Z</time><ele>562</ele></trkpt><trkpt lat="63.770061" lon="-19.378193"><time>2021-07-26T14:55:34.000Z</time><ele>562</ele></trkpt><trkpt lat="63.770064" lon="-19.378185"><time>2021-07-26T14:55:37.000Z</time><ele>562</ele></trkpt><trkpt lat="63.770066" lon="-19.378182"><time>2021-07-26T14:55:41.000Z</time><ele>562</ele></trkpt><trkpt lat="63.770073" lon="-19.378175"><time>2021-07-26T14:55:47.000Z</time><ele>562</ele></trkpt><trkpt lat="63.770075" lon="-19.378174"><time>2021-07-26T14:55:54.000Z</time><ele>559</ele></trkpt><trkpt lat="63.770075" lon="-19.378174"><time>2021-07-26T14:55:58.000Z</time><ele>559</ele></trkpt><trkpt lat="63.770027" lon="-19.378161"><time>2021-07-26T14:56:02.000Z</time><ele>558.6</ele></trkpt><trkpt lat="63.769997" lon="-19.378145"><time>2021-07-26T14:56:04.000Z</time><ele>558.4</ele></trkpt><trkpt lat="63.769982" lon="-19.378138"><time>2021-07-26T14:56:05.000Z</time><ele>558.2</ele></trkpt><trkpt lat="63.769953" lon="-19.378134"><time>2021-07-26T14:56:07.000Z</time><ele>558</ele></trkpt><trkpt lat="63.769926" lon="-19.378114"><time>2021-07-26T14:56:10.000Z</time><ele>557.8</ele></trkpt><trkpt lat="63.769907" lon="-19.378095"><time>2021-07-26T14:56:12.000Z</time><ele>557.4</ele></trkpt><trkpt lat="63.769888" lon="-19.37809"><time>2021-07-26T14:56:14.000Z</time><ele>557</ele></trkpt><trkpt lat="63.769853" lon="-19.37807"><time>2021-07-26T14:56:18.000Z</time><ele>556</ele></trkpt><trkpt lat="63.76982" lon="-19.378054"><time>2021-07-26T14:56:22.000Z</time><ele>555.6</ele></trkpt><trkpt lat="63.769798" lon="-19.37805"><time>2021-07-26T14:56:24.000Z</time><ele>554.8</ele></trkpt><trkpt lat="63.769761" lon="-19.378044"><time>2021-07-26T14:56:28.000Z</time><ele>553.8</ele></trkpt><trkpt lat="63.769719" lon="-19.378054"><time>2021-07-26T14:56:33.000Z</time><ele>552.8</ele></trkpt><trkpt lat="63.769704" lon="-19.378059"><time>2021-07-26T14:56:34.000Z</time><ele>552.6</ele></trkpt><trkpt lat="63.769635" lon="-19.378069"><time>2021-07-26T14:56:41.000Z</time><ele>552</ele></trkpt><trkpt lat="63.769619" lon="-19.378068"><time>2021-07-26T14:56:43.000Z</time><ele>551.6</ele></trkpt><trkpt lat="63.769608" lon="-19.378069"><time>2021-07-26T14:56:44.000Z</time><ele>551.6</ele></trkpt><trkpt lat="63.769595" lon="-19.378072"><time>2021-07-26T14:56:45.000Z</time><ele>551.6</ele></trkpt><trkpt lat="63.769574" lon="-19.378084"><time>2021-07-26T14:56:48.000Z</time><ele>550.4</ele></trkpt><trkpt lat="63.76956" lon="-19.378084"><time>2021-07-26T14:56:50.000Z</time><ele>549.6</ele></trkpt><trkpt lat="63.769514" lon="-19.378087"><time>2021-07-26T14:56:56.000Z</time><ele>549.2</ele></trkpt><trkpt lat="63.769499" lon="-19.378076"><time>2021-07-26T14:56:58.000Z</time><ele>549.2</ele></trkpt><trkpt lat="63.769491" lon="-19.378071"><time>2021-07-26T14:56:59.000Z</time><ele>549</ele></trkpt><trkpt lat="63.769473" lon="-19.378059"><time>2021-07-26T14:57:01.000Z</time><ele>548.4</ele></trkpt><trkpt lat="63.769461" lon="-19.378062"><time>2021-07-26T14:57:03.000Z</time><ele>548.2</ele></trkpt><trkpt lat="63.769455" lon="-19.378062"><time>2021-07-26T14:57:05.000Z</time><ele>548</ele></trkpt><trkpt lat="63.769448" lon="-19.378054"><time>2021-07-26T14:57:06.000Z</time><ele>547.8</ele></trkpt><trkpt lat="63.769395" lon="-19.378025"><time>2021-07-26T14:57:12.000Z</time><ele>547.2</ele></trkpt><trkpt lat="63.769366" lon="-19.378004"><time>2021-07-26T14:57:15.000Z</time><ele>546.8</ele></trkpt><trkpt lat="63.769325" lon="-19.377978"><time>2021-07-26T14:57:20.000Z</time><ele>545.8</ele></trkpt><trkpt lat="63.7693" lon="-19.377964"><time>2021-07-26T14:57:23.000Z</time><ele>545.4</ele></trkpt><trkpt lat="63.769283" lon="-19.377944"><time>2021-07-26T14:57:26.000Z</time><ele>544.4</ele></trkpt><trkpt lat="63.769221" lon="-19.377921"><time>2021-07-26T14:57:33.000Z</time><ele>544.2</ele></trkpt><trkpt lat="63.769212" lon="-19.377917"><time>2021-07-26T14:57:34.000Z</time><ele>543.8</ele></trkpt><trkpt lat="63.769194" lon="-19.377906"><time>2021-07-26T14:57:36.000Z</time><ele>543.4</ele></trkpt><trkpt lat="63.769164" lon="-19.377905"><time>2021-07-26T14:57:40.000Z</time><ele>542.2</ele></trkpt><trkpt lat="63.769129" lon="-19.377881"><time>2021-07-26T14:57:44.000Z</time><ele>541.4</ele></trkpt><trkpt lat="63.769114" lon="-19.377865"><time>2021-07-26T14:57:46.000Z</time><ele>541.2</ele></trkpt><trkpt lat="63.769074" lon="-19.377861"><time>2021-07-26T14:57:50.000Z</time><ele>540.6</ele></trkpt><trkpt lat="63.769062" lon="-19.377853"><time>2021-07-26T14:57:52.000Z</time><ele>539.8</ele></trkpt><trkpt lat="63.769045" lon="-19.377842"><time>2021-07-26T14:57:54.000Z</time><ele>539.4</ele></trkpt><trkpt lat="63.769025" lon="-19.377838"><time>2021-07-26T14:57:56.000Z</time><ele>539.2</ele></trkpt><trkpt lat="63.768999" lon="-19.377822"><time>2021-07-26T14:57:59.000Z</time><ele>538.8</ele></trkpt><trkpt lat="63.76897" lon="-19.377802"><time>2021-07-26T14:58:03.000Z</time><ele>538.4</ele></trkpt><trkpt lat="63.768938" lon="-19.377793"><time>2021-07-26T14:58:06.000Z</time><ele>538.2</ele></trkpt><trkpt lat="63.768893" lon="-19.377773"><time>2021-07-26T14:58:11.000Z</time><ele>537.6</ele></trkpt><trkpt lat="63.768862" lon="-19.377764"><time>2021-07-26T14:58:14.000Z</time><ele>536.6</ele></trkpt><trkpt lat="63.768856" lon="-19.377756"><time>2021-07-26T14:58:15.000Z</time><ele>536.4</ele></trkpt><trkpt lat="63.768804" lon="-19.37772"><time>2021-07-26T14:58:22.000Z</time><ele>535.6</ele></trkpt><trkpt lat="63.768789" lon="-19.377711"><time>2021-07-26T14:58:24.000Z</time><ele>535.4</ele></trkpt><trkpt lat="63.768726" lon="-19.37768"><time>2021-07-26T14:58:31.000Z</time><ele>534</ele></trkpt><trkpt lat="63.768703" lon="-19.377668"><time>2021-07-26T14:58:35.000Z</time><ele>533</ele></trkpt><trkpt lat="63.768679" lon="-19.377642"><time>2021-07-26T14:58:39.000Z</time><ele>532.4</ele></trkpt><trkpt lat="63.768674" lon="-19.377619"><time>2021-07-26T14:58:45.000Z</time><ele>532.8</ele></trkpt><trkpt lat="63.768662" lon="-19.377618"><time>2021-07-26T14:59:02.000Z</time><ele>532.6</ele></trkpt><trkpt lat="63.768619" lon="-19.377611"><time>2021-07-26T14:59:08.000Z</time><ele>531.8</ele></trkpt><trkpt lat="63.76854" lon="-19.377578"><time>2021-07-26T14:59:16.000Z</time><ele>530.8</ele></trkpt><trkpt lat="63.768515" lon="-19.377559"><time>2021-07-26T14:59:20.000Z</time><ele>530.2</ele></trkpt><trkpt lat="63.768497" lon="-19.377583"><time>2021-07-26T14:59:23.000Z</time><ele>529.8</ele></trkpt><trkpt lat="63.768472" lon="-19.377622"><time>2021-07-26T14:59:27.000Z</time><ele>529</ele></trkpt><trkpt lat="63.768463" lon="-19.377631"><time>2021-07-26T14:59:28.000Z</time><ele>529</ele></trkpt><trkpt lat="63.768447" lon="-19.377642"><time>2021-07-26T14:59:30.000Z</time><ele>528.8</ele></trkpt><trkpt lat="63.7684" lon="-19.377691"><time>2021-07-26T14:59:35.000Z</time><ele>527.8</ele></trkpt><trkpt lat="63.768371" lon="-19.377734"><time>2021-07-26T14:59:39.000Z</time><ele>527.4</ele></trkpt><trkpt lat="63.768348" lon="-19.377746"><time>2021-07-26T14:59:41.000Z</time><ele>526.8</ele></trkpt><trkpt lat="63.76834" lon="-19.377729"><time>2021-07-26T14:59:43.000Z</time><ele>526.6</ele></trkpt><trkpt lat="63.768329" lon="-19.377712"><time>2021-07-26T14:59:45.000Z</time><ele>526.4</ele></trkpt><trkpt lat="63.768298" lon="-19.377713"><time>2021-07-26T14:59:50.000Z</time><ele>525.8</ele></trkpt><trkpt lat="63.768295" lon="-19.377709"><time>2021-07-26T14:59:51.000Z</time><ele>525.8</ele></trkpt><trkpt lat="63.768283" lon="-19.377695"><time>2021-07-26T14:59:54.000Z</time><ele>525.2</ele></trkpt><trkpt lat="63.768256" lon="-19.37765"><time>2021-07-26T14:59:59.000Z</time><ele>524</ele></trkpt><trkpt lat="63.768253" lon="-19.377647"><time>2021-07-26T15:00:02.000Z</time><ele>523.6</ele></trkpt><trkpt lat="63.768239" lon="-19.377653"><time>2021-07-26T15:00:04.000Z</time><ele>523.2</ele></trkpt><trkpt lat="63.768233" lon="-19.377659"><time>2021-07-26T15:00:05.000Z</time><ele>523</ele></trkpt><trkpt lat="63.768181" lon="-19.377714"><time>2021-07-26T15:00:12.000Z</time><ele>522.2</ele></trkpt><trkpt lat="63.768173" lon="-19.377712"><time>2021-07-26T15:00:13.000Z</time><ele>522</ele></trkpt><trkpt lat="63.768122" lon="-19.37771"><time>2021-07-26T15:00:19.000Z</time><ele>520.8</ele></trkpt><trkpt lat="63.768098" lon="-19.377714"><time>2021-07-26T15:00:22.000Z</time><ele>520.2</ele></trkpt><trkpt lat="63.768071" lon="-19.377717"><time>2021-07-26T15:00:25.000Z</time><ele>519.8</ele></trkpt><trkpt lat="63.768026" lon="-19.377728"><time>2021-07-26T15:00:31.000Z</time><ele>519</ele></trkpt><trkpt lat="63.768014" lon="-19.377722"><time>2021-07-26T15:00:33.000Z</time><ele>518.2</ele></trkpt><trkpt lat="63.767969" lon="-19.377695"><time>2021-07-26T15:00:39.000Z</time><ele>517.4</ele></trkpt><trkpt lat="63.767959" lon="-19.377702"><time>2021-07-26T15:00:40.000Z</time><ele>517.2</ele></trkpt><trkpt lat="63.767926" lon="-19.377706"><time>2021-07-26T15:00:44.000Z</time><ele>516.6</ele></trkpt><trkpt lat="63.7679" lon="-19.377725"><time>2021-07-26T15:00:47.000Z</time><ele>516.2</ele></trkpt><trkpt lat="63.767877" lon="-19.377724"><time>2021-07-26T15:00:49.000Z</time><ele>516</ele></trkpt><trkpt lat="63.767831" lon="-19.377702"><time>2021-07-26T15:00:54.000Z</time><ele>514.8</ele></trkpt><trkpt lat="63.767763" lon="-19.377668"><time>2021-07-26T15:01:01.000Z</time><ele>513.8</ele></trkpt><trkpt lat="63.767752" lon="-19.377665"><time>2021-07-26T15:01:02.000Z</time><ele>513.6</ele></trkpt><trkpt lat="63.767705" lon="-19.377616"><time>2021-07-26T15:01:09.000Z</time><ele>512.6</ele></trkpt><trkpt lat="63.767692" lon="-19.377617"><time>2021-07-26T15:01:10.000Z</time><ele>512</ele></trkpt><trkpt lat="63.767608" lon="-19.377629"><time>2021-07-26T15:01:17.000Z</time><ele>511.2</ele></trkpt><trkpt lat="63.767597" lon="-19.377628"><time>2021-07-26T15:01:18.000Z</time><ele>511</ele></trkpt><trkpt lat="63.767587" lon="-19.377621"><time>2021-07-26T15:01:19.000Z</time><ele>510.6</ele></trkpt><trkpt lat="63.767541" lon="-19.37757"><time>2021-07-26T15:01:24.000Z</time><ele>510.4</ele></trkpt><trkpt lat="63.767523" lon="-19.37757"><time>2021-07-26T15:01:26.000Z</time><ele>510</ele></trkpt><trkpt lat="63.767514" lon="-19.37757"><time>2021-07-26T15:01:27.000Z</time><ele>509.8</ele></trkpt><trkpt lat="63.767458" lon="-19.377534"><time>2021-07-26T15:01:35.000Z</time><ele>508.8</ele></trkpt><trkpt lat="63.767419" lon="-19.377484"><time>2021-07-26T15:01:40.000Z</time><ele>507.8</ele></trkpt><trkpt lat="63.767383" lon="-19.377454"><time>2021-07-26T15:01:44.000Z</time><ele>507.4</ele></trkpt><trkpt lat="63.767357" lon="-19.377424"><time>2021-07-26T15:01:47.000Z</time><ele>506.6</ele></trkpt><trkpt lat="63.767339" lon="-19.377406"><time>2021-07-26T15:01:49.000Z</time><ele>506.4</ele></trkpt><trkpt lat="63.767311" lon="-19.377363"><time>2021-07-26T15:01:53.000Z</time><ele>505.6</ele></trkpt><trkpt lat="63.767306" lon="-19.377345"><time>2021-07-26T15:01:54.000Z</time><ele>505.4</ele></trkpt><trkpt lat="63.767266" lon="-19.377277"><time>2021-07-26T15:02:00.000Z</time><ele>504.4</ele></trkpt><trkpt lat="63.767258" lon="-19.377267"><time>2021-07-26T15:02:01.000Z</time><ele>504.2</ele></trkpt><trkpt lat="63.76723" lon="-19.377198"><time>2021-07-26T15:02:06.000Z</time><ele>503.4</ele></trkpt><trkpt lat="63.767221" lon="-19.377147"><time>2021-07-26T15:02:09.000Z</time><ele>503</ele></trkpt><trkpt lat="63.767217" lon="-19.377127"><time>2021-07-26T15:02:10.000Z</time><ele>502.6</ele></trkpt><trkpt lat="63.767212" lon="-19.377102"><time>2021-07-26T15:02:11.000Z</time><ele>502.4</ele></trkpt><trkpt lat="63.767197" lon="-19.376982"><time>2021-07-26T15:02:16.000Z</time><ele>501.8</ele></trkpt><trkpt lat="63.76719" lon="-19.376933"><time>2021-07-26T15:02:18.000Z</time><ele>501.6</ele></trkpt><trkpt lat="63.767182" lon="-19.376912"><time>2021-07-26T15:02:19.000Z</time><ele>501.6</ele></trkpt><trkpt lat="63.767175" lon="-19.376871"><time>2021-07-26T15:02:21.000Z</time><ele>501.2</ele></trkpt><trkpt lat="63.767164" lon="-19.376812"><time>2021-07-26T15:02:24.000Z</time><ele>500.8</ele></trkpt><trkpt lat="63.767135" lon="-19.376723"><time>2021-07-26T15:02:30.000Z</time><ele>500.2</ele></trkpt><trkpt lat="63.767126" lon="-19.376706"><time>2021-07-26T15:02:31.000Z</time><ele>500</ele></trkpt><trkpt lat="63.767104" lon="-19.376643"><time>2021-07-26T15:02:35.000Z</time><ele>499</ele></trkpt><trkpt lat="63.767103" lon="-19.376616"><time>2021-07-26T15:02:36.000Z</time><ele>498.8</ele></trkpt><trkpt lat="63.767076" lon="-19.376492"><time>2021-07-26T15:02:43.000Z</time><ele>498</ele></trkpt><trkpt lat="63.767071" lon="-19.376473"><time>2021-07-26T15:02:44.000Z</time><ele>498</ele></trkpt><trkpt lat="63.767042" lon="-19.37638"><time>2021-07-26T15:02:49.000Z</time><ele>497</ele></trkpt><trkpt lat="63.767032" lon="-19.376334"><time>2021-07-26T15:02:52.000Z</time><ele>496.2</ele></trkpt><trkpt lat="63.767026" lon="-19.376317"><time>2021-07-26T15:02:53.000Z</time><ele>496</ele></trkpt><trkpt lat="63.76702" lon="-19.376301"><time>2021-07-26T15:02:54.000Z</time><ele>495.6</ele></trkpt><trkpt lat="63.767004" lon="-19.376263"><time>2021-07-26T15:02:57.000Z</time><ele>495.6</ele></trkpt><trkpt lat="63.767002" lon="-19.376258"><time>2021-07-26T15:02:59.000Z</time><ele>495.6</ele></trkpt><trkpt lat="63.767003" lon="-19.37626"><time>2021-07-26T15:03:04.000Z</time><ele>495.8</ele></trkpt><trkpt lat="63.766963" lon="-19.376187"><time>2021-07-26T15:03:13.000Z</time><ele>495.4</ele></trkpt><trkpt lat="63.766942" lon="-19.376123"><time>2021-07-26T15:03:17.000Z</time><ele>494.6</ele></trkpt><trkpt lat="63.76693" lon="-19.376088"><time>2021-07-26T15:03:19.000Z</time><ele>494.4</ele></trkpt><trkpt lat="63.766924" lon="-19.376076"><time>2021-07-26T15:03:20.000Z</time><ele>494.2</ele></trkpt><trkpt lat="63.766897" lon="-19.375981"><time>2021-07-26T15:03:26.000Z</time><ele>493.4</ele></trkpt><trkpt lat="63.76687" lon="-19.375885"><time>2021-07-26T15:03:31.000Z</time><ele>492.8</ele></trkpt><trkpt lat="63.766849" lon="-19.375816"><time>2021-07-26T15:03:35.000Z</time><ele>492.2</ele></trkpt><trkpt lat="63.766825" lon="-19.375745"><time>2021-07-26T15:03:39.000Z</time><ele>491.2</ele></trkpt><trkpt lat="63.766799" lon="-19.375674"><time>2021-07-26T15:03:43.000Z</time><ele>490.8</ele></trkpt><trkpt lat="63.766763" lon="-19.375624"><time>2021-07-26T15:03:46.000Z</time><ele>490.2</ele></trkpt><trkpt lat="63.766724" lon="-19.375475"><time>2021-07-26T15:03:53.000Z</time><ele>489.6</ele></trkpt><trkpt lat="63.766718" lon="-19.375454"><time>2021-07-26T15:03:54.000Z</time><ele>489.6</ele></trkpt><trkpt lat="63.76668" lon="-19.375383"><time>2021-07-26T15:03:58.000Z</time><ele>489.4</ele></trkpt><trkpt lat="63.766674" lon="-19.375358"><time>2021-07-26T15:03:59.000Z</time><ele>489.4</ele></trkpt><trkpt lat="63.766656" lon="-19.375296"><time>2021-07-26T15:04:02.000Z</time><ele>489.2</ele></trkpt><trkpt lat="63.766624" lon="-19.375192"><time>2021-07-26T15:04:08.000Z</time><ele>488.4</ele></trkpt><trkpt lat="63.766616" lon="-19.375175"><time>2021-07-26T15:04:09.000Z</time><ele>488.4</ele></trkpt><trkpt lat="63.766604" lon="-19.375142"><time>2021-07-26T15:04:11.000Z</time><ele>488</ele></trkpt><trkpt lat="63.766589" lon="-19.375072"><time>2021-07-26T15:04:16.000Z</time><ele>487.2</ele></trkpt><trkpt lat="63.766585" lon="-19.375062"><time>2021-07-26T15:04:17.000Z</time><ele>487.2</ele></trkpt><trkpt lat="63.766575" lon="-19.37505"><time>2021-07-26T15:04:18.000Z</time><ele>487</ele></trkpt><trkpt lat="63.76656" lon="-19.375016"><time>2021-07-26T15:04:21.000Z</time><ele>486.4</ele></trkpt><trkpt lat="63.766546" lon="-19.37498"><time>2021-07-26T15:04:24.000Z</time><ele>486</ele></trkpt><trkpt lat="63.766531" lon="-19.374914"><time>2021-07-26T15:04:30.000Z</time><ele>485.2</ele></trkpt><trkpt lat="63.766524" lon="-19.374903"><time>2021-07-26T15:04:31.000Z</time><ele>485</ele></trkpt><trkpt lat="63.766519" lon="-19.374896"><time>2021-07-26T15:04:32.000Z</time><ele>484.8</ele></trkpt><trkpt lat="63.76651" lon="-19.374857"><time>2021-07-26T15:04:36.000Z</time><ele>484</ele></trkpt><trkpt lat="63.766507" lon="-19.374845"><time>2021-07-26T15:04:39.000Z</time><ele>483.6</ele></trkpt><trkpt lat="63.766505" lon="-19.374826"><time>2021-07-26T15:04:41.000Z</time><ele>483.2</ele></trkpt><trkpt lat="63.766499" lon="-19.374789"><time>2021-07-26T15:04:44.000Z</time><ele>482.6</ele></trkpt><trkpt lat="63.766482" lon="-19.374716"><time>2021-07-26T15:04:50.000Z</time><ele>481.6</ele></trkpt><trkpt lat="63.766452" lon="-19.374624"><time>2021-07-26T15:04:57.000Z</time><ele>480.4</ele></trkpt><trkpt lat="63.766439" lon="-19.374598"><time>2021-07-26T15:04:59.000Z</time><ele>480</ele></trkpt><trkpt lat="63.766421" lon="-19.374542"><time>2021-07-26T15:05:03.000Z</time><ele>479.2</ele></trkpt><trkpt lat="63.766403" lon="-19.374459"><time>2021-07-26T15:05:09.000Z</time><ele>478.4</ele></trkpt><trkpt lat="63.76639" lon="-19.37443"><time>2021-07-26T15:05:11.000Z</time><ele>478.2</ele></trkpt><trkpt lat="63.766384" lon="-19.374417"><time>2021-07-26T15:05:12.000Z</time><ele>478</ele></trkpt><trkpt lat="63.766372" lon="-19.374369"><time>2021-07-26T15:05:15.000Z</time><ele>477.6</ele></trkpt><trkpt lat="63.766356" lon="-19.374311"><time>2021-07-26T15:05:19.000Z</time><ele>477</ele></trkpt><trkpt lat="63.76634" lon="-19.37425"><time>2021-07-26T15:05:23.000Z</time><ele>476.4</ele></trkpt><trkpt lat="63.766333" lon="-19.374225"><time>2021-07-26T15:05:25.000Z</time><ele>476.2</ele></trkpt><trkpt lat="63.766316" lon="-19.374192"><time>2021-07-26T15:05:27.000Z</time><ele>476</ele></trkpt><trkpt lat="63.766309" lon="-19.374166"><time>2021-07-26T15:05:28.000Z</time><ele>475.8</ele></trkpt><trkpt lat="63.766277" lon="-19.374024"><time>2021-07-26T15:05:34.000Z</time><ele>474.6</ele></trkpt><trkpt lat="63.766249" lon="-19.37394"><time>2021-07-26T15:05:41.000Z</time><ele>474.2</ele></trkpt><trkpt lat="63.76625" lon="-19.373945"><time>2021-07-26T15:05:43.000Z</time><ele>474.2</ele></trkpt><trkpt lat="63.766256" lon="-19.373959"><time>2021-07-26T15:05:49.000Z</time><ele>474.2</ele></trkpt><trkpt lat="63.766256" lon="-19.373959"><time>2021-07-26T15:05:58.000Z</time><ele>473.6</ele></trkpt><trkpt lat="63.76625" lon="-19.373941"><time>2021-07-26T15:06:08.000Z</time><ele>472.6</ele></trkpt><trkpt lat="63.766242" lon="-19.373924"><time>2021-07-26T15:06:12.000Z</time><ele>472.2</ele></trkpt><trkpt lat="63.766208" lon="-19.373771"><time>2021-07-26T15:06:24.000Z</time><ele>471.8</ele></trkpt><trkpt lat="63.766192" lon="-19.373732"><time>2021-07-26T15:06:52.000Z</time><ele>472.2</ele></trkpt><trkpt lat="63.76619" lon="-19.373735"><time>2021-07-26T15:06:55.000Z</time><ele>472.2</ele></trkpt><trkpt lat="63.76619" lon="-19.373735"><time>2021-07-26T15:07:00.000Z</time><ele>472.2</ele></trkpt><trkpt lat="63.766187" lon="-19.373724"><time>2021-07-26T15:07:14.000Z</time><ele>472.6</ele></trkpt><trkpt lat="63.766189" lon="-19.373722"><time>2021-07-26T15:07:17.000Z</time><ele>472.6</ele></trkpt><trkpt lat="63.76619" lon="-19.373719"><time>2021-07-26T15:07:22.000Z</time><ele>472.6</ele></trkpt><trkpt lat="63.76619" lon="-19.373703"><time>2021-07-26T15:07:38.000Z</time><ele>472.2</ele></trkpt><trkpt lat="63.76619" lon="-19.373709"><time>2021-07-26T15:07:44.000Z</time><ele>472.2</ele></trkpt><trkpt lat="63.76619" lon="-19.373713"><time>2021-07-26T15:07:46.000Z</time><ele>472.2</ele></trkpt><trkpt lat="63.766183" lon="-19.37374"><time>2021-07-26T15:08:05.000Z</time><ele>472</ele></trkpt><trkpt lat="63.766181" lon="-19.373754"><time>2021-07-26T15:08:11.000Z</time><ele>472</ele></trkpt><trkpt lat="63.766181" lon="-19.373757"><time>2021-07-26T15:08:13.000Z</time><ele>472</ele></trkpt><trkpt lat="63.766181" lon="-19.373767"><time>2021-07-26T15:08:15.000Z</time><ele>472</ele></trkpt><trkpt lat="63.766154" lon="-19.373829"><time>2021-07-26T15:08:34.000Z</time><ele>472</ele></trkpt><trkpt lat="63.766143" lon="-19.373831"><time>2021-07-26T15:08:35.000Z</time><ele>472</ele></trkpt><trkpt lat="63.766076" lon="-19.373795"><time>2021-07-26T15:08:43.000Z</time><ele>472</ele></trkpt><trkpt lat="63.766061" lon="-19.37379"><time>2021-07-26T15:08:45.000Z</time><ele>472</ele></trkpt><trkpt lat="63.766005" lon="-19.373798"><time>2021-07-26T15:08:54.000Z</time><ele>472</ele></trkpt><trkpt lat="63.765938" lon="-19.373769"><time>2021-07-26T15:09:03.000Z</time><ele>472</ele></trkpt><trkpt lat="63.765928" lon="-19.373761"><time>2021-07-26T15:09:04.000Z</time><ele>472</ele></trkpt><trkpt lat="63.7659" lon="-19.373721"><time>2021-07-26T15:09:08.000Z</time><ele>471</ele></trkpt><trkpt lat="63.765899" lon="-19.373671"><time>2021-07-26T15:09:11.000Z</time><ele>469.8</ele></trkpt><trkpt lat="63.7659" lon="-19.37366"><time>2021-07-26T15:09:12.000Z</time><ele>469.8</ele></trkpt><trkpt lat="63.765899" lon="-19.373652"><time>2021-07-26T15:09:13.000Z</time><ele>469.8</ele></trkpt><trkpt lat="63.765902" lon="-19.373645"><time>2021-07-26T15:09:16.000Z</time><ele>470</ele></trkpt><trkpt lat="63.7659" lon="-19.373656"><time>2021-07-26T15:09:17.000Z</time><ele>470</ele></trkpt><trkpt lat="63.765925" lon="-19.373742"><time>2021-07-26T15:09:26.000Z</time><ele>469.6</ele></trkpt><trkpt lat="63.765923" lon="-19.373755"><time>2021-07-26T15:09:27.000Z</time><ele>469.6</ele></trkpt><trkpt lat="63.765895" lon="-19.373793"><time>2021-07-26T15:09:35.000Z</time><ele>469.6</ele></trkpt><trkpt lat="63.765904" lon="-19.373755"><time>2021-07-26T15:09:42.000Z</time><ele>469.6</ele></trkpt><trkpt lat="63.765905" lon="-19.373749"><time>2021-07-26T15:09:43.000Z</time><ele>469.6</ele></trkpt><trkpt lat="63.765922" lon="-19.373702"><time>2021-07-26T15:09:49.000Z</time><ele>469.6</ele></trkpt><trkpt lat="63.765925" lon="-19.373728"><time>2021-07-26T15:09:56.000Z</time><ele>469.6</ele></trkpt><trkpt lat="63.765919" lon="-19.373735"><time>2021-07-26T15:09:59.000Z</time><ele>469.6</ele></trkpt><trkpt lat="63.765914" lon="-19.373727"><time>2021-07-26T15:10:00.000Z</time><ele>469.6</ele></trkpt><trkpt lat="63.765908" lon="-19.373713"><time>2021-07-26T15:10:07.000Z</time><ele>469.6</ele></trkpt><trkpt lat="63.765908" lon="-19.373715"><time>2021-07-26T15:10:17.000Z</time><ele>469.2</ele></trkpt><trkpt lat="63.765907" lon="-19.373727"><time>2021-07-26T15:10:23.000Z</time><ele>469</ele></trkpt><trkpt lat="63.765899" lon="-19.373734"><time>2021-07-26T15:10:29.000Z</time><ele>469</ele></trkpt><trkpt lat="63.765893" lon="-19.373759"><time>2021-07-26T15:10:34.000Z</time><ele>468.8</ele></trkpt><trkpt lat="63.765922" lon="-19.373703"><time>2021-07-26T15:11:14.000Z</time><ele>468.4</ele></trkpt><trkpt lat="63.765924" lon="-19.373708"><time>2021-07-26T15:11:17.000Z</time><ele>468.2</ele></trkpt><trkpt lat="63.765922" lon="-19.373698"><time>2021-07-26T15:11:26.000Z</time><ele>468.2</ele></trkpt><trkpt lat="63.765913" lon="-19.373752"><time>2021-07-26T15:11:30.000Z</time><ele>468.2</ele></trkpt><trkpt lat="63.765913" lon="-19.373752"><time>2021-07-26T15:11:34.000Z</time><ele>468</ele></trkpt><trkpt lat="63.765912" lon="-19.373752"><time>2021-07-26T15:11:38.000Z</time><ele>467.8</ele></trkpt><trkpt lat="63.7659" lon="-19.373778"><time>2021-07-26T15:11:46.000Z</time><ele>468</ele></trkpt><trkpt lat="63.765897" lon="-19.37378"><time>2021-07-26T15:11:51.000Z</time><ele>468.2</ele></trkpt><trkpt lat="63.765897" lon="-19.37378"><time>2021-07-26T15:11:54.000Z</time><ele>467.6</ele></trkpt><trkpt lat="63.765897" lon="-19.37378"><time>2021-07-26T15:11:57.000Z</time><ele>467.6</ele></trkpt><trkpt lat="63.765899" lon="-19.373778"><time>2021-07-26T15:12:06.000Z</time><ele>467.4</ele></trkpt><trkpt lat="63.7659" lon="-19.373774"><time>2021-07-26T15:12:16.000Z</time><ele>467.4</ele></trkpt><trkpt lat="63.765923" lon="-19.373711"><time>2021-07-26T15:12:55.000Z</time><ele>468.2</ele></trkpt><trkpt lat="63.765925" lon="-19.37373"><time>2021-07-26T15:13:12.000Z</time><ele>468.2</ele></trkpt><trkpt lat="63.765925" lon="-19.373733"><time>2021-07-26T15:13:15.000Z</time><ele>468.2</ele></trkpt><trkpt lat="63.765906" lon="-19.373722"><time>2021-07-26T15:13:54.000Z</time><ele>468.2</ele></trkpt><trkpt lat="63.765889" lon="-19.373723"><time>2021-07-26T15:14:01.000Z</time><ele>468.2</ele></trkpt><trkpt lat="63.765923" lon="-19.373745"><time>2021-07-26T15:14:07.000Z</time><ele>468.2</ele></trkpt><trkpt lat="63.765977" lon="-19.373788"><time>2021-07-26T15:14:13.000Z</time><ele>468.2</ele></trkpt><trkpt lat="63.765958" lon="-19.373826"><time>2021-07-26T15:14:19.000Z</time><ele>468.2</ele></trkpt><trkpt lat="63.765984" lon="-19.373809"><time>2021-07-26T15:14:25.000Z</time><ele>468.2</ele></trkpt><trkpt lat="63.766017" lon="-19.373849"><time>2021-07-26T15:14:33.000Z</time><ele>468.2</ele></trkpt><trkpt lat="63.766053" lon="-19.373873"><time>2021-07-26T15:14:41.000Z</time><ele>468.2</ele></trkpt><trkpt lat="63.766041" lon="-19.373861"><time>2021-07-26T15:14:45.000Z</time><ele>468.2</ele></trkpt></trkseg></trk></gpx>